<?xml version="1.0" encoding="UTF-8" standalone="no" ?>
<gpx xmlns="http://www.topografix.com/GPX/1/1" xmlns:xsi="http://www.w3.org/2001/XMLSchema-instance" xsi:schemaLocation="http://www.topografix.com/GPX/1/1 http://www.topografix.com/GPX/1/1/gpx.xsd" version="1.1" creator="VisuGPX - https://www.visugpx.com">
  <metadata>
    <name>Circuit Saint Sauveur Lendelin (Manche)</name>
    <desc><![CDATA[Circuit au départ de Saint Sauveur Lendelin en passant par Monthuchon]]></desc>
  </metadata>
  <trk>
    <name><![CDATA[Circuit Saint Sauveur Lendelin (Manche)_1]]></name>
    <trkseg>
      <trkpt lat="49.13003" lon="-1.41415">
        <ele>75.5</ele>
        <time>2015-06-05T09:10:41Z</time>
      </trkpt>
      <trkpt lat="49.13003" lon="-1.41416">
        <ele>75.5</ele>
        <time>2015-06-05T09:10:46Z</time>
      </trkpt>
      <trkpt lat="49.13003" lon="-1.41416">
        <ele>75.5</ele>
        <time>2015-06-05T09:10:51Z</time>
      </trkpt>
      <trkpt lat="49.13002" lon="-1.41419">
        <ele>75.5</ele>
        <time>2015-06-05T09:10:56Z</time>
      </trkpt>
      <trkpt lat="49.13001" lon="-1.41422">
        <ele>75.5</ele>
        <time>2015-06-05T09:11:01Z</time>
      </trkpt>
      <trkpt lat="49.13001" lon="-1.41422">
        <ele>75.5</ele>
        <time>2015-06-05T09:11:06Z</time>
      </trkpt>
      <trkpt lat="49.13001" lon="-1.41422">
        <ele>75.5</ele>
        <time>2015-06-05T09:11:16Z</time>
      </trkpt>
      <trkpt lat="49.13002" lon="-1.41412">
        <ele>80.21108</ele>
        <time>2015-06-05T09:11:21Z</time>
      </trkpt>
      <trkpt lat="49.13002" lon="-1.41409">
        <ele>80.21108</ele>
        <time>2015-06-05T09:11:26Z</time>
      </trkpt>
      <trkpt lat="49.13002" lon="-1.41409">
        <ele>80.21108</ele>
        <time>2015-06-05T09:11:31Z</time>
      </trkpt>
      <trkpt lat="49.13003" lon="-1.41409">
        <ele>80.21108</ele>
        <time>2015-06-05T09:12:06Z</time>
      </trkpt>
      <trkpt lat="49.13003" lon="-1.41409">
        <ele>80.21108</ele>
        <time>2015-06-05T09:12:11Z</time>
      </trkpt>
      <trkpt lat="49.13003" lon="-1.41408">
        <ele>80.21108</ele>
        <time>2015-06-05T09:12:26Z</time>
      </trkpt>
      <trkpt lat="49.13003" lon="-1.41408">
        <ele>80.21108</ele>
        <time>2015-06-05T09:12:31Z</time>
      </trkpt>
      <trkpt lat="49.13002" lon="-1.41409">
        <ele>80.21108</ele>
        <time>2015-06-05T09:12:56Z</time>
      </trkpt>
      <trkpt lat="49.13002" lon="-1.41409">
        <ele>80.21108</ele>
        <time>2015-06-05T09:13:01Z</time>
      </trkpt>
      <trkpt lat="49.13" lon="-1.41412">
        <ele>80.21108</ele>
        <time>2015-06-05T09:15:41Z</time>
      </trkpt>
      <trkpt lat="49.13" lon="-1.41413">
        <ele>80.21108</ele>
        <time>2015-06-05T09:15:46Z</time>
      </trkpt>
      <trkpt lat="49.13" lon="-1.4142">
        <ele>84.85465</ele>
        <time>2015-06-05T09:15:51Z</time>
      </trkpt>
      <trkpt lat="49.13" lon="-1.41423">
        <ele>84.85465</ele>
        <time>2015-06-05T09:15:56Z</time>
      </trkpt>
      <trkpt lat="49.13" lon="-1.4142">
        <ele>84.85465</ele>
        <time>2015-06-05T09:16:01Z</time>
      </trkpt>
      <trkpt lat="49.13001" lon="-1.41414">
        <ele>84.85465</ele>
        <time>2015-06-05T09:16:06Z</time>
      </trkpt>
      <trkpt lat="49.13001" lon="-1.41414">
        <ele>84.85465</ele>
        <time>2015-06-05T09:16:11Z</time>
      </trkpt>
      <trkpt lat="49.13" lon="-1.41408">
        <ele>86.402534</ele>
        <time>2015-06-05T09:16:51Z</time>
      </trkpt>
      <trkpt lat="49.13" lon="-1.41405">
        <ele>86.402534</ele>
        <time>2015-06-05T09:16:56Z</time>
      </trkpt>
      <trkpt lat="49.13001" lon="-1.414">
        <ele>86.402534</ele>
        <time>2015-06-05T09:17:01Z</time>
      </trkpt>
      <trkpt lat="49.13001" lon="-1.414">
        <ele>86.402534</ele>
        <time>2015-06-05T09:17:06Z</time>
      </trkpt>
      <trkpt lat="49.13003" lon="-1.41398">
        <ele>86.402534</ele>
        <time>2015-06-05T09:17:36Z</time>
      </trkpt>
      <trkpt lat="49.13004" lon="-1.41398">
        <ele>86.402534</ele>
        <time>2015-06-05T09:17:41Z</time>
      </trkpt>
      <trkpt lat="49.13003" lon="-1.41399">
        <ele>87.15746</ele>
        <time>2015-06-05T09:17:46Z</time>
      </trkpt>
      <trkpt lat="49.13003" lon="-1.41399">
        <ele>87.15746</ele>
        <time>2015-06-05T09:17:51Z</time>
      </trkpt>
      <trkpt lat="49.13003" lon="-1.41397">
        <ele>87.15746</ele>
        <time>2015-06-05T09:18:01Z</time>
      </trkpt>
      <trkpt lat="49.13003" lon="-1.41397">
        <ele>87.15746</ele>
        <time>2015-06-05T09:18:06Z</time>
      </trkpt>
      <trkpt lat="49.13003" lon="-1.41393">
        <ele>87.15746</ele>
        <time>2015-06-05T09:18:21Z</time>
      </trkpt>
      <trkpt lat="49.13003" lon="-1.41392">
        <ele>87.15746</ele>
        <time>2015-06-05T09:18:26Z</time>
      </trkpt>
      <trkpt lat="49.13003" lon="-1.41392">
        <ele>87.15746</ele>
        <time>2015-06-05T09:18:31Z</time>
      </trkpt>
      <trkpt lat="49.13012" lon="-1.41388">
        <ele>87.243515</ele>
        <time>2015-06-05T09:19:01Z</time>
      </trkpt>
      <trkpt lat="49.13022" lon="-1.41387">
        <ele>87.26219</ele>
        <time>2015-06-05T09:19:06Z</time>
      </trkpt>
      <trkpt lat="49.13027" lon="-1.41391">
        <ele>87.26219</ele>
        <time>2015-06-05T09:19:11Z</time>
      </trkpt>
      <trkpt lat="49.13029" lon="-1.41395">
        <ele>86.9301</ele>
        <time>2015-06-05T09:19:16Z</time>
      </trkpt>
      <trkpt lat="49.13027" lon="-1.41401">
        <ele>86.9301</ele>
        <time>2015-06-05T09:19:21Z</time>
      </trkpt>
      <trkpt lat="49.13026" lon="-1.41401">
        <ele>86.9301</ele>
        <time>2015-06-05T09:19:26Z</time>
      </trkpt>
      <trkpt lat="49.13026" lon="-1.41401">
        <ele>86.9301</ele>
        <time>2015-06-05T09:19:31Z</time>
      </trkpt>
      <trkpt lat="49.13029" lon="-1.4139">
        <ele>86.046326</ele>
        <time>2015-06-05T09:19:46Z</time>
      </trkpt>
      <trkpt lat="49.13035" lon="-1.41382">
        <ele>86.046326</ele>
        <time>2015-06-05T09:19:51Z</time>
      </trkpt>
      <trkpt lat="49.13037" lon="-1.41372">
        <ele>85.11225</ele>
        <time>2015-06-05T09:19:56Z</time>
      </trkpt>
      <trkpt lat="49.13038" lon="-1.41362">
        <ele>85.11225</ele>
        <time>2015-06-05T09:20:01Z</time>
      </trkpt>
      <trkpt lat="49.13039" lon="-1.41351">
        <ele>84.27627</ele>
        <time>2015-06-05T09:20:06Z</time>
      </trkpt>
      <trkpt lat="49.13039" lon="-1.41343">
        <ele>84.27627</ele>
        <time>2015-06-05T09:20:11Z</time>
      </trkpt>
      <trkpt lat="49.13041" lon="-1.41331">
        <ele>83.32264</ele>
        <time>2015-06-05T09:20:16Z</time>
      </trkpt>
      <trkpt lat="49.13042" lon="-1.41324">
        <ele>83.32264</ele>
        <time>2015-06-05T09:20:21Z</time>
      </trkpt>
      <trkpt lat="49.13042" lon="-1.41315">
        <ele>82.31499</ele>
        <time>2015-06-05T09:20:26Z</time>
      </trkpt>
      <trkpt lat="49.13044" lon="-1.41308">
        <ele>82.31499</ele>
        <time>2015-06-05T09:20:31Z</time>
      </trkpt>
      <trkpt lat="49.13044" lon="-1.41299">
        <ele>81.28385</ele>
        <time>2015-06-05T09:20:36Z</time>
      </trkpt>
      <trkpt lat="49.13046" lon="-1.41289">
        <ele>81.28385</ele>
        <time>2015-06-05T09:20:41Z</time>
      </trkpt>
      <trkpt lat="49.13046" lon="-1.41279">
        <ele>80.259346</ele>
        <time>2015-06-05T09:20:46Z</time>
      </trkpt>
      <trkpt lat="49.13046" lon="-1.41269">
        <ele>80.259346</ele>
        <time>2015-06-05T09:20:51Z</time>
      </trkpt>
      <trkpt lat="49.1305" lon="-1.41258">
        <ele>79.235374</ele>
        <time>2015-06-05T09:20:56Z</time>
      </trkpt>
      <trkpt lat="49.13052" lon="-1.41248">
        <ele>79.235374</ele>
        <time>2015-06-05T09:21:01Z</time>
      </trkpt>
      <trkpt lat="49.13054" lon="-1.41241">
        <ele>78.30409</ele>
        <time>2015-06-05T09:21:06Z</time>
      </trkpt>
      <trkpt lat="49.13058" lon="-1.41237">
        <ele>78.30409</ele>
        <time>2015-06-05T09:21:11Z</time>
      </trkpt>
      <trkpt lat="49.13059" lon="-1.41226">
        <ele>77.447044</ele>
        <time>2015-06-05T09:21:16Z</time>
      </trkpt>
      <trkpt lat="49.13061" lon="-1.41221">
        <ele>77.447044</ele>
        <time>2015-06-05T09:21:21Z</time>
      </trkpt>
      <trkpt lat="49.13065" lon="-1.41213">
        <ele>76.790665</ele>
        <time>2015-06-05T09:21:26Z</time>
      </trkpt>
      <trkpt lat="49.13065" lon="-1.41215">
        <ele>76.790665</ele>
        <time>2015-06-05T09:21:31Z</time>
      </trkpt>
      <trkpt lat="49.13063" lon="-1.41219">
        <ele>76.790665</ele>
        <time>2015-06-05T09:21:36Z</time>
      </trkpt>
      <trkpt lat="49.13064" lon="-1.41218">
        <ele>76.790665</ele>
        <time>2015-06-05T09:21:41Z</time>
      </trkpt>
      <trkpt lat="49.13063" lon="-1.41215">
        <ele>76.790665</ele>
        <time>2015-06-05T09:21:46Z</time>
      </trkpt>
      <trkpt lat="49.13061" lon="-1.41216">
        <ele>76.790665</ele>
        <time>2015-06-05T09:21:51Z</time>
      </trkpt>
      <trkpt lat="49.13062" lon="-1.41215">
        <ele>76.18807</ele>
        <time>2015-06-05T09:21:56Z</time>
      </trkpt>
      <trkpt lat="49.13062" lon="-1.41216">
        <ele>76.18807</ele>
        <time>2015-06-05T09:22:01Z</time>
      </trkpt>
      <trkpt lat="49.13062" lon="-1.41215">
        <ele>76.18807</ele>
        <time>2015-06-05T09:22:06Z</time>
      </trkpt>
      <trkpt lat="49.13062" lon="-1.41214">
        <ele>76.18807</ele>
        <time>2015-06-05T09:22:11Z</time>
      </trkpt>
      <trkpt lat="49.13062" lon="-1.41215">
        <ele>76.18807</ele>
        <time>2015-06-05T09:22:16Z</time>
      </trkpt>
      <trkpt lat="49.13063" lon="-1.41216">
        <ele>76.18807</ele>
        <time>2015-06-05T09:22:21Z</time>
      </trkpt>
      <trkpt lat="49.13063" lon="-1.41216">
        <ele>76.18807</ele>
        <time>2015-06-05T09:22:26Z</time>
      </trkpt>
      <trkpt lat="49.13063" lon="-1.41218">
        <ele>76.18807</ele>
        <time>2015-06-05T09:22:31Z</time>
      </trkpt>
      <trkpt lat="49.13063" lon="-1.41218">
        <ele>76.18807</ele>
        <time>2015-06-05T09:22:36Z</time>
      </trkpt>
      <trkpt lat="49.13064" lon="-1.41214">
        <ele>75.32116</ele>
        <time>2015-06-05T09:22:41Z</time>
      </trkpt>
      <trkpt lat="49.13067" lon="-1.41206">
        <ele>75.32116</ele>
        <time>2015-06-05T09:22:46Z</time>
      </trkpt>
      <trkpt lat="49.13068" lon="-1.41206">
        <ele>75.32116</ele>
        <time>2015-06-05T09:22:51Z</time>
      </trkpt>
      <trkpt lat="49.13069" lon="-1.41205">
        <ele>75.32116</ele>
        <time>2015-06-05T09:22:56Z</time>
      </trkpt>
      <trkpt lat="49.13069" lon="-1.41205">
        <ele>75.32116</ele>
        <time>2015-06-05T09:23:01Z</time>
      </trkpt>
      <trkpt lat="49.1307" lon="-1.41205">
        <ele>74.48543</ele>
        <time>2015-06-05T09:23:06Z</time>
      </trkpt>
      <trkpt lat="49.13072" lon="-1.41202">
        <ele>74.48543</ele>
        <time>2015-06-05T09:23:11Z</time>
      </trkpt>
      <trkpt lat="49.13073" lon="-1.41199">
        <ele>74.48543</ele>
        <time>2015-06-05T09:23:16Z</time>
      </trkpt>
      <trkpt lat="49.13072" lon="-1.41198">
        <ele>74.48543</ele>
        <time>2015-06-05T09:23:21Z</time>
      </trkpt>
      <trkpt lat="49.13072" lon="-1.41197">
        <ele>74.48543</ele>
        <time>2015-06-05T09:23:26Z</time>
      </trkpt>
      <trkpt lat="49.13073" lon="-1.41195">
        <ele>74.48543</ele>
        <time>2015-06-05T09:23:31Z</time>
      </trkpt>
      <trkpt lat="49.13073" lon="-1.41196">
        <ele>73.907265</ele>
        <time>2015-06-05T09:23:36Z</time>
      </trkpt>
      <trkpt lat="49.13073" lon="-1.41196">
        <ele>73.907265</ele>
        <time>2015-06-05T09:23:41Z</time>
      </trkpt>
      <trkpt lat="49.13073" lon="-1.41194">
        <ele>73.907265</ele>
        <time>2015-06-05T09:23:46Z</time>
      </trkpt>
      <trkpt lat="49.13073" lon="-1.41195">
        <ele>73.907265</ele>
        <time>2015-06-05T09:23:51Z</time>
      </trkpt>
      <trkpt lat="49.13074" lon="-1.41197">
        <ele>73.907265</ele>
        <time>2015-06-05T09:23:56Z</time>
      </trkpt>
      <trkpt lat="49.13075" lon="-1.41197">
        <ele>73.907265</ele>
        <time>2015-06-05T09:24:01Z</time>
      </trkpt>
      <trkpt lat="49.13071" lon="-1.41199">
        <ele>73.063446</ele>
        <time>2015-06-05T09:24:06Z</time>
      </trkpt>
      <trkpt lat="49.13064" lon="-1.41208">
        <ele>73.063446</ele>
        <time>2015-06-05T09:24:11Z</time>
      </trkpt>
      <trkpt lat="49.13061" lon="-1.41219">
        <ele>72.324165</ele>
        <time>2015-06-05T09:24:16Z</time>
      </trkpt>
      <trkpt lat="49.13058" lon="-1.41229">
        <ele>72.324165</ele>
        <time>2015-06-05T09:24:21Z</time>
      </trkpt>
      <trkpt lat="49.13055" lon="-1.41239">
        <ele>71.73677</ele>
        <time>2015-06-05T09:24:26Z</time>
      </trkpt>
      <trkpt lat="49.13051" lon="-1.41245">
        <ele>71.73677</ele>
        <time>2015-06-05T09:24:31Z</time>
      </trkpt>
      <trkpt lat="49.13045" lon="-1.41246">
        <ele>71.24216</ele>
        <time>2015-06-05T09:24:36Z</time>
      </trkpt>
      <trkpt lat="49.13039" lon="-1.41247">
        <ele>71.24216</ele>
        <time>2015-06-05T09:24:41Z</time>
      </trkpt>
      <trkpt lat="49.13031" lon="-1.41243">
        <ele>70.9164</ele>
        <time>2015-06-05T09:24:46Z</time>
      </trkpt>
      <trkpt lat="49.13024" lon="-1.41239">
        <ele>70.9164</ele>
        <time>2015-06-05T09:24:51Z</time>
      </trkpt>
      <trkpt lat="49.13019" lon="-1.41237">
        <ele>70.79957</ele>
        <time>2015-06-05T09:24:56Z</time>
      </trkpt>
      <trkpt lat="49.13011" lon="-1.41233">
        <ele>70.79957</ele>
        <time>2015-06-05T09:25:01Z</time>
      </trkpt>
      <trkpt lat="49.13005" lon="-1.41236">
        <ele>70.94251</ele>
        <time>2015-06-05T09:25:06Z</time>
      </trkpt>
      <trkpt lat="49.12998" lon="-1.41234">
        <ele>70.94251</ele>
        <time>2015-06-05T09:25:11Z</time>
      </trkpt>
      <trkpt lat="49.12993" lon="-1.41228">
        <ele>71.225044</ele>
        <time>2015-06-05T09:25:16Z</time>
      </trkpt>
      <trkpt lat="49.12987" lon="-1.41221">
        <ele>71.225044</ele>
        <time>2015-06-05T09:25:21Z</time>
      </trkpt>
      <trkpt lat="49.12982" lon="-1.41216">
        <ele>71.52449</ele>
        <time>2015-06-05T09:25:26Z</time>
      </trkpt>
      <trkpt lat="49.12975" lon="-1.41212">
        <ele>71.52449</ele>
        <time>2015-06-05T09:25:31Z</time>
      </trkpt>
      <trkpt lat="49.12967" lon="-1.41214">
        <ele>71.82543</ele>
        <time>2015-06-05T09:25:36Z</time>
      </trkpt>
      <trkpt lat="49.12959" lon="-1.41212">
        <ele>71.82543</ele>
        <time>2015-06-05T09:25:41Z</time>
      </trkpt>
      <trkpt lat="49.12954" lon="-1.41208">
        <ele>72.335495</ele>
        <time>2015-06-05T09:25:46Z</time>
      </trkpt>
      <trkpt lat="49.12947" lon="-1.41204">
        <ele>72.335495</ele>
        <time>2015-06-05T09:25:51Z</time>
      </trkpt>
      <trkpt lat="49.12941" lon="-1.41202">
        <ele>72.96988</ele>
        <time>2015-06-05T09:25:56Z</time>
      </trkpt>
      <trkpt lat="49.12936" lon="-1.41196">
        <ele>72.96988</ele>
        <time>2015-06-05T09:26:01Z</time>
      </trkpt>
      <trkpt lat="49.12931" lon="-1.4119">
        <ele>73.62139</ele>
        <time>2015-06-05T09:26:06Z</time>
      </trkpt>
      <trkpt lat="49.12926" lon="-1.41187">
        <ele>73.62139</ele>
        <time>2015-06-05T09:26:11Z</time>
      </trkpt>
      <trkpt lat="49.12921" lon="-1.41184">
        <ele>74.174934</ele>
        <time>2015-06-05T09:26:16Z</time>
      </trkpt>
      <trkpt lat="49.12917" lon="-1.4118">
        <ele>74.174934</ele>
        <time>2015-06-05T09:26:21Z</time>
      </trkpt>
      <trkpt lat="49.12917" lon="-1.41179">
        <ele>74.174934</ele>
        <time>2015-06-05T09:26:26Z</time>
      </trkpt>
      <trkpt lat="49.12918" lon="-1.41179">
        <ele>74.174934</ele>
        <time>2015-06-05T09:26:31Z</time>
      </trkpt>
      <trkpt lat="49.12915" lon="-1.41177">
        <ele>74.174934</ele>
        <time>2015-06-05T09:26:36Z</time>
      </trkpt>
      <trkpt lat="49.12912" lon="-1.41174">
        <ele>74.239586</ele>
        <time>2015-06-05T09:26:41Z</time>
      </trkpt>
      <trkpt lat="49.12909" lon="-1.41171">
        <ele>74.239586</ele>
        <time>2015-06-05T09:26:46Z</time>
      </trkpt>
      <trkpt lat="49.12905" lon="-1.41168">
        <ele>74.239586</ele>
        <time>2015-06-05T09:26:51Z</time>
      </trkpt>
      <trkpt lat="49.129" lon="-1.41161">
        <ele>73.78555</ele>
        <time>2015-06-05T09:26:56Z</time>
      </trkpt>
      <trkpt lat="49.12895" lon="-1.4116">
        <ele>73.78555</ele>
        <time>2015-06-05T09:27:01Z</time>
      </trkpt>
      <trkpt lat="49.1289" lon="-1.41156">
        <ele>72.970825</ele>
        <time>2015-06-05T09:27:06Z</time>
      </trkpt>
      <trkpt lat="49.12885" lon="-1.41154">
        <ele>72.970825</ele>
        <time>2015-06-05T09:27:11Z</time>
      </trkpt>
      <trkpt lat="49.12881" lon="-1.4115">
        <ele>72.03285</ele>
        <time>2015-06-05T09:27:16Z</time>
      </trkpt>
      <trkpt lat="49.12882" lon="-1.41151">
        <ele>72.03285</ele>
        <time>2015-06-05T09:27:21Z</time>
      </trkpt>
      <trkpt lat="49.12882" lon="-1.41151">
        <ele>72.03285</ele>
        <time>2015-06-05T09:27:26Z</time>
      </trkpt>
      <trkpt lat="49.1288" lon="-1.41148">
        <ele>72.03285</ele>
        <time>2015-06-05T09:27:31Z</time>
      </trkpt>
      <trkpt lat="49.12876" lon="-1.41143">
        <ele>70.7494</ele>
        <time>2015-06-05T09:27:36Z</time>
      </trkpt>
      <trkpt lat="49.12869" lon="-1.41137">
        <ele>70.7494</ele>
        <time>2015-06-05T09:27:41Z</time>
      </trkpt>
      <trkpt lat="49.12863" lon="-1.41134">
        <ele>69.37733</ele>
        <time>2015-06-05T09:27:46Z</time>
      </trkpt>
      <trkpt lat="49.12857" lon="-1.41133">
        <ele>69.37733</ele>
        <time>2015-06-05T09:27:51Z</time>
      </trkpt>
      <trkpt lat="49.12855" lon="-1.4114">
        <ele>68.05851</ele>
        <time>2015-06-05T09:27:56Z</time>
      </trkpt>
      <trkpt lat="49.12848" lon="-1.41145">
        <ele>68.05851</ele>
        <time>2015-06-05T09:28:01Z</time>
      </trkpt>
      <trkpt lat="49.12843" lon="-1.41142">
        <ele>66.97147</ele>
        <time>2015-06-05T09:28:06Z</time>
      </trkpt>
      <trkpt lat="49.12841" lon="-1.41136">
        <ele>66.97147</ele>
        <time>2015-06-05T09:28:11Z</time>
      </trkpt>
      <trkpt lat="49.12836" lon="-1.41136">
        <ele>66.97147</ele>
        <time>2015-06-05T09:28:16Z</time>
      </trkpt>
      <trkpt lat="49.12832" lon="-1.41137">
        <ele>65.83877</ele>
        <time>2015-06-05T09:28:21Z</time>
      </trkpt>
      <trkpt lat="49.12825" lon="-1.41137">
        <ele>65.83877</ele>
        <time>2015-06-05T09:28:26Z</time>
      </trkpt>
      <trkpt lat="49.12825" lon="-1.41135">
        <ele>65.83877</ele>
        <time>2015-06-05T09:28:31Z</time>
      </trkpt>
      <trkpt lat="49.12817" lon="-1.41137">
        <ele>65.03954</ele>
        <time>2015-06-05T09:28:36Z</time>
      </trkpt>
      <trkpt lat="49.12814" lon="-1.41137">
        <ele>65.03954</ele>
        <time>2015-06-05T09:28:41Z</time>
      </trkpt>
      <trkpt lat="49.1281" lon="-1.41136">
        <ele>65.03954</ele>
        <time>2015-06-05T09:28:46Z</time>
      </trkpt>
      <trkpt lat="49.12803" lon="-1.41137">
        <ele>64.41963</ele>
        <time>2015-06-05T09:28:51Z</time>
      </trkpt>
      <trkpt lat="49.12796" lon="-1.41136">
        <ele>64.41963</ele>
        <time>2015-06-05T09:28:56Z</time>
      </trkpt>
      <trkpt lat="49.12789" lon="-1.41136">
        <ele>63.98322</ele>
        <time>2015-06-05T09:29:01Z</time>
      </trkpt>
      <trkpt lat="49.12785" lon="-1.41137">
        <ele>63.98322</ele>
        <time>2015-06-05T09:29:06Z</time>
      </trkpt>
      <trkpt lat="49.12777" lon="-1.41138">
        <ele>63.6878</ele>
        <time>2015-06-05T09:29:11Z</time>
      </trkpt>
      <trkpt lat="49.12769" lon="-1.41138">
        <ele>63.6878</ele>
        <time>2015-06-05T09:29:16Z</time>
      </trkpt>
      <trkpt lat="49.12763" lon="-1.41138">
        <ele>63.522976</ele>
        <time>2015-06-05T09:29:21Z</time>
      </trkpt>
      <trkpt lat="49.12758" lon="-1.41137">
        <ele>63.522976</ele>
        <time>2015-06-05T09:29:26Z</time>
      </trkpt>
      <trkpt lat="49.12751" lon="-1.41137">
        <ele>63.387714</ele>
        <time>2015-06-05T09:29:31Z</time>
      </trkpt>
      <trkpt lat="49.12745" lon="-1.41136">
        <ele>63.387714</ele>
        <time>2015-06-05T09:29:36Z</time>
      </trkpt>
      <trkpt lat="49.12739" lon="-1.41134">
        <ele>63.293865</ele>
        <time>2015-06-05T09:29:41Z</time>
      </trkpt>
      <trkpt lat="49.12731" lon="-1.41133">
        <ele>63.293865</ele>
        <time>2015-06-05T09:29:46Z</time>
      </trkpt>
      <trkpt lat="49.12726" lon="-1.41131">
        <ele>63.282387</ele>
        <time>2015-06-05T09:29:51Z</time>
      </trkpt>
      <trkpt lat="49.12718" lon="-1.41128">
        <ele>63.282387</ele>
        <time>2015-06-05T09:29:56Z</time>
      </trkpt>
      <trkpt lat="49.12711" lon="-1.41125">
        <ele>63.37566</ele>
        <time>2015-06-05T09:30:01Z</time>
      </trkpt>
      <trkpt lat="49.12704" lon="-1.41122">
        <ele>63.37566</ele>
        <time>2015-06-05T09:30:06Z</time>
      </trkpt>
      <trkpt lat="49.12698" lon="-1.4112">
        <ele>63.63908</ele>
        <time>2015-06-05T09:30:11Z</time>
      </trkpt>
      <trkpt lat="49.12692" lon="-1.41117">
        <ele>63.63908</ele>
        <time>2015-06-05T09:30:16Z</time>
      </trkpt>
      <trkpt lat="49.12686" lon="-1.41112">
        <ele>63.966553</ele>
        <time>2015-06-05T09:30:21Z</time>
      </trkpt>
      <trkpt lat="49.12681" lon="-1.41106">
        <ele>63.966553</ele>
        <time>2015-06-05T09:30:26Z</time>
      </trkpt>
      <trkpt lat="49.12675" lon="-1.41102">
        <ele>64.39567</ele>
        <time>2015-06-05T09:30:31Z</time>
      </trkpt>
      <trkpt lat="49.12668" lon="-1.41096">
        <ele>64.39567</ele>
        <time>2015-06-05T09:30:36Z</time>
      </trkpt>
      <trkpt lat="49.12662" lon="-1.41093">
        <ele>64.94564</ele>
        <time>2015-06-05T09:30:41Z</time>
      </trkpt>
      <trkpt lat="49.12655" lon="-1.4109">
        <ele>64.94564</ele>
        <time>2015-06-05T09:30:46Z</time>
      </trkpt>
      <trkpt lat="49.1265" lon="-1.41087">
        <ele>65.48412</ele>
        <time>2015-06-05T09:30:51Z</time>
      </trkpt>
      <trkpt lat="49.12643" lon="-1.41081">
        <ele>65.48412</ele>
        <time>2015-06-05T09:30:56Z</time>
      </trkpt>
      <trkpt lat="49.12636" lon="-1.41076">
        <ele>66.02435</ele>
        <time>2015-06-05T09:31:01Z</time>
      </trkpt>
      <trkpt lat="49.12629" lon="-1.41072">
        <ele>66.02435</ele>
        <time>2015-06-05T09:31:06Z</time>
      </trkpt>
      <trkpt lat="49.12624" lon="-1.41067">
        <ele>66.62328</ele>
        <time>2015-06-05T09:31:11Z</time>
      </trkpt>
      <trkpt lat="49.12617" lon="-1.41063">
        <ele>66.62328</ele>
        <time>2015-06-05T09:31:16Z</time>
      </trkpt>
      <trkpt lat="49.12611" lon="-1.4106">
        <ele>67.22896</ele>
        <time>2015-06-05T09:31:21Z</time>
      </trkpt>
      <trkpt lat="49.12605" lon="-1.41056">
        <ele>67.22896</ele>
        <time>2015-06-05T09:31:26Z</time>
      </trkpt>
      <trkpt lat="49.126" lon="-1.41053">
        <ele>67.85318</ele>
        <time>2015-06-05T09:31:31Z</time>
      </trkpt>
      <trkpt lat="49.12594" lon="-1.41049">
        <ele>67.85318</ele>
        <time>2015-06-05T09:31:36Z</time>
      </trkpt>
      <trkpt lat="49.12588" lon="-1.41045">
        <ele>68.492</ele>
        <time>2015-06-05T09:31:41Z</time>
      </trkpt>
      <trkpt lat="49.12582" lon="-1.41041">
        <ele>68.492</ele>
        <time>2015-06-05T09:31:46Z</time>
      </trkpt>
      <trkpt lat="49.12576" lon="-1.41044">
        <ele>69.15659</ele>
        <time>2015-06-05T09:31:51Z</time>
      </trkpt>
      <trkpt lat="49.12569" lon="-1.41047">
        <ele>69.15659</ele>
        <time>2015-06-05T09:31:56Z</time>
      </trkpt>
      <trkpt lat="49.12563" lon="-1.41053">
        <ele>69.76892</ele>
        <time>2015-06-05T09:32:01Z</time>
      </trkpt>
      <trkpt lat="49.12557" lon="-1.41056">
        <ele>69.76892</ele>
        <time>2015-06-05T09:32:06Z</time>
      </trkpt>
      <trkpt lat="49.12552" lon="-1.4106">
        <ele>70.24296</ele>
        <time>2015-06-05T09:32:11Z</time>
      </trkpt>
      <trkpt lat="49.12546" lon="-1.41065">
        <ele>70.24296</ele>
        <time>2015-06-05T09:32:16Z</time>
      </trkpt>
      <trkpt lat="49.12539" lon="-1.41068">
        <ele>70.60267</ele>
        <time>2015-06-05T09:32:21Z</time>
      </trkpt>
      <trkpt lat="49.12533" lon="-1.41072">
        <ele>70.60267</ele>
        <time>2015-06-05T09:32:26Z</time>
      </trkpt>
      <trkpt lat="49.12527" lon="-1.41077">
        <ele>70.87037</ele>
        <time>2015-06-05T09:32:31Z</time>
      </trkpt>
      <trkpt lat="49.12521" lon="-1.41082">
        <ele>70.87037</ele>
        <time>2015-06-05T09:32:36Z</time>
      </trkpt>
      <trkpt lat="49.12516" lon="-1.41086">
        <ele>70.97925</ele>
        <time>2015-06-05T09:32:41Z</time>
      </trkpt>
      <trkpt lat="49.12513" lon="-1.41091">
        <ele>70.97925</ele>
        <time>2015-06-05T09:32:46Z</time>
      </trkpt>
      <trkpt lat="49.12506" lon="-1.41094">
        <ele>71.072174</ele>
        <time>2015-06-05T09:32:51Z</time>
      </trkpt>
      <trkpt lat="49.125" lon="-1.411">
        <ele>71.072174</ele>
        <time>2015-06-05T09:32:56Z</time>
      </trkpt>
      <trkpt lat="49.12494" lon="-1.41106">
        <ele>71.19341</ele>
        <time>2015-06-05T09:33:01Z</time>
      </trkpt>
      <trkpt lat="49.12489" lon="-1.41108">
        <ele>71.19341</ele>
        <time>2015-06-05T09:33:06Z</time>
      </trkpt>
      <trkpt lat="49.12483" lon="-1.41115">
        <ele>71.26747</ele>
        <time>2015-06-05T09:33:11Z</time>
      </trkpt>
      <trkpt lat="49.12477" lon="-1.4112">
        <ele>71.26747</ele>
        <time>2015-06-05T09:33:16Z</time>
      </trkpt>
      <trkpt lat="49.12473" lon="-1.41125">
        <ele>71.29751</ele>
        <time>2015-06-05T09:33:21Z</time>
      </trkpt>
      <trkpt lat="49.12467" lon="-1.4113">
        <ele>71.29751</ele>
        <time>2015-06-05T09:33:26Z</time>
      </trkpt>
      <trkpt lat="49.12461" lon="-1.41135">
        <ele>71.27209</ele>
        <time>2015-06-05T09:33:31Z</time>
      </trkpt>
      <trkpt lat="49.12455" lon="-1.41142">
        <ele>71.27209</ele>
        <time>2015-06-05T09:33:36Z</time>
      </trkpt>
      <trkpt lat="49.1245" lon="-1.41149">
        <ele>71.1808</ele>
        <time>2015-06-05T09:33:41Z</time>
      </trkpt>
      <trkpt lat="49.12445" lon="-1.41157">
        <ele>71.1808</ele>
        <time>2015-06-05T09:33:46Z</time>
      </trkpt>
      <trkpt lat="49.12438" lon="-1.41163">
        <ele>71.144424</ele>
        <time>2015-06-05T09:33:51Z</time>
      </trkpt>
      <trkpt lat="49.12433" lon="-1.41167">
        <ele>71.144424</ele>
        <time>2015-06-05T09:33:56Z</time>
      </trkpt>
      <trkpt lat="49.12427" lon="-1.4117">
        <ele>71.072044</ele>
        <time>2015-06-05T09:34:01Z</time>
      </trkpt>
      <trkpt lat="49.1242" lon="-1.41174">
        <ele>71.072044</ele>
        <time>2015-06-05T09:34:06Z</time>
      </trkpt>
      <trkpt lat="49.12413" lon="-1.41178">
        <ele>70.952034</ele>
        <time>2015-06-05T09:34:11Z</time>
      </trkpt>
      <trkpt lat="49.12408" lon="-1.41181">
        <ele>70.952034</ele>
        <time>2015-06-05T09:34:16Z</time>
      </trkpt>
      <trkpt lat="49.12401" lon="-1.41181">
        <ele>70.845955</ele>
        <time>2015-06-05T09:34:21Z</time>
      </trkpt>
      <trkpt lat="49.12394" lon="-1.41182">
        <ele>70.845955</ele>
        <time>2015-06-05T09:34:26Z</time>
      </trkpt>
      <trkpt lat="49.12387" lon="-1.41183">
        <ele>70.753044</ele>
        <time>2015-06-05T09:34:31Z</time>
      </trkpt>
      <trkpt lat="49.12381" lon="-1.41184">
        <ele>70.753044</ele>
        <time>2015-06-05T09:34:36Z</time>
      </trkpt>
      <trkpt lat="49.12373" lon="-1.41184">
        <ele>70.65814</ele>
        <time>2015-06-05T09:34:41Z</time>
      </trkpt>
      <trkpt lat="49.12366" lon="-1.41184">
        <ele>70.65814</ele>
        <time>2015-06-05T09:34:46Z</time>
      </trkpt>
      <trkpt lat="49.12359" lon="-1.41184">
        <ele>70.60498</ele>
        <time>2015-06-05T09:34:51Z</time>
      </trkpt>
      <trkpt lat="49.12351" lon="-1.41184">
        <ele>70.60498</ele>
        <time>2015-06-05T09:34:56Z</time>
      </trkpt>
      <trkpt lat="49.12345" lon="-1.41185">
        <ele>70.63393</ele>
        <time>2015-06-05T09:35:01Z</time>
      </trkpt>
      <trkpt lat="49.12338" lon="-1.41187">
        <ele>70.63393</ele>
        <time>2015-06-05T09:35:06Z</time>
      </trkpt>
      <trkpt lat="49.12332" lon="-1.4119">
        <ele>70.753365</ele>
        <time>2015-06-05T09:35:11Z</time>
      </trkpt>
      <trkpt lat="49.12326" lon="-1.41193">
        <ele>70.753365</ele>
        <time>2015-06-05T09:35:16Z</time>
      </trkpt>
      <trkpt lat="49.1232" lon="-1.41195">
        <ele>70.884315</ele>
        <time>2015-06-05T09:35:21Z</time>
      </trkpt>
      <trkpt lat="49.12314" lon="-1.41198">
        <ele>70.884315</ele>
        <time>2015-06-05T09:35:26Z</time>
      </trkpt>
      <trkpt lat="49.12307" lon="-1.41201">
        <ele>70.92479</ele>
        <time>2015-06-05T09:35:31Z</time>
      </trkpt>
      <trkpt lat="49.123" lon="-1.41203">
        <ele>70.92479</ele>
        <time>2015-06-05T09:35:36Z</time>
      </trkpt>
      <trkpt lat="49.12294" lon="-1.41206">
        <ele>71.02565</ele>
        <time>2015-06-05T09:35:41Z</time>
      </trkpt>
      <trkpt lat="49.12287" lon="-1.41206">
        <ele>71.02565</ele>
        <time>2015-06-05T09:35:46Z</time>
      </trkpt>
      <trkpt lat="49.12279" lon="-1.41207">
        <ele>71.15352</ele>
        <time>2015-06-05T09:35:51Z</time>
      </trkpt>
      <trkpt lat="49.12274" lon="-1.41208">
        <ele>71.15352</ele>
        <time>2015-06-05T09:35:56Z</time>
      </trkpt>
      <trkpt lat="49.12267" lon="-1.41207">
        <ele>71.320656</ele>
        <time>2015-06-05T09:36:01Z</time>
      </trkpt>
      <trkpt lat="49.1226" lon="-1.41206">
        <ele>71.320656</ele>
        <time>2015-06-05T09:36:06Z</time>
      </trkpt>
      <trkpt lat="49.12253" lon="-1.41207">
        <ele>71.46624</ele>
        <time>2015-06-05T09:36:11Z</time>
      </trkpt>
      <trkpt lat="49.12247" lon="-1.41209">
        <ele>71.46624</ele>
        <time>2015-06-05T09:36:16Z</time>
      </trkpt>
      <trkpt lat="49.12241" lon="-1.4121">
        <ele>71.63491</ele>
        <time>2015-06-05T09:36:21Z</time>
      </trkpt>
      <trkpt lat="49.12234" lon="-1.41209">
        <ele>71.63491</ele>
        <time>2015-06-05T09:36:26Z</time>
      </trkpt>
      <trkpt lat="49.12228" lon="-1.41209">
        <ele>71.868</ele>
        <time>2015-06-05T09:36:31Z</time>
      </trkpt>
      <trkpt lat="49.1222" lon="-1.41208">
        <ele>71.868</ele>
        <time>2015-06-05T09:36:36Z</time>
      </trkpt>
      <trkpt lat="49.12214" lon="-1.4121">
        <ele>72.18919</ele>
        <time>2015-06-05T09:36:41Z</time>
      </trkpt>
      <trkpt lat="49.12208" lon="-1.41211">
        <ele>72.18919</ele>
        <time>2015-06-05T09:36:46Z</time>
      </trkpt>
      <trkpt lat="49.12203" lon="-1.41211">
        <ele>72.476006</ele>
        <time>2015-06-05T09:36:51Z</time>
      </trkpt>
      <trkpt lat="49.12196" lon="-1.4121">
        <ele>72.476006</ele>
        <time>2015-06-05T09:36:56Z</time>
      </trkpt>
      <trkpt lat="49.12192" lon="-1.4121">
        <ele>72.715996</ele>
        <time>2015-06-05T09:37:01Z</time>
      </trkpt>
      <trkpt lat="49.12185" lon="-1.41208">
        <ele>72.715996</ele>
        <time>2015-06-05T09:37:06Z</time>
      </trkpt>
      <trkpt lat="49.12176" lon="-1.41209">
        <ele>73.01317</ele>
        <time>2015-06-05T09:37:11Z</time>
      </trkpt>
      <trkpt lat="49.1217" lon="-1.41209">
        <ele>73.01317</ele>
        <time>2015-06-05T09:37:16Z</time>
      </trkpt>
      <trkpt lat="49.12165" lon="-1.4121">
        <ele>73.40606</ele>
        <time>2015-06-05T09:37:21Z</time>
      </trkpt>
      <trkpt lat="49.12159" lon="-1.41212">
        <ele>73.40606</ele>
        <time>2015-06-05T09:37:26Z</time>
      </trkpt>
      <trkpt lat="49.12154" lon="-1.41212">
        <ele>73.886826</ele>
        <time>2015-06-05T09:37:31Z</time>
      </trkpt>
      <trkpt lat="49.12147" lon="-1.41211">
        <ele>73.886826</ele>
        <time>2015-06-05T09:37:36Z</time>
      </trkpt>
      <trkpt lat="49.12143" lon="-1.41211">
        <ele>74.41914</ele>
        <time>2015-06-05T09:37:41Z</time>
      </trkpt>
      <trkpt lat="49.12141" lon="-1.4121">
        <ele>74.41914</ele>
        <time>2015-06-05T09:37:46Z</time>
      </trkpt>
      <trkpt lat="49.12141" lon="-1.4121">
        <ele>74.41914</ele>
        <time>2015-06-05T09:37:51Z</time>
      </trkpt>
      <trkpt lat="49.1214" lon="-1.41213">
        <ele>74.41914</ele>
        <time>2015-06-05T09:37:56Z</time>
      </trkpt>
      <trkpt lat="49.1214" lon="-1.41213">
        <ele>74.41914</ele>
        <time>2015-06-05T09:38:01Z</time>
      </trkpt>
      <trkpt lat="49.12138" lon="-1.41211">
        <ele>74.41914</ele>
        <time>2015-06-05T09:38:06Z</time>
      </trkpt>
      <trkpt lat="49.12137" lon="-1.41208">
        <ele>75.30098</ele>
        <time>2015-06-05T09:38:11Z</time>
      </trkpt>
      <trkpt lat="49.12139" lon="-1.41205">
        <ele>75.30098</ele>
        <time>2015-06-05T09:38:16Z</time>
      </trkpt>
      <trkpt lat="49.12142" lon="-1.41202">
        <ele>75.30098</ele>
        <time>2015-06-05T09:38:21Z</time>
      </trkpt>
      <trkpt lat="49.12143" lon="-1.41204">
        <ele>75.30098</ele>
        <time>2015-06-05T09:38:26Z</time>
      </trkpt>
      <trkpt lat="49.12144" lon="-1.41205">
        <ele>75.30098</ele>
        <time>2015-06-05T09:38:31Z</time>
      </trkpt>
      <trkpt lat="49.12143" lon="-1.41206">
        <ele>75.92753</ele>
        <time>2015-06-05T09:38:36Z</time>
      </trkpt>
      <trkpt lat="49.12143" lon="-1.41205">
        <ele>75.92753</ele>
        <time>2015-06-05T09:38:41Z</time>
      </trkpt>
      <trkpt lat="49.12142" lon="-1.41204">
        <ele>75.92753</ele>
        <time>2015-06-05T09:38:46Z</time>
      </trkpt>
      <trkpt lat="49.12138" lon="-1.41205">
        <ele>75.92753</ele>
        <time>2015-06-05T09:38:51Z</time>
      </trkpt>
      <trkpt lat="49.12128" lon="-1.41211">
        <ele>76.229675</ele>
        <time>2015-06-05T09:38:56Z</time>
      </trkpt>
      <trkpt lat="49.1212" lon="-1.41213">
        <ele>76.229675</ele>
        <time>2015-06-05T09:39:01Z</time>
      </trkpt>
      <trkpt lat="49.12114" lon="-1.41213">
        <ele>76.44719</ele>
        <time>2015-06-05T09:39:06Z</time>
      </trkpt>
      <trkpt lat="49.12109" lon="-1.41215">
        <ele>76.44719</ele>
        <time>2015-06-05T09:39:11Z</time>
      </trkpt>
      <trkpt lat="49.12104" lon="-1.41216">
        <ele>76.672676</ele>
        <time>2015-06-05T09:39:16Z</time>
      </trkpt>
      <trkpt lat="49.12096" lon="-1.41216">
        <ele>76.672676</ele>
        <time>2015-06-05T09:39:21Z</time>
      </trkpt>
      <trkpt lat="49.1209" lon="-1.41217">
        <ele>76.97749</ele>
        <time>2015-06-05T09:39:26Z</time>
      </trkpt>
      <trkpt lat="49.12085" lon="-1.41217">
        <ele>76.97749</ele>
        <time>2015-06-05T09:39:31Z</time>
      </trkpt>
      <trkpt lat="49.12081" lon="-1.41217">
        <ele>77.38428</ele>
        <time>2015-06-05T09:39:36Z</time>
      </trkpt>
      <trkpt lat="49.12073" lon="-1.41222">
        <ele>77.78395</ele>
        <time>2015-06-05T09:39:41Z</time>
      </trkpt>
      <trkpt lat="49.12065" lon="-1.41218">
        <ele>77.78395</ele>
        <time>2015-06-05T09:39:46Z</time>
      </trkpt>
      <trkpt lat="49.12059" lon="-1.41216">
        <ele>78.162025</ele>
        <time>2015-06-05T09:39:51Z</time>
      </trkpt>
      <trkpt lat="49.12054" lon="-1.41217">
        <ele>78.162025</ele>
        <time>2015-06-05T09:39:56Z</time>
      </trkpt>
      <trkpt lat="49.12048" lon="-1.41219">
        <ele>78.54842</ele>
        <time>2015-06-05T09:40:01Z</time>
      </trkpt>
      <trkpt lat="49.12041" lon="-1.41221">
        <ele>78.54842</ele>
        <time>2015-06-05T09:40:06Z</time>
      </trkpt>
      <trkpt lat="49.12035" lon="-1.41219">
        <ele>78.92763</ele>
        <time>2015-06-05T09:40:11Z</time>
      </trkpt>
      <trkpt lat="49.12031" lon="-1.4122">
        <ele>78.92763</ele>
        <time>2015-06-05T09:40:16Z</time>
      </trkpt>
      <trkpt lat="49.12023" lon="-1.4122">
        <ele>79.16992</ele>
        <time>2015-06-05T09:40:21Z</time>
      </trkpt>
      <trkpt lat="49.12019" lon="-1.41219">
        <ele>79.16992</ele>
        <time>2015-06-05T09:40:26Z</time>
      </trkpt>
      <trkpt lat="49.12013" lon="-1.41219">
        <ele>79.35744</ele>
        <time>2015-06-05T09:40:31Z</time>
      </trkpt>
      <trkpt lat="49.12009" lon="-1.4122">
        <ele>79.35744</ele>
        <time>2015-06-05T09:40:36Z</time>
      </trkpt>
      <trkpt lat="49.12002" lon="-1.4122">
        <ele>79.53756</ele>
        <time>2015-06-05T09:40:41Z</time>
      </trkpt>
      <trkpt lat="49.11992" lon="-1.41221">
        <ele>79.68217</ele>
        <time>2015-06-05T09:40:46Z</time>
      </trkpt>
      <trkpt lat="49.11985" lon="-1.4122">
        <ele>79.68217</ele>
        <time>2015-06-05T09:40:51Z</time>
      </trkpt>
      <trkpt lat="49.11981" lon="-1.41221">
        <ele>79.83738</ele>
        <time>2015-06-05T09:40:56Z</time>
      </trkpt>
      <trkpt lat="49.11975" lon="-1.41222">
        <ele>79.83738</ele>
        <time>2015-06-05T09:41:01Z</time>
      </trkpt>
      <trkpt lat="49.11971" lon="-1.41222">
        <ele>80.031525</ele>
        <time>2015-06-05T09:41:06Z</time>
      </trkpt>
      <trkpt lat="49.11965" lon="-1.41223">
        <ele>80.031525</ele>
        <time>2015-06-05T09:41:11Z</time>
      </trkpt>
      <trkpt lat="49.1196" lon="-1.41225">
        <ele>80.24747</ele>
        <time>2015-06-05T09:41:16Z</time>
      </trkpt>
      <trkpt lat="49.11959" lon="-1.4123">
        <ele>80.24747</ele>
        <time>2015-06-05T09:41:21Z</time>
      </trkpt>
      <trkpt lat="49.11958" lon="-1.41238">
        <ele>80.24747</ele>
        <time>2015-06-05T09:41:26Z</time>
      </trkpt>
      <trkpt lat="49.11956" lon="-1.41243">
        <ele>80.64227</ele>
        <time>2015-06-05T09:41:31Z</time>
      </trkpt>
      <trkpt lat="49.11951" lon="-1.41245">
        <ele>80.64227</ele>
        <time>2015-06-05T09:41:36Z</time>
      </trkpt>
      <trkpt lat="49.1195" lon="-1.41246">
        <ele>80.64227</ele>
        <time>2015-06-05T09:41:41Z</time>
      </trkpt>
      <trkpt lat="49.11948" lon="-1.41247">
        <ele>80.64227</ele>
        <time>2015-06-05T09:41:46Z</time>
      </trkpt>
      <trkpt lat="49.11948" lon="-1.41245">
        <ele>81.01504</ele>
        <time>2015-06-05T09:41:51Z</time>
      </trkpt>
      <trkpt lat="49.11948" lon="-1.41244">
        <ele>81.01504</ele>
        <time>2015-06-05T09:41:56Z</time>
      </trkpt>
      <trkpt lat="49.11948" lon="-1.41244">
        <ele>81.01504</ele>
        <time>2015-06-05T09:42:01Z</time>
      </trkpt>
      <trkpt lat="49.11949" lon="-1.41242">
        <ele>81.01504</ele>
        <time>2015-06-05T09:42:06Z</time>
      </trkpt>
      <trkpt lat="49.11948" lon="-1.41241">
        <ele>81.01504</ele>
        <time>2015-06-05T09:42:11Z</time>
      </trkpt>
      <trkpt lat="49.11948" lon="-1.41241">
        <ele>81.01504</ele>
        <time>2015-06-05T09:42:16Z</time>
      </trkpt>
      <trkpt lat="49.1195" lon="-1.41241">
        <ele>81.01504</ele>
        <time>2015-06-05T09:42:21Z</time>
      </trkpt>
      <trkpt lat="49.11953" lon="-1.41238">
        <ele>81.4968</ele>
        <time>2015-06-05T09:42:26Z</time>
      </trkpt>
      <trkpt lat="49.11956" lon="-1.41229">
        <ele>81.4968</ele>
        <time>2015-06-05T09:42:31Z</time>
      </trkpt>
      <trkpt lat="49.11957" lon="-1.41224">
        <ele>81.8051</ele>
        <time>2015-06-05T09:42:36Z</time>
      </trkpt>
      <trkpt lat="49.11953" lon="-1.41223">
        <ele>81.8051</ele>
        <time>2015-06-05T09:42:41Z</time>
      </trkpt>
      <trkpt lat="49.11946" lon="-1.41222">
        <ele>81.981415</ele>
        <time>2015-06-05T09:42:46Z</time>
      </trkpt>
      <trkpt lat="49.11942" lon="-1.41222">
        <ele>81.981415</ele>
        <time>2015-06-05T09:42:51Z</time>
      </trkpt>
      <trkpt lat="49.11938" lon="-1.41222">
        <ele>81.981415</ele>
        <time>2015-06-05T09:42:56Z</time>
      </trkpt>
      <trkpt lat="49.11933" lon="-1.41222">
        <ele>82.13661</ele>
        <time>2015-06-05T09:43:01Z</time>
      </trkpt>
      <trkpt lat="49.11927" lon="-1.41226">
        <ele>82.13661</ele>
        <time>2015-06-05T09:43:06Z</time>
      </trkpt>
      <trkpt lat="49.11919" lon="-1.41226">
        <ele>82.30141</ele>
        <time>2015-06-05T09:43:11Z</time>
      </trkpt>
      <trkpt lat="49.11914" lon="-1.41226">
        <ele>82.30141</ele>
        <time>2015-06-05T09:43:16Z</time>
      </trkpt>
      <trkpt lat="49.1191" lon="-1.41229">
        <ele>82.475426</ele>
        <time>2015-06-05T09:43:21Z</time>
      </trkpt>
      <trkpt lat="49.11903" lon="-1.41232">
        <ele>82.475426</ele>
        <time>2015-06-05T09:43:26Z</time>
      </trkpt>
      <trkpt lat="49.11895" lon="-1.41232">
        <ele>82.658295</ele>
        <time>2015-06-05T09:43:31Z</time>
      </trkpt>
      <trkpt lat="49.11889" lon="-1.41235">
        <ele>82.658295</ele>
        <time>2015-06-05T09:43:36Z</time>
      </trkpt>
      <trkpt lat="49.11885" lon="-1.41236">
        <ele>82.87848</ele>
        <time>2015-06-05T09:43:41Z</time>
      </trkpt>
      <trkpt lat="49.11877" lon="-1.41237">
        <ele>82.87848</ele>
        <time>2015-06-05T09:43:46Z</time>
      </trkpt>
      <trkpt lat="49.11871" lon="-1.41236">
        <ele>83.20547</ele>
        <time>2015-06-05T09:43:51Z</time>
      </trkpt>
      <trkpt lat="49.11864" lon="-1.41235">
        <ele>83.20547</ele>
        <time>2015-06-05T09:43:56Z</time>
      </trkpt>
      <trkpt lat="49.11859" lon="-1.41237">
        <ele>83.58809</ele>
        <time>2015-06-05T09:44:01Z</time>
      </trkpt>
      <trkpt lat="49.11854" lon="-1.41238">
        <ele>83.58809</ele>
        <time>2015-06-05T09:44:06Z</time>
      </trkpt>
      <trkpt lat="49.11849" lon="-1.41237">
        <ele>83.93551</ele>
        <time>2015-06-05T09:44:11Z</time>
      </trkpt>
      <trkpt lat="49.11844" lon="-1.41238">
        <ele>83.93551</ele>
        <time>2015-06-05T09:44:16Z</time>
      </trkpt>
      <trkpt lat="49.11837" lon="-1.41239">
        <ele>84.278984</ele>
        <time>2015-06-05T09:44:21Z</time>
      </trkpt>
      <trkpt lat="49.11832" lon="-1.41241">
        <ele>84.278984</ele>
        <time>2015-06-05T09:44:26Z</time>
      </trkpt>
      <trkpt lat="49.11824" lon="-1.41242">
        <ele>84.6763</ele>
        <time>2015-06-05T09:44:31Z</time>
      </trkpt>
      <trkpt lat="49.1182" lon="-1.41245">
        <ele>84.6763</ele>
        <time>2015-06-05T09:44:36Z</time>
      </trkpt>
      <trkpt lat="49.11815" lon="-1.41247">
        <ele>85.15203</ele>
        <time>2015-06-05T09:44:41Z</time>
      </trkpt>
      <trkpt lat="49.11808" lon="-1.41248">
        <ele>85.15203</ele>
        <time>2015-06-05T09:44:46Z</time>
      </trkpt>
      <trkpt lat="49.11802" lon="-1.4125">
        <ele>85.69991</ele>
        <time>2015-06-05T09:44:51Z</time>
      </trkpt>
      <trkpt lat="49.11796" lon="-1.4125">
        <ele>85.69991</ele>
        <time>2015-06-05T09:44:56Z</time>
      </trkpt>
      <trkpt lat="49.11792" lon="-1.41251">
        <ele>86.29952</ele>
        <time>2015-06-05T09:45:01Z</time>
      </trkpt>
      <trkpt lat="49.11785" lon="-1.41251">
        <ele>86.29952</ele>
        <time>2015-06-05T09:45:06Z</time>
      </trkpt>
      <trkpt lat="49.11779" lon="-1.41253">
        <ele>86.90299</ele>
        <time>2015-06-05T09:45:11Z</time>
      </trkpt>
      <trkpt lat="49.11775" lon="-1.41255">
        <ele>86.90299</ele>
        <time>2015-06-05T09:45:16Z</time>
      </trkpt>
      <trkpt lat="49.11771" lon="-1.41255">
        <ele>86.90299</ele>
        <time>2015-06-05T09:45:21Z</time>
      </trkpt>
      <trkpt lat="49.11768" lon="-1.41259">
        <ele>87.5236</ele>
        <time>2015-06-05T09:45:26Z</time>
      </trkpt>
      <trkpt lat="49.11768" lon="-1.41262">
        <ele>87.5236</ele>
        <time>2015-06-05T09:45:31Z</time>
      </trkpt>
      <trkpt lat="49.11768" lon="-1.41261">
        <ele>87.5236</ele>
        <time>2015-06-05T09:45:36Z</time>
      </trkpt>
      <trkpt lat="49.11764" lon="-1.41262">
        <ele>87.5236</ele>
        <time>2015-06-05T09:45:41Z</time>
      </trkpt>
      <trkpt lat="49.11757" lon="-1.41262">
        <ele>88.332146</ele>
        <time>2015-06-05T09:45:46Z</time>
      </trkpt>
      <trkpt lat="49.11749" lon="-1.41263">
        <ele>88.332146</ele>
        <time>2015-06-05T09:45:51Z</time>
      </trkpt>
      <trkpt lat="49.11741" lon="-1.41262">
        <ele>89.15491</ele>
        <time>2015-06-05T09:45:56Z</time>
      </trkpt>
      <trkpt lat="49.11735" lon="-1.41263">
        <ele>89.15491</ele>
        <time>2015-06-05T09:46:01Z</time>
      </trkpt>
      <trkpt lat="49.1173" lon="-1.41261">
        <ele>89.93177</ele>
        <time>2015-06-05T09:46:06Z</time>
      </trkpt>
      <trkpt lat="49.11723" lon="-1.41258">
        <ele>89.93177</ele>
        <time>2015-06-05T09:46:11Z</time>
      </trkpt>
      <trkpt lat="49.11718" lon="-1.4126">
        <ele>90.59278</ele>
        <time>2015-06-05T09:46:16Z</time>
      </trkpt>
      <trkpt lat="49.11712" lon="-1.41262">
        <ele>90.59278</ele>
        <time>2015-06-05T09:46:21Z</time>
      </trkpt>
      <trkpt lat="49.11707" lon="-1.41264">
        <ele>91.159935</ele>
        <time>2015-06-05T09:46:26Z</time>
      </trkpt>
      <trkpt lat="49.117" lon="-1.41265">
        <ele>91.159935</ele>
        <time>2015-06-05T09:46:31Z</time>
      </trkpt>
      <trkpt lat="49.11694" lon="-1.41266">
        <ele>91.639496</ele>
        <time>2015-06-05T09:46:36Z</time>
      </trkpt>
      <trkpt lat="49.11689" lon="-1.41269">
        <ele>91.639496</ele>
        <time>2015-06-05T09:46:41Z</time>
      </trkpt>
      <trkpt lat="49.11682" lon="-1.41271">
        <ele>92.09516</ele>
        <time>2015-06-05T09:46:46Z</time>
      </trkpt>
      <trkpt lat="49.11676" lon="-1.41273">
        <ele>92.09516</ele>
        <time>2015-06-05T09:46:51Z</time>
      </trkpt>
      <trkpt lat="49.1167" lon="-1.41275">
        <ele>92.557236</ele>
        <time>2015-06-05T09:46:56Z</time>
      </trkpt>
      <trkpt lat="49.11667" lon="-1.41278">
        <ele>92.557236</ele>
        <time>2015-06-05T09:47:01Z</time>
      </trkpt>
      <trkpt lat="49.11663" lon="-1.41279">
        <ele>92.557236</ele>
        <time>2015-06-05T09:47:06Z</time>
      </trkpt>
      <trkpt lat="49.11655" lon="-1.4128">
        <ele>93.02497</ele>
        <time>2015-06-05T09:47:11Z</time>
      </trkpt>
      <trkpt lat="49.11648" lon="-1.4128">
        <ele>93.02497</ele>
        <time>2015-06-05T09:47:16Z</time>
      </trkpt>
      <trkpt lat="49.11641" lon="-1.41282">
        <ele>93.38237</ele>
        <time>2015-06-05T09:47:21Z</time>
      </trkpt>
      <trkpt lat="49.11635" lon="-1.41283">
        <ele>93.38237</ele>
        <time>2015-06-05T09:47:26Z</time>
      </trkpt>
      <trkpt lat="49.11631" lon="-1.41287">
        <ele>93.70967</ele>
        <time>2015-06-05T09:47:31Z</time>
      </trkpt>
      <trkpt lat="49.11625" lon="-1.4129">
        <ele>93.70967</ele>
        <time>2015-06-05T09:47:36Z</time>
      </trkpt>
      <trkpt lat="49.11617" lon="-1.4129">
        <ele>93.9804</ele>
        <time>2015-06-05T09:47:41Z</time>
      </trkpt>
      <trkpt lat="49.11612" lon="-1.41295">
        <ele>93.9804</ele>
        <time>2015-06-05T09:47:46Z</time>
      </trkpt>
      <trkpt lat="49.11606" lon="-1.41297">
        <ele>94.09818</ele>
        <time>2015-06-05T09:47:51Z</time>
      </trkpt>
      <trkpt lat="49.116" lon="-1.41296">
        <ele>94.09818</ele>
        <time>2015-06-05T09:47:56Z</time>
      </trkpt>
      <trkpt lat="49.11595" lon="-1.41299">
        <ele>94.19031</ele>
        <time>2015-06-05T09:48:01Z</time>
      </trkpt>
      <trkpt lat="49.1159" lon="-1.41302">
        <ele>94.19031</ele>
        <time>2015-06-05T09:48:06Z</time>
      </trkpt>
      <trkpt lat="49.11584" lon="-1.41303">
        <ele>94.28834</ele>
        <time>2015-06-05T09:48:11Z</time>
      </trkpt>
      <trkpt lat="49.11578" lon="-1.41307">
        <ele>94.28834</ele>
        <time>2015-06-05T09:48:16Z</time>
      </trkpt>
      <trkpt lat="49.11571" lon="-1.4131">
        <ele>94.27741</ele>
        <time>2015-06-05T09:48:21Z</time>
      </trkpt>
      <trkpt lat="49.11566" lon="-1.41313">
        <ele>94.27741</ele>
        <time>2015-06-05T09:48:26Z</time>
      </trkpt>
      <trkpt lat="49.11561" lon="-1.41317">
        <ele>94.15226</ele>
        <time>2015-06-05T09:48:31Z</time>
      </trkpt>
      <trkpt lat="49.11557" lon="-1.41321">
        <ele>94.15226</ele>
        <time>2015-06-05T09:48:36Z</time>
      </trkpt>
      <trkpt lat="49.1155" lon="-1.41322">
        <ele>93.98041</ele>
        <time>2015-06-05T09:48:41Z</time>
      </trkpt>
      <trkpt lat="49.11543" lon="-1.41325">
        <ele>93.98041</ele>
        <time>2015-06-05T09:48:46Z</time>
      </trkpt>
      <trkpt lat="49.11539" lon="-1.41326">
        <ele>93.70924</ele>
        <time>2015-06-05T09:48:51Z</time>
      </trkpt>
      <trkpt lat="49.11532" lon="-1.4133">
        <ele>93.70924</ele>
        <time>2015-06-05T09:48:56Z</time>
      </trkpt>
      <trkpt lat="49.11527" lon="-1.41333">
        <ele>93.36234</ele>
        <time>2015-06-05T09:49:01Z</time>
      </trkpt>
      <trkpt lat="49.11521" lon="-1.41335">
        <ele>93.36234</ele>
        <time>2015-06-05T09:49:06Z</time>
      </trkpt>
      <trkpt lat="49.11516" lon="-1.41336">
        <ele>92.976166</ele>
        <time>2015-06-05T09:49:11Z</time>
      </trkpt>
      <trkpt lat="49.11511" lon="-1.41335">
        <ele>92.976166</ele>
        <time>2015-06-05T09:49:16Z</time>
      </trkpt>
      <trkpt lat="49.11506" lon="-1.41337">
        <ele>92.59899</ele>
        <time>2015-06-05T09:49:21Z</time>
      </trkpt>
      <trkpt lat="49.11495" lon="-1.41334">
        <ele>92.24668</ele>
        <time>2015-06-05T09:49:26Z</time>
      </trkpt>
      <trkpt lat="49.1149" lon="-1.41335">
        <ele>92.24668</ele>
        <time>2015-06-05T09:49:31Z</time>
      </trkpt>
      <trkpt lat="49.11483" lon="-1.41335">
        <ele>91.77532</ele>
        <time>2015-06-05T09:49:36Z</time>
      </trkpt>
      <trkpt lat="49.11479" lon="-1.41336">
        <ele>91.77532</ele>
        <time>2015-06-05T09:49:41Z</time>
      </trkpt>
      <trkpt lat="49.11474" lon="-1.41336">
        <ele>91.095085</ele>
        <time>2015-06-05T09:49:46Z</time>
      </trkpt>
      <trkpt lat="49.11468" lon="-1.41337">
        <ele>91.095085</ele>
        <time>2015-06-05T09:49:51Z</time>
      </trkpt>
      <trkpt lat="49.11461" lon="-1.41342">
        <ele>90.22419</ele>
        <time>2015-06-05T09:49:56Z</time>
      </trkpt>
      <trkpt lat="49.11457" lon="-1.41351">
        <ele>90.22419</ele>
        <time>2015-06-05T09:50:01Z</time>
      </trkpt>
      <trkpt lat="49.11453" lon="-1.4136">
        <ele>89.179985</ele>
        <time>2015-06-05T09:50:06Z</time>
      </trkpt>
      <trkpt lat="49.11449" lon="-1.41367">
        <ele>89.179985</ele>
        <time>2015-06-05T09:50:11Z</time>
      </trkpt>
      <trkpt lat="49.11447" lon="-1.41372">
        <ele>88.15194</ele>
        <time>2015-06-05T09:50:16Z</time>
      </trkpt>
      <trkpt lat="49.11445" lon="-1.41379">
        <ele>88.15194</ele>
        <time>2015-06-05T09:50:21Z</time>
      </trkpt>
      <trkpt lat="49.11442" lon="-1.41386">
        <ele>87.27225</ele>
        <time>2015-06-05T09:50:26Z</time>
      </trkpt>
      <trkpt lat="49.11439" lon="-1.41392">
        <ele>87.27225</ele>
        <time>2015-06-05T09:50:31Z</time>
      </trkpt>
      <trkpt lat="49.1144" lon="-1.41397">
        <ele>87.27225</ele>
        <time>2015-06-05T09:50:36Z</time>
      </trkpt>
      <trkpt lat="49.11439" lon="-1.41403">
        <ele>86.82144</ele>
        <time>2015-06-05T09:50:41Z</time>
      </trkpt>
      <trkpt lat="49.11435" lon="-1.41411">
        <ele>86.82144</ele>
        <time>2015-06-05T09:50:46Z</time>
      </trkpt>
      <trkpt lat="49.11433" lon="-1.41414">
        <ele>86.56821</ele>
        <time>2015-06-05T09:50:51Z</time>
      </trkpt>
      <trkpt lat="49.11433" lon="-1.41418">
        <ele>86.56821</ele>
        <time>2015-06-05T09:50:56Z</time>
      </trkpt>
      <trkpt lat="49.11435" lon="-1.41427">
        <ele>86.56821</ele>
        <time>2015-06-05T09:51:01Z</time>
      </trkpt>
      <trkpt lat="49.11437" lon="-1.41437">
        <ele>86.773155</ele>
        <time>2015-06-05T09:51:06Z</time>
      </trkpt>
      <trkpt lat="49.11437" lon="-1.41441">
        <ele>86.773155</ele>
        <time>2015-06-05T09:51:11Z</time>
      </trkpt>
      <trkpt lat="49.11438" lon="-1.41444">
        <ele>86.773155</ele>
        <time>2015-06-05T09:51:16Z</time>
      </trkpt>
      <trkpt lat="49.11439" lon="-1.4145">
        <ele>86.773155</ele>
        <time>2015-06-05T09:51:21Z</time>
      </trkpt>
      <trkpt lat="49.11444" lon="-1.41458">
        <ele>87.35936</ele>
        <time>2015-06-05T09:51:26Z</time>
      </trkpt>
      <trkpt lat="49.1145" lon="-1.41466">
        <ele>87.35936</ele>
        <time>2015-06-05T09:51:31Z</time>
      </trkpt>
      <trkpt lat="49.11452" lon="-1.41475">
        <ele>88.00944</ele>
        <time>2015-06-05T09:51:36Z</time>
      </trkpt>
      <trkpt lat="49.11452" lon="-1.41482">
        <ele>88.00944</ele>
        <time>2015-06-05T09:51:41Z</time>
      </trkpt>
      <trkpt lat="49.11455" lon="-1.41492">
        <ele>88.875824</ele>
        <time>2015-06-05T09:51:46Z</time>
      </trkpt>
      <trkpt lat="49.11455" lon="-1.415">
        <ele>88.875824</ele>
        <time>2015-06-05T09:51:51Z</time>
      </trkpt>
      <trkpt lat="49.11457" lon="-1.41507">
        <ele>89.89734</ele>
        <time>2015-06-05T09:51:56Z</time>
      </trkpt>
      <trkpt lat="49.11458" lon="-1.41512">
        <ele>89.89734</ele>
        <time>2015-06-05T09:52:01Z</time>
      </trkpt>
      <trkpt lat="49.11457" lon="-1.41511">
        <ele>89.89734</ele>
        <time>2015-06-05T09:52:06Z</time>
      </trkpt>
      <trkpt lat="49.11456" lon="-1.4151">
        <ele>89.89734</ele>
        <time>2015-06-05T09:52:11Z</time>
      </trkpt>
      <trkpt lat="49.11456" lon="-1.41508">
        <ele>89.89734</ele>
        <time>2015-06-05T09:52:16Z</time>
      </trkpt>
      <trkpt lat="49.11456" lon="-1.41509">
        <ele>89.89734</ele>
        <time>2015-06-05T09:52:21Z</time>
      </trkpt>
      <trkpt lat="49.11456" lon="-1.41509">
        <ele>89.89734</ele>
        <time>2015-06-05T09:52:26Z</time>
      </trkpt>
      <trkpt lat="49.11458" lon="-1.4151">
        <ele>91.06008</ele>
        <time>2015-06-05T09:52:31Z</time>
      </trkpt>
      <trkpt lat="49.11458" lon="-1.41512">
        <ele>91.06008</ele>
        <time>2015-06-05T09:52:36Z</time>
      </trkpt>
      <trkpt lat="49.11457" lon="-1.41513">
        <ele>91.06008</ele>
        <time>2015-06-05T09:52:41Z</time>
      </trkpt>
      <trkpt lat="49.11457" lon="-1.41512">
        <ele>91.06008</ele>
        <time>2015-06-05T09:52:46Z</time>
      </trkpt>
      <trkpt lat="49.11457" lon="-1.41516">
        <ele>91.06008</ele>
        <time>2015-06-05T09:52:51Z</time>
      </trkpt>
      <trkpt lat="49.11456" lon="-1.41515">
        <ele>91.06008</ele>
        <time>2015-06-05T09:52:56Z</time>
      </trkpt>
      <trkpt lat="49.11455" lon="-1.41514">
        <ele>91.06008</ele>
        <time>2015-06-05T09:53:01Z</time>
      </trkpt>
      <trkpt lat="49.11456" lon="-1.4151">
        <ele>92.13456</ele>
        <time>2015-06-05T09:53:06Z</time>
      </trkpt>
      <trkpt lat="49.11452" lon="-1.41499">
        <ele>92.13456</ele>
        <time>2015-06-05T09:53:11Z</time>
      </trkpt>
      <trkpt lat="49.1145" lon="-1.41495">
        <ele>93.08132</ele>
        <time>2015-06-05T09:53:16Z</time>
      </trkpt>
      <trkpt lat="49.1145" lon="-1.41494">
        <ele>93.08132</ele>
        <time>2015-06-05T09:53:21Z</time>
      </trkpt>
      <trkpt lat="49.11449" lon="-1.41494">
        <ele>93.08132</ele>
        <time>2015-06-05T09:53:26Z</time>
      </trkpt>
      <trkpt lat="49.11449" lon="-1.41489">
        <ele>93.08132</ele>
        <time>2015-06-05T09:53:31Z</time>
      </trkpt>
      <trkpt lat="49.11447" lon="-1.41477">
        <ele>93.40789</ele>
        <time>2015-06-05T09:53:36Z</time>
      </trkpt>
      <trkpt lat="49.11446" lon="-1.41474">
        <ele>93.73446</ele>
        <time>2015-06-05T09:53:41Z</time>
      </trkpt>
      <trkpt lat="49.11446" lon="-1.4147">
        <ele>93.73446</ele>
        <time>2015-06-05T09:53:46Z</time>
      </trkpt>
      <trkpt lat="49.11444" lon="-1.41462">
        <ele>93.73446</ele>
        <time>2015-06-05T09:53:51Z</time>
      </trkpt>
      <trkpt lat="49.11439" lon="-1.41451">
        <ele>93.897835</ele>
        <time>2015-06-05T09:53:56Z</time>
      </trkpt>
      <trkpt lat="49.11434" lon="-1.41442">
        <ele>93.897835</ele>
        <time>2015-06-05T09:54:01Z</time>
      </trkpt>
      <trkpt lat="49.11436" lon="-1.41428">
        <ele>93.80902</ele>
        <time>2015-06-05T09:54:06Z</time>
      </trkpt>
      <trkpt lat="49.11435" lon="-1.41414">
        <ele>93.57358</ele>
        <time>2015-06-05T09:54:11Z</time>
      </trkpt>
      <trkpt lat="49.11434" lon="-1.4141">
        <ele>93.57358</ele>
        <time>2015-06-05T09:54:16Z</time>
      </trkpt>
      <trkpt lat="49.11429" lon="-1.41409">
        <ele>93.57358</ele>
        <time>2015-06-05T09:54:21Z</time>
      </trkpt>
      <trkpt lat="49.11426" lon="-1.41402">
        <ele>93.31851</ele>
        <time>2015-06-05T09:54:26Z</time>
      </trkpt>
      <trkpt lat="49.11423" lon="-1.41394">
        <ele>93.31851</ele>
        <time>2015-06-05T09:54:31Z</time>
      </trkpt>
      <trkpt lat="49.11417" lon="-1.41385">
        <ele>93.132774</ele>
        <time>2015-06-05T09:54:36Z</time>
      </trkpt>
      <trkpt lat="49.11412" lon="-1.41381">
        <ele>93.132774</ele>
        <time>2015-06-05T09:54:41Z</time>
      </trkpt>
      <trkpt lat="49.11405" lon="-1.41379">
        <ele>92.882385</ele>
        <time>2015-06-05T09:54:46Z</time>
      </trkpt>
      <trkpt lat="49.11399" lon="-1.41377">
        <ele>92.882385</ele>
        <time>2015-06-05T09:54:51Z</time>
      </trkpt>
      <trkpt lat="49.11394" lon="-1.41376">
        <ele>92.5731</ele>
        <time>2015-06-05T09:54:56Z</time>
      </trkpt>
      <trkpt lat="49.11389" lon="-1.41373">
        <ele>92.5731</ele>
        <time>2015-06-05T09:55:01Z</time>
      </trkpt>
      <trkpt lat="49.11385" lon="-1.41373">
        <ele>92.21041</ele>
        <time>2015-06-05T09:55:06Z</time>
      </trkpt>
      <trkpt lat="49.11373" lon="-1.41371">
        <ele>91.82836</ele>
        <time>2015-06-05T09:55:11Z</time>
      </trkpt>
      <trkpt lat="49.11368" lon="-1.4137">
        <ele>91.82836</ele>
        <time>2015-06-05T09:55:16Z</time>
      </trkpt>
      <trkpt lat="49.11367" lon="-1.4137">
        <ele>91.82836</ele>
        <time>2015-06-05T09:55:21Z</time>
      </trkpt>
      <trkpt lat="49.11362" lon="-1.41371">
        <ele>91.42972</ele>
        <time>2015-06-05T09:55:26Z</time>
      </trkpt>
      <trkpt lat="49.11356" lon="-1.41368">
        <ele>91.42972</ele>
        <time>2015-06-05T09:55:31Z</time>
      </trkpt>
      <trkpt lat="49.11351" lon="-1.41368">
        <ele>90.97383</ele>
        <time>2015-06-05T09:55:36Z</time>
      </trkpt>
      <trkpt lat="49.11345" lon="-1.41368">
        <ele>90.97383</ele>
        <time>2015-06-05T09:55:41Z</time>
      </trkpt>
      <trkpt lat="49.1134" lon="-1.41368">
        <ele>90.480835</ele>
        <time>2015-06-05T09:55:46Z</time>
      </trkpt>
      <trkpt lat="49.11335" lon="-1.41369">
        <ele>90.480835</ele>
        <time>2015-06-05T09:55:51Z</time>
      </trkpt>
      <trkpt lat="49.11324" lon="-1.41369">
        <ele>89.983864</ele>
        <time>2015-06-05T09:55:56Z</time>
      </trkpt>
      <trkpt lat="49.11318" lon="-1.41368">
        <ele>89.983864</ele>
        <time>2015-06-05T09:56:01Z</time>
      </trkpt>
      <trkpt lat="49.11313" lon="-1.41368">
        <ele>89.4848</ele>
        <time>2015-06-05T09:56:06Z</time>
      </trkpt>
      <trkpt lat="49.11307" lon="-1.41369">
        <ele>89.4848</ele>
        <time>2015-06-05T09:56:11Z</time>
      </trkpt>
      <trkpt lat="49.113" lon="-1.4137">
        <ele>89.04299</ele>
        <time>2015-06-05T09:56:16Z</time>
      </trkpt>
      <trkpt lat="49.11295" lon="-1.4137">
        <ele>89.04299</ele>
        <time>2015-06-05T09:56:21Z</time>
      </trkpt>
      <trkpt lat="49.11287" lon="-1.41368">
        <ele>88.74207</ele>
        <time>2015-06-05T09:56:26Z</time>
      </trkpt>
      <trkpt lat="49.11282" lon="-1.41368">
        <ele>88.74207</ele>
        <time>2015-06-05T09:56:31Z</time>
      </trkpt>
      <trkpt lat="49.11277" lon="-1.41368">
        <ele>88.514984</ele>
        <time>2015-06-05T09:56:36Z</time>
      </trkpt>
      <trkpt lat="49.11271" lon="-1.41367">
        <ele>88.514984</ele>
        <time>2015-06-05T09:56:41Z</time>
      </trkpt>
      <trkpt lat="49.11267" lon="-1.41369">
        <ele>88.31377</ele>
        <time>2015-06-05T09:56:46Z</time>
      </trkpt>
      <trkpt lat="49.11261" lon="-1.4137">
        <ele>88.31377</ele>
        <time>2015-06-05T09:56:51Z</time>
      </trkpt>
      <trkpt lat="49.11257" lon="-1.41369">
        <ele>88.12271</ele>
        <time>2015-06-05T09:56:56Z</time>
      </trkpt>
      <trkpt lat="49.11254" lon="-1.41369">
        <ele>88.12271</ele>
        <time>2015-06-05T09:57:01Z</time>
      </trkpt>
      <trkpt lat="49.11244" lon="-1.41366">
        <ele>87.91278</ele>
        <time>2015-06-05T09:57:06Z</time>
      </trkpt>
      <trkpt lat="49.11236" lon="-1.41365">
        <ele>87.91278</ele>
        <time>2015-06-05T09:57:11Z</time>
      </trkpt>
      <trkpt lat="49.11226" lon="-1.4136">
        <ele>87.757965</ele>
        <time>2015-06-05T09:57:16Z</time>
      </trkpt>
      <trkpt lat="49.11221" lon="-1.41359">
        <ele>87.757965</ele>
        <time>2015-06-05T09:57:21Z</time>
      </trkpt>
      <trkpt lat="49.11216" lon="-1.41359">
        <ele>87.75548</ele>
        <time>2015-06-05T09:57:26Z</time>
      </trkpt>
      <trkpt lat="49.11211" lon="-1.41358">
        <ele>87.75548</ele>
        <time>2015-06-05T09:57:31Z</time>
      </trkpt>
      <trkpt lat="49.11205" lon="-1.41355">
        <ele>87.87963</ele>
        <time>2015-06-05T09:57:36Z</time>
      </trkpt>
      <trkpt lat="49.11199" lon="-1.41357">
        <ele>87.87963</ele>
        <time>2015-06-05T09:57:41Z</time>
      </trkpt>
      <trkpt lat="49.11198" lon="-1.41357">
        <ele>87.87963</ele>
        <time>2015-06-05T09:57:46Z</time>
      </trkpt>
      <trkpt lat="49.11194" lon="-1.4136">
        <ele>88.16389</ele>
        <time>2015-06-05T09:57:51Z</time>
      </trkpt>
      <trkpt lat="49.11188" lon="-1.41359">
        <ele>88.16389</ele>
        <time>2015-06-05T09:57:56Z</time>
      </trkpt>
      <trkpt lat="49.11185" lon="-1.4136">
        <ele>88.52349</ele>
        <time>2015-06-05T09:58:01Z</time>
      </trkpt>
      <trkpt lat="49.11181" lon="-1.41356">
        <ele>88.52349</ele>
        <time>2015-06-05T09:58:06Z</time>
      </trkpt>
      <trkpt lat="49.11174" lon="-1.41355">
        <ele>88.96616</ele>
        <time>2015-06-05T09:58:11Z</time>
      </trkpt>
      <trkpt lat="49.11167" lon="-1.41354">
        <ele>88.96616</ele>
        <time>2015-06-05T09:58:16Z</time>
      </trkpt>
      <trkpt lat="49.1116" lon="-1.41351">
        <ele>89.49879</ele>
        <time>2015-06-05T09:58:21Z</time>
      </trkpt>
      <trkpt lat="49.11155" lon="-1.4135">
        <ele>89.49879</ele>
        <time>2015-06-05T09:58:26Z</time>
      </trkpt>
      <trkpt lat="49.11148" lon="-1.41343">
        <ele>90.012215</ele>
        <time>2015-06-05T09:58:31Z</time>
      </trkpt>
      <trkpt lat="49.11139" lon="-1.41341">
        <ele>90.012215</ele>
        <time>2015-06-05T09:58:36Z</time>
      </trkpt>
      <trkpt lat="49.11133" lon="-1.4134">
        <ele>90.53505</ele>
        <time>2015-06-05T09:58:41Z</time>
      </trkpt>
      <trkpt lat="49.11127" lon="-1.41341">
        <ele>90.53505</ele>
        <time>2015-06-05T09:58:46Z</time>
      </trkpt>
      <trkpt lat="49.11122" lon="-1.41343">
        <ele>91.09379</ele>
        <time>2015-06-05T09:58:51Z</time>
      </trkpt>
      <trkpt lat="49.11117" lon="-1.41345">
        <ele>91.09379</ele>
        <time>2015-06-05T09:58:56Z</time>
      </trkpt>
      <trkpt lat="49.11114" lon="-1.41344">
        <ele>91.09379</ele>
        <time>2015-06-05T09:59:01Z</time>
      </trkpt>
      <trkpt lat="49.11109" lon="-1.41343">
        <ele>91.7705</ele>
        <time>2015-06-05T09:59:06Z</time>
      </trkpt>
      <trkpt lat="49.11108" lon="-1.41346">
        <ele>91.7705</ele>
        <time>2015-06-05T09:59:11Z</time>
      </trkpt>
      <trkpt lat="49.11105" lon="-1.41348">
        <ele>91.7705</ele>
        <time>2015-06-05T09:59:16Z</time>
      </trkpt>
      <trkpt lat="49.111" lon="-1.41348">
        <ele>92.66977</ele>
        <time>2015-06-05T09:59:21Z</time>
      </trkpt>
      <trkpt lat="49.11094" lon="-1.41346">
        <ele>92.66977</ele>
        <time>2015-06-05T09:59:26Z</time>
      </trkpt>
      <trkpt lat="49.11088" lon="-1.41344">
        <ele>93.65729</ele>
        <time>2015-06-05T09:59:31Z</time>
      </trkpt>
      <trkpt lat="49.11085" lon="-1.41345">
        <ele>93.65729</ele>
        <time>2015-06-05T09:59:36Z</time>
      </trkpt>
      <trkpt lat="49.11077" lon="-1.41343">
        <ele>94.7525</ele>
        <time>2015-06-05T09:59:41Z</time>
      </trkpt>
      <trkpt lat="49.11072" lon="-1.41339">
        <ele>94.7525</ele>
        <time>2015-06-05T09:59:46Z</time>
      </trkpt>
      <trkpt lat="49.11067" lon="-1.41336">
        <ele>95.82906</ele>
        <time>2015-06-05T09:59:51Z</time>
      </trkpt>
      <trkpt lat="49.11059" lon="-1.41331">
        <ele>95.82906</ele>
        <time>2015-06-05T09:59:56Z</time>
      </trkpt>
      <trkpt lat="49.11053" lon="-1.4133">
        <ele>97.00056</ele>
        <time>2015-06-05T10:00:01Z</time>
      </trkpt>
      <trkpt lat="49.11046" lon="-1.41328">
        <ele>97.00056</ele>
        <time>2015-06-05T10:00:06Z</time>
      </trkpt>
      <trkpt lat="49.11041" lon="-1.41324">
        <ele>98.27113</ele>
        <time>2015-06-05T10:00:11Z</time>
      </trkpt>
      <trkpt lat="49.11034" lon="-1.41323">
        <ele>98.27113</ele>
        <time>2015-06-05T10:00:16Z</time>
      </trkpt>
      <trkpt lat="49.1103" lon="-1.41319">
        <ele>99.61559</ele>
        <time>2015-06-05T10:00:21Z</time>
      </trkpt>
      <trkpt lat="49.11023" lon="-1.41314">
        <ele>99.61559</ele>
        <time>2015-06-05T10:00:26Z</time>
      </trkpt>
      <trkpt lat="49.11018" lon="-1.41313">
        <ele>100.9816</ele>
        <time>2015-06-05T10:00:31Z</time>
      </trkpt>
      <trkpt lat="49.11012" lon="-1.41312">
        <ele>100.9816</ele>
        <time>2015-06-05T10:00:36Z</time>
      </trkpt>
      <trkpt lat="49.11008" lon="-1.4131">
        <ele>102.40714</ele>
        <time>2015-06-05T10:00:41Z</time>
      </trkpt>
      <trkpt lat="49.11003" lon="-1.41308">
        <ele>102.40714</ele>
        <time>2015-06-05T10:00:46Z</time>
      </trkpt>
      <trkpt lat="49.10996" lon="-1.41302">
        <ele>103.840866</ele>
        <time>2015-06-05T10:00:51Z</time>
      </trkpt>
      <trkpt lat="49.10991" lon="-1.413">
        <ele>103.840866</ele>
        <time>2015-06-05T10:00:56Z</time>
      </trkpt>
      <trkpt lat="49.10985" lon="-1.413">
        <ele>105.264046</ele>
        <time>2015-06-05T10:01:01Z</time>
      </trkpt>
      <trkpt lat="49.1098" lon="-1.413">
        <ele>105.264046</ele>
        <time>2015-06-05T10:01:06Z</time>
      </trkpt>
      <trkpt lat="49.10975" lon="-1.41298">
        <ele>106.68828</ele>
        <time>2015-06-05T10:01:11Z</time>
      </trkpt>
      <trkpt lat="49.10971" lon="-1.41295">
        <ele>106.68828</ele>
        <time>2015-06-05T10:01:16Z</time>
      </trkpt>
      <trkpt lat="49.10969" lon="-1.41293">
        <ele>106.68828</ele>
        <time>2015-06-05T10:01:21Z</time>
      </trkpt>
      <trkpt lat="49.10968" lon="-1.41293">
        <ele>106.68828</ele>
        <time>2015-06-05T10:01:26Z</time>
      </trkpt>
      <trkpt lat="49.10964" lon="-1.41294">
        <ele>108.138794</ele>
        <time>2015-06-05T10:01:31Z</time>
      </trkpt>
      <trkpt lat="49.10958" lon="-1.41291">
        <ele>108.138794</ele>
        <time>2015-06-05T10:01:36Z</time>
      </trkpt>
      <trkpt lat="49.10952" lon="-1.4129">
        <ele>109.595764</ele>
        <time>2015-06-05T10:01:41Z</time>
      </trkpt>
      <trkpt lat="49.10946" lon="-1.41289">
        <ele>109.595764</ele>
        <time>2015-06-05T10:01:46Z</time>
      </trkpt>
      <trkpt lat="49.1094" lon="-1.41287">
        <ele>111.026474</ele>
        <time>2015-06-05T10:01:51Z</time>
      </trkpt>
      <trkpt lat="49.10935" lon="-1.41283">
        <ele>111.026474</ele>
        <time>2015-06-05T10:01:56Z</time>
      </trkpt>
      <trkpt lat="49.10927" lon="-1.4128">
        <ele>112.41519</ele>
        <time>2015-06-05T10:02:01Z</time>
      </trkpt>
      <trkpt lat="49.10921" lon="-1.41276">
        <ele>112.41519</ele>
        <time>2015-06-05T10:02:06Z</time>
      </trkpt>
      <trkpt lat="49.10915" lon="-1.41274">
        <ele>113.73315</ele>
        <time>2015-06-05T10:02:11Z</time>
      </trkpt>
      <trkpt lat="49.10909" lon="-1.4127">
        <ele>113.73315</ele>
        <time>2015-06-05T10:02:16Z</time>
      </trkpt>
      <trkpt lat="49.10903" lon="-1.4127">
        <ele>114.93958</ele>
        <time>2015-06-05T10:02:21Z</time>
      </trkpt>
      <trkpt lat="49.10899" lon="-1.41269">
        <ele>114.93958</ele>
        <time>2015-06-05T10:02:26Z</time>
      </trkpt>
      <trkpt lat="49.10893" lon="-1.41265">
        <ele>115.99714</ele>
        <time>2015-06-05T10:02:31Z</time>
      </trkpt>
      <trkpt lat="49.10888" lon="-1.41264">
        <ele>115.99714</ele>
        <time>2015-06-05T10:02:36Z</time>
      </trkpt>
      <trkpt lat="49.10883" lon="-1.41262">
        <ele>116.92935</ele>
        <time>2015-06-05T10:02:41Z</time>
      </trkpt>
      <trkpt lat="49.10876" lon="-1.41259">
        <ele>116.92935</ele>
        <time>2015-06-05T10:02:46Z</time>
      </trkpt>
      <trkpt lat="49.10871" lon="-1.41259">
        <ele>117.71528</ele>
        <time>2015-06-05T10:02:51Z</time>
      </trkpt>
      <trkpt lat="49.10866" lon="-1.41256">
        <ele>117.71528</ele>
        <time>2015-06-05T10:02:56Z</time>
      </trkpt>
      <trkpt lat="49.1086" lon="-1.41252">
        <ele>118.37921</ele>
        <time>2015-06-05T10:03:01Z</time>
      </trkpt>
      <trkpt lat="49.10854" lon="-1.41248">
        <ele>118.37921</ele>
        <time>2015-06-05T10:03:06Z</time>
      </trkpt>
      <trkpt lat="49.10849" lon="-1.41244">
        <ele>118.92971</ele>
        <time>2015-06-05T10:03:11Z</time>
      </trkpt>
      <trkpt lat="49.10842" lon="-1.41239">
        <ele>118.92971</ele>
        <time>2015-06-05T10:03:16Z</time>
      </trkpt>
      <trkpt lat="49.10835" lon="-1.41236">
        <ele>119.33186</ele>
        <time>2015-06-05T10:03:21Z</time>
      </trkpt>
      <trkpt lat="49.1083" lon="-1.41233">
        <ele>119.33186</ele>
        <time>2015-06-05T10:03:26Z</time>
      </trkpt>
      <trkpt lat="49.10824" lon="-1.41229">
        <ele>119.69793</ele>
        <time>2015-06-05T10:03:31Z</time>
      </trkpt>
      <trkpt lat="49.10819" lon="-1.41224">
        <ele>119.69793</ele>
        <time>2015-06-05T10:03:36Z</time>
      </trkpt>
      <trkpt lat="49.10814" lon="-1.41221">
        <ele>120.00239</ele>
        <time>2015-06-05T10:03:41Z</time>
      </trkpt>
      <trkpt lat="49.10809" lon="-1.41217">
        <ele>120.00239</ele>
        <time>2015-06-05T10:03:46Z</time>
      </trkpt>
      <trkpt lat="49.10803" lon="-1.41214">
        <ele>120.20742</ele>
        <time>2015-06-05T10:03:51Z</time>
      </trkpt>
      <trkpt lat="49.10798" lon="-1.4121">
        <ele>120.20742</ele>
        <time>2015-06-05T10:03:56Z</time>
      </trkpt>
      <trkpt lat="49.10792" lon="-1.41206">
        <ele>120.32157</ele>
        <time>2015-06-05T10:04:01Z</time>
      </trkpt>
      <trkpt lat="49.10786" lon="-1.41203">
        <ele>120.32157</ele>
        <time>2015-06-05T10:04:06Z</time>
      </trkpt>
      <trkpt lat="49.10781" lon="-1.41202">
        <ele>120.39627</ele>
        <time>2015-06-05T10:04:11Z</time>
      </trkpt>
      <trkpt lat="49.10776" lon="-1.412">
        <ele>120.39627</ele>
        <time>2015-06-05T10:04:16Z</time>
      </trkpt>
      <trkpt lat="49.1077" lon="-1.41197">
        <ele>120.421684</ele>
        <time>2015-06-05T10:04:21Z</time>
      </trkpt>
      <trkpt lat="49.10765" lon="-1.41192">
        <ele>120.421684</ele>
        <time>2015-06-05T10:04:26Z</time>
      </trkpt>
      <trkpt lat="49.1076" lon="-1.4119">
        <ele>120.360054</ele>
        <time>2015-06-05T10:04:31Z</time>
      </trkpt>
      <trkpt lat="49.10755" lon="-1.41187">
        <ele>120.360054</ele>
        <time>2015-06-05T10:04:36Z</time>
      </trkpt>
      <trkpt lat="49.1075" lon="-1.41185">
        <ele>120.075775</ele>
        <time>2015-06-05T10:04:41Z</time>
      </trkpt>
      <trkpt lat="49.10744" lon="-1.41183">
        <ele>120.075775</ele>
        <time>2015-06-05T10:04:46Z</time>
      </trkpt>
      <trkpt lat="49.10738" lon="-1.41181">
        <ele>119.60237</ele>
        <time>2015-06-05T10:04:51Z</time>
      </trkpt>
      <trkpt lat="49.10733" lon="-1.4118">
        <ele>119.60237</ele>
        <time>2015-06-05T10:04:56Z</time>
      </trkpt>
      <trkpt lat="49.1073" lon="-1.4118">
        <ele>119.60237</ele>
        <time>2015-06-05T10:05:01Z</time>
      </trkpt>
      <trkpt lat="49.1073" lon="-1.41181">
        <ele>119.0435</ele>
        <time>2015-06-05T10:05:06Z</time>
      </trkpt>
      <trkpt lat="49.10729" lon="-1.41181">
        <ele>119.0435</ele>
        <time>2015-06-05T10:05:11Z</time>
      </trkpt>
      <trkpt lat="49.1073" lon="-1.41181">
        <ele>119.0435</ele>
        <time>2015-06-05T10:05:16Z</time>
      </trkpt>
      <trkpt lat="49.1073" lon="-1.41181">
        <ele>119.0435</ele>
        <time>2015-06-05T10:05:21Z</time>
      </trkpt>
      <trkpt lat="49.1073" lon="-1.4118">
        <ele>119.0435</ele>
        <time>2015-06-05T10:05:26Z</time>
      </trkpt>
      <trkpt lat="49.1073" lon="-1.41179">
        <ele>119.0435</ele>
        <time>2015-06-05T10:05:31Z</time>
      </trkpt>
      <trkpt lat="49.1073" lon="-1.4118">
        <ele>119.0435</ele>
        <time>2015-06-05T10:05:36Z</time>
      </trkpt>
      <trkpt lat="49.10729" lon="-1.41179">
        <ele>119.0435</ele>
        <time>2015-06-05T10:05:41Z</time>
      </trkpt>
      <trkpt lat="49.10731" lon="-1.41178">
        <ele>119.0435</ele>
        <time>2015-06-05T10:05:46Z</time>
      </trkpt>
      <trkpt lat="49.1073" lon="-1.41179">
        <ele>119.0435</ele>
        <time>2015-06-05T10:05:51Z</time>
      </trkpt>
      <trkpt lat="49.1073" lon="-1.41179">
        <ele>119.0435</ele>
        <time>2015-06-05T10:05:56Z</time>
      </trkpt>
      <trkpt lat="49.10729" lon="-1.41178">
        <ele>119.0435</ele>
        <time>2015-06-05T10:06:01Z</time>
      </trkpt>
      <trkpt lat="49.1073" lon="-1.41179">
        <ele>118.322495</ele>
        <time>2015-06-05T10:06:06Z</time>
      </trkpt>
      <trkpt lat="49.10731" lon="-1.41179">
        <ele>118.322495</ele>
        <time>2015-06-05T10:06:11Z</time>
      </trkpt>
      <trkpt lat="49.10732" lon="-1.41179">
        <ele>118.322495</ele>
        <time>2015-06-05T10:06:16Z</time>
      </trkpt>
      <trkpt lat="49.10732" lon="-1.4118">
        <ele>118.322495</ele>
        <time>2015-06-05T10:06:21Z</time>
      </trkpt>
      <trkpt lat="49.10732" lon="-1.4118">
        <ele>118.322495</ele>
        <time>2015-06-05T10:06:26Z</time>
      </trkpt>
      <trkpt lat="49.10731" lon="-1.4118">
        <ele>118.322495</ele>
        <time>2015-06-05T10:06:31Z</time>
      </trkpt>
      <trkpt lat="49.10731" lon="-1.41181">
        <ele>118.322495</ele>
        <time>2015-06-05T10:06:36Z</time>
      </trkpt>
      <trkpt lat="49.1073" lon="-1.41182">
        <ele>118.322495</ele>
        <time>2015-06-05T10:06:41Z</time>
      </trkpt>
      <trkpt lat="49.1073" lon="-1.41183">
        <ele>118.322495</ele>
        <time>2015-06-05T10:06:46Z</time>
      </trkpt>
      <trkpt lat="49.10726" lon="-1.41181">
        <ele>117.39758</ele>
        <time>2015-06-05T10:06:51Z</time>
      </trkpt>
      <trkpt lat="49.1072" lon="-1.41177">
        <ele>117.39758</ele>
        <time>2015-06-05T10:06:56Z</time>
      </trkpt>
      <trkpt lat="49.10716" lon="-1.41175">
        <ele>116.50443</ele>
        <time>2015-06-05T10:07:01Z</time>
      </trkpt>
      <trkpt lat="49.10711" lon="-1.41176">
        <ele>116.50443</ele>
        <time>2015-06-05T10:07:06Z</time>
      </trkpt>
      <trkpt lat="49.10705" lon="-1.41178">
        <ele>115.58744</ele>
        <time>2015-06-05T10:07:11Z</time>
      </trkpt>
      <trkpt lat="49.10698" lon="-1.41178">
        <ele>115.58744</ele>
        <time>2015-06-05T10:07:16Z</time>
      </trkpt>
      <trkpt lat="49.10692" lon="-1.41179">
        <ele>114.71042</ele>
        <time>2015-06-05T10:07:21Z</time>
      </trkpt>
      <trkpt lat="49.10686" lon="-1.4118">
        <ele>114.71042</ele>
        <time>2015-06-05T10:07:26Z</time>
      </trkpt>
      <trkpt lat="49.10679" lon="-1.41182">
        <ele>113.8026</ele>
        <time>2015-06-05T10:07:31Z</time>
      </trkpt>
      <trkpt lat="49.10673" lon="-1.41183">
        <ele>113.8026</ele>
        <time>2015-06-05T10:07:36Z</time>
      </trkpt>
      <trkpt lat="49.10668" lon="-1.41183">
        <ele>112.89934</ele>
        <time>2015-06-05T10:07:41Z</time>
      </trkpt>
      <trkpt lat="49.10663" lon="-1.41182">
        <ele>112.89934</ele>
        <time>2015-06-05T10:07:46Z</time>
      </trkpt>
      <trkpt lat="49.10658" lon="-1.41183">
        <ele>111.9324</ele>
        <time>2015-06-05T10:07:51Z</time>
      </trkpt>
      <trkpt lat="49.10655" lon="-1.41181">
        <ele>111.9324</ele>
        <time>2015-06-05T10:07:56Z</time>
      </trkpt>
      <trkpt lat="49.10652" lon="-1.41182">
        <ele>111.9324</ele>
        <time>2015-06-05T10:08:01Z</time>
      </trkpt>
      <trkpt lat="49.10648" lon="-1.41179">
        <ele>110.83869</ele>
        <time>2015-06-05T10:08:06Z</time>
      </trkpt>
      <trkpt lat="49.10645" lon="-1.4118">
        <ele>110.83869</ele>
        <time>2015-06-05T10:08:11Z</time>
      </trkpt>
      <trkpt lat="49.10641" lon="-1.41185">
        <ele>110.83869</ele>
        <time>2015-06-05T10:08:16Z</time>
      </trkpt>
      <trkpt lat="49.10638" lon="-1.41189">
        <ele>109.86263</ele>
        <time>2015-06-05T10:08:21Z</time>
      </trkpt>
      <trkpt lat="49.10637" lon="-1.41188">
        <ele>109.86263</ele>
        <time>2015-06-05T10:08:26Z</time>
      </trkpt>
      <trkpt lat="49.10636" lon="-1.41188">
        <ele>109.86263</ele>
        <time>2015-06-05T10:08:31Z</time>
      </trkpt>
      <trkpt lat="49.10636" lon="-1.41188">
        <ele>109.86263</ele>
        <time>2015-06-05T10:08:36Z</time>
      </trkpt>
      <trkpt lat="49.10636" lon="-1.41187">
        <ele>109.86263</ele>
        <time>2015-06-05T10:08:41Z</time>
      </trkpt>
      <trkpt lat="49.10631" lon="-1.41185">
        <ele>109.86263</ele>
        <time>2015-06-05T10:08:46Z</time>
      </trkpt>
      <trkpt lat="49.10625" lon="-1.41186">
        <ele>109.08616</ele>
        <time>2015-06-05T10:08:51Z</time>
      </trkpt>
      <trkpt lat="49.10619" lon="-1.41184">
        <ele>109.08616</ele>
        <time>2015-06-05T10:08:56Z</time>
      </trkpt>
      <trkpt lat="49.10613" lon="-1.41184">
        <ele>108.36836</ele>
        <time>2015-06-05T10:09:01Z</time>
      </trkpt>
      <trkpt lat="49.10606" lon="-1.41184">
        <ele>108.36836</ele>
        <time>2015-06-05T10:09:06Z</time>
      </trkpt>
      <trkpt lat="49.10601" lon="-1.41183">
        <ele>107.76578</ele>
        <time>2015-06-05T10:09:11Z</time>
      </trkpt>
      <trkpt lat="49.10595" lon="-1.41184">
        <ele>107.76578</ele>
        <time>2015-06-05T10:09:16Z</time>
      </trkpt>
      <trkpt lat="49.10589" lon="-1.41183">
        <ele>107.20064</ele>
        <time>2015-06-05T10:09:21Z</time>
      </trkpt>
      <trkpt lat="49.10584" lon="-1.41182">
        <ele>107.20064</ele>
        <time>2015-06-05T10:09:26Z</time>
      </trkpt>
      <trkpt lat="49.10578" lon="-1.4118">
        <ele>106.65833</ele>
        <time>2015-06-05T10:09:31Z</time>
      </trkpt>
      <trkpt lat="49.10572" lon="-1.41179">
        <ele>106.65833</ele>
        <time>2015-06-05T10:09:36Z</time>
      </trkpt>
      <trkpt lat="49.10565" lon="-1.41177">
        <ele>106.153984</ele>
        <time>2015-06-05T10:09:41Z</time>
      </trkpt>
      <trkpt lat="49.1056" lon="-1.41176">
        <ele>106.153984</ele>
        <time>2015-06-05T10:09:46Z</time>
      </trkpt>
      <trkpt lat="49.10553" lon="-1.41174">
        <ele>105.73021</ele>
        <time>2015-06-05T10:09:51Z</time>
      </trkpt>
      <trkpt lat="49.10548" lon="-1.41173">
        <ele>105.73021</ele>
        <time>2015-06-05T10:09:56Z</time>
      </trkpt>
      <trkpt lat="49.10542" lon="-1.41171">
        <ele>105.33971</ele>
        <time>2015-06-05T10:10:01Z</time>
      </trkpt>
      <trkpt lat="49.10536" lon="-1.4117">
        <ele>105.33971</ele>
        <time>2015-06-05T10:10:06Z</time>
      </trkpt>
      <trkpt lat="49.1053" lon="-1.4117">
        <ele>105.02492</ele>
        <time>2015-06-05T10:10:11Z</time>
      </trkpt>
      <trkpt lat="49.10523" lon="-1.41171">
        <ele>105.02492</ele>
        <time>2015-06-05T10:10:16Z</time>
      </trkpt>
      <trkpt lat="49.10518" lon="-1.41172">
        <ele>104.78162</ele>
        <time>2015-06-05T10:10:21Z</time>
      </trkpt>
      <trkpt lat="49.10511" lon="-1.4117">
        <ele>104.78162</ele>
        <time>2015-06-05T10:10:26Z</time>
      </trkpt>
      <trkpt lat="49.10505" lon="-1.41167">
        <ele>104.620026</ele>
        <time>2015-06-05T10:10:31Z</time>
      </trkpt>
      <trkpt lat="49.10499" lon="-1.41164">
        <ele>104.620026</ele>
        <time>2015-06-05T10:10:36Z</time>
      </trkpt>
      <trkpt lat="49.10494" lon="-1.41163">
        <ele>104.448395</ele>
        <time>2015-06-05T10:10:41Z</time>
      </trkpt>
      <trkpt lat="49.10489" lon="-1.41164">
        <ele>104.448395</ele>
        <time>2015-06-05T10:10:46Z</time>
      </trkpt>
      <trkpt lat="49.10484" lon="-1.41165">
        <ele>104.34019</ele>
        <time>2015-06-05T10:10:51Z</time>
      </trkpt>
      <trkpt lat="49.10479" lon="-1.41165">
        <ele>104.34019</ele>
        <time>2015-06-05T10:10:56Z</time>
      </trkpt>
      <trkpt lat="49.10475" lon="-1.41164">
        <ele>104.34019</ele>
        <time>2015-06-05T10:11:01Z</time>
      </trkpt>
      <trkpt lat="49.10473" lon="-1.41163">
        <ele>104.348816</ele>
        <time>2015-06-05T10:11:06Z</time>
      </trkpt>
      <trkpt lat="49.1047" lon="-1.41163">
        <ele>104.348816</ele>
        <time>2015-06-05T10:11:11Z</time>
      </trkpt>
      <trkpt lat="49.10465" lon="-1.41162">
        <ele>104.348816</ele>
        <time>2015-06-05T10:11:16Z</time>
      </trkpt>
      <trkpt lat="49.10456" lon="-1.4116">
        <ele>104.35042</ele>
        <time>2015-06-05T10:11:21Z</time>
      </trkpt>
      <trkpt lat="49.10448" lon="-1.41159">
        <ele>104.35042</ele>
        <time>2015-06-05T10:11:26Z</time>
      </trkpt>
      <trkpt lat="49.10442" lon="-1.41159">
        <ele>104.43192</ele>
        <time>2015-06-05T10:11:31Z</time>
      </trkpt>
      <trkpt lat="49.10438" lon="-1.41159">
        <ele>104.43192</ele>
        <time>2015-06-05T10:11:36Z</time>
      </trkpt>
      <trkpt lat="49.10434" lon="-1.4116">
        <ele>104.43192</ele>
        <time>2015-06-05T10:11:41Z</time>
      </trkpt>
      <trkpt lat="49.10425" lon="-1.41161">
        <ele>104.543915</ele>
        <time>2015-06-05T10:11:46Z</time>
      </trkpt>
      <trkpt lat="49.1042" lon="-1.41162">
        <ele>104.543915</ele>
        <time>2015-06-05T10:11:51Z</time>
      </trkpt>
      <trkpt lat="49.10414" lon="-1.41163">
        <ele>104.726906</ele>
        <time>2015-06-05T10:11:56Z</time>
      </trkpt>
      <trkpt lat="49.10409" lon="-1.41164">
        <ele>104.726906</ele>
        <time>2015-06-05T10:12:01Z</time>
      </trkpt>
      <trkpt lat="49.10406" lon="-1.41164">
        <ele>104.726906</ele>
        <time>2015-06-05T10:12:06Z</time>
      </trkpt>
      <trkpt lat="49.10401" lon="-1.41166">
        <ele>104.931725</ele>
        <time>2015-06-05T10:12:11Z</time>
      </trkpt>
      <trkpt lat="49.10397" lon="-1.41166">
        <ele>104.931725</ele>
        <time>2015-06-05T10:12:16Z</time>
      </trkpt>
      <trkpt lat="49.10392" lon="-1.41166">
        <ele>105.213585</ele>
        <time>2015-06-05T10:12:21Z</time>
      </trkpt>
      <trkpt lat="49.10386" lon="-1.41167">
        <ele>105.213585</ele>
        <time>2015-06-05T10:12:26Z</time>
      </trkpt>
      <trkpt lat="49.10381" lon="-1.41166">
        <ele>105.58014</ele>
        <time>2015-06-05T10:12:31Z</time>
      </trkpt>
      <trkpt lat="49.10375" lon="-1.41167">
        <ele>105.58014</ele>
        <time>2015-06-05T10:12:36Z</time>
      </trkpt>
      <trkpt lat="49.10366" lon="-1.41166">
        <ele>105.922935</ele>
        <time>2015-06-05T10:12:41Z</time>
      </trkpt>
      <trkpt lat="49.1036" lon="-1.41165">
        <ele>105.922935</ele>
        <time>2015-06-05T10:12:46Z</time>
      </trkpt>
      <trkpt lat="49.10356" lon="-1.41166">
        <ele>106.34327</ele>
        <time>2015-06-05T10:12:51Z</time>
      </trkpt>
      <trkpt lat="49.10352" lon="-1.41165">
        <ele>106.34327</ele>
        <time>2015-06-05T10:12:56Z</time>
      </trkpt>
      <trkpt lat="49.10344" lon="-1.41161">
        <ele>106.68978</ele>
        <time>2015-06-05T10:13:01Z</time>
      </trkpt>
      <trkpt lat="49.10338" lon="-1.41162">
        <ele>106.68978</ele>
        <time>2015-06-05T10:13:06Z</time>
      </trkpt>
      <trkpt lat="49.10334" lon="-1.41163">
        <ele>107.038574</ele>
        <time>2015-06-05T10:13:11Z</time>
      </trkpt>
      <trkpt lat="49.10329" lon="-1.41164">
        <ele>107.038574</ele>
        <time>2015-06-05T10:13:16Z</time>
      </trkpt>
      <trkpt lat="49.10325" lon="-1.41164">
        <ele>107.038574</ele>
        <time>2015-06-05T10:13:21Z</time>
      </trkpt>
      <trkpt lat="49.10319" lon="-1.41165">
        <ele>107.344864</ele>
        <time>2015-06-05T10:13:26Z</time>
      </trkpt>
      <trkpt lat="49.10314" lon="-1.41167">
        <ele>107.344864</ele>
        <time>2015-06-05T10:13:31Z</time>
      </trkpt>
      <trkpt lat="49.10309" lon="-1.41168">
        <ele>107.66814</ele>
        <time>2015-06-05T10:13:36Z</time>
      </trkpt>
      <trkpt lat="49.10304" lon="-1.4117">
        <ele>107.66814</ele>
        <time>2015-06-05T10:13:41Z</time>
      </trkpt>
      <trkpt lat="49.10299" lon="-1.4117">
        <ele>107.97702</ele>
        <time>2015-06-05T10:13:46Z</time>
      </trkpt>
      <trkpt lat="49.1029" lon="-1.4117">
        <ele>108.28569</ele>
        <time>2015-06-05T10:13:51Z</time>
      </trkpt>
      <trkpt lat="49.10284" lon="-1.41168">
        <ele>108.28569</ele>
        <time>2015-06-05T10:13:56Z</time>
      </trkpt>
      <trkpt lat="49.10277" lon="-1.41169">
        <ele>108.70819</ele>
        <time>2015-06-05T10:14:01Z</time>
      </trkpt>
      <trkpt lat="49.10272" lon="-1.41169">
        <ele>108.70819</ele>
        <time>2015-06-05T10:14:06Z</time>
      </trkpt>
      <trkpt lat="49.10266" lon="-1.41167">
        <ele>109.1337</ele>
        <time>2015-06-05T10:14:11Z</time>
      </trkpt>
      <trkpt lat="49.10259" lon="-1.41165">
        <ele>109.1337</ele>
        <time>2015-06-05T10:14:16Z</time>
      </trkpt>
      <trkpt lat="49.10258" lon="-1.41164">
        <ele>109.1337</ele>
        <time>2015-06-05T10:14:21Z</time>
      </trkpt>
      <trkpt lat="49.10256" lon="-1.41165">
        <ele>109.5316</ele>
        <time>2015-06-05T10:14:26Z</time>
      </trkpt>
      <trkpt lat="49.10256" lon="-1.41167">
        <ele>109.5316</ele>
        <time>2015-06-05T10:14:31Z</time>
      </trkpt>
      <trkpt lat="49.10255" lon="-1.41168">
        <ele>109.5316</ele>
        <time>2015-06-05T10:14:36Z</time>
      </trkpt>
      <trkpt lat="49.10254" lon="-1.41169">
        <ele>109.5316</ele>
        <time>2015-06-05T10:14:41Z</time>
      </trkpt>
      <trkpt lat="49.10254" lon="-1.41168">
        <ele>109.5316</ele>
        <time>2015-06-05T10:14:46Z</time>
      </trkpt>
      <trkpt lat="49.10254" lon="-1.41169">
        <ele>109.5316</ele>
        <time>2015-06-05T10:14:51Z</time>
      </trkpt>
      <trkpt lat="49.10255" lon="-1.41169">
        <ele>109.5316</ele>
        <time>2015-06-05T10:14:56Z</time>
      </trkpt>
      <trkpt lat="49.10254" lon="-1.4117">
        <ele>109.5316</ele>
        <time>2015-06-05T10:15:01Z</time>
      </trkpt>
      <trkpt lat="49.10253" lon="-1.4117">
        <ele>109.5316</ele>
        <time>2015-06-05T10:15:06Z</time>
      </trkpt>
      <trkpt lat="49.10253" lon="-1.41169">
        <ele>109.5316</ele>
        <time>2015-06-05T10:15:11Z</time>
      </trkpt>
      <trkpt lat="49.10253" lon="-1.41166">
        <ele>109.91687</ele>
        <time>2015-06-05T10:15:16Z</time>
      </trkpt>
      <trkpt lat="49.1025" lon="-1.41166">
        <ele>109.91687</ele>
        <time>2015-06-05T10:15:21Z</time>
      </trkpt>
      <trkpt lat="49.10248" lon="-1.41165">
        <ele>109.91687</ele>
        <time>2015-06-05T10:15:26Z</time>
      </trkpt>
      <trkpt lat="49.10248" lon="-1.41166">
        <ele>109.91687</ele>
        <time>2015-06-05T10:15:31Z</time>
      </trkpt>
      <trkpt lat="49.10247" lon="-1.41168">
        <ele>109.91687</ele>
        <time>2015-06-05T10:15:36Z</time>
      </trkpt>
      <trkpt lat="49.10245" lon="-1.4117">
        <ele>110.31782</ele>
        <time>2015-06-05T10:15:41Z</time>
      </trkpt>
      <trkpt lat="49.10241" lon="-1.4117">
        <ele>110.31782</ele>
        <time>2015-06-05T10:15:46Z</time>
      </trkpt>
      <trkpt lat="49.10237" lon="-1.41169">
        <ele>110.31782</ele>
        <time>2015-06-05T10:15:51Z</time>
      </trkpt>
      <trkpt lat="49.10236" lon="-1.41168">
        <ele>110.74628</ele>
        <time>2015-06-05T10:15:56Z</time>
      </trkpt>
      <trkpt lat="49.10234" lon="-1.41165">
        <ele>110.74628</ele>
        <time>2015-06-05T10:16:01Z</time>
      </trkpt>
      <trkpt lat="49.10234" lon="-1.41164">
        <ele>110.74628</ele>
        <time>2015-06-05T10:16:06Z</time>
      </trkpt>
      <trkpt lat="49.10234" lon="-1.41163">
        <ele>110.74628</ele>
        <time>2015-06-05T10:16:11Z</time>
      </trkpt>
      <trkpt lat="49.10235" lon="-1.41164">
        <ele>110.74628</ele>
        <time>2015-06-05T10:16:16Z</time>
      </trkpt>
      <trkpt lat="49.10235" lon="-1.41165">
        <ele>110.74628</ele>
        <time>2015-06-05T10:16:21Z</time>
      </trkpt>
      <trkpt lat="49.10234" lon="-1.41165">
        <ele>110.74628</ele>
        <time>2015-06-05T10:16:26Z</time>
      </trkpt>
      <trkpt lat="49.10232" lon="-1.41165">
        <ele>110.74628</ele>
        <time>2015-06-05T10:16:31Z</time>
      </trkpt>
      <trkpt lat="49.10229" lon="-1.41169">
        <ele>111.19873</ele>
        <time>2015-06-05T10:16:36Z</time>
      </trkpt>
      <trkpt lat="49.10225" lon="-1.41167">
        <ele>111.19873</ele>
        <time>2015-06-05T10:16:41Z</time>
      </trkpt>
      <trkpt lat="49.10217" lon="-1.41166">
        <ele>111.67188</ele>
        <time>2015-06-05T10:16:46Z</time>
      </trkpt>
      <trkpt lat="49.10214" lon="-1.41166">
        <ele>111.67188</ele>
        <time>2015-06-05T10:16:51Z</time>
      </trkpt>
      <trkpt lat="49.10209" lon="-1.41168">
        <ele>111.67188</ele>
        <time>2015-06-05T10:16:56Z</time>
      </trkpt>
      <trkpt lat="49.10205" lon="-1.41171">
        <ele>112.10502</ele>
        <time>2015-06-05T10:17:01Z</time>
      </trkpt>
      <trkpt lat="49.102" lon="-1.41172">
        <ele>112.10502</ele>
        <time>2015-06-05T10:17:06Z</time>
      </trkpt>
      <trkpt lat="49.10193" lon="-1.41172">
        <ele>112.55731</ele>
        <time>2015-06-05T10:17:11Z</time>
      </trkpt>
      <trkpt lat="49.10189" lon="-1.41171">
        <ele>112.55731</ele>
        <time>2015-06-05T10:17:16Z</time>
      </trkpt>
      <trkpt lat="49.10183" lon="-1.41171">
        <ele>113.09797</ele>
        <time>2015-06-05T10:17:21Z</time>
      </trkpt>
      <trkpt lat="49.1018" lon="-1.41172">
        <ele>113.09797</ele>
        <time>2015-06-05T10:17:26Z</time>
      </trkpt>
      <trkpt lat="49.10177" lon="-1.41172">
        <ele>113.09797</ele>
        <time>2015-06-05T10:17:31Z</time>
      </trkpt>
      <trkpt lat="49.10175" lon="-1.41174">
        <ele>113.09797</ele>
        <time>2015-06-05T10:17:36Z</time>
      </trkpt>
      <trkpt lat="49.10172" lon="-1.41174">
        <ele>113.545944</ele>
        <time>2015-06-05T10:17:41Z</time>
      </trkpt>
      <trkpt lat="49.10165" lon="-1.41175">
        <ele>113.545944</ele>
        <time>2015-06-05T10:17:46Z</time>
      </trkpt>
      <trkpt lat="49.10161" lon="-1.41176">
        <ele>113.83463</ele>
        <time>2015-06-05T10:17:51Z</time>
      </trkpt>
      <trkpt lat="49.10155" lon="-1.41175">
        <ele>113.83463</ele>
        <time>2015-06-05T10:17:56Z</time>
      </trkpt>
      <trkpt lat="49.10149" lon="-1.41177">
        <ele>113.989296</ele>
        <time>2015-06-05T10:18:01Z</time>
      </trkpt>
      <trkpt lat="49.10142" lon="-1.41176">
        <ele>113.989296</ele>
        <time>2015-06-05T10:18:06Z</time>
      </trkpt>
      <trkpt lat="49.10136" lon="-1.41176">
        <ele>114.13463</ele>
        <time>2015-06-05T10:18:11Z</time>
      </trkpt>
      <trkpt lat="49.10131" lon="-1.41174">
        <ele>114.13463</ele>
        <time>2015-06-05T10:18:16Z</time>
      </trkpt>
      <trkpt lat="49.10125" lon="-1.41171">
        <ele>114.270935</ele>
        <time>2015-06-05T10:18:21Z</time>
      </trkpt>
      <trkpt lat="49.10119" lon="-1.41169">
        <ele>114.270935</ele>
        <time>2015-06-05T10:18:26Z</time>
      </trkpt>
      <trkpt lat="49.10112" lon="-1.41167">
        <ele>114.48503</ele>
        <time>2015-06-05T10:18:31Z</time>
      </trkpt>
      <trkpt lat="49.10109" lon="-1.41169">
        <ele>114.48503</ele>
        <time>2015-06-05T10:18:36Z</time>
      </trkpt>
      <trkpt lat="49.10105" lon="-1.4117">
        <ele>114.48503</ele>
        <time>2015-06-05T10:18:41Z</time>
      </trkpt>
      <trkpt lat="49.101" lon="-1.41169">
        <ele>114.78512</ele>
        <time>2015-06-05T10:18:46Z</time>
      </trkpt>
      <trkpt lat="49.10093" lon="-1.41165">
        <ele>114.78512</ele>
        <time>2015-06-05T10:18:51Z</time>
      </trkpt>
      <trkpt lat="49.10087" lon="-1.41161">
        <ele>115.03447</ele>
        <time>2015-06-05T10:18:56Z</time>
      </trkpt>
      <trkpt lat="49.10082" lon="-1.41162">
        <ele>115.03447</ele>
        <time>2015-06-05T10:19:01Z</time>
      </trkpt>
      <trkpt lat="49.10077" lon="-1.41164">
        <ele>115.30834</ele>
        <time>2015-06-05T10:19:06Z</time>
      </trkpt>
      <trkpt lat="49.1007" lon="-1.41161">
        <ele>115.30834</ele>
        <time>2015-06-05T10:19:11Z</time>
      </trkpt>
      <trkpt lat="49.10063" lon="-1.41154">
        <ele>115.61877</ele>
        <time>2015-06-05T10:19:16Z</time>
      </trkpt>
      <trkpt lat="49.10058" lon="-1.41155">
        <ele>115.61877</ele>
        <time>2015-06-05T10:19:21Z</time>
      </trkpt>
      <trkpt lat="49.1005" lon="-1.41156">
        <ele>115.94802</ele>
        <time>2015-06-05T10:19:26Z</time>
      </trkpt>
      <trkpt lat="49.10043" lon="-1.41153">
        <ele>115.94802</ele>
        <time>2015-06-05T10:19:31Z</time>
      </trkpt>
      <trkpt lat="49.10038" lon="-1.4115">
        <ele>116.322876</ele>
        <time>2015-06-05T10:19:36Z</time>
      </trkpt>
      <trkpt lat="49.10034" lon="-1.41149">
        <ele>116.322876</ele>
        <time>2015-06-05T10:19:41Z</time>
      </trkpt>
      <trkpt lat="49.10028" lon="-1.41148">
        <ele>116.72481</ele>
        <time>2015-06-05T10:19:46Z</time>
      </trkpt>
      <trkpt lat="49.10026" lon="-1.41149">
        <ele>116.72481</ele>
        <time>2015-06-05T10:19:51Z</time>
      </trkpt>
      <trkpt lat="49.10017" lon="-1.41145">
        <ele>117.09339</ele>
        <time>2015-06-05T10:19:56Z</time>
      </trkpt>
      <trkpt lat="49.1001" lon="-1.41147">
        <ele>117.09339</ele>
        <time>2015-06-05T10:20:01Z</time>
      </trkpt>
      <trkpt lat="49.10005" lon="-1.41148">
        <ele>117.51686</ele>
        <time>2015-06-05T10:20:06Z</time>
      </trkpt>
      <trkpt lat="49.10001" lon="-1.41148">
        <ele>117.51686</ele>
        <time>2015-06-05T10:20:11Z</time>
      </trkpt>
      <trkpt lat="49.09995" lon="-1.41149">
        <ele>118.00479</ele>
        <time>2015-06-05T10:20:16Z</time>
      </trkpt>
      <trkpt lat="49.09988" lon="-1.41147">
        <ele>118.00479</ele>
        <time>2015-06-05T10:20:21Z</time>
      </trkpt>
      <trkpt lat="49.09978" lon="-1.41147">
        <ele>118.60914</ele>
        <time>2015-06-05T10:20:26Z</time>
      </trkpt>
      <trkpt lat="49.09972" lon="-1.41146">
        <ele>118.60914</ele>
        <time>2015-06-05T10:20:31Z</time>
      </trkpt>
      <trkpt lat="49.09967" lon="-1.41146">
        <ele>119.27687</ele>
        <time>2015-06-05T10:20:36Z</time>
      </trkpt>
      <trkpt lat="49.09962" lon="-1.41144">
        <ele>119.27687</ele>
        <time>2015-06-05T10:20:41Z</time>
      </trkpt>
      <trkpt lat="49.09957" lon="-1.41146">
        <ele>120.00194</ele>
        <time>2015-06-05T10:20:46Z</time>
      </trkpt>
      <trkpt lat="49.09951" lon="-1.41147">
        <ele>120.00194</ele>
        <time>2015-06-05T10:20:51Z</time>
      </trkpt>
      <trkpt lat="49.09951" lon="-1.41145">
        <ele>120.00194</ele>
        <time>2015-06-05T10:20:56Z</time>
      </trkpt>
      <trkpt lat="49.09951" lon="-1.41145">
        <ele>120.00194</ele>
        <time>2015-06-05T10:21:01Z</time>
      </trkpt>
      <trkpt lat="49.09949" lon="-1.41143">
        <ele>120.72096</ele>
        <time>2015-06-05T10:21:06Z</time>
      </trkpt>
      <trkpt lat="49.09948" lon="-1.4114">
        <ele>120.72096</ele>
        <time>2015-06-05T10:21:11Z</time>
      </trkpt>
      <trkpt lat="49.09949" lon="-1.4114">
        <ele>120.72096</ele>
        <time>2015-06-05T10:21:16Z</time>
      </trkpt>
      <trkpt lat="49.0995" lon="-1.4114">
        <ele>120.72096</ele>
        <time>2015-06-05T10:21:21Z</time>
      </trkpt>
      <trkpt lat="49.0995" lon="-1.41139">
        <ele>120.72096</ele>
        <time>2015-06-05T10:21:26Z</time>
      </trkpt>
      <trkpt lat="49.0995" lon="-1.41138">
        <ele>120.72096</ele>
        <time>2015-06-05T10:21:31Z</time>
      </trkpt>
      <trkpt lat="49.09951" lon="-1.41139">
        <ele>120.72096</ele>
        <time>2015-06-05T10:21:36Z</time>
      </trkpt>
      <trkpt lat="49.09951" lon="-1.41142">
        <ele>120.72096</ele>
        <time>2015-06-05T10:21:41Z</time>
      </trkpt>
      <trkpt lat="49.0995" lon="-1.41145">
        <ele>121.519394</ele>
        <time>2015-06-05T10:21:46Z</time>
      </trkpt>
      <trkpt lat="49.0995" lon="-1.41145">
        <ele>121.519394</ele>
        <time>2015-06-05T10:21:51Z</time>
      </trkpt>
      <trkpt lat="49.09949" lon="-1.41144">
        <ele>121.519394</ele>
        <time>2015-06-05T10:21:56Z</time>
      </trkpt>
      <trkpt lat="49.09949" lon="-1.41144">
        <ele>121.519394</ele>
        <time>2015-06-05T10:22:01Z</time>
      </trkpt>
      <trkpt lat="49.0995" lon="-1.41143">
        <ele>121.519394</ele>
        <time>2015-06-05T10:22:06Z</time>
      </trkpt>
      <trkpt lat="49.09947" lon="-1.41143">
        <ele>121.519394</ele>
        <time>2015-06-05T10:22:11Z</time>
      </trkpt>
      <trkpt lat="49.09944" lon="-1.41143">
        <ele>121.519394</ele>
        <time>2015-06-05T10:22:16Z</time>
      </trkpt>
      <trkpt lat="49.09937" lon="-1.41141">
        <ele>122.40417</ele>
        <time>2015-06-05T10:22:21Z</time>
      </trkpt>
      <trkpt lat="49.0993" lon="-1.41142">
        <ele>122.40417</ele>
        <time>2015-06-05T10:22:26Z</time>
      </trkpt>
      <trkpt lat="49.09923" lon="-1.4114">
        <ele>123.32384</ele>
        <time>2015-06-05T10:22:31Z</time>
      </trkpt>
      <trkpt lat="49.09918" lon="-1.4114">
        <ele>123.32384</ele>
        <time>2015-06-05T10:22:36Z</time>
      </trkpt>
      <trkpt lat="49.09913" lon="-1.41143">
        <ele>124.173065</ele>
        <time>2015-06-05T10:22:41Z</time>
      </trkpt>
      <trkpt lat="49.09906" lon="-1.41144">
        <ele>124.173065</ele>
        <time>2015-06-05T10:22:46Z</time>
      </trkpt>
      <trkpt lat="49.09901" lon="-1.41149">
        <ele>125.02741</ele>
        <time>2015-06-05T10:22:51Z</time>
      </trkpt>
      <trkpt lat="49.09895" lon="-1.41152">
        <ele>125.02741</ele>
        <time>2015-06-05T10:22:56Z</time>
      </trkpt>
      <trkpt lat="49.09888" lon="-1.41154">
        <ele>125.9281</ele>
        <time>2015-06-05T10:23:01Z</time>
      </trkpt>
      <trkpt lat="49.09885" lon="-1.41154">
        <ele>125.9281</ele>
        <time>2015-06-05T10:23:06Z</time>
      </trkpt>
      <trkpt lat="49.09877" lon="-1.4115">
        <ele>126.81237</ele>
        <time>2015-06-05T10:23:11Z</time>
      </trkpt>
      <trkpt lat="49.09871" lon="-1.41149">
        <ele>126.81237</ele>
        <time>2015-06-05T10:23:16Z</time>
      </trkpt>
      <trkpt lat="49.09868" lon="-1.4115">
        <ele>127.52128</ele>
        <time>2015-06-05T10:23:21Z</time>
      </trkpt>
      <trkpt lat="49.09859" lon="-1.41155">
        <ele>128.09546</ele>
        <time>2015-06-05T10:23:26Z</time>
      </trkpt>
      <trkpt lat="49.09852" lon="-1.41153">
        <ele>128.09546</ele>
        <time>2015-06-05T10:23:31Z</time>
      </trkpt>
      <trkpt lat="49.09847" lon="-1.41152">
        <ele>128.47209</ele>
        <time>2015-06-05T10:23:36Z</time>
      </trkpt>
      <trkpt lat="49.09839" lon="-1.41151">
        <ele>128.47209</ele>
        <time>2015-06-05T10:23:41Z</time>
      </trkpt>
      <trkpt lat="49.0983" lon="-1.41155">
        <ele>128.76653</ele>
        <time>2015-06-05T10:23:46Z</time>
      </trkpt>
      <trkpt lat="49.09824" lon="-1.41159">
        <ele>128.76653</ele>
        <time>2015-06-05T10:23:51Z</time>
      </trkpt>
      <trkpt lat="49.09817" lon="-1.4116">
        <ele>129.17236</ele>
        <time>2015-06-05T10:23:56Z</time>
      </trkpt>
      <trkpt lat="49.09811" lon="-1.41164">
        <ele>129.17236</ele>
        <time>2015-06-05T10:24:01Z</time>
      </trkpt>
      <trkpt lat="49.09806" lon="-1.41166">
        <ele>129.69579</ele>
        <time>2015-06-05T10:24:06Z</time>
      </trkpt>
      <trkpt lat="49.09801" lon="-1.41167">
        <ele>129.69579</ele>
        <time>2015-06-05T10:24:11Z</time>
      </trkpt>
      <trkpt lat="49.09794" lon="-1.41168">
        <ele>130.28458</ele>
        <time>2015-06-05T10:24:16Z</time>
      </trkpt>
      <trkpt lat="49.09786" lon="-1.41174">
        <ele>130.28458</ele>
        <time>2015-06-05T10:24:21Z</time>
      </trkpt>
      <trkpt lat="49.09782" lon="-1.41177">
        <ele>130.96227</ele>
        <time>2015-06-05T10:24:26Z</time>
      </trkpt>
      <trkpt lat="49.09777" lon="-1.41178">
        <ele>130.96227</ele>
        <time>2015-06-05T10:24:31Z</time>
      </trkpt>
      <trkpt lat="49.09771" lon="-1.41178">
        <ele>131.6784</ele>
        <time>2015-06-05T10:24:36Z</time>
      </trkpt>
      <trkpt lat="49.09767" lon="-1.4118">
        <ele>131.6784</ele>
        <time>2015-06-05T10:24:41Z</time>
      </trkpt>
      <trkpt lat="49.09763" lon="-1.41182">
        <ele>131.6784</ele>
        <time>2015-06-05T10:24:46Z</time>
      </trkpt>
      <trkpt lat="49.09756" lon="-1.41183">
        <ele>132.35733</ele>
        <time>2015-06-05T10:24:51Z</time>
      </trkpt>
      <trkpt lat="49.09748" lon="-1.41183">
        <ele>132.35733</ele>
        <time>2015-06-05T10:24:56Z</time>
      </trkpt>
      <trkpt lat="49.09742" lon="-1.41182">
        <ele>132.87144</ele>
        <time>2015-06-05T10:25:01Z</time>
      </trkpt>
      <trkpt lat="49.09735" lon="-1.41185">
        <ele>132.87144</ele>
        <time>2015-06-05T10:25:06Z</time>
      </trkpt>
      <trkpt lat="49.09728" lon="-1.41188">
        <ele>133.29036</ele>
        <time>2015-06-05T10:25:11Z</time>
      </trkpt>
      <trkpt lat="49.09722" lon="-1.4119">
        <ele>133.29036</ele>
        <time>2015-06-05T10:25:16Z</time>
      </trkpt>
      <trkpt lat="49.09716" lon="-1.41192">
        <ele>133.60681</ele>
        <time>2015-06-05T10:25:21Z</time>
      </trkpt>
      <trkpt lat="49.0971" lon="-1.41194">
        <ele>133.60681</ele>
        <time>2015-06-05T10:25:26Z</time>
      </trkpt>
      <trkpt lat="49.09705" lon="-1.41196">
        <ele>133.88643</ele>
        <time>2015-06-05T10:25:31Z</time>
      </trkpt>
      <trkpt lat="49.09698" lon="-1.41199">
        <ele>133.88643</ele>
        <time>2015-06-05T10:25:36Z</time>
      </trkpt>
      <trkpt lat="49.09693" lon="-1.41202">
        <ele>134.19019</ele>
        <time>2015-06-05T10:25:41Z</time>
      </trkpt>
      <trkpt lat="49.09687" lon="-1.41205">
        <ele>134.19019</ele>
        <time>2015-06-05T10:25:46Z</time>
      </trkpt>
      <trkpt lat="49.0968" lon="-1.41207">
        <ele>134.50243</ele>
        <time>2015-06-05T10:25:51Z</time>
      </trkpt>
      <trkpt lat="49.09673" lon="-1.41209">
        <ele>134.50243</ele>
        <time>2015-06-05T10:25:56Z</time>
      </trkpt>
      <trkpt lat="49.09667" lon="-1.41211">
        <ele>134.85191</ele>
        <time>2015-06-05T10:26:01Z</time>
      </trkpt>
      <trkpt lat="49.09661" lon="-1.41211">
        <ele>134.85191</ele>
        <time>2015-06-05T10:26:06Z</time>
      </trkpt>
      <trkpt lat="49.09655" lon="-1.41212">
        <ele>135.20753</ele>
        <time>2015-06-05T10:26:11Z</time>
      </trkpt>
      <trkpt lat="49.09649" lon="-1.41211">
        <ele>135.20753</ele>
        <time>2015-06-05T10:26:16Z</time>
      </trkpt>
      <trkpt lat="49.09643" lon="-1.41211">
        <ele>135.51166</ele>
        <time>2015-06-05T10:26:21Z</time>
      </trkpt>
      <trkpt lat="49.09637" lon="-1.41212">
        <ele>135.51166</ele>
        <time>2015-06-05T10:26:26Z</time>
      </trkpt>
      <trkpt lat="49.09631" lon="-1.41212">
        <ele>135.75424</ele>
        <time>2015-06-05T10:26:31Z</time>
      </trkpt>
      <trkpt lat="49.09625" lon="-1.41211">
        <ele>135.75424</ele>
        <time>2015-06-05T10:26:36Z</time>
      </trkpt>
      <trkpt lat="49.09619" lon="-1.41213">
        <ele>135.89738</ele>
        <time>2015-06-05T10:26:41Z</time>
      </trkpt>
      <trkpt lat="49.09613" lon="-1.41215">
        <ele>135.89738</ele>
        <time>2015-06-05T10:26:46Z</time>
      </trkpt>
      <trkpt lat="49.09607" lon="-1.41216">
        <ele>135.96385</ele>
        <time>2015-06-05T10:26:51Z</time>
      </trkpt>
      <trkpt lat="49.096" lon="-1.41216">
        <ele>135.96385</ele>
        <time>2015-06-05T10:26:56Z</time>
      </trkpt>
      <trkpt lat="49.09594" lon="-1.41216">
        <ele>136.0038</ele>
        <time>2015-06-05T10:27:01Z</time>
      </trkpt>
      <trkpt lat="49.09588" lon="-1.41218">
        <ele>136.0038</ele>
        <time>2015-06-05T10:27:06Z</time>
      </trkpt>
      <trkpt lat="49.0958" lon="-1.41219">
        <ele>136.02052</ele>
        <time>2015-06-05T10:27:11Z</time>
      </trkpt>
      <trkpt lat="49.09575" lon="-1.41218">
        <ele>136.02052</ele>
        <time>2015-06-05T10:27:16Z</time>
      </trkpt>
      <trkpt lat="49.0957" lon="-1.41219">
        <ele>136.00273</ele>
        <time>2015-06-05T10:27:21Z</time>
      </trkpt>
      <trkpt lat="49.09564" lon="-1.41222">
        <ele>136.00273</ele>
        <time>2015-06-05T10:27:26Z</time>
      </trkpt>
      <trkpt lat="49.09557" lon="-1.41223">
        <ele>136.05534</ele>
        <time>2015-06-05T10:27:31Z</time>
      </trkpt>
      <trkpt lat="49.09551" lon="-1.41224">
        <ele>136.05534</ele>
        <time>2015-06-05T10:27:36Z</time>
      </trkpt>
      <trkpt lat="49.09545" lon="-1.41228">
        <ele>136.08801</ele>
        <time>2015-06-05T10:27:41Z</time>
      </trkpt>
      <trkpt lat="49.0954" lon="-1.41228">
        <ele>136.08801</ele>
        <time>2015-06-05T10:27:46Z</time>
      </trkpt>
      <trkpt lat="49.09536" lon="-1.41226">
        <ele>136.03145</ele>
        <time>2015-06-05T10:27:51Z</time>
      </trkpt>
      <trkpt lat="49.09528" lon="-1.41224">
        <ele>136.03145</ele>
        <time>2015-06-05T10:27:56Z</time>
      </trkpt>
      <trkpt lat="49.0952" lon="-1.4123">
        <ele>135.93703</ele>
        <time>2015-06-05T10:28:01Z</time>
      </trkpt>
      <trkpt lat="49.09514" lon="-1.4123">
        <ele>135.93703</ele>
        <time>2015-06-05T10:28:06Z</time>
      </trkpt>
      <trkpt lat="49.09508" lon="-1.41231">
        <ele>135.8668</ele>
        <time>2015-06-05T10:28:11Z</time>
      </trkpt>
      <trkpt lat="49.095" lon="-1.41232">
        <ele>135.8668</ele>
        <time>2015-06-05T10:28:16Z</time>
      </trkpt>
      <trkpt lat="49.09494" lon="-1.41234">
        <ele>135.82054</ele>
        <time>2015-06-05T10:28:21Z</time>
      </trkpt>
      <trkpt lat="49.09487" lon="-1.41236">
        <ele>135.82054</ele>
        <time>2015-06-05T10:28:26Z</time>
      </trkpt>
      <trkpt lat="49.09481" lon="-1.41238">
        <ele>135.75468</ele>
        <time>2015-06-05T10:28:31Z</time>
      </trkpt>
      <trkpt lat="49.09475" lon="-1.41236">
        <ele>135.75468</ele>
        <time>2015-06-05T10:28:36Z</time>
      </trkpt>
      <trkpt lat="49.09468" lon="-1.41236">
        <ele>135.64334</ele>
        <time>2015-06-05T10:28:41Z</time>
      </trkpt>
      <trkpt lat="49.09462" lon="-1.41237">
        <ele>135.64334</ele>
        <time>2015-06-05T10:28:46Z</time>
      </trkpt>
      <trkpt lat="49.09455" lon="-1.41239">
        <ele>135.53464</ele>
        <time>2015-06-05T10:28:51Z</time>
      </trkpt>
      <trkpt lat="49.0945" lon="-1.4124">
        <ele>135.53464</ele>
        <time>2015-06-05T10:28:56Z</time>
      </trkpt>
      <trkpt lat="49.09445" lon="-1.41243">
        <ele>135.42993</ele>
        <time>2015-06-05T10:29:01Z</time>
      </trkpt>
      <trkpt lat="49.09439" lon="-1.41247">
        <ele>135.42993</ele>
        <time>2015-06-05T10:29:06Z</time>
      </trkpt>
      <trkpt lat="49.09433" lon="-1.41251">
        <ele>135.40242</ele>
        <time>2015-06-05T10:29:11Z</time>
      </trkpt>
      <trkpt lat="49.09429" lon="-1.41255">
        <ele>135.40242</ele>
        <time>2015-06-05T10:29:16Z</time>
      </trkpt>
      <trkpt lat="49.09421" lon="-1.41258">
        <ele>135.30357</ele>
        <time>2015-06-05T10:29:21Z</time>
      </trkpt>
      <trkpt lat="49.09415" lon="-1.41263">
        <ele>135.30357</ele>
        <time>2015-06-05T10:29:26Z</time>
      </trkpt>
      <trkpt lat="49.09409" lon="-1.4127">
        <ele>135.26971</ele>
        <time>2015-06-05T10:29:31Z</time>
      </trkpt>
      <trkpt lat="49.09405" lon="-1.41275">
        <ele>135.26971</ele>
        <time>2015-06-05T10:29:36Z</time>
      </trkpt>
      <trkpt lat="49.09399" lon="-1.41278">
        <ele>135.18192</ele>
        <time>2015-06-05T10:29:41Z</time>
      </trkpt>
      <trkpt lat="49.09393" lon="-1.41284">
        <ele>135.18192</ele>
        <time>2015-06-05T10:29:46Z</time>
      </trkpt>
      <trkpt lat="49.09389" lon="-1.41289">
        <ele>135.05983</ele>
        <time>2015-06-05T10:29:51Z</time>
      </trkpt>
      <trkpt lat="49.09382" lon="-1.41292">
        <ele>135.05983</ele>
        <time>2015-06-05T10:29:56Z</time>
      </trkpt>
      <trkpt lat="49.09378" lon="-1.41296">
        <ele>134.87848</ele>
        <time>2015-06-05T10:30:01Z</time>
      </trkpt>
      <trkpt lat="49.09373" lon="-1.41301">
        <ele>134.87848</ele>
        <time>2015-06-05T10:30:06Z</time>
      </trkpt>
      <trkpt lat="49.09367" lon="-1.41307">
        <ele>134.5716</ele>
        <time>2015-06-05T10:30:11Z</time>
      </trkpt>
      <trkpt lat="49.09362" lon="-1.41311">
        <ele>134.5716</ele>
        <time>2015-06-05T10:30:16Z</time>
      </trkpt>
      <trkpt lat="49.09359" lon="-1.41313">
        <ele>134.20782</ele>
        <time>2015-06-05T10:30:21Z</time>
      </trkpt>
      <trkpt lat="49.09361" lon="-1.41313">
        <ele>134.20782</ele>
        <time>2015-06-05T10:30:26Z</time>
      </trkpt>
      <trkpt lat="49.0936" lon="-1.41312">
        <ele>134.20782</ele>
        <time>2015-06-05T10:30:31Z</time>
      </trkpt>
      <trkpt lat="49.09358" lon="-1.41312">
        <ele>134.20782</ele>
        <time>2015-06-05T10:30:36Z</time>
      </trkpt>
      <trkpt lat="49.09359" lon="-1.41312">
        <ele>134.20782</ele>
        <time>2015-06-05T10:30:41Z</time>
      </trkpt>
      <trkpt lat="49.09359" lon="-1.41311">
        <ele>134.20782</ele>
        <time>2015-06-05T10:30:46Z</time>
      </trkpt>
      <trkpt lat="49.09359" lon="-1.41313">
        <ele>134.20782</ele>
        <time>2015-06-05T10:30:51Z</time>
      </trkpt>
      <trkpt lat="49.09359" lon="-1.41313">
        <ele>134.20782</ele>
        <time>2015-06-05T10:30:56Z</time>
      </trkpt>
      <trkpt lat="49.09359" lon="-1.41311">
        <ele>134.20782</ele>
        <time>2015-06-05T10:31:01Z</time>
      </trkpt>
      <trkpt lat="49.09358" lon="-1.4131">
        <ele>133.53377</ele>
        <time>2015-06-05T10:31:06Z</time>
      </trkpt>
      <trkpt lat="49.09359" lon="-1.41309">
        <ele>133.53377</ele>
        <time>2015-06-05T10:31:11Z</time>
      </trkpt>
      <trkpt lat="49.09358" lon="-1.41309">
        <ele>133.53377</ele>
        <time>2015-06-05T10:31:16Z</time>
      </trkpt>
      <trkpt lat="49.09358" lon="-1.41309">
        <ele>133.53377</ele>
        <time>2015-06-05T10:31:21Z</time>
      </trkpt>
      <trkpt lat="49.09359" lon="-1.41308">
        <ele>133.53377</ele>
        <time>2015-06-05T10:31:26Z</time>
      </trkpt>
      <trkpt lat="49.0936" lon="-1.41308">
        <ele>133.53377</ele>
        <time>2015-06-05T10:31:31Z</time>
      </trkpt>
      <trkpt lat="49.0936" lon="-1.41307">
        <ele>133.53377</ele>
        <time>2015-06-05T10:31:36Z</time>
      </trkpt>
      <trkpt lat="49.0936" lon="-1.41307">
        <ele>133.53377</ele>
        <time>2015-06-05T10:31:41Z</time>
      </trkpt>
      <trkpt lat="49.09361" lon="-1.41307">
        <ele>133.53377</ele>
        <time>2015-06-05T10:31:46Z</time>
      </trkpt>
      <trkpt lat="49.09361" lon="-1.41307">
        <ele>133.53377</ele>
        <time>2015-06-05T10:31:51Z</time>
      </trkpt>
      <trkpt lat="49.0936" lon="-1.41308">
        <ele>133.53377</ele>
        <time>2015-06-05T10:31:56Z</time>
      </trkpt>
      <trkpt lat="49.0936" lon="-1.41308">
        <ele>133.53377</ele>
        <time>2015-06-05T10:32:01Z</time>
      </trkpt>
      <trkpt lat="49.09353" lon="-1.41316">
        <ele>132.56053</ele>
        <time>2015-06-05T10:32:56Z</time>
      </trkpt>
      <trkpt lat="49.09349" lon="-1.41319">
        <ele>132.56053</ele>
        <time>2015-06-05T10:33:01Z</time>
      </trkpt>
      <trkpt lat="49.09344" lon="-1.41324">
        <ele>131.71707</ele>
        <time>2015-06-05T10:33:06Z</time>
      </trkpt>
      <trkpt lat="49.09341" lon="-1.41327">
        <ele>131.71707</ele>
        <time>2015-06-05T10:33:11Z</time>
      </trkpt>
      <trkpt lat="49.09341" lon="-1.41327">
        <ele>131.71707</ele>
        <time>2015-06-05T10:33:16Z</time>
      </trkpt>
      <trkpt lat="49.0934" lon="-1.41328">
        <ele>131.71707</ele>
        <time>2015-06-05T10:33:26Z</time>
      </trkpt>
      <trkpt lat="49.09333" lon="-1.41335">
        <ele>130.896</ele>
        <time>2015-06-05T10:33:31Z</time>
      </trkpt>
      <trkpt lat="49.09327" lon="-1.41341">
        <ele>130.896</ele>
        <time>2015-06-05T10:33:36Z</time>
      </trkpt>
      <trkpt lat="49.09322" lon="-1.41348">
        <ele>130.1995</ele>
        <time>2015-06-05T10:33:41Z</time>
      </trkpt>
      <trkpt lat="49.09319" lon="-1.41352">
        <ele>130.1995</ele>
        <time>2015-06-05T10:33:46Z</time>
      </trkpt>
      <trkpt lat="49.09314" lon="-1.41355">
        <ele>129.49121</ele>
        <time>2015-06-05T10:33:51Z</time>
      </trkpt>
      <trkpt lat="49.09309" lon="-1.41361">
        <ele>129.49121</ele>
        <time>2015-06-05T10:33:56Z</time>
      </trkpt>
      <trkpt lat="49.09304" lon="-1.41367">
        <ele>128.74567</ele>
        <time>2015-06-05T10:34:01Z</time>
      </trkpt>
      <trkpt lat="49.09298" lon="-1.41373">
        <ele>128.74567</ele>
        <time>2015-06-05T10:34:06Z</time>
      </trkpt>
      <trkpt lat="49.09292" lon="-1.41378">
        <ele>128.01132</ele>
        <time>2015-06-05T10:34:11Z</time>
      </trkpt>
      <trkpt lat="49.09286" lon="-1.41381">
        <ele>128.01132</ele>
        <time>2015-06-05T10:34:16Z</time>
      </trkpt>
      <trkpt lat="49.09283" lon="-1.4138">
        <ele>127.24653</ele>
        <time>2015-06-05T10:34:21Z</time>
      </trkpt>
      <trkpt lat="49.09286" lon="-1.41369">
        <ele>127.24653</ele>
        <time>2015-06-05T10:34:26Z</time>
      </trkpt>
      <trkpt lat="49.0929" lon="-1.41361">
        <ele>126.49916</ele>
        <time>2015-06-05T10:34:31Z</time>
      </trkpt>
      <trkpt lat="49.09293" lon="-1.41354">
        <ele>126.49916</ele>
        <time>2015-06-05T10:34:36Z</time>
      </trkpt>
      <trkpt lat="49.09297" lon="-1.41346">
        <ele>125.65493</ele>
        <time>2015-06-05T10:34:41Z</time>
      </trkpt>
      <trkpt lat="49.093" lon="-1.41339">
        <ele>125.65493</ele>
        <time>2015-06-05T10:34:46Z</time>
      </trkpt>
      <trkpt lat="49.09305" lon="-1.4133">
        <ele>124.79548</ele>
        <time>2015-06-05T10:34:51Z</time>
      </trkpt>
      <trkpt lat="49.09309" lon="-1.41321">
        <ele>124.79548</ele>
        <time>2015-06-05T10:34:56Z</time>
      </trkpt>
      <trkpt lat="49.09313" lon="-1.41313">
        <ele>124.025246</ele>
        <time>2015-06-05T10:35:01Z</time>
      </trkpt>
      <trkpt lat="49.09312" lon="-1.41313">
        <ele>124.025246</ele>
        <time>2015-06-05T10:35:06Z</time>
      </trkpt>
      <trkpt lat="49.0931" lon="-1.41313">
        <ele>124.025246</ele>
        <time>2015-06-05T10:35:11Z</time>
      </trkpt>
      <trkpt lat="49.09314" lon="-1.41304">
        <ele>123.354195</ele>
        <time>2015-06-05T10:35:16Z</time>
      </trkpt>
      <trkpt lat="49.09318" lon="-1.41299">
        <ele>123.354195</ele>
        <time>2015-06-05T10:35:21Z</time>
      </trkpt>
      <trkpt lat="49.09323" lon="-1.41291">
        <ele>122.6759</ele>
        <time>2015-06-05T10:35:26Z</time>
      </trkpt>
      <trkpt lat="49.09326" lon="-1.41283">
        <ele>122.6759</ele>
        <time>2015-06-05T10:35:31Z</time>
      </trkpt>
      <trkpt lat="49.09328" lon="-1.41275">
        <ele>121.97818</ele>
        <time>2015-06-05T10:35:36Z</time>
      </trkpt>
      <trkpt lat="49.09333" lon="-1.41266">
        <ele>121.97818</ele>
        <time>2015-06-05T10:35:41Z</time>
      </trkpt>
      <trkpt lat="49.09336" lon="-1.41257">
        <ele>121.2353</ele>
        <time>2015-06-05T10:35:46Z</time>
      </trkpt>
      <trkpt lat="49.09337" lon="-1.4125">
        <ele>121.2353</ele>
        <time>2015-06-05T10:35:51Z</time>
      </trkpt>
      <trkpt lat="49.0934" lon="-1.41243">
        <ele>120.4667</ele>
        <time>2015-06-05T10:35:56Z</time>
      </trkpt>
      <trkpt lat="49.09343" lon="-1.41235">
        <ele>120.4667</ele>
        <time>2015-06-05T10:36:01Z</time>
      </trkpt>
      <trkpt lat="49.09343" lon="-1.41228">
        <ele>119.76243</ele>
        <time>2015-06-05T10:36:06Z</time>
      </trkpt>
      <trkpt lat="49.09344" lon="-1.41218">
        <ele>119.76243</ele>
        <time>2015-06-05T10:36:11Z</time>
      </trkpt>
      <trkpt lat="49.09347" lon="-1.41209">
        <ele>119.20569</ele>
        <time>2015-06-05T10:36:16Z</time>
      </trkpt>
      <trkpt lat="49.0935" lon="-1.41199">
        <ele>119.20569</ele>
        <time>2015-06-05T10:36:21Z</time>
      </trkpt>
      <trkpt lat="49.09354" lon="-1.4119">
        <ele>118.844246</ele>
        <time>2015-06-05T10:36:26Z</time>
      </trkpt>
      <trkpt lat="49.09356" lon="-1.41185">
        <ele>118.844246</ele>
        <time>2015-06-05T10:36:31Z</time>
      </trkpt>
      <trkpt lat="49.09356" lon="-1.41177">
        <ele>118.844246</ele>
        <time>2015-06-05T10:36:36Z</time>
      </trkpt>
      <trkpt lat="49.09358" lon="-1.41166">
        <ele>118.63528</ele>
        <time>2015-06-05T10:36:41Z</time>
      </trkpt>
      <trkpt lat="49.0936" lon="-1.41158">
        <ele>118.63528</ele>
        <time>2015-06-05T10:36:46Z</time>
      </trkpt>
      <trkpt lat="49.09361" lon="-1.41149">
        <ele>118.53859</ele>
        <time>2015-06-05T10:36:51Z</time>
      </trkpt>
      <trkpt lat="49.09363" lon="-1.41141">
        <ele>118.53859</ele>
        <time>2015-06-05T10:36:56Z</time>
      </trkpt>
      <trkpt lat="49.09365" lon="-1.41132">
        <ele>118.55983</ele>
        <time>2015-06-05T10:37:01Z</time>
      </trkpt>
      <trkpt lat="49.09367" lon="-1.41124">
        <ele>118.55983</ele>
        <time>2015-06-05T10:37:06Z</time>
      </trkpt>
      <trkpt lat="49.09371" lon="-1.41115">
        <ele>118.64619</ele>
        <time>2015-06-05T10:37:11Z</time>
      </trkpt>
      <trkpt lat="49.09372" lon="-1.41108">
        <ele>118.64619</ele>
        <time>2015-06-05T10:37:16Z</time>
      </trkpt>
      <trkpt lat="49.09374" lon="-1.41099">
        <ele>118.77731</ele>
        <time>2015-06-05T10:37:21Z</time>
      </trkpt>
      <trkpt lat="49.09375" lon="-1.4109">
        <ele>118.77731</ele>
        <time>2015-06-05T10:37:26Z</time>
      </trkpt>
      <trkpt lat="49.09377" lon="-1.41084">
        <ele>118.977425</ele>
        <time>2015-06-05T10:37:31Z</time>
      </trkpt>
      <trkpt lat="49.09378" lon="-1.41079">
        <ele>118.977425</ele>
        <time>2015-06-05T10:37:36Z</time>
      </trkpt>
      <trkpt lat="49.0938" lon="-1.4107">
        <ele>119.182274</ele>
        <time>2015-06-05T10:37:41Z</time>
      </trkpt>
      <trkpt lat="49.09383" lon="-1.41061">
        <ele>119.182274</ele>
        <time>2015-06-05T10:37:46Z</time>
      </trkpt>
      <trkpt lat="49.09387" lon="-1.41054">
        <ele>119.50521</ele>
        <time>2015-06-05T10:37:51Z</time>
      </trkpt>
      <trkpt lat="49.09393" lon="-1.41047">
        <ele>119.50521</ele>
        <time>2015-06-05T10:37:56Z</time>
      </trkpt>
      <trkpt lat="49.09397" lon="-1.41038">
        <ele>119.95005</ele>
        <time>2015-06-05T10:38:01Z</time>
      </trkpt>
      <trkpt lat="49.094" lon="-1.41028">
        <ele>119.95005</ele>
        <time>2015-06-05T10:38:06Z</time>
      </trkpt>
      <trkpt lat="49.09402" lon="-1.41019">
        <ele>120.592</ele>
        <time>2015-06-05T10:38:11Z</time>
      </trkpt>
      <trkpt lat="49.09405" lon="-1.4101">
        <ele>120.592</ele>
        <time>2015-06-05T10:38:16Z</time>
      </trkpt>
      <trkpt lat="49.09407" lon="-1.41003">
        <ele>121.370514</ele>
        <time>2015-06-05T10:38:21Z</time>
      </trkpt>
      <trkpt lat="49.0941" lon="-1.40995">
        <ele>121.370514</ele>
        <time>2015-06-05T10:38:26Z</time>
      </trkpt>
      <trkpt lat="49.09413" lon="-1.40986">
        <ele>122.157036</ele>
        <time>2015-06-05T10:38:31Z</time>
      </trkpt>
      <trkpt lat="49.09418" lon="-1.40977">
        <ele>122.157036</ele>
        <time>2015-06-05T10:38:36Z</time>
      </trkpt>
      <trkpt lat="49.0942" lon="-1.40969">
        <ele>123.03422</ele>
        <time>2015-06-05T10:38:41Z</time>
      </trkpt>
      <trkpt lat="49.09424" lon="-1.4096">
        <ele>123.03422</ele>
        <time>2015-06-05T10:38:46Z</time>
      </trkpt>
      <trkpt lat="49.09427" lon="-1.40953">
        <ele>123.93429</ele>
        <time>2015-06-05T10:38:51Z</time>
      </trkpt>
      <trkpt lat="49.09431" lon="-1.40944">
        <ele>123.93429</ele>
        <time>2015-06-05T10:38:56Z</time>
      </trkpt>
      <trkpt lat="49.09434" lon="-1.40936">
        <ele>124.86648</ele>
        <time>2015-06-05T10:39:01Z</time>
      </trkpt>
      <trkpt lat="49.09437" lon="-1.40927">
        <ele>124.86648</ele>
        <time>2015-06-05T10:39:06Z</time>
      </trkpt>
      <trkpt lat="49.0944" lon="-1.40922">
        <ele>125.85371</ele>
        <time>2015-06-05T10:39:11Z</time>
      </trkpt>
      <trkpt lat="49.09443" lon="-1.40913">
        <ele>125.85371</ele>
        <time>2015-06-05T10:39:16Z</time>
      </trkpt>
      <trkpt lat="49.09447" lon="-1.40904">
        <ele>126.77297</ele>
        <time>2015-06-05T10:39:21Z</time>
      </trkpt>
      <trkpt lat="49.09451" lon="-1.40897">
        <ele>126.77297</ele>
        <time>2015-06-05T10:39:26Z</time>
      </trkpt>
      <trkpt lat="49.09455" lon="-1.4089">
        <ele>127.61144</ele>
        <time>2015-06-05T10:39:31Z</time>
      </trkpt>
      <trkpt lat="49.09459" lon="-1.40883">
        <ele>127.61144</ele>
        <time>2015-06-05T10:39:36Z</time>
      </trkpt>
      <trkpt lat="49.09464" lon="-1.40876">
        <ele>128.38635</ele>
        <time>2015-06-05T10:39:41Z</time>
      </trkpt>
      <trkpt lat="49.0947" lon="-1.40869">
        <ele>128.38635</ele>
        <time>2015-06-05T10:39:46Z</time>
      </trkpt>
      <trkpt lat="49.09475" lon="-1.40861">
        <ele>129.013</ele>
        <time>2015-06-05T10:39:51Z</time>
      </trkpt>
      <trkpt lat="49.09479" lon="-1.40854">
        <ele>129.013</ele>
        <time>2015-06-05T10:39:56Z</time>
      </trkpt>
      <trkpt lat="49.09483" lon="-1.40846">
        <ele>129.58635</ele>
        <time>2015-06-05T10:40:01Z</time>
      </trkpt>
      <trkpt lat="49.09488" lon="-1.40837">
        <ele>129.58635</ele>
        <time>2015-06-05T10:40:06Z</time>
      </trkpt>
      <trkpt lat="49.09491" lon="-1.40827">
        <ele>130.09373</ele>
        <time>2015-06-05T10:40:11Z</time>
      </trkpt>
      <trkpt lat="49.09495" lon="-1.40817">
        <ele>130.09373</ele>
        <time>2015-06-05T10:40:16Z</time>
      </trkpt>
      <trkpt lat="49.09498" lon="-1.40809">
        <ele>130.55249</ele>
        <time>2015-06-05T10:40:21Z</time>
      </trkpt>
      <trkpt lat="49.09502" lon="-1.40803">
        <ele>130.55249</ele>
        <time>2015-06-05T10:40:26Z</time>
      </trkpt>
      <trkpt lat="49.09505" lon="-1.40794">
        <ele>130.96446</ele>
        <time>2015-06-05T10:40:31Z</time>
      </trkpt>
      <trkpt lat="49.0951" lon="-1.40787">
        <ele>130.96446</ele>
        <time>2015-06-05T10:40:36Z</time>
      </trkpt>
      <trkpt lat="49.09514" lon="-1.40778">
        <ele>131.27393</ele>
        <time>2015-06-05T10:40:41Z</time>
      </trkpt>
      <trkpt lat="49.09517" lon="-1.4077">
        <ele>131.27393</ele>
        <time>2015-06-05T10:40:46Z</time>
      </trkpt>
      <trkpt lat="49.09521" lon="-1.4076">
        <ele>131.44403</ele>
        <time>2015-06-05T10:40:51Z</time>
      </trkpt>
      <trkpt lat="49.09526" lon="-1.4075">
        <ele>131.44403</ele>
        <time>2015-06-05T10:40:56Z</time>
      </trkpt>
      <trkpt lat="49.09529" lon="-1.40743">
        <ele>131.57079</ele>
        <time>2015-06-05T10:41:01Z</time>
      </trkpt>
      <trkpt lat="49.09533" lon="-1.40735">
        <ele>131.57079</ele>
        <time>2015-06-05T10:41:06Z</time>
      </trkpt>
      <trkpt lat="49.09536" lon="-1.40728">
        <ele>131.62807</ele>
        <time>2015-06-05T10:41:11Z</time>
      </trkpt>
      <trkpt lat="49.09539" lon="-1.4072">
        <ele>131.62807</ele>
        <time>2015-06-05T10:41:16Z</time>
      </trkpt>
      <trkpt lat="49.09543" lon="-1.4071">
        <ele>131.53423</ele>
        <time>2015-06-05T10:41:21Z</time>
      </trkpt>
      <trkpt lat="49.09546" lon="-1.40703">
        <ele>131.53423</ele>
        <time>2015-06-05T10:41:26Z</time>
      </trkpt>
      <trkpt lat="49.09551" lon="-1.40694">
        <ele>131.31503</ele>
        <time>2015-06-05T10:41:31Z</time>
      </trkpt>
      <trkpt lat="49.09553" lon="-1.4069">
        <ele>131.31503</ele>
        <time>2015-06-05T10:41:36Z</time>
      </trkpt>
      <trkpt lat="49.09557" lon="-1.4068">
        <ele>130.92267</ele>
        <time>2015-06-05T10:41:41Z</time>
      </trkpt>
      <trkpt lat="49.0956" lon="-1.40671">
        <ele>130.92267</ele>
        <time>2015-06-05T10:41:46Z</time>
      </trkpt>
      <trkpt lat="49.09564" lon="-1.40661">
        <ele>130.38545</ele>
        <time>2015-06-05T10:41:51Z</time>
      </trkpt>
      <trkpt lat="49.09568" lon="-1.40653">
        <ele>130.38545</ele>
        <time>2015-06-05T10:41:56Z</time>
      </trkpt>
      <trkpt lat="49.09571" lon="-1.40644">
        <ele>129.77327</ele>
        <time>2015-06-05T10:42:01Z</time>
      </trkpt>
      <trkpt lat="49.09574" lon="-1.40635">
        <ele>129.77327</ele>
        <time>2015-06-05T10:42:06Z</time>
      </trkpt>
      <trkpt lat="49.09579" lon="-1.40627">
        <ele>129.17996</ele>
        <time>2015-06-05T10:42:11Z</time>
      </trkpt>
      <trkpt lat="49.09583" lon="-1.40618">
        <ele>129.17996</ele>
        <time>2015-06-05T10:42:16Z</time>
      </trkpt>
      <trkpt lat="49.09588" lon="-1.4061">
        <ele>128.56274</ele>
        <time>2015-06-05T10:42:21Z</time>
      </trkpt>
      <trkpt lat="49.09591" lon="-1.40603">
        <ele>128.56274</ele>
        <time>2015-06-05T10:42:26Z</time>
      </trkpt>
      <trkpt lat="49.09595" lon="-1.40594">
        <ele>127.89644</ele>
        <time>2015-06-05T10:42:31Z</time>
      </trkpt>
      <trkpt lat="49.096" lon="-1.40585">
        <ele>127.89644</ele>
        <time>2015-06-05T10:42:36Z</time>
      </trkpt>
      <trkpt lat="49.09604" lon="-1.40579">
        <ele>127.14349</ele>
        <time>2015-06-05T10:42:41Z</time>
      </trkpt>
      <trkpt lat="49.09608" lon="-1.40572">
        <ele>127.14349</ele>
        <time>2015-06-05T10:42:46Z</time>
      </trkpt>
      <trkpt lat="49.09612" lon="-1.40565">
        <ele>126.312584</ele>
        <time>2015-06-05T10:42:51Z</time>
      </trkpt>
      <trkpt lat="49.09613" lon="-1.40561">
        <ele>126.312584</ele>
        <time>2015-06-05T10:42:56Z</time>
      </trkpt>
      <trkpt lat="49.09611" lon="-1.40553">
        <ele>126.312584</ele>
        <time>2015-06-05T10:43:01Z</time>
      </trkpt>
      <trkpt lat="49.0961" lon="-1.40546">
        <ele>125.39754</ele>
        <time>2015-06-05T10:43:06Z</time>
      </trkpt>
      <trkpt lat="49.09606" lon="-1.4054">
        <ele>125.39754</ele>
        <time>2015-06-05T10:43:11Z</time>
      </trkpt>
      <trkpt lat="49.09605" lon="-1.40538">
        <ele>125.39754</ele>
        <time>2015-06-05T10:43:16Z</time>
      </trkpt>
      <trkpt lat="49.09605" lon="-1.40536">
        <ele>125.39754</ele>
        <time>2015-06-05T10:43:21Z</time>
      </trkpt>
      <trkpt lat="49.09605" lon="-1.40538">
        <ele>124.34963</ele>
        <time>2015-06-05T10:43:26Z</time>
      </trkpt>
      <trkpt lat="49.09604" lon="-1.40538">
        <ele>124.34963</ele>
        <time>2015-06-05T10:43:31Z</time>
      </trkpt>
      <trkpt lat="49.09605" lon="-1.40536">
        <ele>124.34963</ele>
        <time>2015-06-05T10:43:36Z</time>
      </trkpt>
      <trkpt lat="49.09605" lon="-1.40532">
        <ele>124.34963</ele>
        <time>2015-06-05T10:43:41Z</time>
      </trkpt>
      <trkpt lat="49.096" lon="-1.40523">
        <ele>123.12409</ele>
        <time>2015-06-05T10:43:46Z</time>
      </trkpt>
      <trkpt lat="49.09598" lon="-1.4052">
        <ele>123.12409</ele>
        <time>2015-06-05T10:43:51Z</time>
      </trkpt>
      <trkpt lat="49.09597" lon="-1.40517">
        <ele>123.12409</ele>
        <time>2015-06-05T10:43:56Z</time>
      </trkpt>
      <trkpt lat="49.09593" lon="-1.40508">
        <ele>121.708694</ele>
        <time>2015-06-05T10:44:01Z</time>
      </trkpt>
      <trkpt lat="49.0959" lon="-1.40501">
        <ele>121.708694</ele>
        <time>2015-06-05T10:44:06Z</time>
      </trkpt>
      <trkpt lat="49.09585" lon="-1.40496">
        <ele>120.09264</ele>
        <time>2015-06-05T10:44:11Z</time>
      </trkpt>
      <trkpt lat="49.0958" lon="-1.40486">
        <ele>120.09264</ele>
        <time>2015-06-05T10:44:16Z</time>
      </trkpt>
      <trkpt lat="49.09573" lon="-1.40479">
        <ele>118.381714</ele>
        <time>2015-06-05T10:44:21Z</time>
      </trkpt>
      <trkpt lat="49.0957" lon="-1.40473">
        <ele>118.381714</ele>
        <time>2015-06-05T10:44:26Z</time>
      </trkpt>
      <trkpt lat="49.09567" lon="-1.40468">
        <ele>116.60208</ele>
        <time>2015-06-05T10:44:31Z</time>
      </trkpt>
      <trkpt lat="49.09561" lon="-1.40462">
        <ele>116.60208</ele>
        <time>2015-06-05T10:44:36Z</time>
      </trkpt>
      <trkpt lat="49.09558" lon="-1.40457">
        <ele>114.792534</ele>
        <time>2015-06-05T10:44:41Z</time>
      </trkpt>
      <trkpt lat="49.09553" lon="-1.40452">
        <ele>114.792534</ele>
        <time>2015-06-05T10:44:46Z</time>
      </trkpt>
      <trkpt lat="49.09548" lon="-1.40447">
        <ele>113.01784</ele>
        <time>2015-06-05T10:44:51Z</time>
      </trkpt>
      <trkpt lat="49.09545" lon="-1.4044">
        <ele>113.01784</ele>
        <time>2015-06-05T10:44:56Z</time>
      </trkpt>
      <trkpt lat="49.09541" lon="-1.40433">
        <ele>111.16489</ele>
        <time>2015-06-05T10:45:01Z</time>
      </trkpt>
      <trkpt lat="49.09537" lon="-1.40425">
        <ele>111.16489</ele>
        <time>2015-06-05T10:45:06Z</time>
      </trkpt>
      <trkpt lat="49.09533" lon="-1.40417">
        <ele>109.258705</ele>
        <time>2015-06-05T10:45:11Z</time>
      </trkpt>
      <trkpt lat="49.09527" lon="-1.40409">
        <ele>109.258705</ele>
        <time>2015-06-05T10:45:16Z</time>
      </trkpt>
      <trkpt lat="49.09523" lon="-1.40403">
        <ele>107.26489</ele>
        <time>2015-06-05T10:45:21Z</time>
      </trkpt>
      <trkpt lat="49.09518" lon="-1.40395">
        <ele>107.26489</ele>
        <time>2015-06-05T10:45:26Z</time>
      </trkpt>
      <trkpt lat="49.09514" lon="-1.40389">
        <ele>105.32465</ele>
        <time>2015-06-05T10:45:31Z</time>
      </trkpt>
      <trkpt lat="49.09508" lon="-1.40382">
        <ele>105.32465</ele>
        <time>2015-06-05T10:45:36Z</time>
      </trkpt>
      <trkpt lat="49.09504" lon="-1.40379">
        <ele>103.38118</ele>
        <time>2015-06-05T10:45:41Z</time>
      </trkpt>
      <trkpt lat="49.095" lon="-1.40367">
        <ele>103.38118</ele>
        <time>2015-06-05T10:45:46Z</time>
      </trkpt>
      <trkpt lat="49.095" lon="-1.40361">
        <ele>101.54029</ele>
        <time>2015-06-05T10:45:51Z</time>
      </trkpt>
      <trkpt lat="49.09499" lon="-1.40352">
        <ele>101.54029</ele>
        <time>2015-06-05T10:45:56Z</time>
      </trkpt>
      <trkpt lat="49.09496" lon="-1.40341">
        <ele>99.784294</ele>
        <time>2015-06-05T10:46:01Z</time>
      </trkpt>
      <trkpt lat="49.09495" lon="-1.40329">
        <ele>99.784294</ele>
        <time>2015-06-05T10:46:06Z</time>
      </trkpt>
      <trkpt lat="49.09494" lon="-1.4032">
        <ele>98.2838</ele>
        <time>2015-06-05T10:46:11Z</time>
      </trkpt>
      <trkpt lat="49.09494" lon="-1.40312">
        <ele>98.2838</ele>
        <time>2015-06-05T10:46:16Z</time>
      </trkpt>
      <trkpt lat="49.09493" lon="-1.40302">
        <ele>96.97985</ele>
        <time>2015-06-05T10:46:21Z</time>
      </trkpt>
      <trkpt lat="49.09494" lon="-1.40292">
        <ele>96.97985</ele>
        <time>2015-06-05T10:46:26Z</time>
      </trkpt>
      <trkpt lat="49.09493" lon="-1.40287">
        <ele>95.788345</ele>
        <time>2015-06-05T10:46:31Z</time>
      </trkpt>
      <trkpt lat="49.09492" lon="-1.40283">
        <ele>95.788345</ele>
        <time>2015-06-05T10:46:36Z</time>
      </trkpt>
      <trkpt lat="49.09492" lon="-1.40285">
        <ele>95.788345</ele>
        <time>2015-06-05T10:46:41Z</time>
      </trkpt>
      <trkpt lat="49.09493" lon="-1.40284">
        <ele>95.788345</ele>
        <time>2015-06-05T10:46:46Z</time>
      </trkpt>
      <trkpt lat="49.09492" lon="-1.40284">
        <ele>95.788345</ele>
        <time>2015-06-05T10:46:51Z</time>
      </trkpt>
      <trkpt lat="49.09491" lon="-1.40284">
        <ele>95.788345</ele>
        <time>2015-06-05T10:46:56Z</time>
      </trkpt>
      <trkpt lat="49.0949" lon="-1.40284">
        <ele>94.54443</ele>
        <time>2015-06-05T10:47:01Z</time>
      </trkpt>
      <trkpt lat="49.09489" lon="-1.4028">
        <ele>94.54443</ele>
        <time>2015-06-05T10:47:06Z</time>
      </trkpt>
      <trkpt lat="49.09488" lon="-1.4028">
        <ele>94.54443</ele>
        <time>2015-06-05T10:47:11Z</time>
      </trkpt>
      <trkpt lat="49.0949" lon="-1.40282">
        <ele>94.54443</ele>
        <time>2015-06-05T10:47:16Z</time>
      </trkpt>
      <trkpt lat="49.09492" lon="-1.40281">
        <ele>94.54443</ele>
        <time>2015-06-05T10:47:21Z</time>
      </trkpt>
      <trkpt lat="49.09493" lon="-1.40281">
        <ele>94.54443</ele>
        <time>2015-06-05T10:47:26Z</time>
      </trkpt>
      <trkpt lat="49.09493" lon="-1.40281">
        <ele>94.54443</ele>
        <time>2015-06-05T10:47:31Z</time>
      </trkpt>
      <trkpt lat="49.09492" lon="-1.40283">
        <ele>93.45568</ele>
        <time>2015-06-05T10:47:36Z</time>
      </trkpt>
      <trkpt lat="49.09492" lon="-1.40285">
        <ele>93.45568</ele>
        <time>2015-06-05T10:47:41Z</time>
      </trkpt>
      <trkpt lat="49.09489" lon="-1.40281">
        <ele>93.45568</ele>
        <time>2015-06-05T10:47:46Z</time>
      </trkpt>
      <trkpt lat="49.09485" lon="-1.40273">
        <ele>92.713844</ele>
        <time>2015-06-05T10:47:51Z</time>
      </trkpt>
      <trkpt lat="49.09485" lon="-1.40274">
        <ele>92.713844</ele>
        <time>2015-06-05T10:47:56Z</time>
      </trkpt>
      <trkpt lat="49.09486" lon="-1.40274">
        <ele>92.713844</ele>
        <time>2015-06-05T10:48:01Z</time>
      </trkpt>
      <trkpt lat="49.09486" lon="-1.40275">
        <ele>92.713844</ele>
        <time>2015-06-05T10:48:06Z</time>
      </trkpt>
      <trkpt lat="49.09486" lon="-1.40276">
        <ele>92.713844</ele>
        <time>2015-06-05T10:48:11Z</time>
      </trkpt>
      <trkpt lat="49.09487" lon="-1.40273">
        <ele>92.713844</ele>
        <time>2015-06-05T10:48:16Z</time>
      </trkpt>
      <trkpt lat="49.09487" lon="-1.40272">
        <ele>92.713844</ele>
        <time>2015-06-05T10:48:21Z</time>
      </trkpt>
      <trkpt lat="49.09487" lon="-1.40272">
        <ele>92.713844</ele>
        <time>2015-06-05T10:48:26Z</time>
      </trkpt>
      <trkpt lat="49.09487" lon="-1.40269">
        <ele>92.713844</ele>
        <time>2015-06-05T10:48:31Z</time>
      </trkpt>
      <trkpt lat="49.09485" lon="-1.40267">
        <ele>92.048775</ele>
        <time>2015-06-05T10:48:36Z</time>
      </trkpt>
      <trkpt lat="49.09486" lon="-1.40267">
        <ele>92.048775</ele>
        <time>2015-06-05T10:48:41Z</time>
      </trkpt>
      <trkpt lat="49.09486" lon="-1.4027">
        <ele>92.048775</ele>
        <time>2015-06-05T10:48:46Z</time>
      </trkpt>
      <trkpt lat="49.09487" lon="-1.40271">
        <ele>92.048775</ele>
        <time>2015-06-05T10:48:51Z</time>
      </trkpt>
      <trkpt lat="49.09488" lon="-1.40272">
        <ele>92.048775</ele>
        <time>2015-06-05T10:48:56Z</time>
      </trkpt>
      <trkpt lat="49.09489" lon="-1.40271">
        <ele>92.048775</ele>
        <time>2015-06-05T10:49:01Z</time>
      </trkpt>
      <trkpt lat="49.09489" lon="-1.40271">
        <ele>92.048775</ele>
        <time>2015-06-05T10:49:06Z</time>
      </trkpt>
      <trkpt lat="49.09489" lon="-1.40272">
        <ele>92.048775</ele>
        <time>2015-06-05T10:49:11Z</time>
      </trkpt>
      <trkpt lat="49.09488" lon="-1.4027">
        <ele>92.048775</ele>
        <time>2015-06-05T10:49:16Z</time>
      </trkpt>
      <trkpt lat="49.09487" lon="-1.40273">
        <ele>91.35396</ele>
        <time>2015-06-05T10:49:21Z</time>
      </trkpt>
      <trkpt lat="49.09487" lon="-1.40274">
        <ele>91.35396</ele>
        <time>2015-06-05T10:49:26Z</time>
      </trkpt>
      <trkpt lat="49.09486" lon="-1.40272">
        <ele>91.35396</ele>
        <time>2015-06-05T10:49:31Z</time>
      </trkpt>
      <trkpt lat="49.09486" lon="-1.40273">
        <ele>91.35396</ele>
        <time>2015-06-05T10:49:36Z</time>
      </trkpt>
      <trkpt lat="49.09487" lon="-1.40273">
        <ele>91.35396</ele>
        <time>2015-06-05T10:49:41Z</time>
      </trkpt>
      <trkpt lat="49.09488" lon="-1.40273">
        <ele>91.35396</ele>
        <time>2015-06-05T10:49:46Z</time>
      </trkpt>
      <trkpt lat="49.09488" lon="-1.40272">
        <ele>91.35396</ele>
        <time>2015-06-05T10:49:51Z</time>
      </trkpt>
      <trkpt lat="49.09489" lon="-1.40272">
        <ele>91.35396</ele>
        <time>2015-06-05T10:49:56Z</time>
      </trkpt>
      <trkpt lat="49.09489" lon="-1.40272">
        <ele>91.35396</ele>
        <time>2015-06-05T10:50:01Z</time>
      </trkpt>
      <trkpt lat="49.09489" lon="-1.4027">
        <ele>91.35396</ele>
        <time>2015-06-05T10:50:06Z</time>
      </trkpt>
      <trkpt lat="49.09484" lon="-1.40266">
        <ele>90.45862</ele>
        <time>2015-06-05T10:50:11Z</time>
      </trkpt>
      <trkpt lat="49.09478" lon="-1.40262">
        <ele>90.45862</ele>
        <time>2015-06-05T10:50:16Z</time>
      </trkpt>
      <trkpt lat="49.09477" lon="-1.40257">
        <ele>89.66616</ele>
        <time>2015-06-05T10:50:21Z</time>
      </trkpt>
      <trkpt lat="49.09477" lon="-1.40257">
        <ele>89.66616</ele>
        <time>2015-06-05T10:50:26Z</time>
      </trkpt>
      <trkpt lat="49.09476" lon="-1.40255">
        <ele>89.66616</ele>
        <time>2015-06-05T10:50:31Z</time>
      </trkpt>
      <trkpt lat="49.09477" lon="-1.40255">
        <ele>89.66616</ele>
        <time>2015-06-05T10:50:36Z</time>
      </trkpt>
      <trkpt lat="49.09476" lon="-1.40252">
        <ele>89.66616</ele>
        <time>2015-06-05T10:50:41Z</time>
      </trkpt>
      <trkpt lat="49.09474" lon="-1.40252">
        <ele>89.66616</ele>
        <time>2015-06-05T10:50:46Z</time>
      </trkpt>
      <trkpt lat="49.09476" lon="-1.40253">
        <ele>88.8394</ele>
        <time>2015-06-05T10:50:51Z</time>
      </trkpt>
      <trkpt lat="49.09477" lon="-1.40255">
        <ele>88.8394</ele>
        <time>2015-06-05T10:50:56Z</time>
      </trkpt>
      <trkpt lat="49.09477" lon="-1.40256">
        <ele>88.8394</ele>
        <time>2015-06-05T10:51:01Z</time>
      </trkpt>
      <trkpt lat="49.09475" lon="-1.40255">
        <ele>88.8394</ele>
        <time>2015-06-05T10:51:06Z</time>
      </trkpt>
      <trkpt lat="49.09474" lon="-1.40254">
        <ele>88.8394</ele>
        <time>2015-06-05T10:51:11Z</time>
      </trkpt>
      <trkpt lat="49.09474" lon="-1.40254">
        <ele>88.8394</ele>
        <time>2015-06-05T10:51:16Z</time>
      </trkpt>
      <trkpt lat="49.09473" lon="-1.40251">
        <ele>88.8394</ele>
        <time>2015-06-05T10:51:21Z</time>
      </trkpt>
      <trkpt lat="49.09469" lon="-1.40246">
        <ele>88.00978</ele>
        <time>2015-06-05T10:51:26Z</time>
      </trkpt>
      <trkpt lat="49.09466" lon="-1.40239">
        <ele>88.00978</ele>
        <time>2015-06-05T10:51:31Z</time>
      </trkpt>
      <trkpt lat="49.09462" lon="-1.40236">
        <ele>87.39371</ele>
        <time>2015-06-05T10:51:36Z</time>
      </trkpt>
      <trkpt lat="49.09459" lon="-1.40232">
        <ele>87.39371</ele>
        <time>2015-06-05T10:51:41Z</time>
      </trkpt>
      <trkpt lat="49.09452" lon="-1.40221">
        <ele>86.98925</ele>
        <time>2015-06-05T10:51:46Z</time>
      </trkpt>
      <trkpt lat="49.09448" lon="-1.40216">
        <ele>86.98925</ele>
        <time>2015-06-05T10:51:51Z</time>
      </trkpt>
      <trkpt lat="49.09444" lon="-1.40209">
        <ele>86.72194</ele>
        <time>2015-06-05T10:51:56Z</time>
      </trkpt>
      <trkpt lat="49.09439" lon="-1.40205">
        <ele>86.72194</ele>
        <time>2015-06-05T10:52:01Z</time>
      </trkpt>
      <trkpt lat="49.09435" lon="-1.40198">
        <ele>86.53673</ele>
        <time>2015-06-05T10:52:06Z</time>
      </trkpt>
      <trkpt lat="49.09427" lon="-1.40188">
        <ele>86.46883</ele>
        <time>2015-06-05T10:52:11Z</time>
      </trkpt>
      <trkpt lat="49.09424" lon="-1.40181">
        <ele>86.46883</ele>
        <time>2015-06-05T10:52:16Z</time>
      </trkpt>
      <trkpt lat="49.09423" lon="-1.40179">
        <ele>86.46883</ele>
        <time>2015-06-05T10:52:21Z</time>
      </trkpt>
      <trkpt lat="49.09422" lon="-1.40179">
        <ele>86.46883</ele>
        <time>2015-06-05T10:52:26Z</time>
      </trkpt>
      <trkpt lat="49.09422" lon="-1.40178">
        <ele>86.46883</ele>
        <time>2015-06-05T10:52:31Z</time>
      </trkpt>
      <trkpt lat="49.09422" lon="-1.40179">
        <ele>86.46883</ele>
        <time>2015-06-05T10:52:36Z</time>
      </trkpt>
      <trkpt lat="49.09422" lon="-1.40177">
        <ele>86.75224</ele>
        <time>2015-06-05T10:52:41Z</time>
      </trkpt>
      <trkpt lat="49.09423" lon="-1.40176">
        <ele>86.75224</ele>
        <time>2015-06-05T10:52:46Z</time>
      </trkpt>
      <trkpt lat="49.09422" lon="-1.4018">
        <ele>86.75224</ele>
        <time>2015-06-05T10:52:51Z</time>
      </trkpt>
      <trkpt lat="49.09422" lon="-1.40181">
        <ele>86.75224</ele>
        <time>2015-06-05T10:52:56Z</time>
      </trkpt>
      <trkpt lat="49.09422" lon="-1.40183">
        <ele>86.75224</ele>
        <time>2015-06-05T10:53:01Z</time>
      </trkpt>
      <trkpt lat="49.09423" lon="-1.4018">
        <ele>86.75224</ele>
        <time>2015-06-05T10:53:06Z</time>
      </trkpt>
      <trkpt lat="49.09423" lon="-1.4018">
        <ele>87.01192</ele>
        <time>2015-06-05T10:53:11Z</time>
      </trkpt>
      <trkpt lat="49.09424" lon="-1.40181">
        <ele>87.01192</ele>
        <time>2015-06-05T10:53:16Z</time>
      </trkpt>
      <trkpt lat="49.09425" lon="-1.4018">
        <ele>87.01192</ele>
        <time>2015-06-05T10:53:21Z</time>
      </trkpt>
      <trkpt lat="49.09425" lon="-1.40179">
        <ele>87.01192</ele>
        <time>2015-06-05T10:53:26Z</time>
      </trkpt>
      <trkpt lat="49.09425" lon="-1.4018">
        <ele>87.01192</ele>
        <time>2015-06-05T10:53:31Z</time>
      </trkpt>
      <trkpt lat="49.09425" lon="-1.40182">
        <ele>87.01192</ele>
        <time>2015-06-05T10:53:36Z</time>
      </trkpt>
      <trkpt lat="49.09424" lon="-1.40182">
        <ele>87.01192</ele>
        <time>2015-06-05T10:53:41Z</time>
      </trkpt>
      <trkpt lat="49.09424" lon="-1.40181">
        <ele>87.01192</ele>
        <time>2015-06-05T10:53:46Z</time>
      </trkpt>
      <trkpt lat="49.09423" lon="-1.40181">
        <ele>87.01192</ele>
        <time>2015-06-05T10:53:51Z</time>
      </trkpt>
      <trkpt lat="49.0942" lon="-1.40178">
        <ele>87.28952</ele>
        <time>2015-06-05T10:53:56Z</time>
      </trkpt>
      <trkpt lat="49.09419" lon="-1.40177">
        <ele>87.28952</ele>
        <time>2015-06-05T10:54:01Z</time>
      </trkpt>
      <trkpt lat="49.0942" lon="-1.40178">
        <ele>87.28952</ele>
        <time>2015-06-05T10:54:06Z</time>
      </trkpt>
      <trkpt lat="49.09421" lon="-1.40178">
        <ele>87.28952</ele>
        <time>2015-06-05T10:54:11Z</time>
      </trkpt>
      <trkpt lat="49.09421" lon="-1.4018">
        <ele>87.28952</ele>
        <time>2015-06-05T10:54:16Z</time>
      </trkpt>
      <trkpt lat="49.09423" lon="-1.40179">
        <ele>87.28952</ele>
        <time>2015-06-05T10:54:21Z</time>
      </trkpt>
      <trkpt lat="49.09423" lon="-1.40181">
        <ele>87.28952</ele>
        <time>2015-06-05T10:54:26Z</time>
      </trkpt>
      <trkpt lat="49.09423" lon="-1.40183">
        <ele>87.28952</ele>
        <time>2015-06-05T10:54:31Z</time>
      </trkpt>
      <trkpt lat="49.09423" lon="-1.40184">
        <ele>87.78212</ele>
        <time>2015-06-05T10:54:36Z</time>
      </trkpt>
      <trkpt lat="49.09422" lon="-1.40184">
        <ele>87.78212</ele>
        <time>2015-06-05T10:54:41Z</time>
      </trkpt>
      <trkpt lat="49.09422" lon="-1.40185">
        <ele>87.78212</ele>
        <time>2015-06-05T10:54:46Z</time>
      </trkpt>
      <trkpt lat="49.09422" lon="-1.40185">
        <ele>87.78212</ele>
        <time>2015-06-05T10:54:51Z</time>
      </trkpt>
      <trkpt lat="49.09422" lon="-1.40184">
        <ele>87.78212</ele>
        <time>2015-06-05T10:54:56Z</time>
      </trkpt>
      <trkpt lat="49.09423" lon="-1.40185">
        <ele>87.78212</ele>
        <time>2015-06-05T10:55:01Z</time>
      </trkpt>
      <trkpt lat="49.09423" lon="-1.40187">
        <ele>87.78212</ele>
        <time>2015-06-05T10:55:06Z</time>
      </trkpt>
      <trkpt lat="49.09421" lon="-1.40189">
        <ele>87.78212</ele>
        <time>2015-06-05T10:55:11Z</time>
      </trkpt>
      <trkpt lat="49.09418" lon="-1.40193">
        <ele>88.181725</ele>
        <time>2015-06-05T10:55:16Z</time>
      </trkpt>
      <trkpt lat="49.09414" lon="-1.40197">
        <ele>88.181725</ele>
        <time>2015-06-05T10:55:21Z</time>
      </trkpt>
      <trkpt lat="49.09412" lon="-1.40201">
        <ele>88.181725</ele>
        <time>2015-06-05T10:55:26Z</time>
      </trkpt>
      <trkpt lat="49.09407" lon="-1.4021">
        <ele>88.54915</ele>
        <time>2015-06-05T10:55:31Z</time>
      </trkpt>
      <trkpt lat="49.09405" lon="-1.40216">
        <ele>88.54915</ele>
        <time>2015-06-05T10:55:36Z</time>
      </trkpt>
      <trkpt lat="49.09404" lon="-1.40217">
        <ele>88.54915</ele>
        <time>2015-06-05T10:55:41Z</time>
      </trkpt>
      <trkpt lat="49.09403" lon="-1.40219">
        <ele>88.54915</ele>
        <time>2015-06-05T10:55:46Z</time>
      </trkpt>
      <trkpt lat="49.09402" lon="-1.40219">
        <ele>88.54915</ele>
        <time>2015-06-05T10:55:51Z</time>
      </trkpt>
      <trkpt lat="49.09401" lon="-1.40221">
        <ele>89.21463</ele>
        <time>2015-06-05T10:55:56Z</time>
      </trkpt>
      <trkpt lat="49.094" lon="-1.40226">
        <ele>89.21463</ele>
        <time>2015-06-05T10:56:01Z</time>
      </trkpt>
      <trkpt lat="49.09397" lon="-1.40233">
        <ele>89.21463</ele>
        <time>2015-06-05T10:56:06Z</time>
      </trkpt>
      <trkpt lat="49.09397" lon="-1.40237">
        <ele>90.12309</ele>
        <time>2015-06-05T10:56:11Z</time>
      </trkpt>
      <trkpt lat="49.09395" lon="-1.40241">
        <ele>90.12309</ele>
        <time>2015-06-05T10:56:16Z</time>
      </trkpt>
      <trkpt lat="49.09392" lon="-1.40246">
        <ele>90.12309</ele>
        <time>2015-06-05T10:56:21Z</time>
      </trkpt>
      <trkpt lat="49.09387" lon="-1.4025">
        <ele>91.17966</ele>
        <time>2015-06-05T10:56:26Z</time>
      </trkpt>
      <trkpt lat="49.09386" lon="-1.40254">
        <ele>91.17966</ele>
        <time>2015-06-05T10:56:31Z</time>
      </trkpt>
      <trkpt lat="49.09384" lon="-1.40261">
        <ele>91.17966</ele>
        <time>2015-06-05T10:56:36Z</time>
      </trkpt>
      <trkpt lat="49.09383" lon="-1.40266">
        <ele>92.411316</ele>
        <time>2015-06-05T10:56:41Z</time>
      </trkpt>
      <trkpt lat="49.0938" lon="-1.40272">
        <ele>92.411316</ele>
        <time>2015-06-05T10:56:46Z</time>
      </trkpt>
      <trkpt lat="49.09377" lon="-1.40278">
        <ele>93.69857</ele>
        <time>2015-06-05T10:56:51Z</time>
      </trkpt>
      <trkpt lat="49.09374" lon="-1.40285">
        <ele>93.69857</ele>
        <time>2015-06-05T10:56:56Z</time>
      </trkpt>
      <trkpt lat="49.09371" lon="-1.40289">
        <ele>95.17561</ele>
        <time>2015-06-05T10:57:01Z</time>
      </trkpt>
      <trkpt lat="49.09368" lon="-1.40292">
        <ele>95.17561</ele>
        <time>2015-06-05T10:57:06Z</time>
      </trkpt>
      <trkpt lat="49.09366" lon="-1.40295">
        <ele>95.17561</ele>
        <time>2015-06-05T10:57:11Z</time>
      </trkpt>
      <trkpt lat="49.09363" lon="-1.40299">
        <ele>96.879875</ele>
        <time>2015-06-05T10:57:16Z</time>
      </trkpt>
      <trkpt lat="49.0936" lon="-1.40303">
        <ele>96.879875</ele>
        <time>2015-06-05T10:57:21Z</time>
      </trkpt>
      <trkpt lat="49.09359" lon="-1.40309">
        <ele>96.879875</ele>
        <time>2015-06-05T10:57:26Z</time>
      </trkpt>
      <trkpt lat="49.09355" lon="-1.4032">
        <ele>98.81668</ele>
        <time>2015-06-05T10:57:31Z</time>
      </trkpt>
      <trkpt lat="49.09349" lon="-1.40329">
        <ele>98.81668</ele>
        <time>2015-06-05T10:57:36Z</time>
      </trkpt>
      <trkpt lat="49.09343" lon="-1.40334">
        <ele>100.75986</ele>
        <time>2015-06-05T10:57:41Z</time>
      </trkpt>
      <trkpt lat="49.09338" lon="-1.40337">
        <ele>100.75986</ele>
        <time>2015-06-05T10:57:46Z</time>
      </trkpt>
      <trkpt lat="49.09332" lon="-1.40342">
        <ele>102.716125</ele>
        <time>2015-06-05T10:57:51Z</time>
      </trkpt>
      <trkpt lat="49.09328" lon="-1.40347">
        <ele>102.716125</ele>
        <time>2015-06-05T10:57:56Z</time>
      </trkpt>
      <trkpt lat="49.09325" lon="-1.40352">
        <ele>104.60536</ele>
        <time>2015-06-05T10:58:01Z</time>
      </trkpt>
      <trkpt lat="49.09321" lon="-1.40356">
        <ele>104.60536</ele>
        <time>2015-06-05T10:58:06Z</time>
      </trkpt>
      <trkpt lat="49.09318" lon="-1.40359">
        <ele>104.60536</ele>
        <time>2015-06-05T10:58:11Z</time>
      </trkpt>
      <trkpt lat="49.09315" lon="-1.40364">
        <ele>106.59864</ele>
        <time>2015-06-05T10:58:16Z</time>
      </trkpt>
      <trkpt lat="49.09315" lon="-1.40366">
        <ele>106.59864</ele>
        <time>2015-06-05T10:58:21Z</time>
      </trkpt>
      <trkpt lat="49.09315" lon="-1.40369">
        <ele>106.59864</ele>
        <time>2015-06-05T10:58:26Z</time>
      </trkpt>
      <trkpt lat="49.09312" lon="-1.40374">
        <ele>106.59864</ele>
        <time>2015-06-05T10:58:31Z</time>
      </trkpt>
      <trkpt lat="49.09307" lon="-1.4038">
        <ele>108.724655</ele>
        <time>2015-06-05T10:58:36Z</time>
      </trkpt>
      <trkpt lat="49.09303" lon="-1.40385">
        <ele>108.724655</ele>
        <time>2015-06-05T10:58:41Z</time>
      </trkpt>
      <trkpt lat="49.093" lon="-1.4039">
        <ele>110.82243</ele>
        <time>2015-06-05T10:58:46Z</time>
      </trkpt>
      <trkpt lat="49.09296" lon="-1.40394">
        <ele>110.82243</ele>
        <time>2015-06-05T10:58:51Z</time>
      </trkpt>
      <trkpt lat="49.09294" lon="-1.40397">
        <ele>110.82243</ele>
        <time>2015-06-05T10:58:56Z</time>
      </trkpt>
      <trkpt lat="49.09292" lon="-1.40401">
        <ele>113.01692</ele>
        <time>2015-06-05T10:59:01Z</time>
      </trkpt>
      <trkpt lat="49.09288" lon="-1.40408">
        <ele>113.01692</ele>
        <time>2015-06-05T10:59:06Z</time>
      </trkpt>
      <trkpt lat="49.09284" lon="-1.40413">
        <ele>115.23644</ele>
        <time>2015-06-05T10:59:11Z</time>
      </trkpt>
      <trkpt lat="49.09278" lon="-1.40419">
        <ele>115.23644</ele>
        <time>2015-06-05T10:59:16Z</time>
      </trkpt>
      <trkpt lat="49.09274" lon="-1.40423">
        <ele>117.37146</ele>
        <time>2015-06-05T10:59:21Z</time>
      </trkpt>
      <trkpt lat="49.09269" lon="-1.40428">
        <ele>117.37146</ele>
        <time>2015-06-05T10:59:26Z</time>
      </trkpt>
      <trkpt lat="49.09265" lon="-1.40432">
        <ele>119.37859</ele>
        <time>2015-06-05T10:59:31Z</time>
      </trkpt>
      <trkpt lat="49.09259" lon="-1.4044">
        <ele>119.37859</ele>
        <time>2015-06-05T10:59:36Z</time>
      </trkpt>
      <trkpt lat="49.09257" lon="-1.40443">
        <ele>121.29025</ele>
        <time>2015-06-05T10:59:41Z</time>
      </trkpt>
      <trkpt lat="49.09254" lon="-1.40445">
        <ele>121.29025</ele>
        <time>2015-06-05T10:59:46Z</time>
      </trkpt>
      <trkpt lat="49.09251" lon="-1.40447">
        <ele>121.29025</ele>
        <time>2015-06-05T10:59:51Z</time>
      </trkpt>
      <trkpt lat="49.09245" lon="-1.40452">
        <ele>123.22339</ele>
        <time>2015-06-05T10:59:56Z</time>
      </trkpt>
      <trkpt lat="49.09241" lon="-1.40457">
        <ele>123.22339</ele>
        <time>2015-06-05T11:00:01Z</time>
      </trkpt>
      <trkpt lat="49.09238" lon="-1.40463">
        <ele>125.04156</ele>
        <time>2015-06-05T11:00:06Z</time>
      </trkpt>
      <trkpt lat="49.09232" lon="-1.40467">
        <ele>125.04156</ele>
        <time>2015-06-05T11:00:11Z</time>
      </trkpt>
      <trkpt lat="49.09227" lon="-1.4047">
        <ele>126.70529</ele>
        <time>2015-06-05T11:00:16Z</time>
      </trkpt>
      <trkpt lat="49.09222" lon="-1.40475">
        <ele>126.70529</ele>
        <time>2015-06-05T11:00:21Z</time>
      </trkpt>
      <trkpt lat="49.09218" lon="-1.40479">
        <ele>128.25073</ele>
        <time>2015-06-05T11:00:26Z</time>
      </trkpt>
      <trkpt lat="49.09214" lon="-1.40482">
        <ele>128.25073</ele>
        <time>2015-06-05T11:00:31Z</time>
      </trkpt>
      <trkpt lat="49.0921" lon="-1.40486">
        <ele>129.68309</ele>
        <time>2015-06-05T11:00:36Z</time>
      </trkpt>
      <trkpt lat="49.09206" lon="-1.40491">
        <ele>129.68309</ele>
        <time>2015-06-05T11:00:41Z</time>
      </trkpt>
      <trkpt lat="49.09203" lon="-1.40496">
        <ele>131.0221</ele>
        <time>2015-06-05T11:00:46Z</time>
      </trkpt>
      <trkpt lat="49.09198" lon="-1.405">
        <ele>131.0221</ele>
        <time>2015-06-05T11:00:51Z</time>
      </trkpt>
      <trkpt lat="49.09195" lon="-1.40506">
        <ele>132.38736</ele>
        <time>2015-06-05T11:00:56Z</time>
      </trkpt>
      <trkpt lat="49.09192" lon="-1.40511">
        <ele>132.38736</ele>
        <time>2015-06-05T11:01:01Z</time>
      </trkpt>
      <trkpt lat="49.09188" lon="-1.40517">
        <ele>133.76013</ele>
        <time>2015-06-05T11:01:06Z</time>
      </trkpt>
      <trkpt lat="49.09184" lon="-1.4052">
        <ele>133.76013</ele>
        <time>2015-06-05T11:01:11Z</time>
      </trkpt>
      <trkpt lat="49.09181" lon="-1.40524">
        <ele>133.76013</ele>
        <time>2015-06-05T11:01:16Z</time>
      </trkpt>
      <trkpt lat="49.09176" lon="-1.4053">
        <ele>135.13759</ele>
        <time>2015-06-05T11:01:21Z</time>
      </trkpt>
      <trkpt lat="49.09172" lon="-1.40532">
        <ele>135.13759</ele>
        <time>2015-06-05T11:01:26Z</time>
      </trkpt>
      <trkpt lat="49.09167" lon="-1.40536">
        <ele>136.41641</ele>
        <time>2015-06-05T11:01:31Z</time>
      </trkpt>
      <trkpt lat="49.09162" lon="-1.40542">
        <ele>136.41641</ele>
        <time>2015-06-05T11:01:36Z</time>
      </trkpt>
      <trkpt lat="49.09157" lon="-1.40549">
        <ele>137.6166</ele>
        <time>2015-06-05T11:01:41Z</time>
      </trkpt>
      <trkpt lat="49.09153" lon="-1.40554">
        <ele>137.6166</ele>
        <time>2015-06-05T11:01:46Z</time>
      </trkpt>
      <trkpt lat="49.09149" lon="-1.40559">
        <ele>138.69937</ele>
        <time>2015-06-05T11:01:51Z</time>
      </trkpt>
      <trkpt lat="49.09143" lon="-1.40566">
        <ele>138.69937</ele>
        <time>2015-06-05T11:01:56Z</time>
      </trkpt>
      <trkpt lat="49.09138" lon="-1.40571">
        <ele>139.64374</ele>
        <time>2015-06-05T11:02:01Z</time>
      </trkpt>
      <trkpt lat="49.09135" lon="-1.40574">
        <ele>139.64374</ele>
        <time>2015-06-05T11:02:06Z</time>
      </trkpt>
      <trkpt lat="49.09131" lon="-1.40578">
        <ele>139.64374</ele>
        <time>2015-06-05T11:02:11Z</time>
      </trkpt>
      <trkpt lat="49.09127" lon="-1.40582">
        <ele>140.6181</ele>
        <time>2015-06-05T11:02:16Z</time>
      </trkpt>
      <trkpt lat="49.09122" lon="-1.40589">
        <ele>140.6181</ele>
        <time>2015-06-05T11:02:21Z</time>
      </trkpt>
      <trkpt lat="49.09118" lon="-1.40594">
        <ele>141.6056</ele>
        <time>2015-06-05T11:02:26Z</time>
      </trkpt>
      <trkpt lat="49.09114" lon="-1.40597">
        <ele>141.6056</ele>
        <time>2015-06-05T11:02:31Z</time>
      </trkpt>
      <trkpt lat="49.09109" lon="-1.40603">
        <ele>142.5619</ele>
        <time>2015-06-05T11:02:36Z</time>
      </trkpt>
      <trkpt lat="49.09104" lon="-1.40609">
        <ele>142.5619</ele>
        <time>2015-06-05T11:02:41Z</time>
      </trkpt>
      <trkpt lat="49.09101" lon="-1.40611">
        <ele>143.40285</ele>
        <time>2015-06-05T11:02:46Z</time>
      </trkpt>
      <trkpt lat="49.09097" lon="-1.40616">
        <ele>143.40285</ele>
        <time>2015-06-05T11:02:51Z</time>
      </trkpt>
      <trkpt lat="49.09091" lon="-1.40622">
        <ele>144.18062</ele>
        <time>2015-06-05T11:02:56Z</time>
      </trkpt>
      <trkpt lat="49.09087" lon="-1.40627">
        <ele>144.18062</ele>
        <time>2015-06-05T11:03:01Z</time>
      </trkpt>
      <trkpt lat="49.09081" lon="-1.40634">
        <ele>144.88618</ele>
        <time>2015-06-05T11:03:06Z</time>
      </trkpt>
      <trkpt lat="49.09076" lon="-1.4064">
        <ele>144.88618</ele>
        <time>2015-06-05T11:03:11Z</time>
      </trkpt>
      <trkpt lat="49.0907" lon="-1.40644">
        <ele>145.35295</ele>
        <time>2015-06-05T11:03:16Z</time>
      </trkpt>
      <trkpt lat="49.09066" lon="-1.40645">
        <ele>145.35295</ele>
        <time>2015-06-05T11:03:21Z</time>
      </trkpt>
      <trkpt lat="49.09063" lon="-1.40648">
        <ele>145.35295</ele>
        <time>2015-06-05T11:03:26Z</time>
      </trkpt>
      <trkpt lat="49.09062" lon="-1.40651">
        <ele>145.5714</ele>
        <time>2015-06-05T11:03:31Z</time>
      </trkpt>
      <trkpt lat="49.09062" lon="-1.40652">
        <ele>145.5714</ele>
        <time>2015-06-05T11:03:36Z</time>
      </trkpt>
      <trkpt lat="49.09063" lon="-1.40654">
        <ele>145.5714</ele>
        <time>2015-06-05T11:03:41Z</time>
      </trkpt>
      <trkpt lat="49.09063" lon="-1.40653">
        <ele>145.5714</ele>
        <time>2015-06-05T11:03:46Z</time>
      </trkpt>
      <trkpt lat="49.09063" lon="-1.40653">
        <ele>145.5714</ele>
        <time>2015-06-05T11:03:51Z</time>
      </trkpt>
      <trkpt lat="49.09062" lon="-1.40653">
        <ele>145.5714</ele>
        <time>2015-06-05T11:03:56Z</time>
      </trkpt>
      <trkpt lat="49.09061" lon="-1.40653">
        <ele>145.5714</ele>
        <time>2015-06-05T11:04:01Z</time>
      </trkpt>
      <trkpt lat="49.0906" lon="-1.40654">
        <ele>145.5714</ele>
        <time>2015-06-05T11:04:06Z</time>
      </trkpt>
      <trkpt lat="49.09059" lon="-1.40653">
        <ele>145.5714</ele>
        <time>2015-06-05T11:04:11Z</time>
      </trkpt>
      <trkpt lat="49.0906" lon="-1.40654">
        <ele>145.5714</ele>
        <time>2015-06-05T11:04:16Z</time>
      </trkpt>
      <trkpt lat="49.0906" lon="-1.40654">
        <ele>145.72081</ele>
        <time>2015-06-05T11:04:21Z</time>
      </trkpt>
      <trkpt lat="49.0906" lon="-1.40654">
        <ele>145.72081</ele>
        <time>2015-06-05T11:04:26Z</time>
      </trkpt>
      <trkpt lat="49.09059" lon="-1.40654">
        <ele>145.72081</ele>
        <time>2015-06-05T11:04:31Z</time>
      </trkpt>
      <trkpt lat="49.0906" lon="-1.40654">
        <ele>145.72081</ele>
        <time>2015-06-05T11:04:36Z</time>
      </trkpt>
      <trkpt lat="49.0906" lon="-1.40653">
        <ele>145.72081</ele>
        <time>2015-06-05T11:04:41Z</time>
      </trkpt>
      <trkpt lat="49.09059" lon="-1.40653">
        <ele>145.72081</ele>
        <time>2015-06-05T11:04:46Z</time>
      </trkpt>
      <trkpt lat="49.09059" lon="-1.4065">
        <ele>145.72081</ele>
        <time>2015-06-05T11:04:51Z</time>
      </trkpt>
      <trkpt lat="49.09058" lon="-1.40654">
        <ele>145.72081</ele>
        <time>2015-06-05T11:04:56Z</time>
      </trkpt>
      <trkpt lat="49.09054" lon="-1.4066">
        <ele>145.66492</ele>
        <time>2015-06-05T11:05:01Z</time>
      </trkpt>
      <trkpt lat="49.09052" lon="-1.40664">
        <ele>145.66492</ele>
        <time>2015-06-05T11:05:06Z</time>
      </trkpt>
      <trkpt lat="49.09049" lon="-1.40669">
        <ele>145.66492</ele>
        <time>2015-06-05T11:05:11Z</time>
      </trkpt>
      <trkpt lat="49.09047" lon="-1.40674">
        <ele>145.66719</ele>
        <time>2015-06-05T11:05:16Z</time>
      </trkpt>
      <trkpt lat="49.09042" lon="-1.40681">
        <ele>145.66719</ele>
        <time>2015-06-05T11:05:21Z</time>
      </trkpt>
      <trkpt lat="49.09039" lon="-1.40686">
        <ele>145.74101</ele>
        <time>2015-06-05T11:05:26Z</time>
      </trkpt>
      <trkpt lat="49.09036" lon="-1.40689">
        <ele>145.74101</ele>
        <time>2015-06-05T11:05:31Z</time>
      </trkpt>
      <trkpt lat="49.09031" lon="-1.40696">
        <ele>145.86978</ele>
        <time>2015-06-05T11:05:36Z</time>
      </trkpt>
      <trkpt lat="49.09027" lon="-1.40701">
        <ele>145.86978</ele>
        <time>2015-06-05T11:05:41Z</time>
      </trkpt>
      <trkpt lat="49.09024" lon="-1.40706">
        <ele>146.06679</ele>
        <time>2015-06-05T11:05:46Z</time>
      </trkpt>
      <trkpt lat="49.0902" lon="-1.40712">
        <ele>146.06679</ele>
        <time>2015-06-05T11:05:51Z</time>
      </trkpt>
      <trkpt lat="49.09014" lon="-1.40718">
        <ele>146.3009</ele>
        <time>2015-06-05T11:05:56Z</time>
      </trkpt>
      <trkpt lat="49.0901" lon="-1.40721">
        <ele>146.3009</ele>
        <time>2015-06-05T11:06:01Z</time>
      </trkpt>
      <trkpt lat="49.09004" lon="-1.40725">
        <ele>146.44232</ele>
        <time>2015-06-05T11:06:06Z</time>
      </trkpt>
      <trkpt lat="49.08997" lon="-1.40733">
        <ele>146.44232</ele>
        <time>2015-06-05T11:06:11Z</time>
      </trkpt>
      <trkpt lat="49.08992" lon="-1.4074">
        <ele>146.41422</ele>
        <time>2015-06-05T11:06:16Z</time>
      </trkpt>
      <trkpt lat="49.08986" lon="-1.40749">
        <ele>146.41422</ele>
        <time>2015-06-05T11:06:21Z</time>
      </trkpt>
      <trkpt lat="49.08982" lon="-1.40754">
        <ele>146.33319</ele>
        <time>2015-06-05T11:06:26Z</time>
      </trkpt>
      <trkpt lat="49.08979" lon="-1.40758">
        <ele>146.33319</ele>
        <time>2015-06-05T11:06:31Z</time>
      </trkpt>
      <trkpt lat="49.08975" lon="-1.40763">
        <ele>146.33319</ele>
        <time>2015-06-05T11:06:36Z</time>
      </trkpt>
      <trkpt lat="49.08971" lon="-1.40766">
        <ele>146.36508</ele>
        <time>2015-06-05T11:06:41Z</time>
      </trkpt>
      <trkpt lat="49.08966" lon="-1.40771">
        <ele>146.36508</ele>
        <time>2015-06-05T11:06:46Z</time>
      </trkpt>
      <trkpt lat="49.08961" lon="-1.40775">
        <ele>146.4902</ele>
        <time>2015-06-05T11:06:51Z</time>
      </trkpt>
      <trkpt lat="49.08955" lon="-1.4078">
        <ele>146.4902</ele>
        <time>2015-06-05T11:06:56Z</time>
      </trkpt>
      <trkpt lat="49.0895" lon="-1.40785">
        <ele>146.64682</ele>
        <time>2015-06-05T11:07:01Z</time>
      </trkpt>
      <trkpt lat="49.08943" lon="-1.40791">
        <ele>146.64682</ele>
        <time>2015-06-05T11:07:06Z</time>
      </trkpt>
      <trkpt lat="49.08939" lon="-1.40794">
        <ele>146.79196</ele>
        <time>2015-06-05T11:07:11Z</time>
      </trkpt>
      <trkpt lat="49.08935" lon="-1.40798">
        <ele>146.79196</ele>
        <time>2015-06-05T11:07:16Z</time>
      </trkpt>
      <trkpt lat="49.0893" lon="-1.40803">
        <ele>146.94345</ele>
        <time>2015-06-05T11:07:21Z</time>
      </trkpt>
      <trkpt lat="49.08925" lon="-1.40807">
        <ele>146.94345</ele>
        <time>2015-06-05T11:07:26Z</time>
      </trkpt>
      <trkpt lat="49.08918" lon="-1.40813">
        <ele>147.01685</ele>
        <time>2015-06-05T11:07:31Z</time>
      </trkpt>
      <trkpt lat="49.08912" lon="-1.40819">
        <ele>147.01685</ele>
        <time>2015-06-05T11:07:36Z</time>
      </trkpt>
      <trkpt lat="49.08906" lon="-1.40823">
        <ele>147.02054</ele>
        <time>2015-06-05T11:07:41Z</time>
      </trkpt>
      <trkpt lat="49.08902" lon="-1.40828">
        <ele>147.02054</ele>
        <time>2015-06-05T11:07:46Z</time>
      </trkpt>
      <trkpt lat="49.08897" lon="-1.40833">
        <ele>147.0633</ele>
        <time>2015-06-05T11:07:51Z</time>
      </trkpt>
      <trkpt lat="49.08893" lon="-1.40838">
        <ele>147.0633</ele>
        <time>2015-06-05T11:07:56Z</time>
      </trkpt>
      <trkpt lat="49.0889" lon="-1.40842">
        <ele>147.08719</ele>
        <time>2015-06-05T11:08:01Z</time>
      </trkpt>
      <trkpt lat="49.08886" lon="-1.40846">
        <ele>147.08719</ele>
        <time>2015-06-05T11:08:06Z</time>
      </trkpt>
      <trkpt lat="49.0888" lon="-1.4085">
        <ele>147.16824</ele>
        <time>2015-06-05T11:08:11Z</time>
      </trkpt>
      <trkpt lat="49.08875" lon="-1.40856">
        <ele>147.16824</ele>
        <time>2015-06-05T11:08:16Z</time>
      </trkpt>
      <trkpt lat="49.0887" lon="-1.40862">
        <ele>147.29018</ele>
        <time>2015-06-05T11:08:21Z</time>
      </trkpt>
      <trkpt lat="49.08865" lon="-1.40867">
        <ele>147.29018</ele>
        <time>2015-06-05T11:08:26Z</time>
      </trkpt>
      <trkpt lat="49.08861" lon="-1.40871">
        <ele>147.46657</ele>
        <time>2015-06-05T11:08:31Z</time>
      </trkpt>
      <trkpt lat="49.08856" lon="-1.40875">
        <ele>147.46657</ele>
        <time>2015-06-05T11:08:36Z</time>
      </trkpt>
      <trkpt lat="49.0885" lon="-1.4088">
        <ele>147.56563</ele>
        <time>2015-06-05T11:08:41Z</time>
      </trkpt>
      <trkpt lat="49.08845" lon="-1.40882">
        <ele>147.56563</ele>
        <time>2015-06-05T11:08:46Z</time>
      </trkpt>
      <trkpt lat="49.0884" lon="-1.40887">
        <ele>147.60951</ele>
        <time>2015-06-05T11:08:51Z</time>
      </trkpt>
      <trkpt lat="49.08835" lon="-1.40894">
        <ele>147.60951</ele>
        <time>2015-06-05T11:08:56Z</time>
      </trkpt>
      <trkpt lat="49.08832" lon="-1.40898">
        <ele>147.7197</ele>
        <time>2015-06-05T11:09:01Z</time>
      </trkpt>
      <trkpt lat="49.08827" lon="-1.40901">
        <ele>147.7197</ele>
        <time>2015-06-05T11:09:06Z</time>
      </trkpt>
      <trkpt lat="49.08821" lon="-1.40906">
        <ele>147.95084</ele>
        <time>2015-06-05T11:09:11Z</time>
      </trkpt>
      <trkpt lat="49.08817" lon="-1.40912">
        <ele>147.95084</ele>
        <time>2015-06-05T11:09:16Z</time>
      </trkpt>
      <trkpt lat="49.08811" lon="-1.40914">
        <ele>148.29552</ele>
        <time>2015-06-05T11:09:21Z</time>
      </trkpt>
      <trkpt lat="49.08807" lon="-1.40919">
        <ele>148.29552</ele>
        <time>2015-06-05T11:09:26Z</time>
      </trkpt>
      <trkpt lat="49.08801" lon="-1.40922">
        <ele>148.73203</ele>
        <time>2015-06-05T11:09:31Z</time>
      </trkpt>
      <trkpt lat="49.08796" lon="-1.40927">
        <ele>148.73203</ele>
        <time>2015-06-05T11:09:36Z</time>
      </trkpt>
      <trkpt lat="49.0879" lon="-1.40933">
        <ele>149.21114</ele>
        <time>2015-06-05T11:09:41Z</time>
      </trkpt>
      <trkpt lat="49.08784" lon="-1.40936">
        <ele>149.21114</ele>
        <time>2015-06-05T11:09:46Z</time>
      </trkpt>
      <trkpt lat="49.08777" lon="-1.40939">
        <ele>149.60056</ele>
        <time>2015-06-05T11:09:51Z</time>
      </trkpt>
      <trkpt lat="49.08772" lon="-1.40943">
        <ele>149.60056</ele>
        <time>2015-06-05T11:09:56Z</time>
      </trkpt>
      <trkpt lat="49.08767" lon="-1.40947">
        <ele>149.90762</ele>
        <time>2015-06-05T11:10:01Z</time>
      </trkpt>
      <trkpt lat="49.0876" lon="-1.40954">
        <ele>149.90762</ele>
        <time>2015-06-05T11:10:06Z</time>
      </trkpt>
      <trkpt lat="49.08755" lon="-1.40959">
        <ele>150.12486</ele>
        <time>2015-06-05T11:10:11Z</time>
      </trkpt>
      <trkpt lat="49.08751" lon="-1.40963">
        <ele>150.12486</ele>
        <time>2015-06-05T11:10:16Z</time>
      </trkpt>
      <trkpt lat="49.08746" lon="-1.40967">
        <ele>150.24554</ele>
        <time>2015-06-05T11:10:21Z</time>
      </trkpt>
      <trkpt lat="49.0874" lon="-1.40973">
        <ele>150.24554</ele>
        <time>2015-06-05T11:10:26Z</time>
      </trkpt>
      <trkpt lat="49.08736" lon="-1.40978">
        <ele>150.30688</ele>
        <time>2015-06-05T11:10:31Z</time>
      </trkpt>
      <trkpt lat="49.08733" lon="-1.40983">
        <ele>150.30688</ele>
        <time>2015-06-05T11:10:36Z</time>
      </trkpt>
      <trkpt lat="49.08729" lon="-1.40987">
        <ele>150.30688</ele>
        <time>2015-06-05T11:10:41Z</time>
      </trkpt>
      <trkpt lat="49.08726" lon="-1.40992">
        <ele>150.42995</ele>
        <time>2015-06-05T11:10:46Z</time>
      </trkpt>
      <trkpt lat="49.08722" lon="-1.40996">
        <ele>150.42995</ele>
        <time>2015-06-05T11:10:51Z</time>
      </trkpt>
      <trkpt lat="49.08718" lon="-1.41003">
        <ele>150.61136</ele>
        <time>2015-06-05T11:10:56Z</time>
      </trkpt>
      <trkpt lat="49.08714" lon="-1.41009">
        <ele>150.61136</ele>
        <time>2015-06-05T11:11:01Z</time>
      </trkpt>
      <trkpt lat="49.08709" lon="-1.41014">
        <ele>150.8622</ele>
        <time>2015-06-05T11:11:06Z</time>
      </trkpt>
      <trkpt lat="49.08703" lon="-1.41017">
        <ele>150.8622</ele>
        <time>2015-06-05T11:11:11Z</time>
      </trkpt>
      <trkpt lat="49.08699" lon="-1.41021">
        <ele>151.03397</ele>
        <time>2015-06-05T11:11:16Z</time>
      </trkpt>
      <trkpt lat="49.08696" lon="-1.41027">
        <ele>151.03397</ele>
        <time>2015-06-05T11:11:21Z</time>
      </trkpt>
      <trkpt lat="49.08692" lon="-1.41034">
        <ele>151.16214</ele>
        <time>2015-06-05T11:11:26Z</time>
      </trkpt>
      <trkpt lat="49.08687" lon="-1.4104">
        <ele>151.16214</ele>
        <time>2015-06-05T11:11:31Z</time>
      </trkpt>
      <trkpt lat="49.08683" lon="-1.41047">
        <ele>151.35176</ele>
        <time>2015-06-05T11:11:36Z</time>
      </trkpt>
      <trkpt lat="49.0868" lon="-1.41053">
        <ele>151.35176</ele>
        <time>2015-06-05T11:11:41Z</time>
      </trkpt>
      <trkpt lat="49.08677" lon="-1.4106">
        <ele>151.54137</ele>
        <time>2015-06-05T11:11:46Z</time>
      </trkpt>
      <trkpt lat="49.08674" lon="-1.41068">
        <ele>151.54137</ele>
        <time>2015-06-05T11:11:51Z</time>
      </trkpt>
      <trkpt lat="49.0867" lon="-1.41074">
        <ele>151.80368</ele>
        <time>2015-06-05T11:11:56Z</time>
      </trkpt>
      <trkpt lat="49.08667" lon="-1.41079">
        <ele>151.80368</ele>
        <time>2015-06-05T11:12:01Z</time>
      </trkpt>
      <trkpt lat="49.08661" lon="-1.41087">
        <ele>152.09055</ele>
        <time>2015-06-05T11:12:06Z</time>
      </trkpt>
      <trkpt lat="49.08658" lon="-1.41094">
        <ele>152.09055</ele>
        <time>2015-06-05T11:12:11Z</time>
      </trkpt>
      <trkpt lat="49.08657" lon="-1.41098">
        <ele>152.09055</ele>
        <time>2015-06-05T11:12:16Z</time>
      </trkpt>
      <trkpt lat="49.08661" lon="-1.41094">
        <ele>152.25635</ele>
        <time>2015-06-05T11:12:21Z</time>
      </trkpt>
      <trkpt lat="49.08662" lon="-1.41091">
        <ele>152.25635</ele>
        <time>2015-06-05T11:12:26Z</time>
      </trkpt>
      <trkpt lat="49.08662" lon="-1.41088">
        <ele>152.25635</ele>
        <time>2015-06-05T11:12:31Z</time>
      </trkpt>
      <trkpt lat="49.08662" lon="-1.41087">
        <ele>152.25635</ele>
        <time>2015-06-05T11:12:36Z</time>
      </trkpt>
      <trkpt lat="49.08661" lon="-1.41088">
        <ele>152.25635</ele>
        <time>2015-06-05T11:12:41Z</time>
      </trkpt>
      <trkpt lat="49.0866" lon="-1.41089">
        <ele>152.25635</ele>
        <time>2015-06-05T11:12:46Z</time>
      </trkpt>
      <trkpt lat="49.08659" lon="-1.41091">
        <ele>152.29616</ele>
        <time>2015-06-05T11:12:51Z</time>
      </trkpt>
      <trkpt lat="49.0866" lon="-1.41093">
        <ele>152.29616</ele>
        <time>2015-06-05T11:12:56Z</time>
      </trkpt>
      <trkpt lat="49.0866" lon="-1.41096">
        <ele>152.29616</ele>
        <time>2015-06-05T11:13:01Z</time>
      </trkpt>
      <trkpt lat="49.08659" lon="-1.41097">
        <ele>152.29616</ele>
        <time>2015-06-05T11:13:06Z</time>
      </trkpt>
      <trkpt lat="49.08659" lon="-1.41097">
        <ele>152.29616</ele>
        <time>2015-06-05T11:13:11Z</time>
      </trkpt>
      <trkpt lat="49.08658" lon="-1.41099">
        <ele>152.29616</ele>
        <time>2015-06-05T11:13:16Z</time>
      </trkpt>
      <trkpt lat="49.08653" lon="-1.41102">
        <ele>151.77338</ele>
        <time>2015-06-05T11:13:21Z</time>
      </trkpt>
      <trkpt lat="49.0865" lon="-1.41107">
        <ele>151.77338</ele>
        <time>2015-06-05T11:13:26Z</time>
      </trkpt>
      <trkpt lat="49.08648" lon="-1.41112">
        <ele>151.77338</ele>
        <time>2015-06-05T11:13:31Z</time>
      </trkpt>
      <trkpt lat="49.08644" lon="-1.41118">
        <ele>151.30824</ele>
        <time>2015-06-05T11:13:36Z</time>
      </trkpt>
      <trkpt lat="49.08638" lon="-1.41128">
        <ele>151.30824</ele>
        <time>2015-06-05T11:13:41Z</time>
      </trkpt>
      <trkpt lat="49.08633" lon="-1.41137">
        <ele>150.8699</ele>
        <time>2015-06-05T11:13:46Z</time>
      </trkpt>
      <trkpt lat="49.08629" lon="-1.41145">
        <ele>150.8699</ele>
        <time>2015-06-05T11:13:51Z</time>
      </trkpt>
      <trkpt lat="49.08626" lon="-1.41153">
        <ele>150.47293</ele>
        <time>2015-06-05T11:13:56Z</time>
      </trkpt>
      <trkpt lat="49.08623" lon="-1.41163">
        <ele>150.47293</ele>
        <time>2015-06-05T11:14:01Z</time>
      </trkpt>
      <trkpt lat="49.08618" lon="-1.41173">
        <ele>150.08739</ele>
        <time>2015-06-05T11:14:06Z</time>
      </trkpt>
      <trkpt lat="49.08614" lon="-1.41182">
        <ele>150.08739</ele>
        <time>2015-06-05T11:14:11Z</time>
      </trkpt>
      <trkpt lat="49.0861" lon="-1.41191">
        <ele>149.75754</ele>
        <time>2015-06-05T11:14:16Z</time>
      </trkpt>
      <trkpt lat="49.08607" lon="-1.412">
        <ele>149.75754</ele>
        <time>2015-06-05T11:14:21Z</time>
      </trkpt>
      <trkpt lat="49.08605" lon="-1.41209">
        <ele>149.45209</ele>
        <time>2015-06-05T11:14:26Z</time>
      </trkpt>
      <trkpt lat="49.08602" lon="-1.41218">
        <ele>149.45209</ele>
        <time>2015-06-05T11:14:31Z</time>
      </trkpt>
      <trkpt lat="49.08599" lon="-1.41227">
        <ele>149.15639</ele>
        <time>2015-06-05T11:14:36Z</time>
      </trkpt>
      <trkpt lat="49.08596" lon="-1.41235">
        <ele>149.15639</ele>
        <time>2015-06-05T11:14:41Z</time>
      </trkpt>
      <trkpt lat="49.08595" lon="-1.41243">
        <ele>148.88556</ele>
        <time>2015-06-05T11:14:46Z</time>
      </trkpt>
      <trkpt lat="49.08592" lon="-1.41253">
        <ele>148.88556</ele>
        <time>2015-06-05T11:14:51Z</time>
      </trkpt>
      <trkpt lat="49.08591" lon="-1.41264">
        <ele>148.72554</ele>
        <time>2015-06-05T11:14:56Z</time>
      </trkpt>
      <trkpt lat="49.08589" lon="-1.41274">
        <ele>148.72554</ele>
        <time>2015-06-05T11:15:01Z</time>
      </trkpt>
      <trkpt lat="49.08587" lon="-1.41283">
        <ele>148.68356</ele>
        <time>2015-06-05T11:15:06Z</time>
      </trkpt>
      <trkpt lat="49.08585" lon="-1.4129">
        <ele>148.68356</ele>
        <time>2015-06-05T11:15:11Z</time>
      </trkpt>
      <trkpt lat="49.08583" lon="-1.41298">
        <ele>148.79475</ele>
        <time>2015-06-05T11:15:16Z</time>
      </trkpt>
      <trkpt lat="49.08582" lon="-1.41306">
        <ele>148.79475</ele>
        <time>2015-06-05T11:15:21Z</time>
      </trkpt>
      <trkpt lat="49.08578" lon="-1.41314">
        <ele>149.0191</ele>
        <time>2015-06-05T11:15:26Z</time>
      </trkpt>
      <trkpt lat="49.08574" lon="-1.4132">
        <ele>149.0191</ele>
        <time>2015-06-05T11:15:31Z</time>
      </trkpt>
      <trkpt lat="49.08571" lon="-1.41327">
        <ele>149.26158</ele>
        <time>2015-06-05T11:15:36Z</time>
      </trkpt>
      <trkpt lat="49.08567" lon="-1.41337">
        <ele>149.26158</ele>
        <time>2015-06-05T11:15:41Z</time>
      </trkpt>
      <trkpt lat="49.08564" lon="-1.41344">
        <ele>149.49162</ele>
        <time>2015-06-05T11:15:46Z</time>
      </trkpt>
      <trkpt lat="49.0856" lon="-1.41353">
        <ele>149.49162</ele>
        <time>2015-06-05T11:15:51Z</time>
      </trkpt>
      <trkpt lat="49.08556" lon="-1.41363">
        <ele>149.69536</ele>
        <time>2015-06-05T11:15:56Z</time>
      </trkpt>
      <trkpt lat="49.08553" lon="-1.4137">
        <ele>149.69536</ele>
        <time>2015-06-05T11:16:01Z</time>
      </trkpt>
      <trkpt lat="49.08549" lon="-1.41377">
        <ele>149.88881</ele>
        <time>2015-06-05T11:16:06Z</time>
      </trkpt>
      <trkpt lat="49.08545" lon="-1.41386">
        <ele>149.88881</ele>
        <time>2015-06-05T11:16:11Z</time>
      </trkpt>
      <trkpt lat="49.08542" lon="-1.41393">
        <ele>150.11559</ele>
        <time>2015-06-05T11:16:16Z</time>
      </trkpt>
      <trkpt lat="49.08538" lon="-1.414">
        <ele>150.11559</ele>
        <time>2015-06-05T11:16:21Z</time>
      </trkpt>
      <trkpt lat="49.08535" lon="-1.41407">
        <ele>150.35838</ele>
        <time>2015-06-05T11:16:26Z</time>
      </trkpt>
      <trkpt lat="49.08532" lon="-1.41416">
        <ele>150.35838</ele>
        <time>2015-06-05T11:16:31Z</time>
      </trkpt>
      <trkpt lat="49.08529" lon="-1.41421">
        <ele>150.58665</ele>
        <time>2015-06-05T11:16:36Z</time>
      </trkpt>
      <trkpt lat="49.08523" lon="-1.41428">
        <ele>150.58665</ele>
        <time>2015-06-05T11:16:41Z</time>
      </trkpt>
      <trkpt lat="49.0852" lon="-1.41433">
        <ele>150.77214</ele>
        <time>2015-06-05T11:16:46Z</time>
      </trkpt>
      <trkpt lat="49.08516" lon="-1.41441">
        <ele>150.77214</ele>
        <time>2015-06-05T11:16:51Z</time>
      </trkpt>
      <trkpt lat="49.08512" lon="-1.4145">
        <ele>150.94638</ele>
        <time>2015-06-05T11:16:56Z</time>
      </trkpt>
      <trkpt lat="49.08508" lon="-1.41459">
        <ele>150.94638</ele>
        <time>2015-06-05T11:17:01Z</time>
      </trkpt>
      <trkpt lat="49.08504" lon="-1.41465">
        <ele>151.08098</ele>
        <time>2015-06-05T11:17:06Z</time>
      </trkpt>
      <trkpt lat="49.08501" lon="-1.41472">
        <ele>151.08098</ele>
        <time>2015-06-05T11:17:11Z</time>
      </trkpt>
      <trkpt lat="49.08496" lon="-1.4148">
        <ele>151.26501</ele>
        <time>2015-06-05T11:17:16Z</time>
      </trkpt>
      <trkpt lat="49.08492" lon="-1.41488">
        <ele>151.26501</ele>
        <time>2015-06-05T11:17:21Z</time>
      </trkpt>
      <trkpt lat="49.08488" lon="-1.41496">
        <ele>151.4944</ele>
        <time>2015-06-05T11:17:26Z</time>
      </trkpt>
      <trkpt lat="49.08485" lon="-1.41501">
        <ele>151.4944</ele>
        <time>2015-06-05T11:17:31Z</time>
      </trkpt>
      <trkpt lat="49.0848" lon="-1.41509">
        <ele>151.83728</ele>
        <time>2015-06-05T11:17:36Z</time>
      </trkpt>
      <trkpt lat="49.08476" lon="-1.41514">
        <ele>151.83728</ele>
        <time>2015-06-05T11:17:41Z</time>
      </trkpt>
      <trkpt lat="49.08472" lon="-1.41519">
        <ele>152.27</ele>
        <time>2015-06-05T11:17:46Z</time>
      </trkpt>
      <trkpt lat="49.08469" lon="-1.41526">
        <ele>152.27</ele>
        <time>2015-06-05T11:17:51Z</time>
      </trkpt>
      <trkpt lat="49.08465" lon="-1.41535">
        <ele>152.79921</ele>
        <time>2015-06-05T11:17:56Z</time>
      </trkpt>
      <trkpt lat="49.08463" lon="-1.41542">
        <ele>152.79921</ele>
        <time>2015-06-05T11:18:01Z</time>
      </trkpt>
      <trkpt lat="49.0846" lon="-1.41547">
        <ele>153.43079</ele>
        <time>2015-06-05T11:18:06Z</time>
      </trkpt>
      <trkpt lat="49.08458" lon="-1.4155">
        <ele>153.43079</ele>
        <time>2015-06-05T11:18:11Z</time>
      </trkpt>
      <trkpt lat="49.08456" lon="-1.41553">
        <ele>153.43079</ele>
        <time>2015-06-05T11:18:16Z</time>
      </trkpt>
      <trkpt lat="49.08452" lon="-1.41561">
        <ele>154.16992</ele>
        <time>2015-06-05T11:18:21Z</time>
      </trkpt>
      <trkpt lat="49.0845" lon="-1.41566">
        <ele>154.16992</ele>
        <time>2015-06-05T11:18:26Z</time>
      </trkpt>
      <trkpt lat="49.08448" lon="-1.4157">
        <ele>154.16992</ele>
        <time>2015-06-05T11:18:31Z</time>
      </trkpt>
      <trkpt lat="49.08444" lon="-1.41579">
        <ele>154.92023</ele>
        <time>2015-06-05T11:18:36Z</time>
      </trkpt>
      <trkpt lat="49.0844" lon="-1.41589">
        <ele>154.92023</ele>
        <time>2015-06-05T11:18:41Z</time>
      </trkpt>
      <trkpt lat="49.08437" lon="-1.41594">
        <ele>155.77974</ele>
        <time>2015-06-05T11:18:46Z</time>
      </trkpt>
      <trkpt lat="49.08433" lon="-1.41602">
        <ele>155.77974</ele>
        <time>2015-06-05T11:18:51Z</time>
      </trkpt>
      <trkpt lat="49.08429" lon="-1.4161">
        <ele>156.7093</ele>
        <time>2015-06-05T11:18:56Z</time>
      </trkpt>
      <trkpt lat="49.08426" lon="-1.41617">
        <ele>156.7093</ele>
        <time>2015-06-05T11:19:01Z</time>
      </trkpt>
      <trkpt lat="49.08423" lon="-1.41624">
        <ele>157.62926</ele>
        <time>2015-06-05T11:19:06Z</time>
      </trkpt>
      <trkpt lat="49.08422" lon="-1.41628">
        <ele>157.62926</ele>
        <time>2015-06-05T11:19:11Z</time>
      </trkpt>
      <trkpt lat="49.0842" lon="-1.41634">
        <ele>157.62926</ele>
        <time>2015-06-05T11:19:16Z</time>
      </trkpt>
      <trkpt lat="49.08418" lon="-1.41642">
        <ele>158.53787</ele>
        <time>2015-06-05T11:19:21Z</time>
      </trkpt>
      <trkpt lat="49.08416" lon="-1.41646">
        <ele>158.53787</ele>
        <time>2015-06-05T11:19:26Z</time>
      </trkpt>
      <trkpt lat="49.08413" lon="-1.41656">
        <ele>159.46245</ele>
        <time>2015-06-05T11:19:31Z</time>
      </trkpt>
      <trkpt lat="49.08411" lon="-1.41662">
        <ele>159.46245</ele>
        <time>2015-06-05T11:19:36Z</time>
      </trkpt>
      <trkpt lat="49.08409" lon="-1.41667">
        <ele>159.46245</ele>
        <time>2015-06-05T11:19:41Z</time>
      </trkpt>
      <trkpt lat="49.08408" lon="-1.41672">
        <ele>160.42827</ele>
        <time>2015-06-05T11:19:46Z</time>
      </trkpt>
      <trkpt lat="49.08405" lon="-1.41677">
        <ele>160.42827</ele>
        <time>2015-06-05T11:19:51Z</time>
      </trkpt>
      <trkpt lat="49.08402" lon="-1.41682">
        <ele>161.37225</ele>
        <time>2015-06-05T11:19:56Z</time>
      </trkpt>
      <trkpt lat="49.08399" lon="-1.41687">
        <ele>161.37225</ele>
        <time>2015-06-05T11:20:01Z</time>
      </trkpt>
      <trkpt lat="49.08397" lon="-1.41694">
        <ele>161.37225</ele>
        <time>2015-06-05T11:20:06Z</time>
      </trkpt>
      <trkpt lat="49.08398" lon="-1.41694">
        <ele>162.3225</ele>
        <time>2015-06-05T11:20:11Z</time>
      </trkpt>
      <trkpt lat="49.08399" lon="-1.41692">
        <ele>162.3225</ele>
        <time>2015-06-05T11:20:16Z</time>
      </trkpt>
      <trkpt lat="49.08398" lon="-1.41692">
        <ele>162.3225</ele>
        <time>2015-06-05T11:20:21Z</time>
      </trkpt>
      <trkpt lat="49.08398" lon="-1.41698">
        <ele>162.3225</ele>
        <time>2015-06-05T11:20:26Z</time>
      </trkpt>
      <trkpt lat="49.08396" lon="-1.41699">
        <ele>162.3225</ele>
        <time>2015-06-05T11:20:31Z</time>
      </trkpt>
      <trkpt lat="49.08396" lon="-1.417">
        <ele>162.3225</ele>
        <time>2015-06-05T11:20:36Z</time>
      </trkpt>
      <trkpt lat="49.08396" lon="-1.41702">
        <ele>163.31947</ele>
        <time>2015-06-05T11:20:41Z</time>
      </trkpt>
      <trkpt lat="49.08396" lon="-1.41702">
        <ele>163.31947</ele>
        <time>2015-06-05T11:20:46Z</time>
      </trkpt>
      <trkpt lat="49.08395" lon="-1.41701">
        <ele>163.31947</ele>
        <time>2015-06-05T11:20:51Z</time>
      </trkpt>
      <trkpt lat="49.08395" lon="-1.41701">
        <ele>163.31947</ele>
        <time>2015-06-05T11:20:56Z</time>
      </trkpt>
      <trkpt lat="49.08395" lon="-1.41699">
        <ele>163.31947</ele>
        <time>2015-06-05T11:21:01Z</time>
      </trkpt>
      <trkpt lat="49.08395" lon="-1.41697">
        <ele>163.31947</ele>
        <time>2015-06-05T11:21:06Z</time>
      </trkpt>
      <trkpt lat="49.08395" lon="-1.41697">
        <ele>163.31947</ele>
        <time>2015-06-05T11:21:11Z</time>
      </trkpt>
      <trkpt lat="49.08394" lon="-1.41698">
        <ele>163.31947</ele>
        <time>2015-06-05T11:21:16Z</time>
      </trkpt>
      <trkpt lat="49.08393" lon="-1.417">
        <ele>163.31947</ele>
        <time>2015-06-05T11:21:21Z</time>
      </trkpt>
      <trkpt lat="49.08393" lon="-1.41703">
        <ele>164.21329</ele>
        <time>2015-06-05T11:21:26Z</time>
      </trkpt>
      <trkpt lat="49.08392" lon="-1.41703">
        <ele>164.21329</ele>
        <time>2015-06-05T11:21:31Z</time>
      </trkpt>
      <trkpt lat="49.08392" lon="-1.41706">
        <ele>164.21329</ele>
        <time>2015-06-05T11:21:36Z</time>
      </trkpt>
      <trkpt lat="49.08392" lon="-1.41708">
        <ele>164.21329</ele>
        <time>2015-06-05T11:21:41Z</time>
      </trkpt>
      <trkpt lat="49.08393" lon="-1.41707">
        <ele>164.21329</ele>
        <time>2015-06-05T11:21:46Z</time>
      </trkpt>
      <trkpt lat="49.08394" lon="-1.41707">
        <ele>164.21329</ele>
        <time>2015-06-05T11:21:51Z</time>
      </trkpt>
      <trkpt lat="49.08394" lon="-1.41707">
        <ele>164.21329</ele>
        <time>2015-06-05T11:21:56Z</time>
      </trkpt>
      <trkpt lat="49.08395" lon="-1.41707">
        <ele>164.21329</ele>
        <time>2015-06-05T11:22:01Z</time>
      </trkpt>
      <trkpt lat="49.08394" lon="-1.41707">
        <ele>164.21329</ele>
        <time>2015-06-05T11:22:06Z</time>
      </trkpt>
      <trkpt lat="49.08394" lon="-1.41707">
        <ele>164.21329</ele>
        <time>2015-06-05T11:22:11Z</time>
      </trkpt>
      <trkpt lat="49.08394" lon="-1.41706">
        <ele>164.21329</ele>
        <time>2015-06-05T11:22:16Z</time>
      </trkpt>
      <trkpt lat="49.08394" lon="-1.41707">
        <ele>164.21329</ele>
        <time>2015-06-05T11:22:21Z</time>
      </trkpt>
      <trkpt lat="49.08395" lon="-1.41707">
        <ele>164.96628</ele>
        <time>2015-06-05T11:22:26Z</time>
      </trkpt>
      <trkpt lat="49.08394" lon="-1.41706">
        <ele>164.96628</ele>
        <time>2015-06-05T11:22:31Z</time>
      </trkpt>
      <trkpt lat="49.08393" lon="-1.41704">
        <ele>164.96628</ele>
        <time>2015-06-05T11:22:36Z</time>
      </trkpt>
      <trkpt lat="49.08393" lon="-1.41703">
        <ele>164.96628</ele>
        <time>2015-06-05T11:22:41Z</time>
      </trkpt>
      <trkpt lat="49.08392" lon="-1.41703">
        <ele>164.96628</ele>
        <time>2015-06-05T11:22:46Z</time>
      </trkpt>
      <trkpt lat="49.08391" lon="-1.41704">
        <ele>164.96628</ele>
        <time>2015-06-05T11:22:51Z</time>
      </trkpt>
      <trkpt lat="49.08391" lon="-1.41707">
        <ele>164.96628</ele>
        <time>2015-06-05T11:22:56Z</time>
      </trkpt>
      <trkpt lat="49.0839" lon="-1.41706">
        <ele>164.96628</ele>
        <time>2015-06-05T11:23:01Z</time>
      </trkpt>
      <trkpt lat="49.0839" lon="-1.41706">
        <ele>165.64487</ele>
        <time>2015-06-05T11:23:06Z</time>
      </trkpt>
      <trkpt lat="49.08389" lon="-1.41706">
        <ele>165.64487</ele>
        <time>2015-06-05T11:23:11Z</time>
      </trkpt>
      <trkpt lat="49.0839" lon="-1.41707">
        <ele>165.64487</ele>
        <time>2015-06-05T11:23:16Z</time>
      </trkpt>
      <trkpt lat="49.0839" lon="-1.41707">
        <ele>165.64487</ele>
        <time>2015-06-05T11:23:21Z</time>
      </trkpt>
      <trkpt lat="49.0839" lon="-1.41706">
        <ele>165.64487</ele>
        <time>2015-06-05T11:23:26Z</time>
      </trkpt>
      <trkpt lat="49.0839" lon="-1.41705">
        <ele>165.64487</ele>
        <time>2015-06-05T11:23:31Z</time>
      </trkpt>
      <trkpt lat="49.0839" lon="-1.41703">
        <ele>165.64487</ele>
        <time>2015-06-05T11:23:36Z</time>
      </trkpt>
      <trkpt lat="49.0839" lon="-1.41705">
        <ele>165.64487</ele>
        <time>2015-06-05T11:23:41Z</time>
      </trkpt>
      <trkpt lat="49.0839" lon="-1.41711">
        <ele>165.64487</ele>
        <time>2015-06-05T11:23:46Z</time>
      </trkpt>
      <trkpt lat="49.08389" lon="-1.41717">
        <ele>166.45497</ele>
        <time>2015-06-05T11:23:51Z</time>
      </trkpt>
      <trkpt lat="49.08388" lon="-1.4172">
        <ele>166.45497</ele>
        <time>2015-06-05T11:23:56Z</time>
      </trkpt>
      <trkpt lat="49.08389" lon="-1.41719">
        <ele>166.45497</ele>
        <time>2015-06-05T11:24:01Z</time>
      </trkpt>
      <trkpt lat="49.08388" lon="-1.41719">
        <ele>166.45497</ele>
        <time>2015-06-05T11:24:06Z</time>
      </trkpt>
      <trkpt lat="49.08388" lon="-1.41722">
        <ele>166.45497</ele>
        <time>2015-06-05T11:24:11Z</time>
      </trkpt>
      <trkpt lat="49.08389" lon="-1.41722">
        <ele>166.45497</ele>
        <time>2015-06-05T11:24:16Z</time>
      </trkpt>
      <trkpt lat="49.08389" lon="-1.41722">
        <ele>166.45497</ele>
        <time>2015-06-05T11:24:21Z</time>
      </trkpt>
      <trkpt lat="49.08387" lon="-1.41724">
        <ele>166.45497</ele>
        <time>2015-06-05T11:24:26Z</time>
      </trkpt>
      <trkpt lat="49.08386" lon="-1.41726">
        <ele>167.09709</ele>
        <time>2015-06-05T11:24:31Z</time>
      </trkpt>
      <trkpt lat="49.08384" lon="-1.41733">
        <ele>167.09709</ele>
        <time>2015-06-05T11:24:36Z</time>
      </trkpt>
      <trkpt lat="49.08381" lon="-1.4174">
        <ele>167.64017</ele>
        <time>2015-06-05T11:24:41Z</time>
      </trkpt>
      <trkpt lat="49.08378" lon="-1.41746">
        <ele>167.64017</ele>
        <time>2015-06-05T11:24:46Z</time>
      </trkpt>
      <trkpt lat="49.08376" lon="-1.41753">
        <ele>168.11955</ele>
        <time>2015-06-05T11:24:51Z</time>
      </trkpt>
      <trkpt lat="49.08374" lon="-1.41758">
        <ele>168.11955</ele>
        <time>2015-06-05T11:24:56Z</time>
      </trkpt>
      <trkpt lat="49.08372" lon="-1.41763">
        <ele>168.11955</ele>
        <time>2015-06-05T11:25:01Z</time>
      </trkpt>
      <trkpt lat="49.08369" lon="-1.4177">
        <ele>168.48175</ele>
        <time>2015-06-05T11:25:06Z</time>
      </trkpt>
      <trkpt lat="49.08367" lon="-1.41776">
        <ele>168.48175</ele>
        <time>2015-06-05T11:25:11Z</time>
      </trkpt>
      <trkpt lat="49.08365" lon="-1.41784">
        <ele>168.80733</ele>
        <time>2015-06-05T11:25:16Z</time>
      </trkpt>
      <trkpt lat="49.08363" lon="-1.41793">
        <ele>168.80733</ele>
        <time>2015-06-05T11:25:21Z</time>
      </trkpt>
      <trkpt lat="49.0836" lon="-1.418">
        <ele>169.09898</ele>
        <time>2015-06-05T11:25:26Z</time>
      </trkpt>
      <trkpt lat="49.08359" lon="-1.41805">
        <ele>169.09898</ele>
        <time>2015-06-05T11:25:31Z</time>
      </trkpt>
      <trkpt lat="49.08357" lon="-1.41814">
        <ele>169.3738</ele>
        <time>2015-06-05T11:25:36Z</time>
      </trkpt>
      <trkpt lat="49.08353" lon="-1.41822">
        <ele>169.3738</ele>
        <time>2015-06-05T11:25:41Z</time>
      </trkpt>
      <trkpt lat="49.0835" lon="-1.41831">
        <ele>169.6909</ele>
        <time>2015-06-05T11:25:46Z</time>
      </trkpt>
      <trkpt lat="49.08347" lon="-1.41838">
        <ele>169.6909</ele>
        <time>2015-06-05T11:25:51Z</time>
      </trkpt>
      <trkpt lat="49.08345" lon="-1.41843">
        <ele>170.01857</ele>
        <time>2015-06-05T11:25:56Z</time>
      </trkpt>
      <trkpt lat="49.08342" lon="-1.41851">
        <ele>170.01857</ele>
        <time>2015-06-05T11:26:01Z</time>
      </trkpt>
      <trkpt lat="49.0834" lon="-1.41857">
        <ele>170.32735</ele>
        <time>2015-06-05T11:26:06Z</time>
      </trkpt>
      <trkpt lat="49.08336" lon="-1.41867">
        <ele>170.32735</ele>
        <time>2015-06-05T11:26:11Z</time>
      </trkpt>
      <trkpt lat="49.08334" lon="-1.41876">
        <ele>170.57567</ele>
        <time>2015-06-05T11:26:16Z</time>
      </trkpt>
      <trkpt lat="49.08333" lon="-1.41884">
        <ele>170.57567</ele>
        <time>2015-06-05T11:26:21Z</time>
      </trkpt>
      <trkpt lat="49.08332" lon="-1.41891">
        <ele>170.85492</ele>
        <time>2015-06-05T11:26:26Z</time>
      </trkpt>
      <trkpt lat="49.08328" lon="-1.41897">
        <ele>170.85492</ele>
        <time>2015-06-05T11:26:31Z</time>
      </trkpt>
      <trkpt lat="49.08326" lon="-1.41902">
        <ele>171.1488</ele>
        <time>2015-06-05T11:26:36Z</time>
      </trkpt>
      <trkpt lat="49.08323" lon="-1.4191">
        <ele>171.1488</ele>
        <time>2015-06-05T11:26:41Z</time>
      </trkpt>
      <trkpt lat="49.08321" lon="-1.41917">
        <ele>171.41339</ele>
        <time>2015-06-05T11:26:46Z</time>
      </trkpt>
      <trkpt lat="49.08319" lon="-1.41925">
        <ele>171.41339</ele>
        <time>2015-06-05T11:26:51Z</time>
      </trkpt>
      <trkpt lat="49.08318" lon="-1.41932">
        <ele>171.65132</ele>
        <time>2015-06-05T11:26:56Z</time>
      </trkpt>
      <trkpt lat="49.08316" lon="-1.41939">
        <ele>171.65132</ele>
        <time>2015-06-05T11:27:01Z</time>
      </trkpt>
      <trkpt lat="49.08315" lon="-1.41949">
        <ele>171.87953</ele>
        <time>2015-06-05T11:27:06Z</time>
      </trkpt>
      <trkpt lat="49.08314" lon="-1.41958">
        <ele>171.87953</ele>
        <time>2015-06-05T11:27:11Z</time>
      </trkpt>
      <trkpt lat="49.08312" lon="-1.41967">
        <ele>172.0417</ele>
        <time>2015-06-05T11:27:16Z</time>
      </trkpt>
      <trkpt lat="49.08312" lon="-1.41976">
        <ele>172.0417</ele>
        <time>2015-06-05T11:27:21Z</time>
      </trkpt>
      <trkpt lat="49.08311" lon="-1.41986">
        <ele>172.18674</ele>
        <time>2015-06-05T11:27:26Z</time>
      </trkpt>
      <trkpt lat="49.08309" lon="-1.41994">
        <ele>172.18674</ele>
        <time>2015-06-05T11:27:31Z</time>
      </trkpt>
      <trkpt lat="49.08308" lon="-1.42004">
        <ele>172.30234</ele>
        <time>2015-06-05T11:27:36Z</time>
      </trkpt>
      <trkpt lat="49.08307" lon="-1.42014">
        <ele>172.30234</ele>
        <time>2015-06-05T11:27:41Z</time>
      </trkpt>
      <trkpt lat="49.08307" lon="-1.42021">
        <ele>172.40602</ele>
        <time>2015-06-05T11:27:46Z</time>
      </trkpt>
      <trkpt lat="49.08306" lon="-1.42029">
        <ele>172.40602</ele>
        <time>2015-06-05T11:27:51Z</time>
      </trkpt>
      <trkpt lat="49.08306" lon="-1.42039">
        <ele>172.49965</ele>
        <time>2015-06-05T11:27:56Z</time>
      </trkpt>
      <trkpt lat="49.08305" lon="-1.42049">
        <ele>172.49965</ele>
        <time>2015-06-05T11:28:01Z</time>
      </trkpt>
      <trkpt lat="49.08304" lon="-1.42059">
        <ele>172.58496</ele>
        <time>2015-06-05T11:28:06Z</time>
      </trkpt>
      <trkpt lat="49.08304" lon="-1.42067">
        <ele>172.58496</ele>
        <time>2015-06-05T11:28:11Z</time>
      </trkpt>
      <trkpt lat="49.08303" lon="-1.42075">
        <ele>172.76448</ele>
        <time>2015-06-05T11:28:16Z</time>
      </trkpt>
      <trkpt lat="49.08302" lon="-1.42083">
        <ele>172.76448</ele>
        <time>2015-06-05T11:28:21Z</time>
      </trkpt>
      <trkpt lat="49.08301" lon="-1.42088">
        <ele>172.76448</ele>
        <time>2015-06-05T11:28:26Z</time>
      </trkpt>
      <trkpt lat="49.083" lon="-1.42095">
        <ele>172.9744</ele>
        <time>2015-06-05T11:28:31Z</time>
      </trkpt>
      <trkpt lat="49.08298" lon="-1.42103">
        <ele>172.9744</ele>
        <time>2015-06-05T11:28:36Z</time>
      </trkpt>
      <trkpt lat="49.08297" lon="-1.42112">
        <ele>173.12666</ele>
        <time>2015-06-05T11:28:41Z</time>
      </trkpt>
      <trkpt lat="49.08295" lon="-1.42123">
        <ele>173.12666</ele>
        <time>2015-06-05T11:28:46Z</time>
      </trkpt>
      <trkpt lat="49.08296" lon="-1.42136">
        <ele>173.25514</ele>
        <time>2015-06-05T11:28:51Z</time>
      </trkpt>
      <trkpt lat="49.08294" lon="-1.42143">
        <ele>173.25514</ele>
        <time>2015-06-05T11:28:56Z</time>
      </trkpt>
      <trkpt lat="49.08294" lon="-1.42151">
        <ele>173.37686</ele>
        <time>2015-06-05T11:29:01Z</time>
      </trkpt>
      <trkpt lat="49.08294" lon="-1.42161">
        <ele>173.37686</ele>
        <time>2015-06-05T11:29:06Z</time>
      </trkpt>
      <trkpt lat="49.08293" lon="-1.42168">
        <ele>173.40672</ele>
        <time>2015-06-05T11:29:11Z</time>
      </trkpt>
      <trkpt lat="49.08294" lon="-1.42175">
        <ele>173.40672</ele>
        <time>2015-06-05T11:29:16Z</time>
      </trkpt>
      <trkpt lat="49.08296" lon="-1.42175">
        <ele>173.40672</ele>
        <time>2015-06-05T11:29:21Z</time>
      </trkpt>
      <trkpt lat="49.08298" lon="-1.42176">
        <ele>173.32376</ele>
        <time>2015-06-05T11:29:26Z</time>
      </trkpt>
      <trkpt lat="49.083" lon="-1.42175">
        <ele>173.32376</ele>
        <time>2015-06-05T11:29:31Z</time>
      </trkpt>
      <trkpt lat="49.08301" lon="-1.42182">
        <ele>173.32376</ele>
        <time>2015-06-05T11:29:36Z</time>
      </trkpt>
      <trkpt lat="49.08299" lon="-1.42191">
        <ele>173.20972</ele>
        <time>2015-06-05T11:29:41Z</time>
      </trkpt>
      <trkpt lat="49.08294" lon="-1.42195">
        <ele>173.20972</ele>
        <time>2015-06-05T11:29:46Z</time>
      </trkpt>
      <trkpt lat="49.0829" lon="-1.42198">
        <ele>173.03954</ele>
        <time>2015-06-05T11:29:51Z</time>
      </trkpt>
      <trkpt lat="49.08289" lon="-1.422">
        <ele>173.03954</ele>
        <time>2015-06-05T11:29:56Z</time>
      </trkpt>
      <trkpt lat="49.0829" lon="-1.42211">
        <ele>172.87659</ele>
        <time>2015-06-05T11:30:01Z</time>
      </trkpt>
      <trkpt lat="49.08291" lon="-1.42225">
        <ele>172.87659</ele>
        <time>2015-06-05T11:30:06Z</time>
      </trkpt>
      <trkpt lat="49.08291" lon="-1.42235">
        <ele>172.73631</ele>
        <time>2015-06-05T11:30:11Z</time>
      </trkpt>
      <trkpt lat="49.08291" lon="-1.42244">
        <ele>172.73631</ele>
        <time>2015-06-05T11:30:16Z</time>
      </trkpt>
      <trkpt lat="49.0829" lon="-1.42253">
        <ele>172.60411</ele>
        <time>2015-06-05T11:30:21Z</time>
      </trkpt>
      <trkpt lat="49.08289" lon="-1.42262">
        <ele>172.60411</ele>
        <time>2015-06-05T11:30:26Z</time>
      </trkpt>
      <trkpt lat="49.08288" lon="-1.42271">
        <ele>172.48079</ele>
        <time>2015-06-05T11:30:31Z</time>
      </trkpt>
      <trkpt lat="49.08288" lon="-1.4228">
        <ele>172.48079</ele>
        <time>2015-06-05T11:30:36Z</time>
      </trkpt>
      <trkpt lat="49.08288" lon="-1.4229">
        <ele>172.36705</ele>
        <time>2015-06-05T11:30:41Z</time>
      </trkpt>
      <trkpt lat="49.0829" lon="-1.42298">
        <ele>172.36705</ele>
        <time>2015-06-05T11:30:46Z</time>
      </trkpt>
      <trkpt lat="49.08291" lon="-1.42307">
        <ele>172.33554</ele>
        <time>2015-06-05T11:30:51Z</time>
      </trkpt>
      <trkpt lat="49.08292" lon="-1.42316">
        <ele>172.33554</ele>
        <time>2015-06-05T11:30:56Z</time>
      </trkpt>
      <trkpt lat="49.08291" lon="-1.42327">
        <ele>172.26596</ele>
        <time>2015-06-05T11:31:01Z</time>
      </trkpt>
      <trkpt lat="49.08291" lon="-1.42337">
        <ele>172.26596</ele>
        <time>2015-06-05T11:31:06Z</time>
      </trkpt>
      <trkpt lat="49.0829" lon="-1.42346">
        <ele>172.21985</ele>
        <time>2015-06-05T11:31:11Z</time>
      </trkpt>
      <trkpt lat="49.08289" lon="-1.42357">
        <ele>172.21985</ele>
        <time>2015-06-05T11:31:16Z</time>
      </trkpt>
      <trkpt lat="49.08289" lon="-1.42364">
        <ele>172.19649</ele>
        <time>2015-06-05T11:31:21Z</time>
      </trkpt>
      <trkpt lat="49.08288" lon="-1.42374">
        <ele>172.19649</ele>
        <time>2015-06-05T11:31:26Z</time>
      </trkpt>
      <trkpt lat="49.08289" lon="-1.42382">
        <ele>172.23831</ele>
        <time>2015-06-05T11:31:31Z</time>
      </trkpt>
      <trkpt lat="49.08287" lon="-1.42393">
        <ele>172.23831</ele>
        <time>2015-06-05T11:31:36Z</time>
      </trkpt>
      <trkpt lat="49.08287" lon="-1.42401">
        <ele>172.29797</ele>
        <time>2015-06-05T11:31:41Z</time>
      </trkpt>
      <trkpt lat="49.08287" lon="-1.4241">
        <ele>172.29797</ele>
        <time>2015-06-05T11:31:46Z</time>
      </trkpt>
      <trkpt lat="49.08285" lon="-1.4242">
        <ele>172.33153</ele>
        <time>2015-06-05T11:31:51Z</time>
      </trkpt>
      <trkpt lat="49.08284" lon="-1.42428">
        <ele>172.33153</ele>
        <time>2015-06-05T11:31:56Z</time>
      </trkpt>
      <trkpt lat="49.08281" lon="-1.42436">
        <ele>172.35593</ele>
        <time>2015-06-05T11:32:01Z</time>
      </trkpt>
      <trkpt lat="49.08281" lon="-1.42445">
        <ele>172.35593</ele>
        <time>2015-06-05T11:32:06Z</time>
      </trkpt>
      <trkpt lat="49.0828" lon="-1.42453">
        <ele>172.37247</ele>
        <time>2015-06-05T11:32:11Z</time>
      </trkpt>
      <trkpt lat="49.08279" lon="-1.42463">
        <ele>172.37247</ele>
        <time>2015-06-05T11:32:16Z</time>
      </trkpt>
      <trkpt lat="49.08278" lon="-1.42472">
        <ele>172.35349</ele>
        <time>2015-06-05T11:32:21Z</time>
      </trkpt>
      <trkpt lat="49.08278" lon="-1.42481">
        <ele>172.35349</ele>
        <time>2015-06-05T11:32:26Z</time>
      </trkpt>
      <trkpt lat="49.08277" lon="-1.42489">
        <ele>172.34552</ele>
        <time>2015-06-05T11:32:31Z</time>
      </trkpt>
      <trkpt lat="49.08277" lon="-1.42499">
        <ele>172.34552</ele>
        <time>2015-06-05T11:32:36Z</time>
      </trkpt>
      <trkpt lat="49.08278" lon="-1.42508">
        <ele>172.33394</ele>
        <time>2015-06-05T11:32:41Z</time>
      </trkpt>
      <trkpt lat="49.08278" lon="-1.42518">
        <ele>172.33394</ele>
        <time>2015-06-05T11:32:46Z</time>
      </trkpt>
      <trkpt lat="49.08275" lon="-1.42525">
        <ele>172.37724</ele>
        <time>2015-06-05T11:32:51Z</time>
      </trkpt>
      <trkpt lat="49.08273" lon="-1.42534">
        <ele>172.37724</ele>
        <time>2015-06-05T11:32:56Z</time>
      </trkpt>
      <trkpt lat="49.08271" lon="-1.42543">
        <ele>172.3277</ele>
        <time>2015-06-05T11:33:01Z</time>
      </trkpt>
      <trkpt lat="49.08269" lon="-1.42553">
        <ele>172.3277</ele>
        <time>2015-06-05T11:33:06Z</time>
      </trkpt>
      <trkpt lat="49.08268" lon="-1.42562">
        <ele>172.16391</ele>
        <time>2015-06-05T11:33:11Z</time>
      </trkpt>
      <trkpt lat="49.08267" lon="-1.42573">
        <ele>172.16391</ele>
        <time>2015-06-05T11:33:16Z</time>
      </trkpt>
      <trkpt lat="49.08267" lon="-1.42584">
        <ele>171.93846</ele>
        <time>2015-06-05T11:33:21Z</time>
      </trkpt>
      <trkpt lat="49.08266" lon="-1.42593">
        <ele>171.93846</ele>
        <time>2015-06-05T11:33:26Z</time>
      </trkpt>
      <trkpt lat="49.08265" lon="-1.42603">
        <ele>171.6569</ele>
        <time>2015-06-05T11:33:31Z</time>
      </trkpt>
      <trkpt lat="49.08263" lon="-1.42614">
        <ele>171.6569</ele>
        <time>2015-06-05T11:33:36Z</time>
      </trkpt>
      <trkpt lat="49.08262" lon="-1.42623">
        <ele>171.32458</ele>
        <time>2015-06-05T11:33:41Z</time>
      </trkpt>
      <trkpt lat="49.08261" lon="-1.4263">
        <ele>171.32458</ele>
        <time>2015-06-05T11:33:46Z</time>
      </trkpt>
      <trkpt lat="49.08259" lon="-1.42638">
        <ele>170.97533</ele>
        <time>2015-06-05T11:33:51Z</time>
      </trkpt>
      <trkpt lat="49.08261" lon="-1.42647">
        <ele>170.97533</ele>
        <time>2015-06-05T11:33:56Z</time>
      </trkpt>
      <trkpt lat="49.08261" lon="-1.42654">
        <ele>170.61171</ele>
        <time>2015-06-05T11:34:01Z</time>
      </trkpt>
      <trkpt lat="49.08262" lon="-1.42651">
        <ele>170.61171</ele>
        <time>2015-06-05T11:34:06Z</time>
      </trkpt>
      <trkpt lat="49.08263" lon="-1.42649">
        <ele>170.61171</ele>
        <time>2015-06-05T11:34:11Z</time>
      </trkpt>
      <trkpt lat="49.08262" lon="-1.42651">
        <ele>170.61171</ele>
        <time>2015-06-05T11:34:16Z</time>
      </trkpt>
      <trkpt lat="49.08261" lon="-1.42651">
        <ele>170.61171</ele>
        <time>2015-06-05T11:34:21Z</time>
      </trkpt>
      <trkpt lat="49.08261" lon="-1.4265">
        <ele>170.61171</ele>
        <time>2015-06-05T11:34:26Z</time>
      </trkpt>
      <trkpt lat="49.08261" lon="-1.42648">
        <ele>170.61171</ele>
        <time>2015-06-05T11:34:31Z</time>
      </trkpt>
      <trkpt lat="49.08263" lon="-1.42652">
        <ele>170.10637</ele>
        <time>2015-06-05T11:34:36Z</time>
      </trkpt>
      <trkpt lat="49.08264" lon="-1.42661">
        <ele>170.10637</ele>
        <time>2015-06-05T11:34:41Z</time>
      </trkpt>
      <trkpt lat="49.08266" lon="-1.42667">
        <ele>169.54349</ele>
        <time>2015-06-05T11:34:46Z</time>
      </trkpt>
      <trkpt lat="49.08267" lon="-1.42669">
        <ele>169.54349</ele>
        <time>2015-06-05T11:34:51Z</time>
      </trkpt>
      <trkpt lat="49.08268" lon="-1.42673">
        <ele>169.54349</ele>
        <time>2015-06-05T11:34:56Z</time>
      </trkpt>
      <trkpt lat="49.0827" lon="-1.42682">
        <ele>168.94348</ele>
        <time>2015-06-05T11:35:01Z</time>
      </trkpt>
      <trkpt lat="49.08271" lon="-1.42692">
        <ele>168.94348</ele>
        <time>2015-06-05T11:35:06Z</time>
      </trkpt>
      <trkpt lat="49.08271" lon="-1.42699">
        <ele>168.36859</ele>
        <time>2015-06-05T11:35:11Z</time>
      </trkpt>
      <trkpt lat="49.08273" lon="-1.42704">
        <ele>168.36859</ele>
        <time>2015-06-05T11:35:16Z</time>
      </trkpt>
      <trkpt lat="49.08275" lon="-1.42711">
        <ele>168.36859</ele>
        <time>2015-06-05T11:35:21Z</time>
      </trkpt>
      <trkpt lat="49.08276" lon="-1.4272">
        <ele>167.86194</ele>
        <time>2015-06-05T11:35:26Z</time>
      </trkpt>
      <trkpt lat="49.08278" lon="-1.42728">
        <ele>167.86194</ele>
        <time>2015-06-05T11:35:31Z</time>
      </trkpt>
      <trkpt lat="49.08281" lon="-1.4274">
        <ele>167.33359</ele>
        <time>2015-06-05T11:35:36Z</time>
      </trkpt>
      <trkpt lat="49.08284" lon="-1.42749">
        <ele>167.33359</ele>
        <time>2015-06-05T11:35:41Z</time>
      </trkpt>
      <trkpt lat="49.08285" lon="-1.4276">
        <ele>166.77222</ele>
        <time>2015-06-05T11:35:46Z</time>
      </trkpt>
      <trkpt lat="49.08287" lon="-1.42769">
        <ele>166.77222</ele>
        <time>2015-06-05T11:35:51Z</time>
      </trkpt>
      <trkpt lat="49.08287" lon="-1.42775">
        <ele>166.18184</ele>
        <time>2015-06-05T11:35:56Z</time>
      </trkpt>
      <trkpt lat="49.08287" lon="-1.42787">
        <ele>166.18184</ele>
        <time>2015-06-05T11:36:01Z</time>
      </trkpt>
      <trkpt lat="49.0829" lon="-1.42795">
        <ele>165.5662</ele>
        <time>2015-06-05T11:36:06Z</time>
      </trkpt>
      <trkpt lat="49.08292" lon="-1.42802">
        <ele>165.5662</ele>
        <time>2015-06-05T11:36:11Z</time>
      </trkpt>
      <trkpt lat="49.08292" lon="-1.42811">
        <ele>164.98637</ele>
        <time>2015-06-05T11:36:16Z</time>
      </trkpt>
      <trkpt lat="49.08293" lon="-1.42818">
        <ele>164.98637</ele>
        <time>2015-06-05T11:36:21Z</time>
      </trkpt>
      <trkpt lat="49.08293" lon="-1.42826">
        <ele>164.47008</ele>
        <time>2015-06-05T11:36:26Z</time>
      </trkpt>
      <trkpt lat="49.08294" lon="-1.42837">
        <ele>164.47008</ele>
        <time>2015-06-05T11:36:31Z</time>
      </trkpt>
      <trkpt lat="49.08296" lon="-1.42844">
        <ele>163.9274</ele>
        <time>2015-06-05T11:36:36Z</time>
      </trkpt>
      <trkpt lat="49.08296" lon="-1.4285">
        <ele>163.9274</ele>
        <time>2015-06-05T11:36:41Z</time>
      </trkpt>
      <trkpt lat="49.08296" lon="-1.42858">
        <ele>163.27509</ele>
        <time>2015-06-05T11:36:46Z</time>
      </trkpt>
      <trkpt lat="49.08297" lon="-1.42864">
        <ele>163.27509</ele>
        <time>2015-06-05T11:36:51Z</time>
      </trkpt>
      <trkpt lat="49.08297" lon="-1.42873">
        <ele>162.59474</ele>
        <time>2015-06-05T11:36:56Z</time>
      </trkpt>
      <trkpt lat="49.08297" lon="-1.42881">
        <ele>162.59474</ele>
        <time>2015-06-05T11:37:01Z</time>
      </trkpt>
      <trkpt lat="49.08298" lon="-1.42894">
        <ele>161.89</ele>
        <time>2015-06-05T11:37:06Z</time>
      </trkpt>
      <trkpt lat="49.08299" lon="-1.42902">
        <ele>161.89</ele>
        <time>2015-06-05T11:37:11Z</time>
      </trkpt>
      <trkpt lat="49.083" lon="-1.4291">
        <ele>161.1498</ele>
        <time>2015-06-05T11:37:16Z</time>
      </trkpt>
      <trkpt lat="49.08301" lon="-1.42917">
        <ele>161.1498</ele>
        <time>2015-06-05T11:37:21Z</time>
      </trkpt>
      <trkpt lat="49.08303" lon="-1.42926">
        <ele>160.30629</ele>
        <time>2015-06-05T11:37:26Z</time>
      </trkpt>
      <trkpt lat="49.08305" lon="-1.42936">
        <ele>160.30629</ele>
        <time>2015-06-05T11:37:31Z</time>
      </trkpt>
      <trkpt lat="49.08304" lon="-1.42944">
        <ele>159.44096</ele>
        <time>2015-06-05T11:37:36Z</time>
      </trkpt>
      <trkpt lat="49.08303" lon="-1.42945">
        <ele>159.44096</ele>
        <time>2015-06-05T11:37:41Z</time>
      </trkpt>
      <trkpt lat="49.08303" lon="-1.42949">
        <ele>159.44096</ele>
        <time>2015-06-05T11:37:46Z</time>
      </trkpt>
      <trkpt lat="49.08304" lon="-1.42958">
        <ele>158.55727</ele>
        <time>2015-06-05T11:37:51Z</time>
      </trkpt>
      <trkpt lat="49.08307" lon="-1.42965">
        <ele>158.55727</ele>
        <time>2015-06-05T11:37:56Z</time>
      </trkpt>
      <trkpt lat="49.08309" lon="-1.42972">
        <ele>157.70164</ele>
        <time>2015-06-05T11:38:01Z</time>
      </trkpt>
      <trkpt lat="49.08309" lon="-1.4298">
        <ele>157.70164</ele>
        <time>2015-06-05T11:38:06Z</time>
      </trkpt>
      <trkpt lat="49.0831" lon="-1.42986">
        <ele>156.93137</ele>
        <time>2015-06-05T11:38:11Z</time>
      </trkpt>
      <trkpt lat="49.08311" lon="-1.42991">
        <ele>156.93137</ele>
        <time>2015-06-05T11:38:16Z</time>
      </trkpt>
      <trkpt lat="49.08313" lon="-1.42999">
        <ele>156.25598</ele>
        <time>2015-06-05T11:38:21Z</time>
      </trkpt>
      <trkpt lat="49.08314" lon="-1.43011">
        <ele>156.25598</ele>
        <time>2015-06-05T11:38:26Z</time>
      </trkpt>
      <trkpt lat="49.08316" lon="-1.43016">
        <ele>155.68404</ele>
        <time>2015-06-05T11:38:31Z</time>
      </trkpt>
      <trkpt lat="49.08317" lon="-1.43022">
        <ele>155.68404</ele>
        <time>2015-06-05T11:38:36Z</time>
      </trkpt>
      <trkpt lat="49.08319" lon="-1.43029">
        <ele>155.68404</ele>
        <time>2015-06-05T11:38:41Z</time>
      </trkpt>
      <trkpt lat="49.08322" lon="-1.43037">
        <ele>155.12218</ele>
        <time>2015-06-05T11:38:46Z</time>
      </trkpt>
      <trkpt lat="49.08324" lon="-1.43044">
        <ele>155.12218</ele>
        <time>2015-06-05T11:38:51Z</time>
      </trkpt>
      <trkpt lat="49.08327" lon="-1.43058">
        <ele>154.45505</ele>
        <time>2015-06-05T11:38:56Z</time>
      </trkpt>
      <trkpt lat="49.08329" lon="-1.43061">
        <ele>154.45505</ele>
        <time>2015-06-05T11:39:01Z</time>
      </trkpt>
      <trkpt lat="49.08332" lon="-1.43069">
        <ele>154.45505</ele>
        <time>2015-06-05T11:39:06Z</time>
      </trkpt>
      <trkpt lat="49.08333" lon="-1.43075">
        <ele>153.7345</ele>
        <time>2015-06-05T11:39:11Z</time>
      </trkpt>
      <trkpt lat="49.08335" lon="-1.43082">
        <ele>153.7345</ele>
        <time>2015-06-05T11:39:16Z</time>
      </trkpt>
      <trkpt lat="49.08336" lon="-1.43089">
        <ele>153.0231</ele>
        <time>2015-06-05T11:39:21Z</time>
      </trkpt>
      <trkpt lat="49.08338" lon="-1.431">
        <ele>153.0231</ele>
        <time>2015-06-05T11:39:26Z</time>
      </trkpt>
      <trkpt lat="49.08341" lon="-1.43111">
        <ele>152.24904</ele>
        <time>2015-06-05T11:39:31Z</time>
      </trkpt>
      <trkpt lat="49.08345" lon="-1.43117">
        <ele>152.24904</ele>
        <time>2015-06-05T11:39:36Z</time>
      </trkpt>
      <trkpt lat="49.08348" lon="-1.43121">
        <ele>151.4756</ele>
        <time>2015-06-05T11:39:41Z</time>
      </trkpt>
      <trkpt lat="49.0835" lon="-1.43135">
        <ele>151.4756</ele>
        <time>2015-06-05T11:39:46Z</time>
      </trkpt>
      <trkpt lat="49.08349" lon="-1.43142">
        <ele>150.68932</ele>
        <time>2015-06-05T11:39:51Z</time>
      </trkpt>
      <trkpt lat="49.08351" lon="-1.43147">
        <ele>150.68932</ele>
        <time>2015-06-05T11:39:56Z</time>
      </trkpt>
      <trkpt lat="49.08352" lon="-1.43154">
        <ele>150.68932</ele>
        <time>2015-06-05T11:40:01Z</time>
      </trkpt>
      <trkpt lat="49.08353" lon="-1.43164">
        <ele>149.66154</ele>
        <time>2015-06-05T11:40:06Z</time>
      </trkpt>
      <trkpt lat="49.08358" lon="-1.43176">
        <ele>148.65662</ele>
        <time>2015-06-05T11:40:11Z</time>
      </trkpt>
      <trkpt lat="49.0836" lon="-1.43181">
        <ele>148.65662</ele>
        <time>2015-06-05T11:40:16Z</time>
      </trkpt>
      <trkpt lat="49.0836" lon="-1.43192">
        <ele>147.54465</ele>
        <time>2015-06-05T11:40:21Z</time>
      </trkpt>
      <trkpt lat="49.0836" lon="-1.43205">
        <ele>147.54465</ele>
        <time>2015-06-05T11:40:26Z</time>
      </trkpt>
      <trkpt lat="49.08362" lon="-1.4321">
        <ele>146.36406</ele>
        <time>2015-06-05T11:40:31Z</time>
      </trkpt>
      <trkpt lat="49.08362" lon="-1.43219">
        <ele>146.36406</ele>
        <time>2015-06-05T11:40:36Z</time>
      </trkpt>
      <trkpt lat="49.08362" lon="-1.43229">
        <ele>145.12178</ele>
        <time>2015-06-05T11:40:41Z</time>
      </trkpt>
      <trkpt lat="49.08364" lon="-1.43241">
        <ele>145.12178</ele>
        <time>2015-06-05T11:40:46Z</time>
      </trkpt>
      <trkpt lat="49.08365" lon="-1.43249">
        <ele>143.92523</ele>
        <time>2015-06-05T11:40:51Z</time>
      </trkpt>
      <trkpt lat="49.08365" lon="-1.43257">
        <ele>143.92523</ele>
        <time>2015-06-05T11:40:56Z</time>
      </trkpt>
      <trkpt lat="49.08365" lon="-1.43263">
        <ele>142.75845</ele>
        <time>2015-06-05T11:41:01Z</time>
      </trkpt>
      <trkpt lat="49.08368" lon="-1.43272">
        <ele>142.75845</ele>
        <time>2015-06-05T11:41:06Z</time>
      </trkpt>
      <trkpt lat="49.08369" lon="-1.4328">
        <ele>141.6642</ele>
        <time>2015-06-05T11:41:11Z</time>
      </trkpt>
      <trkpt lat="49.0837" lon="-1.43285">
        <ele>141.6642</ele>
        <time>2015-06-05T11:41:16Z</time>
      </trkpt>
      <trkpt lat="49.08371" lon="-1.4329">
        <ele>141.6642</ele>
        <time>2015-06-05T11:41:21Z</time>
      </trkpt>
      <trkpt lat="49.08373" lon="-1.43296">
        <ele>140.49443</ele>
        <time>2015-06-05T11:41:26Z</time>
      </trkpt>
      <trkpt lat="49.08373" lon="-1.43303">
        <ele>140.49443</ele>
        <time>2015-06-05T11:41:31Z</time>
      </trkpt>
      <trkpt lat="49.08373" lon="-1.43309">
        <ele>140.49443</ele>
        <time>2015-06-05T11:41:36Z</time>
      </trkpt>
      <trkpt lat="49.08375" lon="-1.43317">
        <ele>139.31392</ele>
        <time>2015-06-05T11:41:41Z</time>
      </trkpt>
      <trkpt lat="49.08376" lon="-1.43324">
        <ele>139.31392</ele>
        <time>2015-06-05T11:41:46Z</time>
      </trkpt>
      <trkpt lat="49.08376" lon="-1.43329">
        <ele>139.31392</ele>
        <time>2015-06-05T11:41:51Z</time>
      </trkpt>
      <trkpt lat="49.08377" lon="-1.43336">
        <ele>138.06737</ele>
        <time>2015-06-05T11:41:56Z</time>
      </trkpt>
      <trkpt lat="49.08379" lon="-1.43341">
        <ele>138.06737</ele>
        <time>2015-06-05T11:42:01Z</time>
      </trkpt>
      <trkpt lat="49.08381" lon="-1.43344">
        <ele>138.06737</ele>
        <time>2015-06-05T11:42:06Z</time>
      </trkpt>
      <trkpt lat="49.08383" lon="-1.43348">
        <ele>136.79013</ele>
        <time>2015-06-05T11:42:11Z</time>
      </trkpt>
      <trkpt lat="49.08384" lon="-1.43355">
        <ele>136.79013</ele>
        <time>2015-06-05T11:42:16Z</time>
      </trkpt>
      <trkpt lat="49.08385" lon="-1.43361">
        <ele>136.79013</ele>
        <time>2015-06-05T11:42:21Z</time>
      </trkpt>
      <trkpt lat="49.08387" lon="-1.43368">
        <ele>135.52939</ele>
        <time>2015-06-05T11:42:26Z</time>
      </trkpt>
      <trkpt lat="49.08388" lon="-1.43377">
        <ele>135.52939</ele>
        <time>2015-06-05T11:42:31Z</time>
      </trkpt>
      <trkpt lat="49.08391" lon="-1.43383">
        <ele>134.31436</ele>
        <time>2015-06-05T11:42:36Z</time>
      </trkpt>
      <trkpt lat="49.08391" lon="-1.43393">
        <ele>134.31436</ele>
        <time>2015-06-05T11:42:41Z</time>
      </trkpt>
      <trkpt lat="49.08392" lon="-1.43404">
        <ele>133.09985</ele>
        <time>2015-06-05T11:42:46Z</time>
      </trkpt>
      <trkpt lat="49.08392" lon="-1.43411">
        <ele>133.09985</ele>
        <time>2015-06-05T11:42:51Z</time>
      </trkpt>
      <trkpt lat="49.08395" lon="-1.43419">
        <ele>131.85837</ele>
        <time>2015-06-05T11:42:56Z</time>
      </trkpt>
      <trkpt lat="49.08396" lon="-1.43427">
        <ele>131.85837</ele>
        <time>2015-06-05T11:43:01Z</time>
      </trkpt>
      <trkpt lat="49.08401" lon="-1.43431">
        <ele>130.56444</ele>
        <time>2015-06-05T11:43:06Z</time>
      </trkpt>
      <trkpt lat="49.08407" lon="-1.43437">
        <ele>130.56444</ele>
        <time>2015-06-05T11:43:11Z</time>
      </trkpt>
      <trkpt lat="49.08411" lon="-1.43449">
        <ele>129.20895</ele>
        <time>2015-06-05T11:43:16Z</time>
      </trkpt>
      <trkpt lat="49.08415" lon="-1.43459">
        <ele>129.20895</ele>
        <time>2015-06-05T11:43:21Z</time>
      </trkpt>
      <trkpt lat="49.08418" lon="-1.43466">
        <ele>127.89889</ele>
        <time>2015-06-05T11:43:26Z</time>
      </trkpt>
      <trkpt lat="49.08418" lon="-1.43473">
        <ele>127.89889</ele>
        <time>2015-06-05T11:43:31Z</time>
      </trkpt>
      <trkpt lat="49.08416" lon="-1.43474">
        <ele>127.89889</ele>
        <time>2015-06-05T11:43:36Z</time>
      </trkpt>
      <trkpt lat="49.08416" lon="-1.43474">
        <ele>127.89889</ele>
        <time>2015-06-05T11:43:41Z</time>
      </trkpt>
      <trkpt lat="49.08414" lon="-1.43472">
        <ele>126.44495</ele>
        <time>2015-06-05T11:43:46Z</time>
      </trkpt>
      <trkpt lat="49.08412" lon="-1.43472">
        <ele>126.44495</ele>
        <time>2015-06-05T11:43:51Z</time>
      </trkpt>
      <trkpt lat="49.0841" lon="-1.43472">
        <ele>126.44495</ele>
        <time>2015-06-05T11:43:56Z</time>
      </trkpt>
      <trkpt lat="49.0841" lon="-1.43472">
        <ele>126.44495</ele>
        <time>2015-06-05T11:44:01Z</time>
      </trkpt>
      <trkpt lat="49.08408" lon="-1.43472">
        <ele>126.44495</ele>
        <time>2015-06-05T11:44:06Z</time>
      </trkpt>
      <trkpt lat="49.08409" lon="-1.43471">
        <ele>126.44495</ele>
        <time>2015-06-05T11:44:11Z</time>
      </trkpt>
      <trkpt lat="49.08412" lon="-1.43471">
        <ele>125.162056</ele>
        <time>2015-06-05T11:44:16Z</time>
      </trkpt>
      <trkpt lat="49.08412" lon="-1.43475">
        <ele>125.162056</ele>
        <time>2015-06-05T11:44:21Z</time>
      </trkpt>
      <trkpt lat="49.08414" lon="-1.43475">
        <ele>125.162056</ele>
        <time>2015-06-05T11:44:26Z</time>
      </trkpt>
      <trkpt lat="49.08419" lon="-1.43476">
        <ele>123.95238</ele>
        <time>2015-06-05T11:44:31Z</time>
      </trkpt>
      <trkpt lat="49.08424" lon="-1.43475">
        <ele>123.95238</ele>
        <time>2015-06-05T11:44:36Z</time>
      </trkpt>
      <trkpt lat="49.08429" lon="-1.43477">
        <ele>122.79706</ele>
        <time>2015-06-05T11:44:41Z</time>
      </trkpt>
      <trkpt lat="49.08433" lon="-1.43482">
        <ele>122.79706</ele>
        <time>2015-06-05T11:44:46Z</time>
      </trkpt>
      <trkpt lat="49.08436" lon="-1.43489">
        <ele>121.736046</ele>
        <time>2015-06-05T11:44:51Z</time>
      </trkpt>
      <trkpt lat="49.08439" lon="-1.43495">
        <ele>121.736046</ele>
        <time>2015-06-05T11:44:56Z</time>
      </trkpt>
      <trkpt lat="49.08442" lon="-1.43504">
        <ele>120.74841</ele>
        <time>2015-06-05T11:45:01Z</time>
      </trkpt>
      <trkpt lat="49.08441" lon="-1.43508">
        <ele>120.74841</ele>
        <time>2015-06-05T11:45:06Z</time>
      </trkpt>
      <trkpt lat="49.08442" lon="-1.43513">
        <ele>120.74841</ele>
        <time>2015-06-05T11:45:11Z</time>
      </trkpt>
      <trkpt lat="49.0844" lon="-1.43514">
        <ele>120.74841</ele>
        <time>2015-06-05T11:45:16Z</time>
      </trkpt>
      <trkpt lat="49.08439" lon="-1.43514">
        <ele>120.74841</ele>
        <time>2015-06-05T11:45:21Z</time>
      </trkpt>
      <trkpt lat="49.0844" lon="-1.43514">
        <ele>119.54069</ele>
        <time>2015-06-05T11:45:26Z</time>
      </trkpt>
      <trkpt lat="49.0844" lon="-1.43514">
        <ele>119.54069</ele>
        <time>2015-06-05T11:45:31Z</time>
      </trkpt>
      <trkpt lat="49.0844" lon="-1.43514">
        <ele>119.54069</ele>
        <time>2015-06-05T11:45:36Z</time>
      </trkpt>
      <trkpt lat="49.0844" lon="-1.43514">
        <ele>119.54069</ele>
        <time>2015-06-05T11:45:41Z</time>
      </trkpt>
      <trkpt lat="49.0844" lon="-1.43513">
        <ele>119.54069</ele>
        <time>2015-06-05T11:45:46Z</time>
      </trkpt>
      <trkpt lat="49.08439" lon="-1.43513">
        <ele>119.54069</ele>
        <time>2015-06-05T11:45:51Z</time>
      </trkpt>
      <trkpt lat="49.0844" lon="-1.43512">
        <ele>119.54069</ele>
        <time>2015-06-05T11:45:56Z</time>
      </trkpt>
      <trkpt lat="49.08441" lon="-1.43513">
        <ele>119.54069</ele>
        <time>2015-06-05T11:46:01Z</time>
      </trkpt>
      <trkpt lat="49.0844" lon="-1.43514">
        <ele>119.54069</ele>
        <time>2015-06-05T11:46:06Z</time>
      </trkpt>
      <trkpt lat="49.0844" lon="-1.43516">
        <ele>119.54069</ele>
        <time>2015-06-05T11:46:11Z</time>
      </trkpt>
      <trkpt lat="49.08442" lon="-1.43516">
        <ele>119.54069</ele>
        <time>2015-06-05T11:46:16Z</time>
      </trkpt>
      <trkpt lat="49.08443" lon="-1.43515">
        <ele>118.057686</ele>
        <time>2015-06-05T11:46:21Z</time>
      </trkpt>
      <trkpt lat="49.08443" lon="-1.43516">
        <ele>118.057686</ele>
        <time>2015-06-05T11:46:26Z</time>
      </trkpt>
      <trkpt lat="49.08444" lon="-1.43516">
        <ele>118.057686</ele>
        <time>2015-06-05T11:46:31Z</time>
      </trkpt>
      <trkpt lat="49.08443" lon="-1.43517">
        <ele>118.057686</ele>
        <time>2015-06-05T11:46:36Z</time>
      </trkpt>
      <trkpt lat="49.08442" lon="-1.43518">
        <ele>118.057686</ele>
        <time>2015-06-05T11:46:41Z</time>
      </trkpt>
      <trkpt lat="49.08441" lon="-1.43519">
        <ele>118.057686</ele>
        <time>2015-06-05T11:46:46Z</time>
      </trkpt>
      <trkpt lat="49.08442" lon="-1.43522">
        <ele>118.057686</ele>
        <time>2015-06-05T11:46:51Z</time>
      </trkpt>
      <trkpt lat="49.08444" lon="-1.43527">
        <ele>116.724594</ele>
        <time>2015-06-05T11:46:56Z</time>
      </trkpt>
      <trkpt lat="49.08446" lon="-1.43533">
        <ele>116.724594</ele>
        <time>2015-06-05T11:47:01Z</time>
      </trkpt>
      <trkpt lat="49.08448" lon="-1.43539">
        <ele>115.60342</ele>
        <time>2015-06-05T11:47:06Z</time>
      </trkpt>
      <trkpt lat="49.08451" lon="-1.43546">
        <ele>115.60342</ele>
        <time>2015-06-05T11:47:11Z</time>
      </trkpt>
      <trkpt lat="49.08453" lon="-1.43556">
        <ele>114.54921</ele>
        <time>2015-06-05T11:47:16Z</time>
      </trkpt>
      <trkpt lat="49.08455" lon="-1.43564">
        <ele>114.54921</ele>
        <time>2015-06-05T11:47:21Z</time>
      </trkpt>
      <trkpt lat="49.08455" lon="-1.43568">
        <ele>114.54921</ele>
        <time>2015-06-05T11:47:26Z</time>
      </trkpt>
      <trkpt lat="49.08457" lon="-1.43576">
        <ele>113.49952</ele>
        <time>2015-06-05T11:47:31Z</time>
      </trkpt>
      <trkpt lat="49.08459" lon="-1.43583">
        <ele>113.49952</ele>
        <time>2015-06-05T11:47:36Z</time>
      </trkpt>
      <trkpt lat="49.08462" lon="-1.43592">
        <ele>112.51169</ele>
        <time>2015-06-05T11:47:41Z</time>
      </trkpt>
      <trkpt lat="49.08464" lon="-1.436">
        <ele>112.51169</ele>
        <time>2015-06-05T11:47:46Z</time>
      </trkpt>
      <trkpt lat="49.08466" lon="-1.43607">
        <ele>111.60985</ele>
        <time>2015-06-05T11:47:51Z</time>
      </trkpt>
      <trkpt lat="49.08471" lon="-1.43615">
        <ele>111.60985</ele>
        <time>2015-06-05T11:47:56Z</time>
      </trkpt>
      <trkpt lat="49.08474" lon="-1.4362">
        <ele>110.83045</ele>
        <time>2015-06-05T11:48:01Z</time>
      </trkpt>
      <trkpt lat="49.08478" lon="-1.43626">
        <ele>110.83045</ele>
        <time>2015-06-05T11:48:06Z</time>
      </trkpt>
      <trkpt lat="49.0848" lon="-1.43632">
        <ele>110.83045</ele>
        <time>2015-06-05T11:48:11Z</time>
      </trkpt>
      <trkpt lat="49.08482" lon="-1.43638">
        <ele>110.163704</ele>
        <time>2015-06-05T11:48:16Z</time>
      </trkpt>
      <trkpt lat="49.08484" lon="-1.43643">
        <ele>110.163704</ele>
        <time>2015-06-05T11:48:21Z</time>
      </trkpt>
      <trkpt lat="49.08485" lon="-1.43648">
        <ele>110.163704</ele>
        <time>2015-06-05T11:48:26Z</time>
      </trkpt>
      <trkpt lat="49.08488" lon="-1.43657">
        <ele>109.61458</ele>
        <time>2015-06-05T11:48:31Z</time>
      </trkpt>
      <trkpt lat="49.0849" lon="-1.43663">
        <ele>109.61458</ele>
        <time>2015-06-05T11:48:36Z</time>
      </trkpt>
      <trkpt lat="49.08495" lon="-1.43669">
        <ele>109.230576</ele>
        <time>2015-06-05T11:48:41Z</time>
      </trkpt>
      <trkpt lat="49.08498" lon="-1.43677">
        <ele>109.230576</ele>
        <time>2015-06-05T11:48:46Z</time>
      </trkpt>
      <trkpt lat="49.08502" lon="-1.43685">
        <ele>108.93994</ele>
        <time>2015-06-05T11:48:51Z</time>
      </trkpt>
      <trkpt lat="49.08505" lon="-1.43689">
        <ele>108.93994</ele>
        <time>2015-06-05T11:48:56Z</time>
      </trkpt>
      <trkpt lat="49.08508" lon="-1.43698">
        <ele>108.7912</ele>
        <time>2015-06-05T11:49:01Z</time>
      </trkpt>
      <trkpt lat="49.08512" lon="-1.43707">
        <ele>108.7912</ele>
        <time>2015-06-05T11:49:06Z</time>
      </trkpt>
      <trkpt lat="49.08514" lon="-1.43717">
        <ele>108.80011</ele>
        <time>2015-06-05T11:49:11Z</time>
      </trkpt>
      <trkpt lat="49.08517" lon="-1.43724">
        <ele>108.80011</ele>
        <time>2015-06-05T11:49:16Z</time>
      </trkpt>
      <trkpt lat="49.08521" lon="-1.43733">
        <ele>108.89437</ele>
        <time>2015-06-05T11:49:21Z</time>
      </trkpt>
      <trkpt lat="49.08525" lon="-1.43742">
        <ele>108.89437</ele>
        <time>2015-06-05T11:49:26Z</time>
      </trkpt>
      <trkpt lat="49.08526" lon="-1.43747">
        <ele>109.06439</ele>
        <time>2015-06-05T11:49:31Z</time>
      </trkpt>
      <trkpt lat="49.0853" lon="-1.43755">
        <ele>109.06439</ele>
        <time>2015-06-05T11:49:36Z</time>
      </trkpt>
      <trkpt lat="49.08533" lon="-1.43763">
        <ele>109.243484</ele>
        <time>2015-06-05T11:49:41Z</time>
      </trkpt>
      <trkpt lat="49.08536" lon="-1.4377">
        <ele>109.243484</ele>
        <time>2015-06-05T11:49:46Z</time>
      </trkpt>
      <trkpt lat="49.08539" lon="-1.43776">
        <ele>109.51397</ele>
        <time>2015-06-05T11:49:51Z</time>
      </trkpt>
      <trkpt lat="49.08541" lon="-1.43785">
        <ele>109.51397</ele>
        <time>2015-06-05T11:49:56Z</time>
      </trkpt>
      <trkpt lat="49.08543" lon="-1.43792">
        <ele>109.8366</ele>
        <time>2015-06-05T11:50:01Z</time>
      </trkpt>
      <trkpt lat="49.08546" lon="-1.43795">
        <ele>109.8366</ele>
        <time>2015-06-05T11:50:06Z</time>
      </trkpt>
      <trkpt lat="49.08548" lon="-1.43801">
        <ele>109.8366</ele>
        <time>2015-06-05T11:50:11Z</time>
      </trkpt>
      <trkpt lat="49.0855" lon="-1.43805">
        <ele>110.11731</ele>
        <time>2015-06-05T11:50:16Z</time>
      </trkpt>
      <trkpt lat="49.08551" lon="-1.43807">
        <ele>110.11731</ele>
        <time>2015-06-05T11:50:21Z</time>
      </trkpt>
      <trkpt lat="49.08552" lon="-1.43806">
        <ele>110.11731</ele>
        <time>2015-06-05T11:50:26Z</time>
      </trkpt>
      <trkpt lat="49.08554" lon="-1.43811">
        <ele>110.11731</ele>
        <time>2015-06-05T11:50:31Z</time>
      </trkpt>
      <trkpt lat="49.08553" lon="-1.43812">
        <ele>110.11731</ele>
        <time>2015-06-05T11:50:36Z</time>
      </trkpt>
      <trkpt lat="49.08552" lon="-1.43814">
        <ele>110.11731</ele>
        <time>2015-06-05T11:50:41Z</time>
      </trkpt>
      <trkpt lat="49.08554" lon="-1.43822">
        <ele>110.36995</ele>
        <time>2015-06-05T11:50:46Z</time>
      </trkpt>
      <trkpt lat="49.08555" lon="-1.4383">
        <ele>110.36995</ele>
        <time>2015-06-05T11:50:51Z</time>
      </trkpt>
      <trkpt lat="49.08556" lon="-1.43837">
        <ele>110.65076</ele>
        <time>2015-06-05T11:50:56Z</time>
      </trkpt>
      <trkpt lat="49.08556" lon="-1.43847">
        <ele>110.65076</ele>
        <time>2015-06-05T11:51:01Z</time>
      </trkpt>
      <trkpt lat="49.08554" lon="-1.43855">
        <ele>110.983</ele>
        <time>2015-06-05T11:51:06Z</time>
      </trkpt>
      <trkpt lat="49.08553" lon="-1.43862">
        <ele>110.983</ele>
        <time>2015-06-05T11:51:11Z</time>
      </trkpt>
      <trkpt lat="49.0855" lon="-1.4387">
        <ele>111.2873</ele>
        <time>2015-06-05T11:51:16Z</time>
      </trkpt>
      <trkpt lat="49.08546" lon="-1.43877">
        <ele>111.2873</ele>
        <time>2015-06-05T11:51:21Z</time>
      </trkpt>
      <trkpt lat="49.08542" lon="-1.43884">
        <ele>111.54789</ele>
        <time>2015-06-05T11:51:26Z</time>
      </trkpt>
      <trkpt lat="49.08537" lon="-1.43889">
        <ele>111.54789</ele>
        <time>2015-06-05T11:51:31Z</time>
      </trkpt>
      <trkpt lat="49.0853" lon="-1.43893">
        <ele>111.80804</ele>
        <time>2015-06-05T11:51:36Z</time>
      </trkpt>
      <trkpt lat="49.08525" lon="-1.43898">
        <ele>111.80804</ele>
        <time>2015-06-05T11:51:41Z</time>
      </trkpt>
      <trkpt lat="49.08521" lon="-1.43901">
        <ele>112.06467</ele>
        <time>2015-06-05T11:51:46Z</time>
      </trkpt>
      <trkpt lat="49.08516" lon="-1.43905">
        <ele>112.06467</ele>
        <time>2015-06-05T11:51:51Z</time>
      </trkpt>
      <trkpt lat="49.08511" lon="-1.43909">
        <ele>112.22856</ele>
        <time>2015-06-05T11:51:56Z</time>
      </trkpt>
      <trkpt lat="49.08505" lon="-1.43913">
        <ele>112.22856</ele>
        <time>2015-06-05T11:52:01Z</time>
      </trkpt>
      <trkpt lat="49.08501" lon="-1.43916">
        <ele>112.31831</ele>
        <time>2015-06-05T11:52:06Z</time>
      </trkpt>
      <trkpt lat="49.08496" lon="-1.43922">
        <ele>112.31831</ele>
        <time>2015-06-05T11:52:11Z</time>
      </trkpt>
      <trkpt lat="49.08492" lon="-1.43925">
        <ele>112.39465</ele>
        <time>2015-06-05T11:52:16Z</time>
      </trkpt>
      <trkpt lat="49.08487" lon="-1.43931">
        <ele>112.39465</ele>
        <time>2015-06-05T11:52:21Z</time>
      </trkpt>
      <trkpt lat="49.08482" lon="-1.43935">
        <ele>112.48517</ele>
        <time>2015-06-05T11:52:26Z</time>
      </trkpt>
      <trkpt lat="49.08479" lon="-1.43937">
        <ele>112.48517</ele>
        <time>2015-06-05T11:52:31Z</time>
      </trkpt>
      <trkpt lat="49.08476" lon="-1.4394">
        <ele>112.48517</ele>
        <time>2015-06-05T11:52:36Z</time>
      </trkpt>
      <trkpt lat="49.08471" lon="-1.43943">
        <ele>112.37049</ele>
        <time>2015-06-05T11:52:41Z</time>
      </trkpt>
      <trkpt lat="49.08466" lon="-1.43947">
        <ele>112.37049</ele>
        <time>2015-06-05T11:52:46Z</time>
      </trkpt>
      <trkpt lat="49.08462" lon="-1.43954">
        <ele>112.17949</ele>
        <time>2015-06-05T11:52:51Z</time>
      </trkpt>
      <trkpt lat="49.08462" lon="-1.43961">
        <ele>112.17949</ele>
        <time>2015-06-05T11:52:56Z</time>
      </trkpt>
      <trkpt lat="49.08461" lon="-1.43971">
        <ele>111.93098</ele>
        <time>2015-06-05T11:53:01Z</time>
      </trkpt>
      <trkpt lat="49.08462" lon="-1.43978">
        <ele>111.93098</ele>
        <time>2015-06-05T11:53:06Z</time>
      </trkpt>
      <trkpt lat="49.08464" lon="-1.43982">
        <ele>111.93098</ele>
        <time>2015-06-05T11:53:11Z</time>
      </trkpt>
      <trkpt lat="49.08465" lon="-1.43989">
        <ele>111.61382</ele>
        <time>2015-06-05T11:53:16Z</time>
      </trkpt>
      <trkpt lat="49.08468" lon="-1.43999">
        <ele>111.61382</ele>
        <time>2015-06-05T11:53:21Z</time>
      </trkpt>
      <trkpt lat="49.08471" lon="-1.44006">
        <ele>111.23241</ele>
        <time>2015-06-05T11:53:26Z</time>
      </trkpt>
      <trkpt lat="49.08471" lon="-1.44014">
        <ele>111.23241</ele>
        <time>2015-06-05T11:53:31Z</time>
      </trkpt>
      <trkpt lat="49.0847" lon="-1.44022">
        <ele>110.96396</ele>
        <time>2015-06-05T11:53:36Z</time>
      </trkpt>
      <trkpt lat="49.08469" lon="-1.44031">
        <ele>110.96396</ele>
        <time>2015-06-05T11:53:41Z</time>
      </trkpt>
      <trkpt lat="49.08467" lon="-1.44038">
        <ele>110.770706</ele>
        <time>2015-06-05T11:53:46Z</time>
      </trkpt>
      <trkpt lat="49.08466" lon="-1.44048">
        <ele>110.770706</ele>
        <time>2015-06-05T11:53:51Z</time>
      </trkpt>
      <trkpt lat="49.08464" lon="-1.44056">
        <ele>110.545456</ele>
        <time>2015-06-05T11:53:56Z</time>
      </trkpt>
      <trkpt lat="49.08462" lon="-1.44065">
        <ele>110.545456</ele>
        <time>2015-06-05T11:54:01Z</time>
      </trkpt>
      <trkpt lat="49.08461" lon="-1.44069">
        <ele>110.545456</ele>
        <time>2015-06-05T11:54:06Z</time>
      </trkpt>
      <trkpt lat="49.08461" lon="-1.44079">
        <ele>110.30432</ele>
        <time>2015-06-05T11:54:11Z</time>
      </trkpt>
      <trkpt lat="49.08462" lon="-1.44086">
        <ele>110.30432</ele>
        <time>2015-06-05T11:54:16Z</time>
      </trkpt>
      <trkpt lat="49.08462" lon="-1.44094">
        <ele>110.13442</ele>
        <time>2015-06-05T11:54:21Z</time>
      </trkpt>
      <trkpt lat="49.08461" lon="-1.44105">
        <ele>110.13442</ele>
        <time>2015-06-05T11:54:26Z</time>
      </trkpt>
      <trkpt lat="49.08459" lon="-1.44111">
        <ele>110.001015</ele>
        <time>2015-06-05T11:54:31Z</time>
      </trkpt>
      <trkpt lat="49.08454" lon="-1.44121">
        <ele>110.001015</ele>
        <time>2015-06-05T11:54:36Z</time>
      </trkpt>
      <trkpt lat="49.08451" lon="-1.44125">
        <ele>109.79984</ele>
        <time>2015-06-05T11:54:41Z</time>
      </trkpt>
      <trkpt lat="49.08448" lon="-1.44132">
        <ele>109.79984</ele>
        <time>2015-06-05T11:54:46Z</time>
      </trkpt>
      <trkpt lat="49.08446" lon="-1.44138">
        <ele>109.63629</ele>
        <time>2015-06-05T11:54:51Z</time>
      </trkpt>
      <trkpt lat="49.08444" lon="-1.44143">
        <ele>109.63629</ele>
        <time>2015-06-05T11:54:56Z</time>
      </trkpt>
      <trkpt lat="49.08442" lon="-1.44152">
        <ele>109.62236</ele>
        <time>2015-06-05T11:55:01Z</time>
      </trkpt>
      <trkpt lat="49.0844" lon="-1.44161">
        <ele>109.62236</ele>
        <time>2015-06-05T11:55:06Z</time>
      </trkpt>
      <trkpt lat="49.08438" lon="-1.44168">
        <ele>109.86147</ele>
        <time>2015-06-05T11:55:11Z</time>
      </trkpt>
      <trkpt lat="49.08437" lon="-1.44173">
        <ele>109.86147</ele>
        <time>2015-06-05T11:55:16Z</time>
      </trkpt>
      <trkpt lat="49.08438" lon="-1.4418">
        <ele>109.86147</ele>
        <time>2015-06-05T11:55:21Z</time>
      </trkpt>
      <trkpt lat="49.08436" lon="-1.44187">
        <ele>110.41995</ele>
        <time>2015-06-05T11:55:26Z</time>
      </trkpt>
      <trkpt lat="49.08434" lon="-1.44192">
        <ele>110.41995</ele>
        <time>2015-06-05T11:55:31Z</time>
      </trkpt>
      <trkpt lat="49.08432" lon="-1.44198">
        <ele>110.41995</ele>
        <time>2015-06-05T11:55:36Z</time>
      </trkpt>
      <trkpt lat="49.08431" lon="-1.44203">
        <ele>111.14226</ele>
        <time>2015-06-05T11:55:41Z</time>
      </trkpt>
      <trkpt lat="49.08429" lon="-1.44215">
        <ele>111.14226</ele>
        <time>2015-06-05T11:55:46Z</time>
      </trkpt>
      <trkpt lat="49.08429" lon="-1.44222">
        <ele>111.95591</ele>
        <time>2015-06-05T11:55:51Z</time>
      </trkpt>
      <trkpt lat="49.08427" lon="-1.4423">
        <ele>111.95591</ele>
        <time>2015-06-05T11:55:56Z</time>
      </trkpt>
      <trkpt lat="49.08426" lon="-1.44236">
        <ele>112.86562</ele>
        <time>2015-06-05T11:56:01Z</time>
      </trkpt>
      <trkpt lat="49.08425" lon="-1.44243">
        <ele>112.86562</ele>
        <time>2015-06-05T11:56:06Z</time>
      </trkpt>
      <trkpt lat="49.08423" lon="-1.44251">
        <ele>113.93319</ele>
        <time>2015-06-05T11:56:11Z</time>
      </trkpt>
      <trkpt lat="49.0842" lon="-1.44258">
        <ele>113.93319</ele>
        <time>2015-06-05T11:56:16Z</time>
      </trkpt>
      <trkpt lat="49.08418" lon="-1.44268">
        <ele>114.99934</ele>
        <time>2015-06-05T11:56:21Z</time>
      </trkpt>
      <trkpt lat="49.08417" lon="-1.44276">
        <ele>114.99934</ele>
        <time>2015-06-05T11:56:26Z</time>
      </trkpt>
      <trkpt lat="49.08417" lon="-1.44282">
        <ele>116.13274</ele>
        <time>2015-06-05T11:56:31Z</time>
      </trkpt>
      <trkpt lat="49.08419" lon="-1.44281">
        <ele>116.13274</ele>
        <time>2015-06-05T11:56:36Z</time>
      </trkpt>
      <trkpt lat="49.08423" lon="-1.44282">
        <ele>116.13274</ele>
        <time>2015-06-05T11:56:41Z</time>
      </trkpt>
      <trkpt lat="49.08424" lon="-1.44281">
        <ele>116.13274</ele>
        <time>2015-06-05T11:56:46Z</time>
      </trkpt>
      <trkpt lat="49.08423" lon="-1.44278">
        <ele>117.23836</ele>
        <time>2015-06-05T11:56:51Z</time>
      </trkpt>
      <trkpt lat="49.08421" lon="-1.44277">
        <ele>117.23836</ele>
        <time>2015-06-05T11:56:56Z</time>
      </trkpt>
      <trkpt lat="49.08419" lon="-1.44277">
        <ele>117.23836</ele>
        <time>2015-06-05T11:57:01Z</time>
      </trkpt>
      <trkpt lat="49.08414" lon="-1.44281">
        <ele>118.28599</ele>
        <time>2015-06-05T11:57:06Z</time>
      </trkpt>
      <trkpt lat="49.0841" lon="-1.44284">
        <ele>118.28599</ele>
        <time>2015-06-05T11:57:11Z</time>
      </trkpt>
      <trkpt lat="49.0841" lon="-1.44287">
        <ele>118.28599</ele>
        <time>2015-06-05T11:57:16Z</time>
      </trkpt>
      <trkpt lat="49.08413" lon="-1.44289">
        <ele>118.28599</ele>
        <time>2015-06-05T11:57:21Z</time>
      </trkpt>
      <trkpt lat="49.08415" lon="-1.44286">
        <ele>119.37756</ele>
        <time>2015-06-05T11:57:26Z</time>
      </trkpt>
      <trkpt lat="49.08417" lon="-1.44282">
        <ele>119.37756</ele>
        <time>2015-06-05T11:57:31Z</time>
      </trkpt>
      <trkpt lat="49.08418" lon="-1.44284">
        <ele>119.37756</ele>
        <time>2015-06-05T11:57:36Z</time>
      </trkpt>
      <trkpt lat="49.08418" lon="-1.44288">
        <ele>119.37756</ele>
        <time>2015-06-05T11:57:41Z</time>
      </trkpt>
      <trkpt lat="49.08417" lon="-1.44295">
        <ele>120.535446</ele>
        <time>2015-06-05T11:57:46Z</time>
      </trkpt>
      <trkpt lat="49.08415" lon="-1.44303">
        <ele>120.535446</ele>
        <time>2015-06-05T11:57:51Z</time>
      </trkpt>
      <trkpt lat="49.08413" lon="-1.4431">
        <ele>121.664986</ele>
        <time>2015-06-05T11:57:56Z</time>
      </trkpt>
      <trkpt lat="49.08411" lon="-1.44318">
        <ele>121.664986</ele>
        <time>2015-06-05T11:58:01Z</time>
      </trkpt>
      <trkpt lat="49.08409" lon="-1.44327">
        <ele>122.779526</ele>
        <time>2015-06-05T11:58:06Z</time>
      </trkpt>
      <trkpt lat="49.08408" lon="-1.44335">
        <ele>122.779526</ele>
        <time>2015-06-05T11:58:11Z</time>
      </trkpt>
      <trkpt lat="49.08407" lon="-1.44344">
        <ele>123.84833</ele>
        <time>2015-06-05T11:58:16Z</time>
      </trkpt>
      <trkpt lat="49.08406" lon="-1.44352">
        <ele>123.84833</ele>
        <time>2015-06-05T11:58:21Z</time>
      </trkpt>
      <trkpt lat="49.08404" lon="-1.44359">
        <ele>124.929634</ele>
        <time>2015-06-05T11:58:26Z</time>
      </trkpt>
      <trkpt lat="49.08403" lon="-1.44365">
        <ele>124.929634</ele>
        <time>2015-06-05T11:58:31Z</time>
      </trkpt>
      <trkpt lat="49.08402" lon="-1.44375">
        <ele>125.96215</ele>
        <time>2015-06-05T11:58:36Z</time>
      </trkpt>
      <trkpt lat="49.08401" lon="-1.44383">
        <ele>125.96215</ele>
        <time>2015-06-05T11:58:41Z</time>
      </trkpt>
      <trkpt lat="49.084" lon="-1.44391">
        <ele>127.00465</ele>
        <time>2015-06-05T11:58:46Z</time>
      </trkpt>
      <trkpt lat="49.08399" lon="-1.444">
        <ele>127.00465</ele>
        <time>2015-06-05T11:58:51Z</time>
      </trkpt>
      <trkpt lat="49.08398" lon="-1.44409">
        <ele>128.05397</ele>
        <time>2015-06-05T11:58:56Z</time>
      </trkpt>
      <trkpt lat="49.08398" lon="-1.44417">
        <ele>128.05397</ele>
        <time>2015-06-05T11:59:01Z</time>
      </trkpt>
      <trkpt lat="49.08398" lon="-1.44426">
        <ele>129.10732</ele>
        <time>2015-06-05T11:59:06Z</time>
      </trkpt>
      <trkpt lat="49.084" lon="-1.44436">
        <ele>129.10732</ele>
        <time>2015-06-05T11:59:11Z</time>
      </trkpt>
      <trkpt lat="49.084" lon="-1.44446">
        <ele>130.19096</ele>
        <time>2015-06-05T11:59:16Z</time>
      </trkpt>
      <trkpt lat="49.08401" lon="-1.44454">
        <ele>130.19096</ele>
        <time>2015-06-05T11:59:21Z</time>
      </trkpt>
      <trkpt lat="49.08403" lon="-1.44463">
        <ele>131.30046</ele>
        <time>2015-06-05T11:59:26Z</time>
      </trkpt>
      <trkpt lat="49.08404" lon="-1.44469">
        <ele>131.30046</ele>
        <time>2015-06-05T11:59:31Z</time>
      </trkpt>
      <trkpt lat="49.08406" lon="-1.44476">
        <ele>132.35968</ele>
        <time>2015-06-05T11:59:36Z</time>
      </trkpt>
      <trkpt lat="49.08407" lon="-1.44485">
        <ele>132.35968</ele>
        <time>2015-06-05T11:59:41Z</time>
      </trkpt>
      <trkpt lat="49.08406" lon="-1.44492">
        <ele>133.38477</ele>
        <time>2015-06-05T11:59:46Z</time>
      </trkpt>
      <trkpt lat="49.08407" lon="-1.44495">
        <ele>133.38477</ele>
        <time>2015-06-05T11:59:51Z</time>
      </trkpt>
      <trkpt lat="49.08409" lon="-1.44502">
        <ele>133.38477</ele>
        <time>2015-06-05T11:59:56Z</time>
      </trkpt>
      <trkpt lat="49.08411" lon="-1.44511">
        <ele>134.36203</ele>
        <time>2015-06-05T12:00:01Z</time>
      </trkpt>
      <trkpt lat="49.08413" lon="-1.44521">
        <ele>134.36203</ele>
        <time>2015-06-05T12:00:06Z</time>
      </trkpt>
      <trkpt lat="49.08412" lon="-1.44532">
        <ele>135.30789</ele>
        <time>2015-06-05T12:00:11Z</time>
      </trkpt>
      <trkpt lat="49.08413" lon="-1.44542">
        <ele>135.30789</ele>
        <time>2015-06-05T12:00:16Z</time>
      </trkpt>
      <trkpt lat="49.08413" lon="-1.44549">
        <ele>136.10797</ele>
        <time>2015-06-05T12:00:21Z</time>
      </trkpt>
      <trkpt lat="49.08414" lon="-1.44552">
        <ele>136.10797</ele>
        <time>2015-06-05T12:00:26Z</time>
      </trkpt>
      <trkpt lat="49.08412" lon="-1.44554">
        <ele>136.10797</ele>
        <time>2015-06-05T12:00:31Z</time>
      </trkpt>
      <trkpt lat="49.08412" lon="-1.44553">
        <ele>136.10797</ele>
        <time>2015-06-05T12:00:36Z</time>
      </trkpt>
      <trkpt lat="49.08411" lon="-1.44553">
        <ele>136.10797</ele>
        <time>2015-06-05T12:00:41Z</time>
      </trkpt>
      <trkpt lat="49.08412" lon="-1.44551">
        <ele>136.10797</ele>
        <time>2015-06-05T12:00:46Z</time>
      </trkpt>
      <trkpt lat="49.08412" lon="-1.44551">
        <ele>136.10797</ele>
        <time>2015-06-05T12:00:51Z</time>
      </trkpt>
      <trkpt lat="49.08413" lon="-1.44549">
        <ele>136.10797</ele>
        <time>2015-06-05T12:00:56Z</time>
      </trkpt>
      <trkpt lat="49.08414" lon="-1.44548">
        <ele>137.11803</ele>
        <time>2015-06-05T12:01:01Z</time>
      </trkpt>
      <trkpt lat="49.08413" lon="-1.44549">
        <ele>137.11803</ele>
        <time>2015-06-05T12:01:06Z</time>
      </trkpt>
      <trkpt lat="49.08411" lon="-1.44549">
        <ele>137.11803</ele>
        <time>2015-06-05T12:01:11Z</time>
      </trkpt>
      <trkpt lat="49.0841" lon="-1.44552">
        <ele>137.11803</ele>
        <time>2015-06-05T12:01:16Z</time>
      </trkpt>
      <trkpt lat="49.08412" lon="-1.44554">
        <ele>137.11803</ele>
        <time>2015-06-05T12:01:21Z</time>
      </trkpt>
      <trkpt lat="49.08413" lon="-1.44557">
        <ele>138.03302</ele>
        <time>2015-06-05T12:01:26Z</time>
      </trkpt>
      <trkpt lat="49.08412" lon="-1.44558">
        <ele>138.03302</ele>
        <time>2015-06-05T12:01:31Z</time>
      </trkpt>
      <trkpt lat="49.08411" lon="-1.44558">
        <ele>138.03302</ele>
        <time>2015-06-05T12:01:36Z</time>
      </trkpt>
      <trkpt lat="49.0841" lon="-1.44558">
        <ele>138.03302</ele>
        <time>2015-06-05T12:01:41Z</time>
      </trkpt>
      <trkpt lat="49.0841" lon="-1.44557">
        <ele>138.03302</ele>
        <time>2015-06-05T12:01:46Z</time>
      </trkpt>
      <trkpt lat="49.0841" lon="-1.44557">
        <ele>138.03302</ele>
        <time>2015-06-05T12:01:51Z</time>
      </trkpt>
      <trkpt lat="49.08408" lon="-1.44557">
        <ele>138.03302</ele>
        <time>2015-06-05T12:01:56Z</time>
      </trkpt>
      <trkpt lat="49.08407" lon="-1.44556">
        <ele>138.03302</ele>
        <time>2015-06-05T12:02:01Z</time>
      </trkpt>
      <trkpt lat="49.08406" lon="-1.44558">
        <ele>138.03302</ele>
        <time>2015-06-05T12:02:06Z</time>
      </trkpt>
      <trkpt lat="49.08406" lon="-1.44561">
        <ele>138.98863</ele>
        <time>2015-06-05T12:02:11Z</time>
      </trkpt>
      <trkpt lat="49.08406" lon="-1.4456">
        <ele>138.98863</ele>
        <time>2015-06-05T12:02:16Z</time>
      </trkpt>
      <trkpt lat="49.08407" lon="-1.44558">
        <ele>138.98863</ele>
        <time>2015-06-05T12:02:21Z</time>
      </trkpt>
      <trkpt lat="49.08408" lon="-1.44559">
        <ele>138.98863</ele>
        <time>2015-06-05T12:02:26Z</time>
      </trkpt>
      <trkpt lat="49.08408" lon="-1.44558">
        <ele>138.98863</ele>
        <time>2015-06-05T12:02:31Z</time>
      </trkpt>
      <trkpt lat="49.08408" lon="-1.44557">
        <ele>138.98863</ele>
        <time>2015-06-05T12:02:36Z</time>
      </trkpt>
      <trkpt lat="49.08409" lon="-1.44556">
        <ele>138.98863</ele>
        <time>2015-06-05T12:02:41Z</time>
      </trkpt>
      <trkpt lat="49.08407" lon="-1.4456">
        <ele>138.98863</ele>
        <time>2015-06-05T12:02:46Z</time>
      </trkpt>
      <trkpt lat="49.08405" lon="-1.44568">
        <ele>139.99522</ele>
        <time>2015-06-05T12:02:51Z</time>
      </trkpt>
      <trkpt lat="49.084" lon="-1.44576">
        <ele>139.99522</ele>
        <time>2015-06-05T12:02:56Z</time>
      </trkpt>
      <trkpt lat="49.08396" lon="-1.44581">
        <ele>140.78854</ele>
        <time>2015-06-05T12:03:01Z</time>
      </trkpt>
      <trkpt lat="49.08392" lon="-1.44586">
        <ele>140.78854</ele>
        <time>2015-06-05T12:03:06Z</time>
      </trkpt>
      <trkpt lat="49.08387" lon="-1.44593">
        <ele>141.42703</ele>
        <time>2015-06-05T12:03:11Z</time>
      </trkpt>
      <trkpt lat="49.08384" lon="-1.44598">
        <ele>141.42703</ele>
        <time>2015-06-05T12:03:16Z</time>
      </trkpt>
      <trkpt lat="49.08379" lon="-1.44603">
        <ele>141.95096</ele>
        <time>2015-06-05T12:03:21Z</time>
      </trkpt>
      <trkpt lat="49.08374" lon="-1.44607">
        <ele>141.95096</ele>
        <time>2015-06-05T12:03:26Z</time>
      </trkpt>
      <trkpt lat="49.08368" lon="-1.44614">
        <ele>142.42682</ele>
        <time>2015-06-05T12:03:31Z</time>
      </trkpt>
      <trkpt lat="49.08364" lon="-1.44621">
        <ele>142.42682</ele>
        <time>2015-06-05T12:03:36Z</time>
      </trkpt>
      <trkpt lat="49.0836" lon="-1.44628">
        <ele>142.75789</ele>
        <time>2015-06-05T12:03:41Z</time>
      </trkpt>
      <trkpt lat="49.08357" lon="-1.44633">
        <ele>142.75789</ele>
        <time>2015-06-05T12:03:46Z</time>
      </trkpt>
      <trkpt lat="49.08352" lon="-1.44641">
        <ele>142.98473</ele>
        <time>2015-06-05T12:03:51Z</time>
      </trkpt>
      <trkpt lat="49.08349" lon="-1.44649">
        <ele>142.98473</ele>
        <time>2015-06-05T12:03:56Z</time>
      </trkpt>
      <trkpt lat="49.08346" lon="-1.44654">
        <ele>143.05876</ele>
        <time>2015-06-05T12:04:01Z</time>
      </trkpt>
      <trkpt lat="49.08342" lon="-1.44663">
        <ele>143.05876</ele>
        <time>2015-06-05T12:04:06Z</time>
      </trkpt>
      <trkpt lat="49.08338" lon="-1.44669">
        <ele>143.09398</ele>
        <time>2015-06-05T12:04:11Z</time>
      </trkpt>
      <trkpt lat="49.08335" lon="-1.44677">
        <ele>143.09398</ele>
        <time>2015-06-05T12:04:16Z</time>
      </trkpt>
      <trkpt lat="49.08331" lon="-1.44685">
        <ele>143.06645</ele>
        <time>2015-06-05T12:04:21Z</time>
      </trkpt>
      <trkpt lat="49.08328" lon="-1.44691">
        <ele>143.06645</ele>
        <time>2015-06-05T12:04:26Z</time>
      </trkpt>
      <trkpt lat="49.08324" lon="-1.44698">
        <ele>142.96858</ele>
        <time>2015-06-05T12:04:31Z</time>
      </trkpt>
      <trkpt lat="49.0832" lon="-1.44706">
        <ele>142.96858</ele>
        <time>2015-06-05T12:04:36Z</time>
      </trkpt>
      <trkpt lat="49.08315" lon="-1.44713">
        <ele>142.77914</ele>
        <time>2015-06-05T12:04:41Z</time>
      </trkpt>
      <trkpt lat="49.08312" lon="-1.44721">
        <ele>142.77914</ele>
        <time>2015-06-05T12:04:46Z</time>
      </trkpt>
      <trkpt lat="49.08308" lon="-1.4473">
        <ele>142.50758</ele>
        <time>2015-06-05T12:04:51Z</time>
      </trkpt>
      <trkpt lat="49.08304" lon="-1.44737">
        <ele>142.50758</ele>
        <time>2015-06-05T12:04:56Z</time>
      </trkpt>
      <trkpt lat="49.08303" lon="-1.44746">
        <ele>142.19164</ele>
        <time>2015-06-05T12:05:01Z</time>
      </trkpt>
      <trkpt lat="49.08304" lon="-1.44755">
        <ele>142.19164</ele>
        <time>2015-06-05T12:05:06Z</time>
      </trkpt>
      <trkpt lat="49.08306" lon="-1.44762">
        <ele>141.8232</ele>
        <time>2015-06-05T12:05:11Z</time>
      </trkpt>
      <trkpt lat="49.08309" lon="-1.44768">
        <ele>141.8232</ele>
        <time>2015-06-05T12:05:16Z</time>
      </trkpt>
      <trkpt lat="49.08315" lon="-1.44774">
        <ele>141.39485</ele>
        <time>2015-06-05T12:05:21Z</time>
      </trkpt>
      <trkpt lat="49.08321" lon="-1.44779">
        <ele>141.39485</ele>
        <time>2015-06-05T12:05:26Z</time>
      </trkpt>
      <trkpt lat="49.08326" lon="-1.44782">
        <ele>140.92871</ele>
        <time>2015-06-05T12:05:31Z</time>
      </trkpt>
      <trkpt lat="49.08333" lon="-1.44787">
        <ele>140.92871</ele>
        <time>2015-06-05T12:05:36Z</time>
      </trkpt>
      <trkpt lat="49.08337" lon="-1.4479">
        <ele>140.45972</ele>
        <time>2015-06-05T12:05:41Z</time>
      </trkpt>
      <trkpt lat="49.08342" lon="-1.44795">
        <ele>140.45972</ele>
        <time>2015-06-05T12:05:46Z</time>
      </trkpt>
      <trkpt lat="49.08346" lon="-1.448">
        <ele>139.90495</ele>
        <time>2015-06-05T12:05:51Z</time>
      </trkpt>
      <trkpt lat="49.08353" lon="-1.44807">
        <ele>139.90495</ele>
        <time>2015-06-05T12:05:56Z</time>
      </trkpt>
      <trkpt lat="49.08358" lon="-1.44812">
        <ele>139.30305</ele>
        <time>2015-06-05T12:06:01Z</time>
      </trkpt>
      <trkpt lat="49.08363" lon="-1.44817">
        <ele>139.30305</ele>
        <time>2015-06-05T12:06:06Z</time>
      </trkpt>
      <trkpt lat="49.08369" lon="-1.4482">
        <ele>138.66104</ele>
        <time>2015-06-05T12:06:11Z</time>
      </trkpt>
      <trkpt lat="49.08375" lon="-1.44823">
        <ele>138.66104</ele>
        <time>2015-06-05T12:06:16Z</time>
      </trkpt>
      <trkpt lat="49.08381" lon="-1.44827">
        <ele>137.98553</ele>
        <time>2015-06-05T12:06:21Z</time>
      </trkpt>
      <trkpt lat="49.08385" lon="-1.44833">
        <ele>137.98553</ele>
        <time>2015-06-05T12:06:26Z</time>
      </trkpt>
      <trkpt lat="49.0839" lon="-1.44836">
        <ele>137.18173</ele>
        <time>2015-06-05T12:06:31Z</time>
      </trkpt>
      <trkpt lat="49.08397" lon="-1.44841">
        <ele>137.18173</ele>
        <time>2015-06-05T12:06:36Z</time>
      </trkpt>
      <trkpt lat="49.08404" lon="-1.44843">
        <ele>136.3495</ele>
        <time>2015-06-05T12:06:41Z</time>
      </trkpt>
      <trkpt lat="49.08409" lon="-1.44845">
        <ele>136.3495</ele>
        <time>2015-06-05T12:06:46Z</time>
      </trkpt>
      <trkpt lat="49.08415" lon="-1.44848">
        <ele>135.52367</ele>
        <time>2015-06-05T12:06:51Z</time>
      </trkpt>
      <trkpt lat="49.08422" lon="-1.44851">
        <ele>135.52367</ele>
        <time>2015-06-05T12:06:56Z</time>
      </trkpt>
      <trkpt lat="49.0843" lon="-1.44855">
        <ele>134.76526</ele>
        <time>2015-06-05T12:07:01Z</time>
      </trkpt>
      <trkpt lat="49.08437" lon="-1.44857">
        <ele>134.76526</ele>
        <time>2015-06-05T12:07:06Z</time>
      </trkpt>
      <trkpt lat="49.08441" lon="-1.44859">
        <ele>134.05844</ele>
        <time>2015-06-05T12:07:11Z</time>
      </trkpt>
      <trkpt lat="49.08449" lon="-1.44862">
        <ele>134.05844</ele>
        <time>2015-06-05T12:07:16Z</time>
      </trkpt>
      <trkpt lat="49.08455" lon="-1.44864">
        <ele>133.35951</ele>
        <time>2015-06-05T12:07:21Z</time>
      </trkpt>
      <trkpt lat="49.08459" lon="-1.44867">
        <ele>133.35951</ele>
        <time>2015-06-05T12:07:26Z</time>
      </trkpt>
      <trkpt lat="49.08466" lon="-1.44873">
        <ele>132.61345</ele>
        <time>2015-06-05T12:07:31Z</time>
      </trkpt>
      <trkpt lat="49.08471" lon="-1.44879">
        <ele>132.61345</ele>
        <time>2015-06-05T12:07:36Z</time>
      </trkpt>
      <trkpt lat="49.08476" lon="-1.44885">
        <ele>131.88455</ele>
        <time>2015-06-05T12:07:41Z</time>
      </trkpt>
      <trkpt lat="49.08483" lon="-1.44894">
        <ele>131.117</ele>
        <time>2015-06-05T12:07:46Z</time>
      </trkpt>
      <trkpt lat="49.08486" lon="-1.44898">
        <ele>131.117</ele>
        <time>2015-06-05T12:07:51Z</time>
      </trkpt>
      <trkpt lat="49.08491" lon="-1.44903">
        <ele>130.30232</ele>
        <time>2015-06-05T12:07:56Z</time>
      </trkpt>
      <trkpt lat="49.08496" lon="-1.44909">
        <ele>130.30232</ele>
        <time>2015-06-05T12:08:01Z</time>
      </trkpt>
      <trkpt lat="49.08501" lon="-1.44914">
        <ele>129.41821</ele>
        <time>2015-06-05T12:08:06Z</time>
      </trkpt>
      <trkpt lat="49.08507" lon="-1.4492">
        <ele>129.41821</ele>
        <time>2015-06-05T12:08:11Z</time>
      </trkpt>
      <trkpt lat="49.08512" lon="-1.44926">
        <ele>128.45856</ele>
        <time>2015-06-05T12:08:16Z</time>
      </trkpt>
      <trkpt lat="49.08517" lon="-1.44932">
        <ele>128.45856</ele>
        <time>2015-06-05T12:08:21Z</time>
      </trkpt>
      <trkpt lat="49.08521" lon="-1.44937">
        <ele>127.48986</ele>
        <time>2015-06-05T12:08:26Z</time>
      </trkpt>
      <trkpt lat="49.08526" lon="-1.44941">
        <ele>127.48986</ele>
        <time>2015-06-05T12:08:31Z</time>
      </trkpt>
      <trkpt lat="49.08531" lon="-1.44945">
        <ele>126.5448</ele>
        <time>2015-06-05T12:08:36Z</time>
      </trkpt>
      <trkpt lat="49.08537" lon="-1.44949">
        <ele>126.5448</ele>
        <time>2015-06-05T12:08:41Z</time>
      </trkpt>
      <trkpt lat="49.08541" lon="-1.44951">
        <ele>125.63908</ele>
        <time>2015-06-05T12:08:46Z</time>
      </trkpt>
      <trkpt lat="49.08547" lon="-1.44953">
        <ele>125.63908</ele>
        <time>2015-06-05T12:08:51Z</time>
      </trkpt>
      <trkpt lat="49.08552" lon="-1.44953">
        <ele>124.772606</ele>
        <time>2015-06-05T12:08:56Z</time>
      </trkpt>
      <trkpt lat="49.08557" lon="-1.44949">
        <ele>124.772606</ele>
        <time>2015-06-05T12:09:01Z</time>
      </trkpt>
      <trkpt lat="49.08566" lon="-1.44943">
        <ele>123.9595</ele>
        <time>2015-06-05T12:09:06Z</time>
      </trkpt>
      <trkpt lat="49.08572" lon="-1.44938">
        <ele>123.9595</ele>
        <time>2015-06-05T12:09:11Z</time>
      </trkpt>
      <trkpt lat="49.08578" lon="-1.44936">
        <ele>123.35668</ele>
        <time>2015-06-05T12:09:16Z</time>
      </trkpt>
      <trkpt lat="49.08584" lon="-1.44937">
        <ele>123.35668</ele>
        <time>2015-06-05T12:09:21Z</time>
      </trkpt>
      <trkpt lat="49.0859" lon="-1.44943">
        <ele>122.84945</ele>
        <time>2015-06-05T12:09:26Z</time>
      </trkpt>
      <trkpt lat="49.08596" lon="-1.4495">
        <ele>122.84945</ele>
        <time>2015-06-05T12:09:31Z</time>
      </trkpt>
      <trkpt lat="49.086" lon="-1.44956">
        <ele>122.31675</ele>
        <time>2015-06-05T12:09:36Z</time>
      </trkpt>
      <trkpt lat="49.08604" lon="-1.44962">
        <ele>122.31675</ele>
        <time>2015-06-05T12:09:41Z</time>
      </trkpt>
      <trkpt lat="49.08608" lon="-1.44967">
        <ele>121.6896</ele>
        <time>2015-06-05T12:09:46Z</time>
      </trkpt>
      <trkpt lat="49.08612" lon="-1.44972">
        <ele>121.6896</ele>
        <time>2015-06-05T12:09:51Z</time>
      </trkpt>
      <trkpt lat="49.08616" lon="-1.44976">
        <ele>121.00516</ele>
        <time>2015-06-05T12:09:56Z</time>
      </trkpt>
      <trkpt lat="49.08619" lon="-1.44977">
        <ele>121.00516</ele>
        <time>2015-06-05T12:10:01Z</time>
      </trkpt>
      <trkpt lat="49.08623" lon="-1.44982">
        <ele>121.00516</ele>
        <time>2015-06-05T12:10:06Z</time>
      </trkpt>
      <trkpt lat="49.08626" lon="-1.44985">
        <ele>120.28349</ele>
        <time>2015-06-05T12:10:11Z</time>
      </trkpt>
      <trkpt lat="49.0863" lon="-1.4499">
        <ele>120.28349</ele>
        <time>2015-06-05T12:10:16Z</time>
      </trkpt>
      <trkpt lat="49.08635" lon="-1.44993">
        <ele>119.44233</ele>
        <time>2015-06-05T12:10:21Z</time>
      </trkpt>
      <trkpt lat="49.08638" lon="-1.45001">
        <ele>119.44233</ele>
        <time>2015-06-05T12:10:26Z</time>
      </trkpt>
      <trkpt lat="49.08644" lon="-1.45006">
        <ele>118.765976</ele>
        <time>2015-06-05T12:10:31Z</time>
      </trkpt>
      <trkpt lat="49.08647" lon="-1.45011">
        <ele>118.765976</ele>
        <time>2015-06-05T12:10:36Z</time>
      </trkpt>
      <trkpt lat="49.0865" lon="-1.45019">
        <ele>118.14259</ele>
        <time>2015-06-05T12:10:41Z</time>
      </trkpt>
      <trkpt lat="49.08653" lon="-1.45022">
        <ele>118.14259</ele>
        <time>2015-06-05T12:10:46Z</time>
      </trkpt>
      <trkpt lat="49.08658" lon="-1.45029">
        <ele>117.598045</ele>
        <time>2015-06-05T12:10:51Z</time>
      </trkpt>
      <trkpt lat="49.08661" lon="-1.45037">
        <ele>117.598045</ele>
        <time>2015-06-05T12:10:56Z</time>
      </trkpt>
      <trkpt lat="49.08666" lon="-1.45042">
        <ele>117.12717</ele>
        <time>2015-06-05T12:11:01Z</time>
      </trkpt>
      <trkpt lat="49.08671" lon="-1.45051">
        <ele>117.12717</ele>
        <time>2015-06-05T12:11:06Z</time>
      </trkpt>
      <trkpt lat="49.08677" lon="-1.45059">
        <ele>116.4943</ele>
        <time>2015-06-05T12:11:11Z</time>
      </trkpt>
      <trkpt lat="49.08682" lon="-1.45067">
        <ele>116.4943</ele>
        <time>2015-06-05T12:11:16Z</time>
      </trkpt>
      <trkpt lat="49.08689" lon="-1.45075">
        <ele>115.75532</ele>
        <time>2015-06-05T12:11:21Z</time>
      </trkpt>
      <trkpt lat="49.08695" lon="-1.45081">
        <ele>115.75532</ele>
        <time>2015-06-05T12:11:26Z</time>
      </trkpt>
      <trkpt lat="49.08701" lon="-1.45089">
        <ele>115.06306</ele>
        <time>2015-06-05T12:11:31Z</time>
      </trkpt>
      <trkpt lat="49.08707" lon="-1.45095">
        <ele>115.06306</ele>
        <time>2015-06-05T12:11:36Z</time>
      </trkpt>
      <trkpt lat="49.0871" lon="-1.451">
        <ele>114.40045</ele>
        <time>2015-06-05T12:11:41Z</time>
      </trkpt>
      <trkpt lat="49.08714" lon="-1.45107">
        <ele>114.40045</ele>
        <time>2015-06-05T12:11:46Z</time>
      </trkpt>
      <trkpt lat="49.08716" lon="-1.45108">
        <ele>114.40045</ele>
        <time>2015-06-05T12:11:51Z</time>
      </trkpt>
      <trkpt lat="49.08719" lon="-1.45109">
        <ele>113.78033</ele>
        <time>2015-06-05T12:11:56Z</time>
      </trkpt>
      <trkpt lat="49.08723" lon="-1.4511">
        <ele>113.78033</ele>
        <time>2015-06-05T12:12:01Z</time>
      </trkpt>
      <trkpt lat="49.08727" lon="-1.45113">
        <ele>113.14235</ele>
        <time>2015-06-05T12:12:06Z</time>
      </trkpt>
      <trkpt lat="49.0873" lon="-1.45114">
        <ele>113.14235</ele>
        <time>2015-06-05T12:12:11Z</time>
      </trkpt>
      <trkpt lat="49.08733" lon="-1.45114">
        <ele>113.14235</ele>
        <time>2015-06-05T12:12:16Z</time>
      </trkpt>
      <trkpt lat="49.08738" lon="-1.45116">
        <ele>112.589134</ele>
        <time>2015-06-05T12:12:21Z</time>
      </trkpt>
      <trkpt lat="49.08743" lon="-1.45118">
        <ele>112.589134</ele>
        <time>2015-06-05T12:12:26Z</time>
      </trkpt>
      <trkpt lat="49.0875" lon="-1.4512">
        <ele>112.05693</ele>
        <time>2015-06-05T12:12:31Z</time>
      </trkpt>
      <trkpt lat="49.08763" lon="-1.45122">
        <ele>111.52982</ele>
        <time>2015-06-05T12:12:36Z</time>
      </trkpt>
      <trkpt lat="49.08769" lon="-1.45123">
        <ele>111.52982</ele>
        <time>2015-06-05T12:12:41Z</time>
      </trkpt>
      <trkpt lat="49.08777" lon="-1.45124">
        <ele>110.791214</ele>
        <time>2015-06-05T12:12:46Z</time>
      </trkpt>
      <trkpt lat="49.08781" lon="-1.45127">
        <ele>110.791214</ele>
        <time>2015-06-05T12:12:51Z</time>
      </trkpt>
      <trkpt lat="49.08787" lon="-1.45127">
        <ele>110.08774</ele>
        <time>2015-06-05T12:12:56Z</time>
      </trkpt>
      <trkpt lat="49.08794" lon="-1.45131">
        <ele>110.08774</ele>
        <time>2015-06-05T12:13:01Z</time>
      </trkpt>
      <trkpt lat="49.088" lon="-1.45131">
        <ele>109.51806</ele>
        <time>2015-06-05T12:13:06Z</time>
      </trkpt>
      <trkpt lat="49.08806" lon="-1.45132">
        <ele>109.51806</ele>
        <time>2015-06-05T12:13:11Z</time>
      </trkpt>
      <trkpt lat="49.08818" lon="-1.45135">
        <ele>109.000244</ele>
        <time>2015-06-05T12:13:16Z</time>
      </trkpt>
      <trkpt lat="49.08823" lon="-1.45137">
        <ele>109.000244</ele>
        <time>2015-06-05T12:13:21Z</time>
      </trkpt>
      <trkpt lat="49.08827" lon="-1.4514">
        <ele>108.64555</ele>
        <time>2015-06-05T12:13:26Z</time>
      </trkpt>
      <trkpt lat="49.08831" lon="-1.45142">
        <ele>108.64555</ele>
        <time>2015-06-05T12:13:31Z</time>
      </trkpt>
      <trkpt lat="49.0884" lon="-1.45144">
        <ele>108.340416</ele>
        <time>2015-06-05T12:13:36Z</time>
      </trkpt>
      <trkpt lat="49.08847" lon="-1.45145">
        <ele>108.340416</ele>
        <time>2015-06-05T12:13:41Z</time>
      </trkpt>
      <trkpt lat="49.08853" lon="-1.45147">
        <ele>108.12354</ele>
        <time>2015-06-05T12:13:46Z</time>
      </trkpt>
      <trkpt lat="49.08862" lon="-1.45147">
        <ele>107.94405</ele>
        <time>2015-06-05T12:13:51Z</time>
      </trkpt>
      <trkpt lat="49.08867" lon="-1.45147">
        <ele>107.94405</ele>
        <time>2015-06-05T12:13:56Z</time>
      </trkpt>
      <trkpt lat="49.0887" lon="-1.45147">
        <ele>107.94405</ele>
        <time>2015-06-05T12:14:01Z</time>
      </trkpt>
      <trkpt lat="49.08879" lon="-1.45151">
        <ele>107.69707</ele>
        <time>2015-06-05T12:14:06Z</time>
      </trkpt>
      <trkpt lat="49.08885" lon="-1.45154">
        <ele>107.69707</ele>
        <time>2015-06-05T12:14:11Z</time>
      </trkpt>
      <trkpt lat="49.08891" lon="-1.45155">
        <ele>107.3288</ele>
        <time>2015-06-05T12:14:16Z</time>
      </trkpt>
      <trkpt lat="49.08895" lon="-1.45155">
        <ele>107.3288</ele>
        <time>2015-06-05T12:14:21Z</time>
      </trkpt>
      <trkpt lat="49.08899" lon="-1.45156">
        <ele>107.3288</ele>
        <time>2015-06-05T12:14:26Z</time>
      </trkpt>
      <trkpt lat="49.08906" lon="-1.45155">
        <ele>107.005905</ele>
        <time>2015-06-05T12:14:31Z</time>
      </trkpt>
      <trkpt lat="49.08913" lon="-1.45156">
        <ele>107.005905</ele>
        <time>2015-06-05T12:14:36Z</time>
      </trkpt>
      <trkpt lat="49.08918" lon="-1.45156">
        <ele>106.72416</ele>
        <time>2015-06-05T12:14:41Z</time>
      </trkpt>
      <trkpt lat="49.08927" lon="-1.45154">
        <ele>106.47952</ele>
        <time>2015-06-05T12:14:46Z</time>
      </trkpt>
      <trkpt lat="49.08933" lon="-1.45155">
        <ele>106.47952</ele>
        <time>2015-06-05T12:14:51Z</time>
      </trkpt>
      <trkpt lat="49.08943" lon="-1.45159">
        <ele>106.32579</ele>
        <time>2015-06-05T12:14:56Z</time>
      </trkpt>
      <trkpt lat="49.08949" lon="-1.45163">
        <ele>106.32579</ele>
        <time>2015-06-05T12:15:01Z</time>
      </trkpt>
      <trkpt lat="49.08955" lon="-1.45163">
        <ele>106.24051</ele>
        <time>2015-06-05T12:15:06Z</time>
      </trkpt>
      <trkpt lat="49.0896" lon="-1.45165">
        <ele>106.24051</ele>
        <time>2015-06-05T12:15:11Z</time>
      </trkpt>
      <trkpt lat="49.08968" lon="-1.45173">
        <ele>106.20268</ele>
        <time>2015-06-05T12:15:16Z</time>
      </trkpt>
      <trkpt lat="49.08974" lon="-1.45173">
        <ele>106.20268</ele>
        <time>2015-06-05T12:15:21Z</time>
      </trkpt>
      <trkpt lat="49.08979" lon="-1.45174">
        <ele>106.09187</ele>
        <time>2015-06-05T12:15:26Z</time>
      </trkpt>
      <trkpt lat="49.08985" lon="-1.45177">
        <ele>106.09187</ele>
        <time>2015-06-05T12:15:31Z</time>
      </trkpt>
      <trkpt lat="49.08992" lon="-1.45177">
        <ele>106.05608</ele>
        <time>2015-06-05T12:15:36Z</time>
      </trkpt>
      <trkpt lat="49.08997" lon="-1.45178">
        <ele>106.05608</ele>
        <time>2015-06-05T12:15:41Z</time>
      </trkpt>
      <trkpt lat="49.09002" lon="-1.45181">
        <ele>106.04493</ele>
        <time>2015-06-05T12:15:46Z</time>
      </trkpt>
      <trkpt lat="49.09009" lon="-1.45184">
        <ele>106.04493</ele>
        <time>2015-06-05T12:15:51Z</time>
      </trkpt>
      <trkpt lat="49.09016" lon="-1.45184">
        <ele>105.95404</ele>
        <time>2015-06-05T12:15:56Z</time>
      </trkpt>
      <trkpt lat="49.09021" lon="-1.45185">
        <ele>105.95404</ele>
        <time>2015-06-05T12:16:01Z</time>
      </trkpt>
      <trkpt lat="49.09027" lon="-1.45188">
        <ele>105.8743</ele>
        <time>2015-06-05T12:16:06Z</time>
      </trkpt>
      <trkpt lat="49.09033" lon="-1.45189">
        <ele>105.8743</ele>
        <time>2015-06-05T12:16:11Z</time>
      </trkpt>
      <trkpt lat="49.09041" lon="-1.4519">
        <ele>105.81784</ele>
        <time>2015-06-05T12:16:16Z</time>
      </trkpt>
      <trkpt lat="49.09048" lon="-1.45192">
        <ele>105.81784</ele>
        <time>2015-06-05T12:16:21Z</time>
      </trkpt>
      <trkpt lat="49.09052" lon="-1.45193">
        <ele>105.75267</ele>
        <time>2015-06-05T12:16:26Z</time>
      </trkpt>
      <trkpt lat="49.09056" lon="-1.45195">
        <ele>105.75267</ele>
        <time>2015-06-05T12:16:31Z</time>
      </trkpt>
      <trkpt lat="49.09061" lon="-1.45196">
        <ele>105.678</ele>
        <time>2015-06-05T12:16:36Z</time>
      </trkpt>
      <trkpt lat="49.09068" lon="-1.45199">
        <ele>105.678</ele>
        <time>2015-06-05T12:16:41Z</time>
      </trkpt>
      <trkpt lat="49.09072" lon="-1.452">
        <ele>105.59318</ele>
        <time>2015-06-05T12:16:46Z</time>
      </trkpt>
      <trkpt lat="49.09079" lon="-1.452">
        <ele>105.59318</ele>
        <time>2015-06-05T12:16:51Z</time>
      </trkpt>
      <trkpt lat="49.09084" lon="-1.45202">
        <ele>105.54087</ele>
        <time>2015-06-05T12:16:56Z</time>
      </trkpt>
      <trkpt lat="49.09089" lon="-1.45203">
        <ele>105.54087</ele>
        <time>2015-06-05T12:17:01Z</time>
      </trkpt>
      <trkpt lat="49.09097" lon="-1.45205">
        <ele>105.54618</ele>
        <time>2015-06-05T12:17:06Z</time>
      </trkpt>
      <trkpt lat="49.09103" lon="-1.45206">
        <ele>105.54618</ele>
        <time>2015-06-05T12:17:11Z</time>
      </trkpt>
      <trkpt lat="49.0911" lon="-1.45205">
        <ele>105.545746</ele>
        <time>2015-06-05T12:17:16Z</time>
      </trkpt>
      <trkpt lat="49.09112" lon="-1.45206">
        <ele>105.545746</ele>
        <time>2015-06-05T12:17:21Z</time>
      </trkpt>
      <trkpt lat="49.09116" lon="-1.45206">
        <ele>105.545746</ele>
        <time>2015-06-05T12:17:26Z</time>
      </trkpt>
      <trkpt lat="49.09124" lon="-1.45208">
        <ele>105.437706</ele>
        <time>2015-06-05T12:17:31Z</time>
      </trkpt>
      <trkpt lat="49.09128" lon="-1.45211">
        <ele>105.437706</ele>
        <time>2015-06-05T12:17:36Z</time>
      </trkpt>
      <trkpt lat="49.09136" lon="-1.45214">
        <ele>105.35859</ele>
        <time>2015-06-05T12:17:41Z</time>
      </trkpt>
      <trkpt lat="49.09141" lon="-1.45215">
        <ele>105.35859</ele>
        <time>2015-06-05T12:17:46Z</time>
      </trkpt>
      <trkpt lat="49.09144" lon="-1.45214">
        <ele>105.35859</ele>
        <time>2015-06-05T12:17:51Z</time>
      </trkpt>
      <trkpt lat="49.09149" lon="-1.45217">
        <ele>105.21869</ele>
        <time>2015-06-05T12:17:56Z</time>
      </trkpt>
      <trkpt lat="49.09155" lon="-1.4522">
        <ele>105.21869</ele>
        <time>2015-06-05T12:18:01Z</time>
      </trkpt>
      <trkpt lat="49.09162" lon="-1.45223">
        <ele>105.064804</ele>
        <time>2015-06-05T12:18:06Z</time>
      </trkpt>
      <trkpt lat="49.09167" lon="-1.45225">
        <ele>105.064804</ele>
        <time>2015-06-05T12:18:11Z</time>
      </trkpt>
      <trkpt lat="49.09174" lon="-1.45227">
        <ele>104.82509</ele>
        <time>2015-06-05T12:18:16Z</time>
      </trkpt>
      <trkpt lat="49.09181" lon="-1.45229">
        <ele>104.82509</ele>
        <time>2015-06-05T12:18:21Z</time>
      </trkpt>
      <trkpt lat="49.09185" lon="-1.45231">
        <ele>104.591774</ele>
        <time>2015-06-05T12:18:26Z</time>
      </trkpt>
      <trkpt lat="49.09189" lon="-1.45232">
        <ele>104.591774</ele>
        <time>2015-06-05T12:18:31Z</time>
      </trkpt>
      <trkpt lat="49.0919" lon="-1.4523">
        <ele>104.591774</ele>
        <time>2015-06-05T12:18:36Z</time>
      </trkpt>
      <trkpt lat="49.0919" lon="-1.45227">
        <ele>104.591774</ele>
        <time>2015-06-05T12:18:41Z</time>
      </trkpt>
      <trkpt lat="49.0919" lon="-1.45228">
        <ele>104.591774</ele>
        <time>2015-06-05T12:18:46Z</time>
      </trkpt>
      <trkpt lat="49.0919" lon="-1.45231">
        <ele>104.335045</ele>
        <time>2015-06-05T12:18:51Z</time>
      </trkpt>
      <trkpt lat="49.09189" lon="-1.45234">
        <ele>104.335045</ele>
        <time>2015-06-05T12:18:56Z</time>
      </trkpt>
      <trkpt lat="49.09188" lon="-1.45236">
        <ele>104.335045</ele>
        <time>2015-06-05T12:19:01Z</time>
      </trkpt>
      <trkpt lat="49.09188" lon="-1.45237">
        <ele>104.335045</ele>
        <time>2015-06-05T12:19:06Z</time>
      </trkpt>
      <trkpt lat="49.09189" lon="-1.45236">
        <ele>104.335045</ele>
        <time>2015-06-05T12:19:11Z</time>
      </trkpt>
      <trkpt lat="49.09189" lon="-1.45236">
        <ele>104.335045</ele>
        <time>2015-06-05T12:19:16Z</time>
      </trkpt>
      <trkpt lat="49.0919" lon="-1.45237">
        <ele>104.335045</ele>
        <time>2015-06-05T12:19:21Z</time>
      </trkpt>
      <trkpt lat="49.09191" lon="-1.45236">
        <ele>104.335045</ele>
        <time>2015-06-05T12:19:26Z</time>
      </trkpt>
      <trkpt lat="49.09191" lon="-1.45235">
        <ele>104.335045</ele>
        <time>2015-06-05T12:19:31Z</time>
      </trkpt>
      <trkpt lat="49.09191" lon="-1.45235">
        <ele>104.335045</ele>
        <time>2015-06-05T12:19:36Z</time>
      </trkpt>
      <trkpt lat="49.09193" lon="-1.45235">
        <ele>103.96974</ele>
        <time>2015-06-05T12:19:41Z</time>
      </trkpt>
      <trkpt lat="49.09196" lon="-1.45235">
        <ele>103.96974</ele>
        <time>2015-06-05T12:19:46Z</time>
      </trkpt>
      <trkpt lat="49.09197" lon="-1.45235">
        <ele>103.96974</ele>
        <time>2015-06-05T12:19:51Z</time>
      </trkpt>
      <trkpt lat="49.09198" lon="-1.45235">
        <ele>103.96974</ele>
        <time>2015-06-05T12:19:56Z</time>
      </trkpt>
      <trkpt lat="49.09198" lon="-1.45236">
        <ele>103.96974</ele>
        <time>2015-06-05T12:20:01Z</time>
      </trkpt>
      <trkpt lat="49.092" lon="-1.45235">
        <ele>103.96974</ele>
        <time>2015-06-05T12:20:06Z</time>
      </trkpt>
      <trkpt lat="49.09202" lon="-1.45234">
        <ele>103.69112</ele>
        <time>2015-06-05T12:20:11Z</time>
      </trkpt>
      <trkpt lat="49.09204" lon="-1.45235">
        <ele>103.69112</ele>
        <time>2015-06-05T12:20:16Z</time>
      </trkpt>
      <trkpt lat="49.09205" lon="-1.45237">
        <ele>103.69112</ele>
        <time>2015-06-05T12:20:21Z</time>
      </trkpt>
      <trkpt lat="49.09209" lon="-1.45239">
        <ele>103.69112</ele>
        <time>2015-06-05T12:20:26Z</time>
      </trkpt>
      <trkpt lat="49.09213" lon="-1.45239">
        <ele>103.30516</ele>
        <time>2015-06-05T12:20:31Z</time>
      </trkpt>
      <trkpt lat="49.09217" lon="-1.45239">
        <ele>103.30516</ele>
        <time>2015-06-05T12:20:36Z</time>
      </trkpt>
      <trkpt lat="49.0922" lon="-1.45237">
        <ele>103.30516</ele>
        <time>2015-06-05T12:20:41Z</time>
      </trkpt>
      <trkpt lat="49.09222" lon="-1.45237">
        <ele>103.064804</ele>
        <time>2015-06-05T12:20:46Z</time>
      </trkpt>
      <trkpt lat="49.09222" lon="-1.45238">
        <ele>103.064804</ele>
        <time>2015-06-05T12:20:51Z</time>
      </trkpt>
      <trkpt lat="49.09224" lon="-1.45239">
        <ele>103.064804</ele>
        <time>2015-06-05T12:20:56Z</time>
      </trkpt>
      <trkpt lat="49.09223" lon="-1.4524">
        <ele>103.064804</ele>
        <time>2015-06-05T12:21:01Z</time>
      </trkpt>
      <trkpt lat="49.09224" lon="-1.4524">
        <ele>103.064804</ele>
        <time>2015-06-05T12:21:06Z</time>
      </trkpt>
      <trkpt lat="49.09223" lon="-1.45242">
        <ele>103.064804</ele>
        <time>2015-06-05T12:21:11Z</time>
      </trkpt>
      <trkpt lat="49.09221" lon="-1.45244">
        <ele>103.064804</ele>
        <time>2015-06-05T12:21:16Z</time>
      </trkpt>
      <trkpt lat="49.09219" lon="-1.45244">
        <ele>102.54109</ele>
        <time>2015-06-05T12:21:21Z</time>
      </trkpt>
      <trkpt lat="49.09218" lon="-1.45244">
        <ele>102.54109</ele>
        <time>2015-06-05T12:21:26Z</time>
      </trkpt>
      <trkpt lat="49.09219" lon="-1.45245">
        <ele>102.54109</ele>
        <time>2015-06-05T12:21:31Z</time>
      </trkpt>
      <trkpt lat="49.09221" lon="-1.45245">
        <ele>102.54109</ele>
        <time>2015-06-05T12:21:36Z</time>
      </trkpt>
      <trkpt lat="49.09222" lon="-1.45247">
        <ele>102.54109</ele>
        <time>2015-06-05T12:21:41Z</time>
      </trkpt>
      <trkpt lat="49.09223" lon="-1.45247">
        <ele>102.54109</ele>
        <time>2015-06-05T12:21:46Z</time>
      </trkpt>
      <trkpt lat="49.09223" lon="-1.45248">
        <ele>102.54109</ele>
        <time>2015-06-05T12:21:51Z</time>
      </trkpt>
      <trkpt lat="49.09224" lon="-1.45247">
        <ele>102.54109</ele>
        <time>2015-06-05T12:21:56Z</time>
      </trkpt>
      <trkpt lat="49.09222" lon="-1.45247">
        <ele>102.54109</ele>
        <time>2015-06-05T12:22:01Z</time>
      </trkpt>
      <trkpt lat="49.09222" lon="-1.45247">
        <ele>102.54109</ele>
        <time>2015-06-05T12:22:06Z</time>
      </trkpt>
      <trkpt lat="49.09224" lon="-1.45248">
        <ele>101.81298</ele>
        <time>2015-06-05T12:22:11Z</time>
      </trkpt>
      <trkpt lat="49.09224" lon="-1.45248">
        <ele>101.81298</ele>
        <time>2015-06-05T12:22:16Z</time>
      </trkpt>
      <trkpt lat="49.09223" lon="-1.45246">
        <ele>101.81298</ele>
        <time>2015-06-05T12:22:21Z</time>
      </trkpt>
      <trkpt lat="49.09223" lon="-1.45243">
        <ele>101.81298</ele>
        <time>2015-06-05T12:22:26Z</time>
      </trkpt>
      <trkpt lat="49.09223" lon="-1.45244">
        <ele>101.81298</ele>
        <time>2015-06-05T12:22:31Z</time>
      </trkpt>
      <trkpt lat="49.09221" lon="-1.45245">
        <ele>101.81298</ele>
        <time>2015-06-05T12:22:36Z</time>
      </trkpt>
      <trkpt lat="49.0922" lon="-1.45244">
        <ele>101.81298</ele>
        <time>2015-06-05T12:22:41Z</time>
      </trkpt>
      <trkpt lat="49.09221" lon="-1.45243">
        <ele>101.473015</ele>
        <time>2015-06-05T12:22:46Z</time>
      </trkpt>
      <trkpt lat="49.09222" lon="-1.45245">
        <ele>101.473015</ele>
        <time>2015-06-05T12:22:51Z</time>
      </trkpt>
      <trkpt lat="49.09222" lon="-1.45245">
        <ele>101.473015</ele>
        <time>2015-06-05T12:22:56Z</time>
      </trkpt>
      <trkpt lat="49.09222" lon="-1.45246">
        <ele>101.473015</ele>
        <time>2015-06-05T12:23:01Z</time>
      </trkpt>
      <trkpt lat="49.09222" lon="-1.45249">
        <ele>101.473015</ele>
        <time>2015-06-05T12:23:06Z</time>
      </trkpt>
      <trkpt lat="49.09222" lon="-1.4525">
        <ele>101.473015</ele>
        <time>2015-06-05T12:23:11Z</time>
      </trkpt>
      <trkpt lat="49.09222" lon="-1.45248">
        <ele>101.473015</ele>
        <time>2015-06-05T12:23:16Z</time>
      </trkpt>
      <trkpt lat="49.09222" lon="-1.45246">
        <ele>101.473015</ele>
        <time>2015-06-05T12:23:21Z</time>
      </trkpt>
      <trkpt lat="49.09222" lon="-1.45246">
        <ele>101.473015</ele>
        <time>2015-06-05T12:23:26Z</time>
      </trkpt>
      <trkpt lat="49.09224" lon="-1.45246">
        <ele>101.69446</ele>
        <time>2015-06-05T12:23:31Z</time>
      </trkpt>
      <trkpt lat="49.09227" lon="-1.45246">
        <ele>101.69446</ele>
        <time>2015-06-05T12:23:36Z</time>
      </trkpt>
      <trkpt lat="49.09233" lon="-1.45246">
        <ele>101.69446</ele>
        <time>2015-06-05T12:23:41Z</time>
      </trkpt>
      <trkpt lat="49.09236" lon="-1.45246">
        <ele>101.78603</ele>
        <time>2015-06-05T12:23:46Z</time>
      </trkpt>
      <trkpt lat="49.0924" lon="-1.45246">
        <ele>101.78603</ele>
        <time>2015-06-05T12:23:51Z</time>
      </trkpt>
      <trkpt lat="49.09244" lon="-1.45246">
        <ele>101.78603</ele>
        <time>2015-06-05T12:23:56Z</time>
      </trkpt>
      <trkpt lat="49.09247" lon="-1.4525">
        <ele>101.66967</ele>
        <time>2015-06-05T12:24:01Z</time>
      </trkpt>
      <trkpt lat="49.09248" lon="-1.45251">
        <ele>101.66967</ele>
        <time>2015-06-05T12:24:06Z</time>
      </trkpt>
      <trkpt lat="49.09251" lon="-1.45251">
        <ele>101.66967</ele>
        <time>2015-06-05T12:24:11Z</time>
      </trkpt>
      <trkpt lat="49.09257" lon="-1.45252">
        <ele>101.30245</ele>
        <time>2015-06-05T12:24:16Z</time>
      </trkpt>
      <trkpt lat="49.0926" lon="-1.45252">
        <ele>101.30245</ele>
        <time>2015-06-05T12:24:21Z</time>
      </trkpt>
      <trkpt lat="49.09266" lon="-1.45254">
        <ele>100.86151</ele>
        <time>2015-06-05T12:24:26Z</time>
      </trkpt>
      <trkpt lat="49.0927" lon="-1.45255">
        <ele>100.86151</ele>
        <time>2015-06-05T12:24:31Z</time>
      </trkpt>
      <trkpt lat="49.09274" lon="-1.45257">
        <ele>100.86151</ele>
        <time>2015-06-05T12:24:36Z</time>
      </trkpt>
      <trkpt lat="49.09279" lon="-1.45258">
        <ele>100.43914</ele>
        <time>2015-06-05T12:24:41Z</time>
      </trkpt>
      <trkpt lat="49.09285" lon="-1.45256">
        <ele>100.43914</ele>
        <time>2015-06-05T12:24:46Z</time>
      </trkpt>
      <trkpt lat="49.09291" lon="-1.45253">
        <ele>100.04875</ele>
        <time>2015-06-05T12:24:51Z</time>
      </trkpt>
      <trkpt lat="49.09295" lon="-1.45252">
        <ele>100.04875</ele>
        <time>2015-06-05T12:24:56Z</time>
      </trkpt>
      <trkpt lat="49.09301" lon="-1.4525">
        <ele>99.63066</ele>
        <time>2015-06-05T12:25:01Z</time>
      </trkpt>
      <trkpt lat="49.09308" lon="-1.45246">
        <ele>99.63066</ele>
        <time>2015-06-05T12:25:06Z</time>
      </trkpt>
      <trkpt lat="49.09319" lon="-1.45247">
        <ele>99.11523</ele>
        <time>2015-06-05T12:25:11Z</time>
      </trkpt>
      <trkpt lat="49.09324" lon="-1.45246">
        <ele>99.11523</ele>
        <time>2015-06-05T12:25:16Z</time>
      </trkpt>
      <trkpt lat="49.09329" lon="-1.45245">
        <ele>98.59675</ele>
        <time>2015-06-05T12:25:21Z</time>
      </trkpt>
      <trkpt lat="49.09337" lon="-1.45247">
        <ele>98.59675</ele>
        <time>2015-06-05T12:25:26Z</time>
      </trkpt>
      <trkpt lat="49.0934" lon="-1.45248">
        <ele>98.07614</ele>
        <time>2015-06-05T12:25:31Z</time>
      </trkpt>
      <trkpt lat="49.09344" lon="-1.45249">
        <ele>98.07614</ele>
        <time>2015-06-05T12:25:36Z</time>
      </trkpt>
      <trkpt lat="49.0935" lon="-1.45248">
        <ele>97.64072</ele>
        <time>2015-06-05T12:25:41Z</time>
      </trkpt>
      <trkpt lat="49.09358" lon="-1.45249">
        <ele>97.64072</ele>
        <time>2015-06-05T12:25:46Z</time>
      </trkpt>
      <trkpt lat="49.09364" lon="-1.4525">
        <ele>97.22705</ele>
        <time>2015-06-05T12:25:51Z</time>
      </trkpt>
      <trkpt lat="49.09371" lon="-1.45252">
        <ele>97.22705</ele>
        <time>2015-06-05T12:25:56Z</time>
      </trkpt>
      <trkpt lat="49.09376" lon="-1.45256">
        <ele>96.833954</ele>
        <time>2015-06-05T12:26:01Z</time>
      </trkpt>
      <trkpt lat="49.09382" lon="-1.45258">
        <ele>96.833954</ele>
        <time>2015-06-05T12:26:06Z</time>
      </trkpt>
      <trkpt lat="49.09385" lon="-1.45258">
        <ele>96.833954</ele>
        <time>2015-06-05T12:26:11Z</time>
      </trkpt>
      <trkpt lat="49.09393" lon="-1.45262">
        <ele>96.53231</ele>
        <time>2015-06-05T12:26:16Z</time>
      </trkpt>
      <trkpt lat="49.094" lon="-1.45265">
        <ele>96.53231</ele>
        <time>2015-06-05T12:26:21Z</time>
      </trkpt>
      <trkpt lat="49.09405" lon="-1.45266">
        <ele>96.24345</ele>
        <time>2015-06-05T12:26:26Z</time>
      </trkpt>
      <trkpt lat="49.09409" lon="-1.45268">
        <ele>96.24345</ele>
        <time>2015-06-05T12:26:31Z</time>
      </trkpt>
      <trkpt lat="49.09412" lon="-1.45269">
        <ele>96.24345</ele>
        <time>2015-06-05T12:26:36Z</time>
      </trkpt>
      <trkpt lat="49.09419" lon="-1.45272">
        <ele>95.77913</ele>
        <time>2015-06-05T12:26:41Z</time>
      </trkpt>
      <trkpt lat="49.09424" lon="-1.45274">
        <ele>95.77913</ele>
        <time>2015-06-05T12:26:46Z</time>
      </trkpt>
      <trkpt lat="49.09428" lon="-1.45275">
        <ele>95.77913</ele>
        <time>2015-06-05T12:26:51Z</time>
      </trkpt>
      <trkpt lat="49.09435" lon="-1.45277">
        <ele>95.210434</ele>
        <time>2015-06-05T12:26:56Z</time>
      </trkpt>
      <trkpt lat="49.09441" lon="-1.45279">
        <ele>95.210434</ele>
        <time>2015-06-05T12:27:01Z</time>
      </trkpt>
      <trkpt lat="49.09445" lon="-1.4528">
        <ele>94.76203</ele>
        <time>2015-06-05T12:27:06Z</time>
      </trkpt>
      <trkpt lat="49.09449" lon="-1.45281">
        <ele>94.76203</ele>
        <time>2015-06-05T12:27:11Z</time>
      </trkpt>
      <trkpt lat="49.09456" lon="-1.45282">
        <ele>94.31029</ele>
        <time>2015-06-05T12:27:16Z</time>
      </trkpt>
      <trkpt lat="49.09463" lon="-1.45285">
        <ele>94.31029</ele>
        <time>2015-06-05T12:27:21Z</time>
      </trkpt>
      <trkpt lat="49.09471" lon="-1.45288">
        <ele>93.82712</ele>
        <time>2015-06-05T12:27:26Z</time>
      </trkpt>
      <trkpt lat="49.09479" lon="-1.45291">
        <ele>93.82712</ele>
        <time>2015-06-05T12:27:31Z</time>
      </trkpt>
      <trkpt lat="49.09486" lon="-1.45296">
        <ele>93.37306</ele>
        <time>2015-06-05T12:27:36Z</time>
      </trkpt>
      <trkpt lat="49.09491" lon="-1.453">
        <ele>93.37306</ele>
        <time>2015-06-05T12:27:41Z</time>
      </trkpt>
      <trkpt lat="49.09497" lon="-1.45302">
        <ele>92.91763</ele>
        <time>2015-06-05T12:27:46Z</time>
      </trkpt>
      <trkpt lat="49.09502" lon="-1.45309">
        <ele>92.91763</ele>
        <time>2015-06-05T12:27:51Z</time>
      </trkpt>
      <trkpt lat="49.09506" lon="-1.4531">
        <ele>92.360535</ele>
        <time>2015-06-05T12:27:56Z</time>
      </trkpt>
      <trkpt lat="49.0951" lon="-1.45313">
        <ele>92.360535</ele>
        <time>2015-06-05T12:28:01Z</time>
      </trkpt>
      <trkpt lat="49.09513" lon="-1.45318">
        <ele>92.360535</ele>
        <time>2015-06-05T12:28:06Z</time>
      </trkpt>
      <trkpt lat="49.09516" lon="-1.4532">
        <ele>91.66676</ele>
        <time>2015-06-05T12:28:11Z</time>
      </trkpt>
      <trkpt lat="49.0952" lon="-1.45324">
        <ele>91.66676</ele>
        <time>2015-06-05T12:28:16Z</time>
      </trkpt>
      <trkpt lat="49.09524" lon="-1.45327">
        <ele>90.94836</ele>
        <time>2015-06-05T12:28:21Z</time>
      </trkpt>
      <trkpt lat="49.09527" lon="-1.45329">
        <ele>90.94836</ele>
        <time>2015-06-05T12:28:26Z</time>
      </trkpt>
      <trkpt lat="49.09532" lon="-1.45335">
        <ele>90.078606</ele>
        <time>2015-06-05T12:28:31Z</time>
      </trkpt>
      <trkpt lat="49.09536" lon="-1.45341">
        <ele>90.078606</ele>
        <time>2015-06-05T12:28:36Z</time>
      </trkpt>
      <trkpt lat="49.09541" lon="-1.45351">
        <ele>89.012566</ele>
        <time>2015-06-05T12:28:41Z</time>
      </trkpt>
      <trkpt lat="49.09546" lon="-1.45355">
        <ele>89.012566</ele>
        <time>2015-06-05T12:28:46Z</time>
      </trkpt>
      <trkpt lat="49.09552" lon="-1.4536">
        <ele>87.85325</ele>
        <time>2015-06-05T12:28:51Z</time>
      </trkpt>
      <trkpt lat="49.09557" lon="-1.45364">
        <ele>87.85325</ele>
        <time>2015-06-05T12:28:56Z</time>
      </trkpt>
      <trkpt lat="49.09563" lon="-1.45364">
        <ele>86.71074</ele>
        <time>2015-06-05T12:29:01Z</time>
      </trkpt>
      <trkpt lat="49.09567" lon="-1.45365">
        <ele>86.71074</ele>
        <time>2015-06-05T12:29:06Z</time>
      </trkpt>
      <trkpt lat="49.09572" lon="-1.45366">
        <ele>85.629295</ele>
        <time>2015-06-05T12:29:11Z</time>
      </trkpt>
      <trkpt lat="49.09577" lon="-1.45369">
        <ele>85.629295</ele>
        <time>2015-06-05T12:29:16Z</time>
      </trkpt>
      <trkpt lat="49.09582" lon="-1.45371">
        <ele>84.57769</ele>
        <time>2015-06-05T12:29:21Z</time>
      </trkpt>
      <trkpt lat="49.09591" lon="-1.45376">
        <ele>83.55568</ele>
        <time>2015-06-05T12:29:26Z</time>
      </trkpt>
      <trkpt lat="49.09596" lon="-1.45377">
        <ele>83.55568</ele>
        <time>2015-06-05T12:29:31Z</time>
      </trkpt>
      <trkpt lat="49.09601" lon="-1.45379">
        <ele>82.60615</ele>
        <time>2015-06-05T12:29:36Z</time>
      </trkpt>
      <trkpt lat="49.09606" lon="-1.45382">
        <ele>82.60615</ele>
        <time>2015-06-05T12:29:41Z</time>
      </trkpt>
      <trkpt lat="49.09613" lon="-1.45383">
        <ele>81.6533</ele>
        <time>2015-06-05T12:29:46Z</time>
      </trkpt>
      <trkpt lat="49.09617" lon="-1.45384">
        <ele>81.6533</ele>
        <time>2015-06-05T12:29:51Z</time>
      </trkpt>
      <trkpt lat="49.09622" lon="-1.45385">
        <ele>80.6989</ele>
        <time>2015-06-05T12:29:56Z</time>
      </trkpt>
      <trkpt lat="49.09626" lon="-1.45384">
        <ele>80.6989</ele>
        <time>2015-06-05T12:30:01Z</time>
      </trkpt>
      <trkpt lat="49.09629" lon="-1.45384">
        <ele>80.6989</ele>
        <time>2015-06-05T12:30:06Z</time>
      </trkpt>
      <trkpt lat="49.09636" lon="-1.45385">
        <ele>79.71576</ele>
        <time>2015-06-05T12:30:11Z</time>
      </trkpt>
      <trkpt lat="49.09643" lon="-1.45385">
        <ele>79.71576</ele>
        <time>2015-06-05T12:30:16Z</time>
      </trkpt>
      <trkpt lat="49.09651" lon="-1.45388">
        <ele>78.77958</ele>
        <time>2015-06-05T12:30:21Z</time>
      </trkpt>
      <trkpt lat="49.09661" lon="-1.45393">
        <ele>77.902664</ele>
        <time>2015-06-05T12:30:26Z</time>
      </trkpt>
      <trkpt lat="49.09664" lon="-1.45393">
        <ele>77.902664</ele>
        <time>2015-06-05T12:30:31Z</time>
      </trkpt>
      <trkpt lat="49.09664" lon="-1.45394">
        <ele>77.902664</ele>
        <time>2015-06-05T12:30:36Z</time>
      </trkpt>
      <trkpt lat="49.09664" lon="-1.45394">
        <ele>77.902664</ele>
        <time>2015-06-05T12:30:41Z</time>
      </trkpt>
      <trkpt lat="49.09664" lon="-1.45396">
        <ele>77.902664</ele>
        <time>2015-06-05T12:30:46Z</time>
      </trkpt>
      <trkpt lat="49.09665" lon="-1.45397">
        <ele>77.902664</ele>
        <time>2015-06-05T12:30:51Z</time>
      </trkpt>
      <trkpt lat="49.09666" lon="-1.45396">
        <ele>77.902664</ele>
        <time>2015-06-05T12:30:56Z</time>
      </trkpt>
      <trkpt lat="49.09666" lon="-1.45395">
        <ele>77.902664</ele>
        <time>2015-06-05T12:31:01Z</time>
      </trkpt>
      <trkpt lat="49.09666" lon="-1.45395">
        <ele>77.902664</ele>
        <time>2015-06-05T12:31:06Z</time>
      </trkpt>
      <trkpt lat="49.09666" lon="-1.45395">
        <ele>77.902664</ele>
        <time>2015-06-05T12:31:11Z</time>
      </trkpt>
      <trkpt lat="49.09666" lon="-1.45394">
        <ele>77.902664</ele>
        <time>2015-06-05T12:31:16Z</time>
      </trkpt>
      <trkpt lat="49.09667" lon="-1.45394">
        <ele>77.902664</ele>
        <time>2015-06-05T12:31:21Z</time>
      </trkpt>
      <trkpt lat="49.09666" lon="-1.45394">
        <ele>77.902664</ele>
        <time>2015-06-05T12:31:26Z</time>
      </trkpt>
      <trkpt lat="49.09666" lon="-1.45395">
        <ele>76.6927</ele>
        <time>2015-06-05T12:31:31Z</time>
      </trkpt>
      <trkpt lat="49.09666" lon="-1.45394">
        <ele>76.6927</ele>
        <time>2015-06-05T12:31:36Z</time>
      </trkpt>
      <trkpt lat="49.09666" lon="-1.45393">
        <ele>76.6927</ele>
        <time>2015-06-05T12:31:41Z</time>
      </trkpt>
      <trkpt lat="49.09666" lon="-1.45393">
        <ele>76.6927</ele>
        <time>2015-06-05T12:31:46Z</time>
      </trkpt>
      <trkpt lat="49.09666" lon="-1.45393">
        <ele>76.6927</ele>
        <time>2015-06-05T12:31:51Z</time>
      </trkpt>
      <trkpt lat="49.09666" lon="-1.45393">
        <ele>76.6927</ele>
        <time>2015-06-05T12:31:56Z</time>
      </trkpt>
      <trkpt lat="49.09667" lon="-1.45393">
        <ele>76.6927</ele>
        <time>2015-06-05T12:32:01Z</time>
      </trkpt>
      <trkpt lat="49.09667" lon="-1.45393">
        <ele>76.6927</ele>
        <time>2015-06-05T12:32:06Z</time>
      </trkpt>
      <trkpt lat="49.09666" lon="-1.45395">
        <ele>76.6927</ele>
        <time>2015-06-05T12:32:11Z</time>
      </trkpt>
      <trkpt lat="49.09665" lon="-1.45394">
        <ele>76.6927</ele>
        <time>2015-06-05T12:32:16Z</time>
      </trkpt>
      <trkpt lat="49.09665" lon="-1.45394">
        <ele>76.6927</ele>
        <time>2015-06-05T12:32:21Z</time>
      </trkpt>
      <trkpt lat="49.09665" lon="-1.45394">
        <ele>76.6927</ele>
        <time>2015-06-05T12:32:26Z</time>
      </trkpt>
      <trkpt lat="49.09664" lon="-1.45396">
        <ele>76.6927</ele>
        <time>2015-06-05T12:32:31Z</time>
      </trkpt>
      <trkpt lat="49.09665" lon="-1.45395">
        <ele>76.6927</ele>
        <time>2015-06-05T12:32:36Z</time>
      </trkpt>
      <trkpt lat="49.09664" lon="-1.45395">
        <ele>76.6927</ele>
        <time>2015-06-05T12:32:41Z</time>
      </trkpt>
      <trkpt lat="49.09664" lon="-1.45396">
        <ele>76.6927</ele>
        <time>2015-06-05T12:32:46Z</time>
      </trkpt>
      <trkpt lat="49.09663" lon="-1.45396">
        <ele>76.6927</ele>
        <time>2015-06-05T12:32:51Z</time>
      </trkpt>
      <trkpt lat="49.09663" lon="-1.45397">
        <ele>75.305885</ele>
        <time>2015-06-05T12:32:56Z</time>
      </trkpt>
      <trkpt lat="49.09664" lon="-1.45398">
        <ele>75.305885</ele>
        <time>2015-06-05T12:33:01Z</time>
      </trkpt>
      <trkpt lat="49.09664" lon="-1.45401">
        <ele>75.305885</ele>
        <time>2015-06-05T12:33:06Z</time>
      </trkpt>
      <trkpt lat="49.09664" lon="-1.45412">
        <ele>74.017075</ele>
        <time>2015-06-05T12:33:11Z</time>
      </trkpt>
      <trkpt lat="49.09666" lon="-1.45423">
        <ele>74.017075</ele>
        <time>2015-06-05T12:33:16Z</time>
      </trkpt>
      <trkpt lat="49.09668" lon="-1.4543">
        <ele>72.93649</ele>
        <time>2015-06-05T12:33:21Z</time>
      </trkpt>
      <trkpt lat="49.09671" lon="-1.45439">
        <ele>72.93649</ele>
        <time>2015-06-05T12:33:26Z</time>
      </trkpt>
      <trkpt lat="49.09673" lon="-1.45445">
        <ele>72.05034</ele>
        <time>2015-06-05T12:33:31Z</time>
      </trkpt>
      <trkpt lat="49.09677" lon="-1.45454">
        <ele>72.05034</ele>
        <time>2015-06-05T12:33:36Z</time>
      </trkpt>
      <trkpt lat="49.09678" lon="-1.4546">
        <ele>71.34523</ele>
        <time>2015-06-05T12:33:41Z</time>
      </trkpt>
      <trkpt lat="49.09681" lon="-1.45467">
        <ele>71.34523</ele>
        <time>2015-06-05T12:33:46Z</time>
      </trkpt>
      <trkpt lat="49.09682" lon="-1.45475">
        <ele>70.692924</ele>
        <time>2015-06-05T12:33:51Z</time>
      </trkpt>
      <trkpt lat="49.09682" lon="-1.45482">
        <ele>70.692924</ele>
        <time>2015-06-05T12:33:56Z</time>
      </trkpt>
      <trkpt lat="49.09684" lon="-1.45493">
        <ele>70.07525</ele>
        <time>2015-06-05T12:34:01Z</time>
      </trkpt>
      <trkpt lat="49.09685" lon="-1.45504">
        <ele>70.07525</ele>
        <time>2015-06-05T12:34:06Z</time>
      </trkpt>
      <trkpt lat="49.09684" lon="-1.45513">
        <ele>69.56172</ele>
        <time>2015-06-05T12:34:11Z</time>
      </trkpt>
      <trkpt lat="49.09685" lon="-1.45521">
        <ele>69.56172</ele>
        <time>2015-06-05T12:34:16Z</time>
      </trkpt>
      <trkpt lat="49.09687" lon="-1.4553">
        <ele>69.12993</ele>
        <time>2015-06-05T12:34:21Z</time>
      </trkpt>
      <trkpt lat="49.09688" lon="-1.45539">
        <ele>69.12993</ele>
        <time>2015-06-05T12:34:26Z</time>
      </trkpt>
      <trkpt lat="49.09687" lon="-1.45549">
        <ele>68.80208</ele>
        <time>2015-06-05T12:34:31Z</time>
      </trkpt>
      <trkpt lat="49.09688" lon="-1.45558">
        <ele>68.80208</ele>
        <time>2015-06-05T12:34:36Z</time>
      </trkpt>
      <trkpt lat="49.09689" lon="-1.45566">
        <ele>68.55517</ele>
        <time>2015-06-05T12:34:41Z</time>
      </trkpt>
      <trkpt lat="49.09689" lon="-1.45576">
        <ele>68.55517</ele>
        <time>2015-06-05T12:34:46Z</time>
      </trkpt>
      <trkpt lat="49.09691" lon="-1.45582">
        <ele>68.36765</ele>
        <time>2015-06-05T12:34:51Z</time>
      </trkpt>
      <trkpt lat="49.09693" lon="-1.45591">
        <ele>68.36765</ele>
        <time>2015-06-05T12:34:56Z</time>
      </trkpt>
      <trkpt lat="49.09695" lon="-1.45598">
        <ele>68.132904</ele>
        <time>2015-06-05T12:35:01Z</time>
      </trkpt>
      <trkpt lat="49.09698" lon="-1.45607">
        <ele>68.132904</ele>
        <time>2015-06-05T12:35:06Z</time>
      </trkpt>
      <trkpt lat="49.097" lon="-1.45615">
        <ele>67.89635</ele>
        <time>2015-06-05T12:35:11Z</time>
      </trkpt>
      <trkpt lat="49.09701" lon="-1.45626">
        <ele>67.89635</ele>
        <time>2015-06-05T12:35:16Z</time>
      </trkpt>
      <trkpt lat="49.097" lon="-1.45637">
        <ele>67.7433</ele>
        <time>2015-06-05T12:35:21Z</time>
      </trkpt>
      <trkpt lat="49.09701" lon="-1.45646">
        <ele>67.7433</ele>
        <time>2015-06-05T12:35:26Z</time>
      </trkpt>
      <trkpt lat="49.09702" lon="-1.45656">
        <ele>67.62287</ele>
        <time>2015-06-05T12:35:31Z</time>
      </trkpt>
      <trkpt lat="49.09703" lon="-1.45663">
        <ele>67.62287</ele>
        <time>2015-06-05T12:35:36Z</time>
      </trkpt>
      <trkpt lat="49.09704" lon="-1.45673">
        <ele>67.55986</ele>
        <time>2015-06-05T12:35:41Z</time>
      </trkpt>
      <trkpt lat="49.09704" lon="-1.45681">
        <ele>67.55986</ele>
        <time>2015-06-05T12:35:46Z</time>
      </trkpt>
      <trkpt lat="49.09708" lon="-1.45691">
        <ele>67.49064</ele>
        <time>2015-06-05T12:35:51Z</time>
      </trkpt>
      <trkpt lat="49.09709" lon="-1.45699">
        <ele>67.49064</ele>
        <time>2015-06-05T12:35:56Z</time>
      </trkpt>
      <trkpt lat="49.09708" lon="-1.45708">
        <ele>67.442726</ele>
        <time>2015-06-05T12:36:01Z</time>
      </trkpt>
      <trkpt lat="49.09708" lon="-1.45711">
        <ele>67.442726</ele>
        <time>2015-06-05T12:36:06Z</time>
      </trkpt>
      <trkpt lat="49.09711" lon="-1.4571">
        <ele>67.442726</ele>
        <time>2015-06-05T12:36:11Z</time>
      </trkpt>
      <trkpt lat="49.0971" lon="-1.45706">
        <ele>67.442726</ele>
        <time>2015-06-05T12:36:16Z</time>
      </trkpt>
      <trkpt lat="49.0971" lon="-1.45703">
        <ele>67.54246</ele>
        <time>2015-06-05T12:36:21Z</time>
      </trkpt>
      <trkpt lat="49.0971" lon="-1.45702">
        <ele>67.54246</ele>
        <time>2015-06-05T12:36:26Z</time>
      </trkpt>
      <trkpt lat="49.09711" lon="-1.45702">
        <ele>67.54246</ele>
        <time>2015-06-05T12:36:31Z</time>
      </trkpt>
      <trkpt lat="49.09712" lon="-1.45699">
        <ele>67.54246</ele>
        <time>2015-06-05T12:36:36Z</time>
      </trkpt>
      <trkpt lat="49.09712" lon="-1.45698">
        <ele>67.54246</ele>
        <time>2015-06-05T12:36:41Z</time>
      </trkpt>
      <trkpt lat="49.09711" lon="-1.45697">
        <ele>67.54246</ele>
        <time>2015-06-05T12:36:46Z</time>
      </trkpt>
      <trkpt lat="49.0971" lon="-1.45699">
        <ele>67.54246</ele>
        <time>2015-06-05T12:36:51Z</time>
      </trkpt>
      <trkpt lat="49.09709" lon="-1.45699">
        <ele>67.54246</ele>
        <time>2015-06-05T12:36:56Z</time>
      </trkpt>
      <trkpt lat="49.0971" lon="-1.45699">
        <ele>67.964134</ele>
        <time>2015-06-05T12:37:01Z</time>
      </trkpt>
      <trkpt lat="49.09711" lon="-1.457">
        <ele>67.964134</ele>
        <time>2015-06-05T12:37:06Z</time>
      </trkpt>
      <trkpt lat="49.09711" lon="-1.45701">
        <ele>67.964134</ele>
        <time>2015-06-05T12:37:11Z</time>
      </trkpt>
      <trkpt lat="49.0971" lon="-1.45703">
        <ele>67.964134</ele>
        <time>2015-06-05T12:37:16Z</time>
      </trkpt>
      <trkpt lat="49.0971" lon="-1.45703">
        <ele>67.964134</ele>
        <time>2015-06-05T12:37:21Z</time>
      </trkpt>
      <trkpt lat="49.09711" lon="-1.45703">
        <ele>67.964134</ele>
        <time>2015-06-05T12:37:26Z</time>
      </trkpt>
      <trkpt lat="49.09711" lon="-1.45703">
        <ele>67.964134</ele>
        <time>2015-06-05T12:37:31Z</time>
      </trkpt>
      <trkpt lat="49.09711" lon="-1.45704">
        <ele>67.964134</ele>
        <time>2015-06-05T12:37:36Z</time>
      </trkpt>
      <trkpt lat="49.09711" lon="-1.45705">
        <ele>67.964134</ele>
        <time>2015-06-05T12:37:41Z</time>
      </trkpt>
      <trkpt lat="49.0971" lon="-1.45707">
        <ele>67.964134</ele>
        <time>2015-06-05T12:37:46Z</time>
      </trkpt>
      <trkpt lat="49.0971" lon="-1.45707">
        <ele>67.964134</ele>
        <time>2015-06-05T12:37:51Z</time>
      </trkpt>
      <trkpt lat="49.09709" lon="-1.45706">
        <ele>68.061356</ele>
        <time>2015-06-05T12:37:56Z</time>
      </trkpt>
      <trkpt lat="49.09709" lon="-1.45705">
        <ele>68.061356</ele>
        <time>2015-06-05T12:38:01Z</time>
      </trkpt>
      <trkpt lat="49.09709" lon="-1.45706">
        <ele>68.061356</ele>
        <time>2015-06-05T12:38:06Z</time>
      </trkpt>
      <trkpt lat="49.09709" lon="-1.45705">
        <ele>68.061356</ele>
        <time>2015-06-05T12:38:11Z</time>
      </trkpt>
      <trkpt lat="49.09708" lon="-1.45705">
        <ele>68.061356</ele>
        <time>2015-06-05T12:38:16Z</time>
      </trkpt>
      <trkpt lat="49.09708" lon="-1.45706">
        <ele>68.061356</ele>
        <time>2015-06-05T12:38:21Z</time>
      </trkpt>
      <trkpt lat="49.09708" lon="-1.45706">
        <ele>68.061356</ele>
        <time>2015-06-05T12:38:26Z</time>
      </trkpt>
      <trkpt lat="49.09708" lon="-1.45707">
        <ele>68.061356</ele>
        <time>2015-06-05T12:38:31Z</time>
      </trkpt>
      <trkpt lat="49.09709" lon="-1.45708">
        <ele>68.061356</ele>
        <time>2015-06-05T12:38:36Z</time>
      </trkpt>
      <trkpt lat="49.09708" lon="-1.45708">
        <ele>68.061356</ele>
        <time>2015-06-05T12:38:41Z</time>
      </trkpt>
      <trkpt lat="49.09707" lon="-1.45708">
        <ele>68.061356</ele>
        <time>2015-06-05T12:38:46Z</time>
      </trkpt>
      <trkpt lat="49.09706" lon="-1.45707">
        <ele>68.061356</ele>
        <time>2015-06-05T12:38:51Z</time>
      </trkpt>
      <trkpt lat="49.09706" lon="-1.45706">
        <ele>68.061356</ele>
        <time>2015-06-05T12:38:56Z</time>
      </trkpt>
      <trkpt lat="49.09706" lon="-1.45706">
        <ele>68.061356</ele>
        <time>2015-06-05T12:39:01Z</time>
      </trkpt>
      <trkpt lat="49.09708" lon="-1.45706">
        <ele>68.24492</ele>
        <time>2015-06-05T12:39:06Z</time>
      </trkpt>
      <trkpt lat="49.09709" lon="-1.45705">
        <ele>68.24492</ele>
        <time>2015-06-05T12:39:11Z</time>
      </trkpt>
      <trkpt lat="49.09709" lon="-1.45705">
        <ele>68.24492</ele>
        <time>2015-06-05T12:39:16Z</time>
      </trkpt>
      <trkpt lat="49.0971" lon="-1.45705">
        <ele>68.24492</ele>
        <time>2015-06-05T12:39:21Z</time>
      </trkpt>
      <trkpt lat="49.09709" lon="-1.45704">
        <ele>68.24492</ele>
        <time>2015-06-05T12:39:26Z</time>
      </trkpt>
      <trkpt lat="49.09709" lon="-1.45703">
        <ele>68.24492</ele>
        <time>2015-06-05T12:39:31Z</time>
      </trkpt>
      <trkpt lat="49.0971" lon="-1.45704">
        <ele>68.24492</ele>
        <time>2015-06-05T12:39:36Z</time>
      </trkpt>
      <trkpt lat="49.09713" lon="-1.45704">
        <ele>68.24492</ele>
        <time>2015-06-05T12:39:41Z</time>
      </trkpt>
      <trkpt lat="49.09716" lon="-1.45705">
        <ele>68.4629</ele>
        <time>2015-06-05T12:39:46Z</time>
      </trkpt>
      <trkpt lat="49.09718" lon="-1.45706">
        <ele>68.4629</ele>
        <time>2015-06-05T12:39:51Z</time>
      </trkpt>
      <trkpt lat="49.0972" lon="-1.45703">
        <ele>68.4629</ele>
        <time>2015-06-05T12:39:56Z</time>
      </trkpt>
      <trkpt lat="49.09724" lon="-1.45699">
        <ele>68.4629</ele>
        <time>2015-06-05T12:40:01Z</time>
      </trkpt>
      <trkpt lat="49.09733" lon="-1.45693">
        <ele>68.84007</ele>
        <time>2015-06-05T12:40:06Z</time>
      </trkpt>
      <trkpt lat="49.09735" lon="-1.45691">
        <ele>68.84007</ele>
        <time>2015-06-05T12:40:11Z</time>
      </trkpt>
      <trkpt lat="49.09739" lon="-1.45691">
        <ele>68.84007</ele>
        <time>2015-06-05T12:40:16Z</time>
      </trkpt>
      <trkpt lat="49.09742" lon="-1.45689">
        <ele>69.246635</ele>
        <time>2015-06-05T12:40:21Z</time>
      </trkpt>
      <trkpt lat="49.09747" lon="-1.45689">
        <ele>69.246635</ele>
        <time>2015-06-05T12:40:26Z</time>
      </trkpt>
      <trkpt lat="49.09755" lon="-1.45687">
        <ele>69.59113</ele>
        <time>2015-06-05T12:40:31Z</time>
      </trkpt>
      <trkpt lat="49.09759" lon="-1.45683">
        <ele>69.59113</ele>
        <time>2015-06-05T12:40:36Z</time>
      </trkpt>
      <trkpt lat="49.09764" lon="-1.4568">
        <ele>69.8755</ele>
        <time>2015-06-05T12:40:41Z</time>
      </trkpt>
      <trkpt lat="49.09768" lon="-1.45677">
        <ele>69.8755</ele>
        <time>2015-06-05T12:40:46Z</time>
      </trkpt>
      <trkpt lat="49.09773" lon="-1.45673">
        <ele>70.1306</ele>
        <time>2015-06-05T12:40:51Z</time>
      </trkpt>
      <trkpt lat="49.09779" lon="-1.45671">
        <ele>70.1306</ele>
        <time>2015-06-05T12:40:56Z</time>
      </trkpt>
      <trkpt lat="49.09785" lon="-1.4567">
        <ele>70.38515</ele>
        <time>2015-06-05T12:41:01Z</time>
      </trkpt>
      <trkpt lat="49.09789" lon="-1.45667">
        <ele>70.38515</ele>
        <time>2015-06-05T12:41:06Z</time>
      </trkpt>
      <trkpt lat="49.09792" lon="-1.45663">
        <ele>70.38515</ele>
        <time>2015-06-05T12:41:11Z</time>
      </trkpt>
      <trkpt lat="49.09795" lon="-1.45663">
        <ele>70.60818</ele>
        <time>2015-06-05T12:41:16Z</time>
      </trkpt>
      <trkpt lat="49.098" lon="-1.4566">
        <ele>70.60818</ele>
        <time>2015-06-05T12:41:21Z</time>
      </trkpt>
      <trkpt lat="49.09805" lon="-1.45658">
        <ele>70.77114</ele>
        <time>2015-06-05T12:41:26Z</time>
      </trkpt>
      <trkpt lat="49.09809" lon="-1.45658">
        <ele>70.77114</ele>
        <time>2015-06-05T12:41:31Z</time>
      </trkpt>
      <trkpt lat="49.09814" lon="-1.45656">
        <ele>70.833435</ele>
        <time>2015-06-05T12:41:36Z</time>
      </trkpt>
      <trkpt lat="49.09822" lon="-1.45654">
        <ele>70.833435</ele>
        <time>2015-06-05T12:41:41Z</time>
      </trkpt>
      <trkpt lat="49.09827" lon="-1.45652">
        <ele>70.75776</ele>
        <time>2015-06-05T12:41:46Z</time>
      </trkpt>
      <trkpt lat="49.09835" lon="-1.45652">
        <ele>70.75776</ele>
        <time>2015-06-05T12:41:51Z</time>
      </trkpt>
      <trkpt lat="49.09842" lon="-1.45651">
        <ele>70.59648</ele>
        <time>2015-06-05T12:41:56Z</time>
      </trkpt>
      <trkpt lat="49.0985" lon="-1.45648">
        <ele>70.59648</ele>
        <time>2015-06-05T12:42:01Z</time>
      </trkpt>
      <trkpt lat="49.09852" lon="-1.45648">
        <ele>70.398415</ele>
        <time>2015-06-05T12:42:06Z</time>
      </trkpt>
      <trkpt lat="49.09856" lon="-1.45646">
        <ele>70.398415</ele>
        <time>2015-06-05T12:42:11Z</time>
      </trkpt>
      <trkpt lat="49.0986" lon="-1.45646">
        <ele>70.398415</ele>
        <time>2015-06-05T12:42:16Z</time>
      </trkpt>
      <trkpt lat="49.09866" lon="-1.45644">
        <ele>70.15133</ele>
        <time>2015-06-05T12:42:21Z</time>
      </trkpt>
      <trkpt lat="49.09871" lon="-1.45641">
        <ele>70.15133</ele>
        <time>2015-06-05T12:42:26Z</time>
      </trkpt>
      <trkpt lat="49.09876" lon="-1.45645">
        <ele>69.93054</ele>
        <time>2015-06-05T12:42:31Z</time>
      </trkpt>
      <trkpt lat="49.09878" lon="-1.45651">
        <ele>69.93054</ele>
        <time>2015-06-05T12:42:36Z</time>
      </trkpt>
      <trkpt lat="49.0988" lon="-1.45656">
        <ele>69.93054</ele>
        <time>2015-06-05T12:42:41Z</time>
      </trkpt>
      <trkpt lat="49.0988" lon="-1.45658">
        <ele>69.77698</ele>
        <time>2015-06-05T12:42:46Z</time>
      </trkpt>
      <trkpt lat="49.09881" lon="-1.4566">
        <ele>69.77698</ele>
        <time>2015-06-05T12:42:51Z</time>
      </trkpt>
      <trkpt lat="49.09883" lon="-1.45668">
        <ele>69.77698</ele>
        <time>2015-06-05T12:42:56Z</time>
      </trkpt>
      <trkpt lat="49.09883" lon="-1.45677">
        <ele>69.69962</ele>
        <time>2015-06-05T12:43:01Z</time>
      </trkpt>
      <trkpt lat="49.09885" lon="-1.45683">
        <ele>69.69962</ele>
        <time>2015-06-05T12:43:06Z</time>
      </trkpt>
      <trkpt lat="49.09887" lon="-1.45689">
        <ele>69.69962</ele>
        <time>2015-06-05T12:43:11Z</time>
      </trkpt>
      <trkpt lat="49.09888" lon="-1.45695">
        <ele>69.54811</ele>
        <time>2015-06-05T12:43:16Z</time>
      </trkpt>
      <trkpt lat="49.0989" lon="-1.45701">
        <ele>69.54811</ele>
        <time>2015-06-05T12:43:21Z</time>
      </trkpt>
      <trkpt lat="49.09893" lon="-1.45707">
        <ele>69.54363</ele>
        <time>2015-06-05T12:43:26Z</time>
      </trkpt>
      <trkpt lat="49.09897" lon="-1.45716">
        <ele>69.54363</ele>
        <time>2015-06-05T12:43:31Z</time>
      </trkpt>
      <trkpt lat="49.09899" lon="-1.45722">
        <ele>69.54493</ele>
        <time>2015-06-05T12:43:36Z</time>
      </trkpt>
      <trkpt lat="49.09899" lon="-1.45729">
        <ele>69.54493</ele>
        <time>2015-06-05T12:43:41Z</time>
      </trkpt>
      <trkpt lat="49.09901" lon="-1.45735">
        <ele>69.54493</ele>
        <time>2015-06-05T12:43:46Z</time>
      </trkpt>
      <trkpt lat="49.09904" lon="-1.45741">
        <ele>69.55083</ele>
        <time>2015-06-05T12:43:51Z</time>
      </trkpt>
      <trkpt lat="49.09908" lon="-1.45751">
        <ele>69.55083</ele>
        <time>2015-06-05T12:43:56Z</time>
      </trkpt>
      <trkpt lat="49.0991" lon="-1.45757">
        <ele>69.57468</ele>
        <time>2015-06-05T12:44:01Z</time>
      </trkpt>
      <trkpt lat="49.09913" lon="-1.45766">
        <ele>69.57468</ele>
        <time>2015-06-05T12:44:06Z</time>
      </trkpt>
      <trkpt lat="49.09914" lon="-1.4577">
        <ele>69.60002</ele>
        <time>2015-06-05T12:44:11Z</time>
      </trkpt>
      <trkpt lat="49.09917" lon="-1.45777">
        <ele>69.60002</ele>
        <time>2015-06-05T12:44:16Z</time>
      </trkpt>
      <trkpt lat="49.0992" lon="-1.45785">
        <ele>69.64047</ele>
        <time>2015-06-05T12:44:21Z</time>
      </trkpt>
      <trkpt lat="49.09922" lon="-1.45791">
        <ele>69.64047</ele>
        <time>2015-06-05T12:44:26Z</time>
      </trkpt>
      <trkpt lat="49.09924" lon="-1.45797">
        <ele>69.64047</ele>
        <time>2015-06-05T12:44:31Z</time>
      </trkpt>
      <trkpt lat="49.09926" lon="-1.45803">
        <ele>69.83835</ele>
        <time>2015-06-05T12:44:36Z</time>
      </trkpt>
      <trkpt lat="49.09928" lon="-1.45812">
        <ele>69.83835</ele>
        <time>2015-06-05T12:44:41Z</time>
      </trkpt>
      <trkpt lat="49.0993" lon="-1.45818">
        <ele>70.051285</ele>
        <time>2015-06-05T12:44:46Z</time>
      </trkpt>
      <trkpt lat="49.09932" lon="-1.45824">
        <ele>70.051285</ele>
        <time>2015-06-05T12:44:51Z</time>
      </trkpt>
      <trkpt lat="49.09934" lon="-1.45829">
        <ele>70.051285</ele>
        <time>2015-06-05T12:44:56Z</time>
      </trkpt>
      <trkpt lat="49.09934" lon="-1.45833">
        <ele>70.29149</ele>
        <time>2015-06-05T12:45:01Z</time>
      </trkpt>
      <trkpt lat="49.09937" lon="-1.45838">
        <ele>70.29149</ele>
        <time>2015-06-05T12:45:06Z</time>
      </trkpt>
      <trkpt lat="49.09939" lon="-1.45846">
        <ele>70.58464</ele>
        <time>2015-06-05T12:45:11Z</time>
      </trkpt>
      <trkpt lat="49.09944" lon="-1.45858">
        <ele>70.940025</ele>
        <time>2015-06-05T12:45:16Z</time>
      </trkpt>
      <trkpt lat="49.09947" lon="-1.45867">
        <ele>70.940025</ele>
        <time>2015-06-05T12:45:21Z</time>
      </trkpt>
      <trkpt lat="49.09946" lon="-1.45878">
        <ele>71.30846</ele>
        <time>2015-06-05T12:45:26Z</time>
      </trkpt>
      <trkpt lat="49.09947" lon="-1.45887">
        <ele>71.30846</ele>
        <time>2015-06-05T12:45:31Z</time>
      </trkpt>
      <trkpt lat="49.09947" lon="-1.45894">
        <ele>71.62996</ele>
        <time>2015-06-05T12:45:36Z</time>
      </trkpt>
      <trkpt lat="49.09948" lon="-1.45901">
        <ele>71.62996</ele>
        <time>2015-06-05T12:45:41Z</time>
      </trkpt>
      <trkpt lat="49.0995" lon="-1.4591">
        <ele>71.921196</ele>
        <time>2015-06-05T12:45:46Z</time>
      </trkpt>
      <trkpt lat="49.09952" lon="-1.45917">
        <ele>71.921196</ele>
        <time>2015-06-05T12:45:51Z</time>
      </trkpt>
      <trkpt lat="49.09954" lon="-1.45922">
        <ele>71.921196</ele>
        <time>2015-06-05T12:45:56Z</time>
      </trkpt>
      <trkpt lat="49.09955" lon="-1.45929">
        <ele>72.14008</ele>
        <time>2015-06-05T12:46:01Z</time>
      </trkpt>
      <trkpt lat="49.09958" lon="-1.45941">
        <ele>72.14008</ele>
        <time>2015-06-05T12:46:06Z</time>
      </trkpt>
      <trkpt lat="49.09958" lon="-1.4595">
        <ele>72.348755</ele>
        <time>2015-06-05T12:46:11Z</time>
      </trkpt>
      <trkpt lat="49.09961" lon="-1.4596">
        <ele>72.348755</ele>
        <time>2015-06-05T12:46:16Z</time>
      </trkpt>
      <trkpt lat="49.09963" lon="-1.45971">
        <ele>72.5472</ele>
        <time>2015-06-05T12:46:21Z</time>
      </trkpt>
      <trkpt lat="49.09964" lon="-1.45978">
        <ele>72.5472</ele>
        <time>2015-06-05T12:46:26Z</time>
      </trkpt>
      <trkpt lat="49.09966" lon="-1.45985">
        <ele>72.8652</ele>
        <time>2015-06-05T12:46:31Z</time>
      </trkpt>
      <trkpt lat="49.09969" lon="-1.45993">
        <ele>72.8652</ele>
        <time>2015-06-05T12:46:36Z</time>
      </trkpt>
      <trkpt lat="49.09971" lon="-1.46">
        <ele>73.22092</ele>
        <time>2015-06-05T12:46:41Z</time>
      </trkpt>
      <trkpt lat="49.09972" lon="-1.46007">
        <ele>73.22092</ele>
        <time>2015-06-05T12:46:46Z</time>
      </trkpt>
      <trkpt lat="49.09973" lon="-1.46015">
        <ele>73.55291</ele>
        <time>2015-06-05T12:46:51Z</time>
      </trkpt>
      <trkpt lat="49.09975" lon="-1.46024">
        <ele>73.55291</ele>
        <time>2015-06-05T12:46:56Z</time>
      </trkpt>
      <trkpt lat="49.09977" lon="-1.46033">
        <ele>73.905205</ele>
        <time>2015-06-05T12:47:01Z</time>
      </trkpt>
      <trkpt lat="49.09979" lon="-1.46041">
        <ele>73.905205</ele>
        <time>2015-06-05T12:47:06Z</time>
      </trkpt>
      <trkpt lat="49.09981" lon="-1.46048">
        <ele>74.23212</ele>
        <time>2015-06-05T12:47:11Z</time>
      </trkpt>
      <trkpt lat="49.09982" lon="-1.46053">
        <ele>74.23212</ele>
        <time>2015-06-05T12:47:16Z</time>
      </trkpt>
      <trkpt lat="49.09984" lon="-1.46064">
        <ele>74.49144</ele>
        <time>2015-06-05T12:47:21Z</time>
      </trkpt>
      <trkpt lat="49.09986" lon="-1.46073">
        <ele>74.49144</ele>
        <time>2015-06-05T12:47:26Z</time>
      </trkpt>
      <trkpt lat="49.09988" lon="-1.46082">
        <ele>74.74516</ele>
        <time>2015-06-05T12:47:31Z</time>
      </trkpt>
      <trkpt lat="49.0999" lon="-1.46089">
        <ele>74.74516</ele>
        <time>2015-06-05T12:47:36Z</time>
      </trkpt>
      <trkpt lat="49.0999" lon="-1.46095">
        <ele>75.02196</ele>
        <time>2015-06-05T12:47:41Z</time>
      </trkpt>
      <trkpt lat="49.09992" lon="-1.46104">
        <ele>75.02196</ele>
        <time>2015-06-05T12:47:46Z</time>
      </trkpt>
      <trkpt lat="49.09996" lon="-1.46114">
        <ele>75.276306</ele>
        <time>2015-06-05T12:47:51Z</time>
      </trkpt>
      <trkpt lat="49.09998" lon="-1.46124">
        <ele>75.276306</ele>
        <time>2015-06-05T12:47:56Z</time>
      </trkpt>
      <trkpt lat="49.09999" lon="-1.46131">
        <ele>75.4229</ele>
        <time>2015-06-05T12:48:01Z</time>
      </trkpt>
      <trkpt lat="49.10001" lon="-1.46141">
        <ele>75.4229</ele>
        <time>2015-06-05T12:48:06Z</time>
      </trkpt>
      <trkpt lat="49.10003" lon="-1.46152">
        <ele>75.46948</ele>
        <time>2015-06-05T12:48:11Z</time>
      </trkpt>
      <trkpt lat="49.10004" lon="-1.46161">
        <ele>75.46948</ele>
        <time>2015-06-05T12:48:16Z</time>
      </trkpt>
      <trkpt lat="49.10005" lon="-1.46171">
        <ele>75.495636</ele>
        <time>2015-06-05T12:48:21Z</time>
      </trkpt>
      <trkpt lat="49.10006" lon="-1.4618">
        <ele>75.495636</ele>
        <time>2015-06-05T12:48:26Z</time>
      </trkpt>
      <trkpt lat="49.10008" lon="-1.46188">
        <ele>75.517494</ele>
        <time>2015-06-05T12:48:31Z</time>
      </trkpt>
      <trkpt lat="49.1001" lon="-1.462">
        <ele>75.517494</ele>
        <time>2015-06-05T12:48:36Z</time>
      </trkpt>
      <trkpt lat="49.10011" lon="-1.46211">
        <ele>75.535675</ele>
        <time>2015-06-05T12:48:41Z</time>
      </trkpt>
      <trkpt lat="49.10012" lon="-1.46221">
        <ele>75.535675</ele>
        <time>2015-06-05T12:48:46Z</time>
      </trkpt>
      <trkpt lat="49.10013" lon="-1.46231">
        <ele>75.52192</ele>
        <time>2015-06-05T12:48:51Z</time>
      </trkpt>
      <trkpt lat="49.10013" lon="-1.46239">
        <ele>75.52192</ele>
        <time>2015-06-05T12:48:56Z</time>
      </trkpt>
      <trkpt lat="49.10014" lon="-1.4625">
        <ele>75.47902</ele>
        <time>2015-06-05T12:49:01Z</time>
      </trkpt>
      <trkpt lat="49.10014" lon="-1.46257">
        <ele>75.47902</ele>
        <time>2015-06-05T12:49:06Z</time>
      </trkpt>
      <trkpt lat="49.10017" lon="-1.46268">
        <ele>75.39522</ele>
        <time>2015-06-05T12:49:11Z</time>
      </trkpt>
      <trkpt lat="49.10016" lon="-1.46277">
        <ele>75.39522</ele>
        <time>2015-06-05T12:49:16Z</time>
      </trkpt>
      <trkpt lat="49.10016" lon="-1.46286">
        <ele>75.23094</ele>
        <time>2015-06-05T12:49:21Z</time>
      </trkpt>
      <trkpt lat="49.10018" lon="-1.46292">
        <ele>75.23094</ele>
        <time>2015-06-05T12:49:26Z</time>
      </trkpt>
      <trkpt lat="49.10019" lon="-1.463">
        <ele>75.06506</ele>
        <time>2015-06-05T12:49:31Z</time>
      </trkpt>
      <trkpt lat="49.1002" lon="-1.46308">
        <ele>75.06506</ele>
        <time>2015-06-05T12:49:36Z</time>
      </trkpt>
      <trkpt lat="49.10022" lon="-1.46318">
        <ele>74.92741</ele>
        <time>2015-06-05T12:49:41Z</time>
      </trkpt>
      <trkpt lat="49.10024" lon="-1.46324">
        <ele>74.92741</ele>
        <time>2015-06-05T12:49:46Z</time>
      </trkpt>
      <trkpt lat="49.10025" lon="-1.46331">
        <ele>74.75911</ele>
        <time>2015-06-05T12:49:51Z</time>
      </trkpt>
      <trkpt lat="49.10029" lon="-1.46342">
        <ele>74.75911</ele>
        <time>2015-06-05T12:49:56Z</time>
      </trkpt>
      <trkpt lat="49.1003" lon="-1.4635">
        <ele>74.54891</ele>
        <time>2015-06-05T12:50:01Z</time>
      </trkpt>
      <trkpt lat="49.10032" lon="-1.46359">
        <ele>74.54891</ele>
        <time>2015-06-05T12:50:06Z</time>
      </trkpt>
      <trkpt lat="49.10031" lon="-1.46367">
        <ele>74.24329</ele>
        <time>2015-06-05T12:50:11Z</time>
      </trkpt>
      <trkpt lat="49.10033" lon="-1.46375">
        <ele>74.24329</ele>
        <time>2015-06-05T12:50:16Z</time>
      </trkpt>
      <trkpt lat="49.10035" lon="-1.46383">
        <ele>73.95143</ele>
        <time>2015-06-05T12:50:21Z</time>
      </trkpt>
      <trkpt lat="49.10037" lon="-1.46392">
        <ele>73.95143</ele>
        <time>2015-06-05T12:50:26Z</time>
      </trkpt>
      <trkpt lat="49.10039" lon="-1.46403">
        <ele>73.731224</ele>
        <time>2015-06-05T12:50:31Z</time>
      </trkpt>
      <trkpt lat="49.10039" lon="-1.46409">
        <ele>73.731224</ele>
        <time>2015-06-05T12:50:36Z</time>
      </trkpt>
      <trkpt lat="49.10037" lon="-1.46417">
        <ele>73.60726</ele>
        <time>2015-06-05T12:50:41Z</time>
      </trkpt>
      <trkpt lat="49.10038" lon="-1.46424">
        <ele>73.60726</ele>
        <time>2015-06-05T12:50:46Z</time>
      </trkpt>
      <trkpt lat="49.10039" lon="-1.46434">
        <ele>73.602066</ele>
        <time>2015-06-05T12:50:51Z</time>
      </trkpt>
      <trkpt lat="49.1004" lon="-1.46441">
        <ele>73.602066</ele>
        <time>2015-06-05T12:50:56Z</time>
      </trkpt>
      <trkpt lat="49.10041" lon="-1.4645">
        <ele>73.63527</ele>
        <time>2015-06-05T12:51:01Z</time>
      </trkpt>
      <trkpt lat="49.10041" lon="-1.46459">
        <ele>73.63527</ele>
        <time>2015-06-05T12:51:06Z</time>
      </trkpt>
      <trkpt lat="49.10042" lon="-1.46467">
        <ele>73.67551</ele>
        <time>2015-06-05T12:51:11Z</time>
      </trkpt>
      <trkpt lat="49.10042" lon="-1.46475">
        <ele>73.67551</ele>
        <time>2015-06-05T12:51:16Z</time>
      </trkpt>
      <trkpt lat="49.10041" lon="-1.46482">
        <ele>73.72253</ele>
        <time>2015-06-05T12:51:21Z</time>
      </trkpt>
      <trkpt lat="49.10041" lon="-1.46493">
        <ele>73.72253</ele>
        <time>2015-06-05T12:51:26Z</time>
      </trkpt>
      <trkpt lat="49.10041" lon="-1.46503">
        <ele>73.804886</ele>
        <time>2015-06-05T12:51:31Z</time>
      </trkpt>
      <trkpt lat="49.10041" lon="-1.46513">
        <ele>73.804886</ele>
        <time>2015-06-05T12:51:36Z</time>
      </trkpt>
      <trkpt lat="49.1004" lon="-1.46522">
        <ele>73.948906</ele>
        <time>2015-06-05T12:51:41Z</time>
      </trkpt>
      <trkpt lat="49.10038" lon="-1.4653">
        <ele>73.948906</ele>
        <time>2015-06-05T12:51:46Z</time>
      </trkpt>
      <trkpt lat="49.10039" lon="-1.46538">
        <ele>74.034706</ele>
        <time>2015-06-05T12:51:51Z</time>
      </trkpt>
      <trkpt lat="49.10038" lon="-1.46545">
        <ele>74.034706</ele>
        <time>2015-06-05T12:51:56Z</time>
      </trkpt>
      <trkpt lat="49.10038" lon="-1.46554">
        <ele>74.0234</ele>
        <time>2015-06-05T12:52:01Z</time>
      </trkpt>
      <trkpt lat="49.10036" lon="-1.46564">
        <ele>74.0234</ele>
        <time>2015-06-05T12:52:06Z</time>
      </trkpt>
      <trkpt lat="49.10033" lon="-1.46574">
        <ele>74.05216</ele>
        <time>2015-06-05T12:52:11Z</time>
      </trkpt>
      <trkpt lat="49.10032" lon="-1.4658">
        <ele>74.05216</ele>
        <time>2015-06-05T12:52:16Z</time>
      </trkpt>
      <trkpt lat="49.10032" lon="-1.4659">
        <ele>74.10385</ele>
        <time>2015-06-05T12:52:21Z</time>
      </trkpt>
      <trkpt lat="49.10031" lon="-1.46599">
        <ele>74.10385</ele>
        <time>2015-06-05T12:52:26Z</time>
      </trkpt>
      <trkpt lat="49.1003" lon="-1.46608">
        <ele>74.032814</ele>
        <time>2015-06-05T12:52:31Z</time>
      </trkpt>
      <trkpt lat="49.10031" lon="-1.46615">
        <ele>74.032814</ele>
        <time>2015-06-05T12:52:36Z</time>
      </trkpt>
      <trkpt lat="49.10031" lon="-1.4662">
        <ele>74.032814</ele>
        <time>2015-06-05T12:52:41Z</time>
      </trkpt>
      <trkpt lat="49.10031" lon="-1.4663">
        <ele>73.96382</ele>
        <time>2015-06-05T12:52:46Z</time>
      </trkpt>
      <trkpt lat="49.1003" lon="-1.46642">
        <ele>73.96382</ele>
        <time>2015-06-05T12:52:51Z</time>
      </trkpt>
      <trkpt lat="49.10031" lon="-1.46649">
        <ele>73.89718</ele>
        <time>2015-06-05T12:52:56Z</time>
      </trkpt>
      <trkpt lat="49.10032" lon="-1.46654">
        <ele>73.89718</ele>
        <time>2015-06-05T12:53:01Z</time>
      </trkpt>
      <trkpt lat="49.10032" lon="-1.46663">
        <ele>73.86198</ele>
        <time>2015-06-05T12:53:06Z</time>
      </trkpt>
      <trkpt lat="49.10033" lon="-1.46677">
        <ele>73.86198</ele>
        <time>2015-06-05T12:53:11Z</time>
      </trkpt>
      <trkpt lat="49.10032" lon="-1.46687">
        <ele>73.84183</ele>
        <time>2015-06-05T12:53:16Z</time>
      </trkpt>
      <trkpt lat="49.10032" lon="-1.46697">
        <ele>73.84183</ele>
        <time>2015-06-05T12:53:21Z</time>
      </trkpt>
      <trkpt lat="49.10032" lon="-1.46705">
        <ele>73.80708</ele>
        <time>2015-06-05T12:53:26Z</time>
      </trkpt>
      <trkpt lat="49.1003" lon="-1.46714">
        <ele>73.80708</ele>
        <time>2015-06-05T12:53:31Z</time>
      </trkpt>
      <trkpt lat="49.1003" lon="-1.46714">
        <ele>73.80708</ele>
        <time>2015-06-05T12:53:36Z</time>
      </trkpt>
      <trkpt lat="49.1003" lon="-1.46711">
        <ele>73.80708</ele>
        <time>2015-06-05T12:53:41Z</time>
      </trkpt>
      <trkpt lat="49.1003" lon="-1.4671">
        <ele>73.65826</ele>
        <time>2015-06-05T12:53:46Z</time>
      </trkpt>
      <trkpt lat="49.10031" lon="-1.4671">
        <ele>73.65826</ele>
        <time>2015-06-05T12:53:51Z</time>
      </trkpt>
      <trkpt lat="49.10032" lon="-1.46709">
        <ele>73.65826</ele>
        <time>2015-06-05T12:53:56Z</time>
      </trkpt>
      <trkpt lat="49.10033" lon="-1.46709">
        <ele>73.65826</ele>
        <time>2015-06-05T12:54:01Z</time>
      </trkpt>
      <trkpt lat="49.10033" lon="-1.46708">
        <ele>73.65826</ele>
        <time>2015-06-05T12:54:06Z</time>
      </trkpt>
      <trkpt lat="49.10033" lon="-1.46707">
        <ele>73.65826</ele>
        <time>2015-06-05T12:54:11Z</time>
      </trkpt>
      <trkpt lat="49.10032" lon="-1.46709">
        <ele>73.65826</ele>
        <time>2015-06-05T12:54:16Z</time>
      </trkpt>
      <trkpt lat="49.10029" lon="-1.4671">
        <ele>73.50521</ele>
        <time>2015-06-05T12:54:21Z</time>
      </trkpt>
      <trkpt lat="49.1003" lon="-1.46712">
        <ele>73.50521</ele>
        <time>2015-06-05T12:54:26Z</time>
      </trkpt>
      <trkpt lat="49.10029" lon="-1.46711">
        <ele>73.50521</ele>
        <time>2015-06-05T12:54:31Z</time>
      </trkpt>
      <trkpt lat="49.10029" lon="-1.46707">
        <ele>73.50521</ele>
        <time>2015-06-05T12:54:36Z</time>
      </trkpt>
      <trkpt lat="49.10028" lon="-1.46704">
        <ele>73.50521</ele>
        <time>2015-06-05T12:54:41Z</time>
      </trkpt>
      <trkpt lat="49.10028" lon="-1.46705">
        <ele>73.50521</ele>
        <time>2015-06-05T12:54:46Z</time>
      </trkpt>
      <trkpt lat="49.10028" lon="-1.46706">
        <ele>73.50521</ele>
        <time>2015-06-05T12:54:51Z</time>
      </trkpt>
      <trkpt lat="49.10029" lon="-1.46704">
        <ele>73.20478</ele>
        <time>2015-06-05T12:54:56Z</time>
      </trkpt>
      <trkpt lat="49.10029" lon="-1.46704">
        <ele>73.20478</ele>
        <time>2015-06-05T12:55:01Z</time>
      </trkpt>
      <trkpt lat="49.10029" lon="-1.46702">
        <ele>73.20478</ele>
        <time>2015-06-05T12:55:06Z</time>
      </trkpt>
      <trkpt lat="49.10028" lon="-1.46702">
        <ele>73.20478</ele>
        <time>2015-06-05T12:55:11Z</time>
      </trkpt>
      <trkpt lat="49.10029" lon="-1.46702">
        <ele>73.20478</ele>
        <time>2015-06-05T12:55:16Z</time>
      </trkpt>
      <trkpt lat="49.1003" lon="-1.46704">
        <ele>73.20478</ele>
        <time>2015-06-05T12:55:21Z</time>
      </trkpt>
      <trkpt lat="49.10031" lon="-1.46711">
        <ele>73.08583</ele>
        <time>2015-06-05T12:55:26Z</time>
      </trkpt>
      <trkpt lat="49.1003" lon="-1.46711">
        <ele>73.08583</ele>
        <time>2015-06-05T12:55:31Z</time>
      </trkpt>
      <trkpt lat="49.10029" lon="-1.46711">
        <ele>73.08583</ele>
        <time>2015-06-05T12:55:36Z</time>
      </trkpt>
      <trkpt lat="49.10031" lon="-1.46714">
        <ele>73.08583</ele>
        <time>2015-06-05T12:55:41Z</time>
      </trkpt>
      <trkpt lat="49.10032" lon="-1.46716">
        <ele>73.08583</ele>
        <time>2015-06-05T12:55:46Z</time>
      </trkpt>
      <trkpt lat="49.10033" lon="-1.46722">
        <ele>72.84731</ele>
        <time>2015-06-05T12:55:51Z</time>
      </trkpt>
      <trkpt lat="49.10032" lon="-1.46731">
        <ele>72.84731</ele>
        <time>2015-06-05T12:55:56Z</time>
      </trkpt>
      <trkpt lat="49.10032" lon="-1.46742">
        <ele>72.68616</ele>
        <time>2015-06-05T12:56:01Z</time>
      </trkpt>
      <trkpt lat="49.10033" lon="-1.46751">
        <ele>72.68616</ele>
        <time>2015-06-05T12:56:06Z</time>
      </trkpt>
      <trkpt lat="49.10035" lon="-1.46747">
        <ele>72.53962</ele>
        <time>2015-06-05T12:56:11Z</time>
      </trkpt>
      <trkpt lat="49.10036" lon="-1.46745">
        <ele>72.53962</ele>
        <time>2015-06-05T12:56:16Z</time>
      </trkpt>
      <trkpt lat="49.10035" lon="-1.46748">
        <ele>72.53962</ele>
        <time>2015-06-05T12:56:21Z</time>
      </trkpt>
      <trkpt lat="49.10034" lon="-1.46748">
        <ele>72.53962</ele>
        <time>2015-06-05T12:56:26Z</time>
      </trkpt>
      <trkpt lat="49.10035" lon="-1.46753">
        <ele>72.53962</ele>
        <time>2015-06-05T12:56:31Z</time>
      </trkpt>
      <trkpt lat="49.10037" lon="-1.46763">
        <ele>72.2342</ele>
        <time>2015-06-05T12:56:36Z</time>
      </trkpt>
      <trkpt lat="49.10037" lon="-1.46773">
        <ele>72.2342</ele>
        <time>2015-06-05T12:56:41Z</time>
      </trkpt>
      <trkpt lat="49.10039" lon="-1.46778">
        <ele>71.95545</ele>
        <time>2015-06-05T12:56:46Z</time>
      </trkpt>
      <trkpt lat="49.1004" lon="-1.46778">
        <ele>71.95545</ele>
        <time>2015-06-05T12:56:51Z</time>
      </trkpt>
      <trkpt lat="49.1004" lon="-1.46779">
        <ele>71.95545</ele>
        <time>2015-06-05T12:56:56Z</time>
      </trkpt>
      <trkpt lat="49.10041" lon="-1.46781">
        <ele>71.95545</ele>
        <time>2015-06-05T12:57:01Z</time>
      </trkpt>
      <trkpt lat="49.10041" lon="-1.46784">
        <ele>71.95545</ele>
        <time>2015-06-05T12:57:06Z</time>
      </trkpt>
      <trkpt lat="49.10042" lon="-1.46792">
        <ele>71.75991</ele>
        <time>2015-06-05T12:57:11Z</time>
      </trkpt>
      <trkpt lat="49.10042" lon="-1.468">
        <ele>71.75991</ele>
        <time>2015-06-05T12:57:16Z</time>
      </trkpt>
      <trkpt lat="49.10043" lon="-1.46808">
        <ele>71.52677</ele>
        <time>2015-06-05T12:57:21Z</time>
      </trkpt>
      <trkpt lat="49.10043" lon="-1.46817">
        <ele>71.52677</ele>
        <time>2015-06-05T12:57:26Z</time>
      </trkpt>
      <trkpt lat="49.10044" lon="-1.46825">
        <ele>71.259476</ele>
        <time>2015-06-05T12:57:31Z</time>
      </trkpt>
      <trkpt lat="49.10045" lon="-1.46832">
        <ele>71.259476</ele>
        <time>2015-06-05T12:57:36Z</time>
      </trkpt>
      <trkpt lat="49.10044" lon="-1.46837">
        <ele>71.259476</ele>
        <time>2015-06-05T12:57:41Z</time>
      </trkpt>
      <trkpt lat="49.10044" lon="-1.46836">
        <ele>71.259476</ele>
        <time>2015-06-05T12:57:46Z</time>
      </trkpt>
      <trkpt lat="49.10043" lon="-1.46834">
        <ele>70.81718</ele>
        <time>2015-06-05T12:57:51Z</time>
      </trkpt>
      <trkpt lat="49.10043" lon="-1.46835">
        <ele>70.81718</ele>
        <time>2015-06-05T12:57:56Z</time>
      </trkpt>
      <trkpt lat="49.10044" lon="-1.46836">
        <ele>70.81718</ele>
        <time>2015-06-05T12:58:01Z</time>
      </trkpt>
      <trkpt lat="49.10044" lon="-1.46836">
        <ele>70.81718</ele>
        <time>2015-06-05T12:58:06Z</time>
      </trkpt>
      <trkpt lat="49.10044" lon="-1.46836">
        <ele>70.81718</ele>
        <time>2015-06-05T12:58:11Z</time>
      </trkpt>
      <trkpt lat="49.10044" lon="-1.46837">
        <ele>70.81718</ele>
        <time>2015-06-05T12:58:16Z</time>
      </trkpt>
      <trkpt lat="49.10045" lon="-1.46838">
        <ele>70.81718</ele>
        <time>2015-06-05T12:58:21Z</time>
      </trkpt>
      <trkpt lat="49.10044" lon="-1.46836">
        <ele>70.81718</ele>
        <time>2015-06-05T12:58:26Z</time>
      </trkpt>
      <trkpt lat="49.10045" lon="-1.46828">
        <ele>70.06983</ele>
        <time>2015-06-05T12:58:31Z</time>
      </trkpt>
      <trkpt lat="49.10045" lon="-1.46825">
        <ele>70.06983</ele>
        <time>2015-06-05T12:58:36Z</time>
      </trkpt>
      <trkpt lat="49.10045" lon="-1.46823">
        <ele>70.06983</ele>
        <time>2015-06-05T12:58:41Z</time>
      </trkpt>
      <trkpt lat="49.10045" lon="-1.46826">
        <ele>70.06983</ele>
        <time>2015-06-05T12:58:46Z</time>
      </trkpt>
      <trkpt lat="49.10046" lon="-1.46825">
        <ele>70.06983</ele>
        <time>2015-06-05T12:58:51Z</time>
      </trkpt>
      <trkpt lat="49.10045" lon="-1.46822">
        <ele>70.06983</ele>
        <time>2015-06-05T12:58:56Z</time>
      </trkpt>
      <trkpt lat="49.10044" lon="-1.46815">
        <ele>69.35896</ele>
        <time>2015-06-05T12:59:01Z</time>
      </trkpt>
      <trkpt lat="49.10042" lon="-1.46804">
        <ele>69.35896</ele>
        <time>2015-06-05T12:59:06Z</time>
      </trkpt>
      <trkpt lat="49.1004" lon="-1.46796">
        <ele>68.85673</ele>
        <time>2015-06-05T12:59:11Z</time>
      </trkpt>
      <trkpt lat="49.10039" lon="-1.46787">
        <ele>68.85673</ele>
        <time>2015-06-05T12:59:16Z</time>
      </trkpt>
      <trkpt lat="49.10039" lon="-1.46782">
        <ele>68.57794</ele>
        <time>2015-06-05T12:59:21Z</time>
      </trkpt>
      <trkpt lat="49.10039" lon="-1.46781">
        <ele>68.57794</ele>
        <time>2015-06-05T12:59:26Z</time>
      </trkpt>
      <trkpt lat="49.10039" lon="-1.4678">
        <ele>68.57794</ele>
        <time>2015-06-05T12:59:31Z</time>
      </trkpt>
      <trkpt lat="49.10038" lon="-1.46775">
        <ele>68.57794</ele>
        <time>2015-06-05T12:59:36Z</time>
      </trkpt>
      <trkpt lat="49.10036" lon="-1.46767">
        <ele>68.44919</ele>
        <time>2015-06-05T12:59:41Z</time>
      </trkpt>
      <trkpt lat="49.10035" lon="-1.46759">
        <ele>68.44919</ele>
        <time>2015-06-05T12:59:46Z</time>
      </trkpt>
      <trkpt lat="49.10034" lon="-1.4675">
        <ele>68.402</ele>
        <time>2015-06-05T12:59:51Z</time>
      </trkpt>
      <trkpt lat="49.10035" lon="-1.4675">
        <ele>68.402</ele>
        <time>2015-06-05T12:59:56Z</time>
      </trkpt>
      <trkpt lat="49.10035" lon="-1.46751">
        <ele>68.402</ele>
        <time>2015-06-05T13:00:01Z</time>
      </trkpt>
      <trkpt lat="49.10034" lon="-1.46747">
        <ele>68.402</ele>
        <time>2015-06-05T13:00:06Z</time>
      </trkpt>
      <trkpt lat="49.10033" lon="-1.46738">
        <ele>68.48796</ele>
        <time>2015-06-05T13:00:11Z</time>
      </trkpt>
      <trkpt lat="49.10032" lon="-1.46727">
        <ele>68.48796</ele>
        <time>2015-06-05T13:00:16Z</time>
      </trkpt>
      <trkpt lat="49.10034" lon="-1.46718">
        <ele>68.63918</ele>
        <time>2015-06-05T13:00:21Z</time>
      </trkpt>
      <trkpt lat="49.10038" lon="-1.46712">
        <ele>68.63918</ele>
        <time>2015-06-05T13:00:26Z</time>
      </trkpt>
      <trkpt lat="49.10045" lon="-1.46708">
        <ele>68.80696</ele>
        <time>2015-06-05T13:00:31Z</time>
      </trkpt>
      <trkpt lat="49.10052" lon="-1.46705">
        <ele>68.80696</ele>
        <time>2015-06-05T13:00:36Z</time>
      </trkpt>
      <trkpt lat="49.10055" lon="-1.46705">
        <ele>69.00376</ele>
        <time>2015-06-05T13:00:41Z</time>
      </trkpt>
      <trkpt lat="49.10061" lon="-1.46705">
        <ele>69.00376</ele>
        <time>2015-06-05T13:00:46Z</time>
      </trkpt>
      <trkpt lat="49.10067" lon="-1.46705">
        <ele>69.183365</ele>
        <time>2015-06-05T13:00:51Z</time>
      </trkpt>
      <trkpt lat="49.10072" lon="-1.46705">
        <ele>69.183365</ele>
        <time>2015-06-05T13:00:56Z</time>
      </trkpt>
      <trkpt lat="49.10078" lon="-1.46705">
        <ele>69.31742</ele>
        <time>2015-06-05T13:01:01Z</time>
      </trkpt>
      <trkpt lat="49.10084" lon="-1.46706">
        <ele>69.31742</ele>
        <time>2015-06-05T13:01:06Z</time>
      </trkpt>
      <trkpt lat="49.1009" lon="-1.46706">
        <ele>69.4374</ele>
        <time>2015-06-05T13:01:11Z</time>
      </trkpt>
      <trkpt lat="49.10096" lon="-1.46703">
        <ele>69.4374</ele>
        <time>2015-06-05T13:01:16Z</time>
      </trkpt>
      <trkpt lat="49.10102" lon="-1.467">
        <ele>69.57251</ele>
        <time>2015-06-05T13:01:21Z</time>
      </trkpt>
      <trkpt lat="49.10107" lon="-1.46699">
        <ele>69.57251</ele>
        <time>2015-06-05T13:01:26Z</time>
      </trkpt>
      <trkpt lat="49.10115" lon="-1.46699">
        <ele>69.70653</ele>
        <time>2015-06-05T13:01:31Z</time>
      </trkpt>
      <trkpt lat="49.10122" lon="-1.46699">
        <ele>69.70653</ele>
        <time>2015-06-05T13:01:36Z</time>
      </trkpt>
      <trkpt lat="49.10128" lon="-1.46699">
        <ele>69.824425</ele>
        <time>2015-06-05T13:01:41Z</time>
      </trkpt>
      <trkpt lat="49.10135" lon="-1.46698">
        <ele>69.824425</ele>
        <time>2015-06-05T13:01:46Z</time>
      </trkpt>
      <trkpt lat="49.10141" lon="-1.46699">
        <ele>69.94113</ele>
        <time>2015-06-05T13:01:51Z</time>
      </trkpt>
      <trkpt lat="49.10146" lon="-1.46698">
        <ele>69.94113</ele>
        <time>2015-06-05T13:01:56Z</time>
      </trkpt>
      <trkpt lat="49.10151" lon="-1.46698">
        <ele>70.05609</ele>
        <time>2015-06-05T13:02:01Z</time>
      </trkpt>
      <trkpt lat="49.10155" lon="-1.46699">
        <ele>70.05609</ele>
        <time>2015-06-05T13:02:06Z</time>
      </trkpt>
      <trkpt lat="49.1016" lon="-1.46698">
        <ele>70.15438</ele>
        <time>2015-06-05T13:02:11Z</time>
      </trkpt>
      <trkpt lat="49.10167" lon="-1.46697">
        <ele>70.15438</ele>
        <time>2015-06-05T13:02:16Z</time>
      </trkpt>
      <trkpt lat="49.10173" lon="-1.46694">
        <ele>70.22222</ele>
        <time>2015-06-05T13:02:21Z</time>
      </trkpt>
      <trkpt lat="49.10179" lon="-1.46694">
        <ele>70.22222</ele>
        <time>2015-06-05T13:02:26Z</time>
      </trkpt>
      <trkpt lat="49.10188" lon="-1.46694">
        <ele>70.33341</ele>
        <time>2015-06-05T13:02:31Z</time>
      </trkpt>
      <trkpt lat="49.10192" lon="-1.46693">
        <ele>70.33341</ele>
        <time>2015-06-05T13:02:36Z</time>
      </trkpt>
      <trkpt lat="49.10193" lon="-1.46694">
        <ele>70.33341</ele>
        <time>2015-06-05T13:02:41Z</time>
      </trkpt>
      <trkpt lat="49.10196" lon="-1.46692">
        <ele>70.33341</ele>
        <time>2015-06-05T13:02:46Z</time>
      </trkpt>
      <trkpt lat="49.10203" lon="-1.46691">
        <ele>70.39769</ele>
        <time>2015-06-05T13:02:51Z</time>
      </trkpt>
      <trkpt lat="49.10209" lon="-1.46691">
        <ele>70.39769</ele>
        <time>2015-06-05T13:02:56Z</time>
      </trkpt>
      <trkpt lat="49.10215" lon="-1.46691">
        <ele>70.44686</ele>
        <time>2015-06-05T13:03:01Z</time>
      </trkpt>
      <trkpt lat="49.10221" lon="-1.4669">
        <ele>70.44686</ele>
        <time>2015-06-05T13:03:06Z</time>
      </trkpt>
      <trkpt lat="49.10227" lon="-1.4669">
        <ele>70.39514</ele>
        <time>2015-06-05T13:03:11Z</time>
      </trkpt>
      <trkpt lat="49.10235" lon="-1.4669">
        <ele>70.39514</ele>
        <time>2015-06-05T13:03:16Z</time>
      </trkpt>
      <trkpt lat="49.10241" lon="-1.46689">
        <ele>70.37952</ele>
        <time>2015-06-05T13:03:21Z</time>
      </trkpt>
      <trkpt lat="49.10246" lon="-1.46688">
        <ele>70.37952</ele>
        <time>2015-06-05T13:03:26Z</time>
      </trkpt>
      <trkpt lat="49.10252" lon="-1.46689">
        <ele>70.29625</ele>
        <time>2015-06-05T13:03:31Z</time>
      </trkpt>
      <trkpt lat="49.10258" lon="-1.46688">
        <ele>70.29625</ele>
        <time>2015-06-05T13:03:36Z</time>
      </trkpt>
      <trkpt lat="49.10264" lon="-1.46687">
        <ele>70.15029</ele>
        <time>2015-06-05T13:03:41Z</time>
      </trkpt>
      <trkpt lat="49.1027" lon="-1.46686">
        <ele>70.15029</ele>
        <time>2015-06-05T13:03:46Z</time>
      </trkpt>
      <trkpt lat="49.10276" lon="-1.46687">
        <ele>69.98964</ele>
        <time>2015-06-05T13:03:51Z</time>
      </trkpt>
      <trkpt lat="49.10279" lon="-1.46689">
        <ele>69.98964</ele>
        <time>2015-06-05T13:03:56Z</time>
      </trkpt>
      <trkpt lat="49.10279" lon="-1.46688">
        <ele>69.98964</ele>
        <time>2015-06-05T13:04:01Z</time>
      </trkpt>
      <trkpt lat="49.10276" lon="-1.46687">
        <ele>69.98964</ele>
        <time>2015-06-05T13:04:06Z</time>
      </trkpt>
      <trkpt lat="49.10274" lon="-1.46687">
        <ele>69.98964</ele>
        <time>2015-06-05T13:04:11Z</time>
      </trkpt>
      <trkpt lat="49.10273" lon="-1.46686">
        <ele>69.54179</ele>
        <time>2015-06-05T13:04:16Z</time>
      </trkpt>
      <trkpt lat="49.10274" lon="-1.46688">
        <ele>69.54179</ele>
        <time>2015-06-05T13:04:21Z</time>
      </trkpt>
      <trkpt lat="49.10276" lon="-1.46688">
        <ele>69.54179</ele>
        <time>2015-06-05T13:04:26Z</time>
      </trkpt>
      <trkpt lat="49.10277" lon="-1.46689">
        <ele>69.54179</ele>
        <time>2015-06-05T13:04:31Z</time>
      </trkpt>
      <trkpt lat="49.10279" lon="-1.46693">
        <ele>69.54179</ele>
        <time>2015-06-05T13:04:36Z</time>
      </trkpt>
      <trkpt lat="49.10281" lon="-1.467">
        <ele>69.04503</ele>
        <time>2015-06-05T13:04:41Z</time>
      </trkpt>
      <trkpt lat="49.1028" lon="-1.46707">
        <ele>69.04503</ele>
        <time>2015-06-05T13:04:46Z</time>
      </trkpt>
      <trkpt lat="49.10279" lon="-1.46716">
        <ele>68.547356</ele>
        <time>2015-06-05T13:04:51Z</time>
      </trkpt>
      <trkpt lat="49.10278" lon="-1.46726">
        <ele>68.547356</ele>
        <time>2015-06-05T13:04:56Z</time>
      </trkpt>
      <trkpt lat="49.10278" lon="-1.46735">
        <ele>68.10764</ele>
        <time>2015-06-05T13:05:01Z</time>
      </trkpt>
      <trkpt lat="49.10277" lon="-1.46745">
        <ele>68.10764</ele>
        <time>2015-06-05T13:05:06Z</time>
      </trkpt>
      <trkpt lat="49.10277" lon="-1.46755">
        <ele>67.72264</ele>
        <time>2015-06-05T13:05:11Z</time>
      </trkpt>
      <trkpt lat="49.10278" lon="-1.46765">
        <ele>67.72264</ele>
        <time>2015-06-05T13:05:16Z</time>
      </trkpt>
      <trkpt lat="49.10278" lon="-1.46773">
        <ele>67.43241</ele>
        <time>2015-06-05T13:05:21Z</time>
      </trkpt>
      <trkpt lat="49.10277" lon="-1.46781">
        <ele>67.43241</ele>
        <time>2015-06-05T13:05:26Z</time>
      </trkpt>
      <trkpt lat="49.10275" lon="-1.4679">
        <ele>67.23056</ele>
        <time>2015-06-05T13:05:31Z</time>
      </trkpt>
      <trkpt lat="49.10275" lon="-1.46796">
        <ele>67.23056</ele>
        <time>2015-06-05T13:05:36Z</time>
      </trkpt>
      <trkpt lat="49.10275" lon="-1.46805">
        <ele>67.082085</ele>
        <time>2015-06-05T13:05:41Z</time>
      </trkpt>
      <trkpt lat="49.10274" lon="-1.46814">
        <ele>67.082085</ele>
        <time>2015-06-05T13:05:46Z</time>
      </trkpt>
      <trkpt lat="49.10272" lon="-1.46822">
        <ele>66.95439</ele>
        <time>2015-06-05T13:05:51Z</time>
      </trkpt>
      <trkpt lat="49.10271" lon="-1.46833">
        <ele>66.95439</ele>
        <time>2015-06-05T13:05:56Z</time>
      </trkpt>
      <trkpt lat="49.1027" lon="-1.46843">
        <ele>66.87486</ele>
        <time>2015-06-05T13:06:01Z</time>
      </trkpt>
      <trkpt lat="49.10271" lon="-1.46852">
        <ele>66.87486</ele>
        <time>2015-06-05T13:06:06Z</time>
      </trkpt>
      <trkpt lat="49.1027" lon="-1.46862">
        <ele>66.88314</ele>
        <time>2015-06-05T13:06:11Z</time>
      </trkpt>
      <trkpt lat="49.10268" lon="-1.46871">
        <ele>66.88314</ele>
        <time>2015-06-05T13:06:16Z</time>
      </trkpt>
      <trkpt lat="49.10267" lon="-1.4688">
        <ele>66.92923</ele>
        <time>2015-06-05T13:06:21Z</time>
      </trkpt>
      <trkpt lat="49.10269" lon="-1.46886">
        <ele>66.92923</ele>
        <time>2015-06-05T13:06:26Z</time>
      </trkpt>
      <trkpt lat="49.10271" lon="-1.46891">
        <ele>66.92923</ele>
        <time>2015-06-05T13:06:31Z</time>
      </trkpt>
      <trkpt lat="49.10271" lon="-1.4689">
        <ele>66.92923</ele>
        <time>2015-06-05T13:06:36Z</time>
      </trkpt>
      <trkpt lat="49.1027" lon="-1.4689">
        <ele>67.06756</ele>
        <time>2015-06-05T13:06:41Z</time>
      </trkpt>
      <trkpt lat="49.10266" lon="-1.46889">
        <ele>67.06756</ele>
        <time>2015-06-05T13:06:46Z</time>
      </trkpt>
      <trkpt lat="49.10264" lon="-1.46896">
        <ele>67.06756</ele>
        <time>2015-06-05T13:06:51Z</time>
      </trkpt>
      <trkpt lat="49.1026" lon="-1.46905">
        <ele>67.23303</ele>
        <time>2015-06-05T13:06:56Z</time>
      </trkpt>
      <trkpt lat="49.10259" lon="-1.46913">
        <ele>67.23303</ele>
        <time>2015-06-05T13:07:01Z</time>
      </trkpt>
      <trkpt lat="49.10257" lon="-1.46922">
        <ele>67.39406</ele>
        <time>2015-06-05T13:07:06Z</time>
      </trkpt>
      <trkpt lat="49.10255" lon="-1.46929">
        <ele>67.39406</ele>
        <time>2015-06-05T13:07:11Z</time>
      </trkpt>
      <trkpt lat="49.10253" lon="-1.46937">
        <ele>67.49257</ele>
        <time>2015-06-05T13:07:16Z</time>
      </trkpt>
      <trkpt lat="49.10251" lon="-1.46948">
        <ele>67.49257</ele>
        <time>2015-06-05T13:07:21Z</time>
      </trkpt>
      <trkpt lat="49.10247" lon="-1.46957">
        <ele>67.54699</ele>
        <time>2015-06-05T13:07:26Z</time>
      </trkpt>
      <trkpt lat="49.10244" lon="-1.46965">
        <ele>67.54699</ele>
        <time>2015-06-05T13:07:31Z</time>
      </trkpt>
      <trkpt lat="49.10242" lon="-1.46975">
        <ele>67.5601</ele>
        <time>2015-06-05T13:07:36Z</time>
      </trkpt>
      <trkpt lat="49.10241" lon="-1.46982">
        <ele>67.5601</ele>
        <time>2015-06-05T13:07:41Z</time>
      </trkpt>
      <trkpt lat="49.10239" lon="-1.46989">
        <ele>67.49138</ele>
        <time>2015-06-05T13:07:46Z</time>
      </trkpt>
      <trkpt lat="49.10237" lon="-1.46998">
        <ele>67.49138</ele>
        <time>2015-06-05T13:07:51Z</time>
      </trkpt>
      <trkpt lat="49.10235" lon="-1.47006">
        <ele>67.34674</ele>
        <time>2015-06-05T13:07:56Z</time>
      </trkpt>
      <trkpt lat="49.10233" lon="-1.47016">
        <ele>67.34674</ele>
        <time>2015-06-05T13:08:01Z</time>
      </trkpt>
      <trkpt lat="49.10233" lon="-1.47027">
        <ele>67.131874</ele>
        <time>2015-06-05T13:08:06Z</time>
      </trkpt>
      <trkpt lat="49.10231" lon="-1.47037">
        <ele>67.131874</ele>
        <time>2015-06-05T13:08:11Z</time>
      </trkpt>
      <trkpt lat="49.10229" lon="-1.47047">
        <ele>66.89551</ele>
        <time>2015-06-05T13:08:16Z</time>
      </trkpt>
      <trkpt lat="49.10229" lon="-1.47055">
        <ele>66.89551</ele>
        <time>2015-06-05T13:08:21Z</time>
      </trkpt>
      <trkpt lat="49.10227" lon="-1.47064">
        <ele>66.59637</ele>
        <time>2015-06-05T13:08:26Z</time>
      </trkpt>
      <trkpt lat="49.10227" lon="-1.47074">
        <ele>66.59637</ele>
        <time>2015-06-05T13:08:31Z</time>
      </trkpt>
      <trkpt lat="49.10225" lon="-1.47086">
        <ele>66.26845</ele>
        <time>2015-06-05T13:08:36Z</time>
      </trkpt>
      <trkpt lat="49.10224" lon="-1.47096">
        <ele>66.26845</ele>
        <time>2015-06-05T13:08:41Z</time>
      </trkpt>
      <trkpt lat="49.10223" lon="-1.47106">
        <ele>65.9001</ele>
        <time>2015-06-05T13:08:46Z</time>
      </trkpt>
      <trkpt lat="49.10222" lon="-1.47115">
        <ele>65.9001</ele>
        <time>2015-06-05T13:08:51Z</time>
      </trkpt>
      <trkpt lat="49.1022" lon="-1.47124">
        <ele>65.48064</ele>
        <time>2015-06-05T13:08:56Z</time>
      </trkpt>
      <trkpt lat="49.1022" lon="-1.47132">
        <ele>65.48064</ele>
        <time>2015-06-05T13:09:01Z</time>
      </trkpt>
      <trkpt lat="49.10219" lon="-1.47142">
        <ele>65.02912</ele>
        <time>2015-06-05T13:09:06Z</time>
      </trkpt>
      <trkpt lat="49.1022" lon="-1.4715">
        <ele>65.02912</ele>
        <time>2015-06-05T13:09:11Z</time>
      </trkpt>
      <trkpt lat="49.1022" lon="-1.4716">
        <ele>64.5777</ele>
        <time>2015-06-05T13:09:16Z</time>
      </trkpt>
      <trkpt lat="49.1022" lon="-1.47168">
        <ele>64.5777</ele>
        <time>2015-06-05T13:09:21Z</time>
      </trkpt>
      <trkpt lat="49.10222" lon="-1.47176">
        <ele>64.04088</ele>
        <time>2015-06-05T13:09:26Z</time>
      </trkpt>
      <trkpt lat="49.10224" lon="-1.47186">
        <ele>64.04088</ele>
        <time>2015-06-05T13:09:31Z</time>
      </trkpt>
      <trkpt lat="49.10226" lon="-1.47196">
        <ele>63.42612</ele>
        <time>2015-06-05T13:09:36Z</time>
      </trkpt>
      <trkpt lat="49.10227" lon="-1.47207">
        <ele>63.42612</ele>
        <time>2015-06-05T13:09:41Z</time>
      </trkpt>
      <trkpt lat="49.1023" lon="-1.47213">
        <ele>62.754963</ele>
        <time>2015-06-05T13:09:46Z</time>
      </trkpt>
      <trkpt lat="49.10233" lon="-1.47222">
        <ele>62.754963</ele>
        <time>2015-06-05T13:09:51Z</time>
      </trkpt>
      <trkpt lat="49.10236" lon="-1.47232">
        <ele>62.018684</ele>
        <time>2015-06-05T13:09:56Z</time>
      </trkpt>
      <trkpt lat="49.10238" lon="-1.47242">
        <ele>62.018684</ele>
        <time>2015-06-05T13:10:01Z</time>
      </trkpt>
      <trkpt lat="49.10242" lon="-1.47253">
        <ele>61.28141</ele>
        <time>2015-06-05T13:10:06Z</time>
      </trkpt>
      <trkpt lat="49.10244" lon="-1.47261">
        <ele>61.28141</ele>
        <time>2015-06-05T13:10:11Z</time>
      </trkpt>
      <trkpt lat="49.10247" lon="-1.4727">
        <ele>60.559315</ele>
        <time>2015-06-05T13:10:16Z</time>
      </trkpt>
      <trkpt lat="49.1025" lon="-1.47279">
        <ele>60.559315</ele>
        <time>2015-06-05T13:10:21Z</time>
      </trkpt>
      <trkpt lat="49.10253" lon="-1.47285">
        <ele>59.8673</ele>
        <time>2015-06-05T13:10:26Z</time>
      </trkpt>
      <trkpt lat="49.10256" lon="-1.47293">
        <ele>59.8673</ele>
        <time>2015-06-05T13:10:31Z</time>
      </trkpt>
      <trkpt lat="49.10259" lon="-1.47303">
        <ele>59.132603</ele>
        <time>2015-06-05T13:10:36Z</time>
      </trkpt>
      <trkpt lat="49.10263" lon="-1.47313">
        <ele>59.132603</ele>
        <time>2015-06-05T13:10:41Z</time>
      </trkpt>
      <trkpt lat="49.10266" lon="-1.47319">
        <ele>58.345535</ele>
        <time>2015-06-05T13:10:46Z</time>
      </trkpt>
      <trkpt lat="49.10269" lon="-1.47325">
        <ele>58.345535</ele>
        <time>2015-06-05T13:10:51Z</time>
      </trkpt>
      <trkpt lat="49.1027" lon="-1.47335">
        <ele>57.583694</ele>
        <time>2015-06-05T13:10:56Z</time>
      </trkpt>
      <trkpt lat="49.1027" lon="-1.47342">
        <ele>57.583694</ele>
        <time>2015-06-05T13:11:01Z</time>
      </trkpt>
      <trkpt lat="49.10267" lon="-1.47352">
        <ele>56.890053</ele>
        <time>2015-06-05T13:11:06Z</time>
      </trkpt>
      <trkpt lat="49.10264" lon="-1.47362">
        <ele>56.890053</ele>
        <time>2015-06-05T13:11:11Z</time>
      </trkpt>
      <trkpt lat="49.10263" lon="-1.47371">
        <ele>56.217728</ele>
        <time>2015-06-05T13:11:16Z</time>
      </trkpt>
      <trkpt lat="49.10263" lon="-1.47383">
        <ele>56.217728</ele>
        <time>2015-06-05T13:11:21Z</time>
      </trkpt>
      <trkpt lat="49.10262" lon="-1.47391">
        <ele>55.609646</ele>
        <time>2015-06-05T13:11:26Z</time>
      </trkpt>
      <trkpt lat="49.10261" lon="-1.47398">
        <ele>55.609646</ele>
        <time>2015-06-05T13:11:31Z</time>
      </trkpt>
      <trkpt lat="49.10259" lon="-1.47407">
        <ele>55.07654</ele>
        <time>2015-06-05T13:11:36Z</time>
      </trkpt>
      <trkpt lat="49.10258" lon="-1.47415">
        <ele>55.07654</ele>
        <time>2015-06-05T13:11:41Z</time>
      </trkpt>
      <trkpt lat="49.10256" lon="-1.47424">
        <ele>54.584873</ele>
        <time>2015-06-05T13:11:46Z</time>
      </trkpt>
      <trkpt lat="49.10255" lon="-1.47435">
        <ele>54.584873</ele>
        <time>2015-06-05T13:11:51Z</time>
      </trkpt>
      <trkpt lat="49.10255" lon="-1.47445">
        <ele>54.117817</ele>
        <time>2015-06-05T13:11:56Z</time>
      </trkpt>
      <trkpt lat="49.10254" lon="-1.47456">
        <ele>54.117817</ele>
        <time>2015-06-05T13:12:01Z</time>
      </trkpt>
      <trkpt lat="49.10254" lon="-1.47466">
        <ele>53.659683</ele>
        <time>2015-06-05T13:12:06Z</time>
      </trkpt>
      <trkpt lat="49.10253" lon="-1.47474">
        <ele>53.659683</ele>
        <time>2015-06-05T13:12:11Z</time>
      </trkpt>
      <trkpt lat="49.10254" lon="-1.47477">
        <ele>53.659683</ele>
        <time>2015-06-05T13:12:16Z</time>
      </trkpt>
      <trkpt lat="49.10253" lon="-1.4749">
        <ele>53.210274</ele>
        <time>2015-06-05T13:12:21Z</time>
      </trkpt>
      <trkpt lat="49.10254" lon="-1.47495">
        <ele>53.210274</ele>
        <time>2015-06-05T13:12:26Z</time>
      </trkpt>
      <trkpt lat="49.10254" lon="-1.475">
        <ele>53.210274</ele>
        <time>2015-06-05T13:12:31Z</time>
      </trkpt>
      <trkpt lat="49.10258" lon="-1.47506">
        <ele>52.841408</ele>
        <time>2015-06-05T13:12:36Z</time>
      </trkpt>
      <trkpt lat="49.1026" lon="-1.47516">
        <ele>52.841408</ele>
        <time>2015-06-05T13:12:41Z</time>
      </trkpt>
      <trkpt lat="49.10261" lon="-1.47524">
        <ele>52.504078</ele>
        <time>2015-06-05T13:12:46Z</time>
      </trkpt>
      <trkpt lat="49.10262" lon="-1.47529">
        <ele>52.504078</ele>
        <time>2015-06-05T13:12:51Z</time>
      </trkpt>
      <trkpt lat="49.10263" lon="-1.47535">
        <ele>52.504078</ele>
        <time>2015-06-05T13:12:56Z</time>
      </trkpt>
      <trkpt lat="49.10265" lon="-1.47541">
        <ele>52.12393</ele>
        <time>2015-06-05T13:13:01Z</time>
      </trkpt>
      <trkpt lat="49.10268" lon="-1.47547">
        <ele>52.12393</ele>
        <time>2015-06-05T13:13:06Z</time>
      </trkpt>
      <trkpt lat="49.1027" lon="-1.47553">
        <ele>51.79069</ele>
        <time>2015-06-05T13:13:11Z</time>
      </trkpt>
      <trkpt lat="49.10272" lon="-1.47561">
        <ele>51.79069</ele>
        <time>2015-06-05T13:13:16Z</time>
      </trkpt>
      <trkpt lat="49.10274" lon="-1.47567">
        <ele>51.529682</ele>
        <time>2015-06-05T13:13:21Z</time>
      </trkpt>
      <trkpt lat="49.10277" lon="-1.47573">
        <ele>51.529682</ele>
        <time>2015-06-05T13:13:26Z</time>
      </trkpt>
      <trkpt lat="49.1028" lon="-1.47579">
        <ele>51.3065</ele>
        <time>2015-06-05T13:13:31Z</time>
      </trkpt>
      <trkpt lat="49.10283" lon="-1.47586">
        <ele>51.3065</ele>
        <time>2015-06-05T13:13:36Z</time>
      </trkpt>
      <trkpt lat="49.10285" lon="-1.47593">
        <ele>51.146786</ele>
        <time>2015-06-05T13:13:41Z</time>
      </trkpt>
      <trkpt lat="49.10288" lon="-1.47598">
        <ele>51.146786</ele>
        <time>2015-06-05T13:13:46Z</time>
      </trkpt>
      <trkpt lat="49.1029" lon="-1.47605">
        <ele>51.030857</ele>
        <time>2015-06-05T13:13:51Z</time>
      </trkpt>
      <trkpt lat="49.10293" lon="-1.47612">
        <ele>51.030857</ele>
        <time>2015-06-05T13:13:56Z</time>
      </trkpt>
      <trkpt lat="49.10295" lon="-1.47618">
        <ele>50.96917</ele>
        <time>2015-06-05T13:14:01Z</time>
      </trkpt>
      <trkpt lat="49.10297" lon="-1.47625">
        <ele>50.96917</ele>
        <time>2015-06-05T13:14:06Z</time>
      </trkpt>
      <trkpt lat="49.10301" lon="-1.47633">
        <ele>50.95683</ele>
        <time>2015-06-05T13:14:11Z</time>
      </trkpt>
      <trkpt lat="49.10305" lon="-1.4764">
        <ele>50.95683</ele>
        <time>2015-06-05T13:14:16Z</time>
      </trkpt>
      <trkpt lat="49.10308" lon="-1.47647">
        <ele>50.945923</ele>
        <time>2015-06-05T13:14:21Z</time>
      </trkpt>
      <trkpt lat="49.1031" lon="-1.47655">
        <ele>50.945923</ele>
        <time>2015-06-05T13:14:26Z</time>
      </trkpt>
      <trkpt lat="49.10311" lon="-1.47663">
        <ele>50.949688</ele>
        <time>2015-06-05T13:14:31Z</time>
      </trkpt>
      <trkpt lat="49.10314" lon="-1.47674">
        <ele>50.949688</ele>
        <time>2015-06-05T13:14:36Z</time>
      </trkpt>
      <trkpt lat="49.10317" lon="-1.47683">
        <ele>50.980354</ele>
        <time>2015-06-05T13:14:41Z</time>
      </trkpt>
      <trkpt lat="49.1032" lon="-1.47691">
        <ele>50.980354</ele>
        <time>2015-06-05T13:14:46Z</time>
      </trkpt>
      <trkpt lat="49.10321" lon="-1.477">
        <ele>51.07799</ele>
        <time>2015-06-05T13:14:51Z</time>
      </trkpt>
      <trkpt lat="49.10323" lon="-1.47709">
        <ele>51.07799</ele>
        <time>2015-06-05T13:14:56Z</time>
      </trkpt>
      <trkpt lat="49.10324" lon="-1.47717">
        <ele>51.22191</ele>
        <time>2015-06-05T13:15:01Z</time>
      </trkpt>
      <trkpt lat="49.10326" lon="-1.47725">
        <ele>51.22191</ele>
        <time>2015-06-05T13:15:06Z</time>
      </trkpt>
      <trkpt lat="49.10327" lon="-1.47731">
        <ele>51.3784</ele>
        <time>2015-06-05T13:15:11Z</time>
      </trkpt>
      <trkpt lat="49.10329" lon="-1.4774">
        <ele>51.3784</ele>
        <time>2015-06-05T13:15:16Z</time>
      </trkpt>
      <trkpt lat="49.10331" lon="-1.4775">
        <ele>51.516205</ele>
        <time>2015-06-05T13:15:21Z</time>
      </trkpt>
      <trkpt lat="49.10332" lon="-1.47759">
        <ele>51.516205</ele>
        <time>2015-06-05T13:15:26Z</time>
      </trkpt>
      <trkpt lat="49.10335" lon="-1.47767">
        <ele>51.66408</ele>
        <time>2015-06-05T13:15:31Z</time>
      </trkpt>
      <trkpt lat="49.10336" lon="-1.47776">
        <ele>51.66408</ele>
        <time>2015-06-05T13:15:36Z</time>
      </trkpt>
      <trkpt lat="49.10338" lon="-1.47783">
        <ele>51.733376</ele>
        <time>2015-06-05T13:15:41Z</time>
      </trkpt>
      <trkpt lat="49.10338" lon="-1.47789">
        <ele>51.733376</ele>
        <time>2015-06-05T13:15:46Z</time>
      </trkpt>
      <trkpt lat="49.1034" lon="-1.47798">
        <ele>51.74306</ele>
        <time>2015-06-05T13:15:51Z</time>
      </trkpt>
      <trkpt lat="49.10342" lon="-1.47806">
        <ele>51.74306</ele>
        <time>2015-06-05T13:15:56Z</time>
      </trkpt>
      <trkpt lat="49.10344" lon="-1.47816">
        <ele>51.75415</ele>
        <time>2015-06-05T13:16:01Z</time>
      </trkpt>
      <trkpt lat="49.10345" lon="-1.47821">
        <ele>51.75415</ele>
        <time>2015-06-05T13:16:06Z</time>
      </trkpt>
      <trkpt lat="49.10348" lon="-1.47826">
        <ele>51.75415</ele>
        <time>2015-06-05T13:16:11Z</time>
      </trkpt>
      <trkpt lat="49.1035" lon="-1.47836">
        <ele>51.736717</ele>
        <time>2015-06-05T13:16:16Z</time>
      </trkpt>
      <trkpt lat="49.1035" lon="-1.47844">
        <ele>51.736717</ele>
        <time>2015-06-05T13:16:21Z</time>
      </trkpt>
      <trkpt lat="49.10352" lon="-1.47848">
        <ele>51.736717</ele>
        <time>2015-06-05T13:16:26Z</time>
      </trkpt>
      <trkpt lat="49.10353" lon="-1.47856">
        <ele>51.792854</ele>
        <time>2015-06-05T13:16:31Z</time>
      </trkpt>
      <trkpt lat="49.10355" lon="-1.47861">
        <ele>51.792854</ele>
        <time>2015-06-05T13:16:36Z</time>
      </trkpt>
      <trkpt lat="49.10358" lon="-1.47867">
        <ele>51.901672</ele>
        <time>2015-06-05T13:16:41Z</time>
      </trkpt>
      <trkpt lat="49.10362" lon="-1.47875">
        <ele>51.901672</ele>
        <time>2015-06-05T13:16:46Z</time>
      </trkpt>
      <trkpt lat="49.10362" lon="-1.47883">
        <ele>52.115765</ele>
        <time>2015-06-05T13:16:51Z</time>
      </trkpt>
      <trkpt lat="49.10363" lon="-1.4789">
        <ele>52.115765</ele>
        <time>2015-06-05T13:16:56Z</time>
      </trkpt>
      <trkpt lat="49.10364" lon="-1.47892">
        <ele>52.115765</ele>
        <time>2015-06-05T13:17:01Z</time>
      </trkpt>
      <trkpt lat="49.10369" lon="-1.47895">
        <ele>52.35389</ele>
        <time>2015-06-05T13:17:06Z</time>
      </trkpt>
      <trkpt lat="49.10373" lon="-1.47892">
        <ele>52.35389</ele>
        <time>2015-06-05T13:17:11Z</time>
      </trkpt>
      <trkpt lat="49.10374" lon="-1.47889">
        <ele>52.35389</ele>
        <time>2015-06-05T13:17:16Z</time>
      </trkpt>
      <trkpt lat="49.10374" lon="-1.47885">
        <ele>52.35389</ele>
        <time>2015-06-05T13:17:21Z</time>
      </trkpt>
      <trkpt lat="49.10375" lon="-1.47885">
        <ele>52.872192</ele>
        <time>2015-06-05T13:17:26Z</time>
      </trkpt>
      <trkpt lat="49.10374" lon="-1.47884">
        <ele>52.872192</ele>
        <time>2015-06-05T13:17:31Z</time>
      </trkpt>
      <trkpt lat="49.10374" lon="-1.47884">
        <ele>52.872192</ele>
        <time>2015-06-05T13:17:36Z</time>
      </trkpt>
      <trkpt lat="49.10373" lon="-1.47884">
        <ele>52.872192</ele>
        <time>2015-06-05T13:17:41Z</time>
      </trkpt>
      <trkpt lat="49.10373" lon="-1.47884">
        <ele>52.872192</ele>
        <time>2015-06-05T13:17:46Z</time>
      </trkpt>
      <trkpt lat="49.10373" lon="-1.47883">
        <ele>52.872192</ele>
        <time>2015-06-05T13:17:51Z</time>
      </trkpt>
      <trkpt lat="49.10374" lon="-1.47883">
        <ele>52.872192</ele>
        <time>2015-06-05T13:17:56Z</time>
      </trkpt>
      <trkpt lat="49.10374" lon="-1.47883">
        <ele>52.872192</ele>
        <time>2015-06-05T13:18:01Z</time>
      </trkpt>
      <trkpt lat="49.10374" lon="-1.47885">
        <ele>52.872192</ele>
        <time>2015-06-05T13:18:06Z</time>
      </trkpt>
      <trkpt lat="49.10374" lon="-1.47886">
        <ele>52.872192</ele>
        <time>2015-06-05T13:18:11Z</time>
      </trkpt>
      <trkpt lat="49.10375" lon="-1.47887">
        <ele>52.872192</ele>
        <time>2015-06-05T13:18:16Z</time>
      </trkpt>
      <trkpt lat="49.10374" lon="-1.47887">
        <ele>53.61904</ele>
        <time>2015-06-05T13:18:21Z</time>
      </trkpt>
      <trkpt lat="49.10374" lon="-1.47886">
        <ele>53.61904</ele>
        <time>2015-06-05T13:18:26Z</time>
      </trkpt>
      <trkpt lat="49.10374" lon="-1.47884">
        <ele>53.61904</ele>
        <time>2015-06-05T13:18:31Z</time>
      </trkpt>
      <trkpt lat="49.10375" lon="-1.47884">
        <ele>53.61904</ele>
        <time>2015-06-05T13:18:36Z</time>
      </trkpt>
      <trkpt lat="49.10376" lon="-1.47883">
        <ele>53.61904</ele>
        <time>2015-06-05T13:18:41Z</time>
      </trkpt>
      <trkpt lat="49.10375" lon="-1.47882">
        <ele>53.61904</ele>
        <time>2015-06-05T13:18:46Z</time>
      </trkpt>
      <trkpt lat="49.10374" lon="-1.47883">
        <ele>53.61904</ele>
        <time>2015-06-05T13:18:51Z</time>
      </trkpt>
      <trkpt lat="49.10373" lon="-1.47883">
        <ele>53.61904</ele>
        <time>2015-06-05T13:18:56Z</time>
      </trkpt>
      <trkpt lat="49.10373" lon="-1.47885">
        <ele>53.61904</ele>
        <time>2015-06-05T13:19:01Z</time>
      </trkpt>
      <trkpt lat="49.10374" lon="-1.47885">
        <ele>54.589214</ele>
        <time>2015-06-05T13:19:06Z</time>
      </trkpt>
      <trkpt lat="49.10375" lon="-1.47884">
        <ele>54.589214</ele>
        <time>2015-06-05T13:19:11Z</time>
      </trkpt>
      <trkpt lat="49.10374" lon="-1.47884">
        <ele>54.589214</ele>
        <time>2015-06-05T13:19:16Z</time>
      </trkpt>
      <trkpt lat="49.10374" lon="-1.47884">
        <ele>54.589214</ele>
        <time>2015-06-05T13:19:21Z</time>
      </trkpt>
      <trkpt lat="49.10375" lon="-1.47885">
        <ele>54.589214</ele>
        <time>2015-06-05T13:19:26Z</time>
      </trkpt>
      <trkpt lat="49.10375" lon="-1.47885">
        <ele>54.589214</ele>
        <time>2015-06-05T13:19:31Z</time>
      </trkpt>
      <trkpt lat="49.10375" lon="-1.47886">
        <ele>54.589214</ele>
        <time>2015-06-05T13:19:36Z</time>
      </trkpt>
      <trkpt lat="49.10376" lon="-1.47886">
        <ele>54.589214</ele>
        <time>2015-06-05T13:19:41Z</time>
      </trkpt>
      <trkpt lat="49.10376" lon="-1.47885">
        <ele>54.589214</ele>
        <time>2015-06-05T13:19:46Z</time>
      </trkpt>
      <trkpt lat="49.10374" lon="-1.47884">
        <ele>54.589214</ele>
        <time>2015-06-05T13:19:51Z</time>
      </trkpt>
      <trkpt lat="49.10374" lon="-1.47884">
        <ele>54.589214</ele>
        <time>2015-06-05T13:19:56Z</time>
      </trkpt>
      <trkpt lat="49.10374" lon="-1.47884">
        <ele>54.589214</ele>
        <time>2015-06-05T13:20:01Z</time>
      </trkpt>
      <trkpt lat="49.10366" lon="-1.47887">
        <ele>56.123165</ele>
        <time>2015-06-05T13:51:00Z</time>
      </trkpt>
      <trkpt lat="49.10366" lon="-1.47887">
        <ele>56.123165</ele>
        <time>2015-06-05T13:51:05Z</time>
      </trkpt>
      <trkpt lat="49.10366" lon="-1.47887">
        <ele>56.123165</ele>
        <time>2015-06-05T13:51:10Z</time>
      </trkpt>
      <trkpt lat="49.10366" lon="-1.47887">
        <ele>56.123165</ele>
        <time>2015-06-05T13:51:15Z</time>
      </trkpt>
      <trkpt lat="49.10366" lon="-1.47887">
        <ele>56.123165</ele>
        <time>2015-06-05T13:53:50Z</time>
      </trkpt>
      <trkpt lat="49.10366" lon="-1.47887">
        <ele>56.123165</ele>
        <time>2015-06-05T13:53:55Z</time>
      </trkpt>
      <trkpt lat="49.10366" lon="-1.47887">
        <ele>56.123165</ele>
        <time>2015-06-05T13:54:40Z</time>
      </trkpt>
      <trkpt lat="49.10366" lon="-1.47887">
        <ele>56.123165</ele>
        <time>2015-06-05T13:54:45Z</time>
      </trkpt>
      <trkpt lat="49.10368" lon="-1.47889">
        <ele>56.123165</ele>
        <time>2015-06-05T13:55:25Z</time>
      </trkpt>
      <trkpt lat="49.10372" lon="-1.47894">
        <ele>56.123165</ele>
        <time>2015-06-05T13:55:30Z</time>
      </trkpt>
      <trkpt lat="49.10372" lon="-1.47895">
        <ele>56.123165</ele>
        <time>2015-06-05T13:55:35Z</time>
      </trkpt>
      <trkpt lat="49.10372" lon="-1.47895">
        <ele>56.123165</ele>
        <time>2015-06-05T13:55:40Z</time>
      </trkpt>
      <trkpt lat="49.10372" lon="-1.47904">
        <ele>57.59809</ele>
        <time>2015-06-05T13:56:15Z</time>
      </trkpt>
      <trkpt lat="49.10372" lon="-1.47907">
        <ele>57.59809</ele>
        <time>2015-06-05T13:56:20Z</time>
      </trkpt>
      <trkpt lat="49.10372" lon="-1.47907">
        <ele>57.59809</ele>
        <time>2015-06-05T13:56:25Z</time>
      </trkpt>
      <trkpt lat="49.10373" lon="-1.47907">
        <ele>57.59809</ele>
        <time>2015-06-05T13:57:00Z</time>
      </trkpt>
      <trkpt lat="49.10374" lon="-1.47907">
        <ele>57.59809</ele>
        <time>2015-06-05T13:57:15Z</time>
      </trkpt>
      <trkpt lat="49.10379" lon="-1.47911">
        <ele>59.200954</ele>
        <time>2015-06-05T13:57:20Z</time>
      </trkpt>
      <trkpt lat="49.10381" lon="-1.47912">
        <ele>59.200954</ele>
        <time>2015-06-05T13:57:25Z</time>
      </trkpt>
      <trkpt lat="49.10384" lon="-1.47912">
        <ele>59.200954</ele>
        <time>2015-06-05T13:57:30Z</time>
      </trkpt>
      <trkpt lat="49.10388" lon="-1.4791">
        <ele>60.830883</ele>
        <time>2015-06-05T13:57:35Z</time>
      </trkpt>
      <trkpt lat="49.1039" lon="-1.47908">
        <ele>60.830883</ele>
        <time>2015-06-05T13:57:40Z</time>
      </trkpt>
      <trkpt lat="49.10395" lon="-1.47905">
        <ele>60.830883</ele>
        <time>2015-06-05T13:57:45Z</time>
      </trkpt>
      <trkpt lat="49.10401" lon="-1.47905">
        <ele>62.235897</ele>
        <time>2015-06-05T13:57:50Z</time>
      </trkpt>
      <trkpt lat="49.10405" lon="-1.47901">
        <ele>62.235897</ele>
        <time>2015-06-05T13:57:55Z</time>
      </trkpt>
      <trkpt lat="49.10416" lon="-1.47894">
        <ele>63.284122</ele>
        <time>2015-06-05T13:58:00Z</time>
      </trkpt>
      <trkpt lat="49.10424" lon="-1.4789">
        <ele>63.284122</ele>
        <time>2015-06-05T13:58:05Z</time>
      </trkpt>
      <trkpt lat="49.1043" lon="-1.47888">
        <ele>64.17152</ele>
        <time>2015-06-05T13:58:10Z</time>
      </trkpt>
      <trkpt lat="49.10436" lon="-1.47885">
        <ele>64.17152</ele>
        <time>2015-06-05T13:58:15Z</time>
      </trkpt>
      <trkpt lat="49.10444" lon="-1.47882">
        <ele>64.95048</ele>
        <time>2015-06-05T13:58:20Z</time>
      </trkpt>
      <trkpt lat="49.10453" lon="-1.47879">
        <ele>65.66998</ele>
        <time>2015-06-05T13:58:25Z</time>
      </trkpt>
      <trkpt lat="49.10458" lon="-1.47873">
        <ele>65.66998</ele>
        <time>2015-06-05T13:58:30Z</time>
      </trkpt>
      <trkpt lat="49.10463" lon="-1.47869">
        <ele>66.36124</ele>
        <time>2015-06-05T13:58:35Z</time>
      </trkpt>
      <trkpt lat="49.10471" lon="-1.47867">
        <ele>66.36124</ele>
        <time>2015-06-05T13:58:40Z</time>
      </trkpt>
      <trkpt lat="49.10477" lon="-1.47868">
        <ele>67.08216</ele>
        <time>2015-06-05T13:58:45Z</time>
      </trkpt>
      <trkpt lat="49.10484" lon="-1.47866">
        <ele>67.08216</ele>
        <time>2015-06-05T13:58:50Z</time>
      </trkpt>
      <trkpt lat="49.10491" lon="-1.47862">
        <ele>67.77114</ele>
        <time>2015-06-05T13:58:55Z</time>
      </trkpt>
      <trkpt lat="49.10497" lon="-1.47858">
        <ele>67.77114</ele>
        <time>2015-06-05T13:59:00Z</time>
      </trkpt>
      <trkpt lat="49.10505" lon="-1.47854">
        <ele>68.47217</ele>
        <time>2015-06-05T13:59:05Z</time>
      </trkpt>
      <trkpt lat="49.10511" lon="-1.47854">
        <ele>68.47217</ele>
        <time>2015-06-05T13:59:10Z</time>
      </trkpt>
      <trkpt lat="49.10518" lon="-1.47853">
        <ele>69.25485</ele>
        <time>2015-06-05T13:59:15Z</time>
      </trkpt>
      <trkpt lat="49.10523" lon="-1.47851">
        <ele>69.25485</ele>
        <time>2015-06-05T13:59:20Z</time>
      </trkpt>
      <trkpt lat="49.10526" lon="-1.4785">
        <ele>70.068275</ele>
        <time>2015-06-05T13:59:25Z</time>
      </trkpt>
      <trkpt lat="49.10532" lon="-1.47852">
        <ele>70.068275</ele>
        <time>2015-06-05T13:59:30Z</time>
      </trkpt>
      <trkpt lat="49.10536" lon="-1.47856">
        <ele>70.82203</ele>
        <time>2015-06-05T13:59:35Z</time>
      </trkpt>
      <trkpt lat="49.10539" lon="-1.47858">
        <ele>70.82203</ele>
        <time>2015-06-05T13:59:40Z</time>
      </trkpt>
      <trkpt lat="49.10544" lon="-1.47861">
        <ele>71.50465</ele>
        <time>2015-06-05T13:59:45Z</time>
      </trkpt>
      <trkpt lat="49.1055" lon="-1.47864">
        <ele>71.50465</ele>
        <time>2015-06-05T13:59:50Z</time>
      </trkpt>
      <trkpt lat="49.10552" lon="-1.47866">
        <ele>71.50465</ele>
        <time>2015-06-05T13:59:55Z</time>
      </trkpt>
      <trkpt lat="49.10556" lon="-1.4787">
        <ele>72.14903</ele>
        <time>2015-06-05T14:00:00Z</time>
      </trkpt>
      <trkpt lat="49.10561" lon="-1.47873">
        <ele>72.14903</ele>
        <time>2015-06-05T14:00:05Z</time>
      </trkpt>
      <trkpt lat="49.10564" lon="-1.47875">
        <ele>72.14903</ele>
        <time>2015-06-05T14:00:10Z</time>
      </trkpt>
      <trkpt lat="49.10569" lon="-1.47873">
        <ele>72.872314</ele>
        <time>2015-06-05T14:00:15Z</time>
      </trkpt>
      <trkpt lat="49.10575" lon="-1.47876">
        <ele>72.872314</ele>
        <time>2015-06-05T14:00:20Z</time>
      </trkpt>
      <trkpt lat="49.1058" lon="-1.47881">
        <ele>73.53789</ele>
        <time>2015-06-05T14:00:25Z</time>
      </trkpt>
      <trkpt lat="49.10591" lon="-1.47882">
        <ele>74.1203</ele>
        <time>2015-06-05T14:00:30Z</time>
      </trkpt>
      <trkpt lat="49.10597" lon="-1.47884">
        <ele>74.1203</ele>
        <time>2015-06-05T14:00:35Z</time>
      </trkpt>
      <trkpt lat="49.10603" lon="-1.47887">
        <ele>74.69714</ele>
        <time>2015-06-05T14:00:40Z</time>
      </trkpt>
      <trkpt lat="49.10608" lon="-1.4789">
        <ele>74.69714</ele>
        <time>2015-06-05T14:00:45Z</time>
      </trkpt>
      <trkpt lat="49.10616" lon="-1.47894">
        <ele>75.2107</ele>
        <time>2015-06-05T14:00:50Z</time>
      </trkpt>
      <trkpt lat="49.1062" lon="-1.47898">
        <ele>75.2107</ele>
        <time>2015-06-05T14:00:55Z</time>
      </trkpt>
      <trkpt lat="49.10626" lon="-1.47901">
        <ele>75.65096</ele>
        <time>2015-06-05T14:01:00Z</time>
      </trkpt>
      <trkpt lat="49.10632" lon="-1.47905">
        <ele>75.65096</ele>
        <time>2015-06-05T14:01:05Z</time>
      </trkpt>
      <trkpt lat="49.10637" lon="-1.47906">
        <ele>76.08098</ele>
        <time>2015-06-05T14:01:10Z</time>
      </trkpt>
      <trkpt lat="49.10644" lon="-1.47908">
        <ele>76.08098</ele>
        <time>2015-06-05T14:01:15Z</time>
      </trkpt>
      <trkpt lat="49.10648" lon="-1.47909">
        <ele>76.50161</ele>
        <time>2015-06-05T14:01:20Z</time>
      </trkpt>
      <trkpt lat="49.10658" lon="-1.47911">
        <ele>76.92815</ele>
        <time>2015-06-05T14:01:25Z</time>
      </trkpt>
      <trkpt lat="49.10663" lon="-1.47912">
        <ele>76.92815</ele>
        <time>2015-06-05T14:01:30Z</time>
      </trkpt>
      <trkpt lat="49.10672" lon="-1.47914">
        <ele>77.418</ele>
        <time>2015-06-05T14:01:35Z</time>
      </trkpt>
      <trkpt lat="49.10675" lon="-1.47916">
        <ele>77.418</ele>
        <time>2015-06-05T14:01:40Z</time>
      </trkpt>
      <trkpt lat="49.10677" lon="-1.47918">
        <ele>77.418</ele>
        <time>2015-06-05T14:01:45Z</time>
      </trkpt>
      <trkpt lat="49.10679" lon="-1.47923">
        <ele>77.89455</ele>
        <time>2015-06-05T14:01:50Z</time>
      </trkpt>
      <trkpt lat="49.10682" lon="-1.47926">
        <ele>77.89455</ele>
        <time>2015-06-05T14:01:55Z</time>
      </trkpt>
      <trkpt lat="49.10688" lon="-1.4793">
        <ele>78.30127</ele>
        <time>2015-06-05T14:02:00Z</time>
      </trkpt>
      <trkpt lat="49.10697" lon="-1.47932">
        <ele>78.62927</ele>
        <time>2015-06-05T14:02:05Z</time>
      </trkpt>
      <trkpt lat="49.10703" lon="-1.47934">
        <ele>78.62927</ele>
        <time>2015-06-05T14:02:10Z</time>
      </trkpt>
      <trkpt lat="49.10707" lon="-1.47936">
        <ele>78.798515</ele>
        <time>2015-06-05T14:02:15Z</time>
      </trkpt>
      <trkpt lat="49.1071" lon="-1.47939">
        <ele>78.798515</ele>
        <time>2015-06-05T14:02:20Z</time>
      </trkpt>
      <trkpt lat="49.10715" lon="-1.47943">
        <ele>78.86499</ele>
        <time>2015-06-05T14:02:25Z</time>
      </trkpt>
      <trkpt lat="49.10724" lon="-1.47952">
        <ele>78.880905</ele>
        <time>2015-06-05T14:02:30Z</time>
      </trkpt>
      <trkpt lat="49.10731" lon="-1.4796">
        <ele>78.880905</ele>
        <time>2015-06-05T14:02:35Z</time>
      </trkpt>
      <trkpt lat="49.10736" lon="-1.47964">
        <ele>78.89477</ele>
        <time>2015-06-05T14:02:40Z</time>
      </trkpt>
      <trkpt lat="49.10741" lon="-1.47967">
        <ele>78.89477</ele>
        <time>2015-06-05T14:02:45Z</time>
      </trkpt>
      <trkpt lat="49.10745" lon="-1.47973">
        <ele>78.89393</ele>
        <time>2015-06-05T14:02:50Z</time>
      </trkpt>
      <trkpt lat="49.10747" lon="-1.47974">
        <ele>78.89393</ele>
        <time>2015-06-05T14:02:55Z</time>
      </trkpt>
      <trkpt lat="49.10751" lon="-1.47976">
        <ele>78.89393</ele>
        <time>2015-06-05T14:03:00Z</time>
      </trkpt>
      <trkpt lat="49.10755" lon="-1.47979">
        <ele>78.88109</ele>
        <time>2015-06-05T14:03:05Z</time>
      </trkpt>
      <trkpt lat="49.10764" lon="-1.47986">
        <ele>78.88763</ele>
        <time>2015-06-05T14:03:10Z</time>
      </trkpt>
      <trkpt lat="49.10771" lon="-1.47991">
        <ele>78.88763</ele>
        <time>2015-06-05T14:03:15Z</time>
      </trkpt>
      <trkpt lat="49.10775" lon="-1.47995">
        <ele>78.89931</ele>
        <time>2015-06-05T14:03:20Z</time>
      </trkpt>
      <trkpt lat="49.10779" lon="-1.48">
        <ele>78.89931</ele>
        <time>2015-06-05T14:03:25Z</time>
      </trkpt>
      <trkpt lat="49.10784" lon="-1.48005">
        <ele>78.93176</ele>
        <time>2015-06-05T14:03:30Z</time>
      </trkpt>
      <trkpt lat="49.10789" lon="-1.48009">
        <ele>78.93176</ele>
        <time>2015-06-05T14:03:35Z</time>
      </trkpt>
      <trkpt lat="49.10795" lon="-1.48014">
        <ele>79.0426</ele>
        <time>2015-06-05T14:03:40Z</time>
      </trkpt>
      <trkpt lat="49.10802" lon="-1.48017">
        <ele>79.0426</ele>
        <time>2015-06-05T14:03:45Z</time>
      </trkpt>
      <trkpt lat="49.10808" lon="-1.48021">
        <ele>79.15531</ele>
        <time>2015-06-05T14:03:50Z</time>
      </trkpt>
      <trkpt lat="49.10811" lon="-1.48023">
        <ele>79.15531</ele>
        <time>2015-06-05T14:03:55Z</time>
      </trkpt>
      <trkpt lat="49.10815" lon="-1.48025">
        <ele>79.15531</ele>
        <time>2015-06-05T14:04:00Z</time>
      </trkpt>
      <trkpt lat="49.1082" lon="-1.4803">
        <ele>79.299805</ele>
        <time>2015-06-05T14:04:05Z</time>
      </trkpt>
      <trkpt lat="49.10826" lon="-1.48033">
        <ele>79.299805</ele>
        <time>2015-06-05T14:04:10Z</time>
      </trkpt>
      <trkpt lat="49.10834" lon="-1.48038">
        <ele>79.44607</ele>
        <time>2015-06-05T14:04:15Z</time>
      </trkpt>
      <trkpt lat="49.10841" lon="-1.48041">
        <ele>79.44607</ele>
        <time>2015-06-05T14:04:20Z</time>
      </trkpt>
      <trkpt lat="49.10847" lon="-1.48044">
        <ele>79.6239</ele>
        <time>2015-06-05T14:04:25Z</time>
      </trkpt>
      <trkpt lat="49.10854" lon="-1.48046">
        <ele>79.6239</ele>
        <time>2015-06-05T14:04:30Z</time>
      </trkpt>
      <trkpt lat="49.10858" lon="-1.48049">
        <ele>79.83198</ele>
        <time>2015-06-05T14:04:35Z</time>
      </trkpt>
      <trkpt lat="49.10862" lon="-1.48051">
        <ele>79.83198</ele>
        <time>2015-06-05T14:04:40Z</time>
      </trkpt>
      <trkpt lat="49.10867" lon="-1.48053">
        <ele>79.83198</ele>
        <time>2015-06-05T14:04:45Z</time>
      </trkpt>
      <trkpt lat="49.10872" lon="-1.48057">
        <ele>79.96809</ele>
        <time>2015-06-05T14:04:50Z</time>
      </trkpt>
      <trkpt lat="49.10878" lon="-1.48064">
        <ele>79.96809</ele>
        <time>2015-06-05T14:04:55Z</time>
      </trkpt>
      <trkpt lat="49.10879" lon="-1.48069">
        <ele>79.99534</ele>
        <time>2015-06-05T14:05:00Z</time>
      </trkpt>
      <trkpt lat="49.10879" lon="-1.48071">
        <ele>79.99534</ele>
        <time>2015-06-05T14:05:05Z</time>
      </trkpt>
      <trkpt lat="49.10879" lon="-1.48073">
        <ele>79.99534</ele>
        <time>2015-06-05T14:05:10Z</time>
      </trkpt>
      <trkpt lat="49.10879" lon="-1.48076">
        <ele>79.99534</ele>
        <time>2015-06-05T14:05:15Z</time>
      </trkpt>
      <trkpt lat="49.10879" lon="-1.48074">
        <ele>79.99534</ele>
        <time>2015-06-05T14:05:20Z</time>
      </trkpt>
      <trkpt lat="49.10881" lon="-1.48072">
        <ele>79.99534</ele>
        <time>2015-06-05T14:05:25Z</time>
      </trkpt>
      <trkpt lat="49.10881" lon="-1.48068">
        <ele>80.1104</ele>
        <time>2015-06-05T14:05:30Z</time>
      </trkpt>
      <trkpt lat="49.10882" lon="-1.4807">
        <ele>80.1104</ele>
        <time>2015-06-05T14:05:35Z</time>
      </trkpt>
      <trkpt lat="49.10881" lon="-1.48073">
        <ele>80.1104</ele>
        <time>2015-06-05T14:05:40Z</time>
      </trkpt>
      <trkpt lat="49.1088" lon="-1.48074">
        <ele>80.1104</ele>
        <time>2015-06-05T14:05:45Z</time>
      </trkpt>
      <trkpt lat="49.10883" lon="-1.48074">
        <ele>80.1104</ele>
        <time>2015-06-05T14:05:50Z</time>
      </trkpt>
      <trkpt lat="49.10887" lon="-1.48074">
        <ele>80.25023</ele>
        <time>2015-06-05T14:05:55Z</time>
      </trkpt>
      <trkpt lat="49.10892" lon="-1.48075">
        <ele>80.25023</ele>
        <time>2015-06-05T14:06:00Z</time>
      </trkpt>
      <trkpt lat="49.10897" lon="-1.48077">
        <ele>80.255455</ele>
        <time>2015-06-05T14:06:05Z</time>
      </trkpt>
      <trkpt lat="49.10899" lon="-1.48076">
        <ele>80.255455</ele>
        <time>2015-06-05T14:06:10Z</time>
      </trkpt>
      <trkpt lat="49.10906" lon="-1.48075">
        <ele>80.255455</ele>
        <time>2015-06-05T14:06:15Z</time>
      </trkpt>
      <trkpt lat="49.1091" lon="-1.48075">
        <ele>79.99314</ele>
        <time>2015-06-05T14:06:20Z</time>
      </trkpt>
      <trkpt lat="49.10913" lon="-1.48074">
        <ele>79.99314</ele>
        <time>2015-06-05T14:06:25Z</time>
      </trkpt>
      <trkpt lat="49.10918" lon="-1.48074">
        <ele>79.99314</ele>
        <time>2015-06-05T14:06:30Z</time>
      </trkpt>
      <trkpt lat="49.10922" lon="-1.48073">
        <ele>79.38408</ele>
        <time>2015-06-05T14:06:35Z</time>
      </trkpt>
      <trkpt lat="49.10931" lon="-1.48069">
        <ele>79.38408</ele>
        <time>2015-06-05T14:06:40Z</time>
      </trkpt>
      <trkpt lat="49.10935" lon="-1.48071">
        <ele>78.54317</ele>
        <time>2015-06-05T14:06:45Z</time>
      </trkpt>
      <trkpt lat="49.1094" lon="-1.48075">
        <ele>78.54317</ele>
        <time>2015-06-05T14:06:50Z</time>
      </trkpt>
      <trkpt lat="49.10945" lon="-1.48081">
        <ele>77.56304</ele>
        <time>2015-06-05T14:06:55Z</time>
      </trkpt>
      <trkpt lat="49.10949" lon="-1.48086">
        <ele>77.56304</ele>
        <time>2015-06-05T14:07:00Z</time>
      </trkpt>
      <trkpt lat="49.10954" lon="-1.48088">
        <ele>76.41458</ele>
        <time>2015-06-05T14:07:05Z</time>
      </trkpt>
      <trkpt lat="49.10959" lon="-1.48089">
        <ele>76.41458</ele>
        <time>2015-06-05T14:07:10Z</time>
      </trkpt>
      <trkpt lat="49.10962" lon="-1.48083">
        <ele>75.31623</ele>
        <time>2015-06-05T14:07:15Z</time>
      </trkpt>
      <trkpt lat="49.10963" lon="-1.48078">
        <ele>75.31623</ele>
        <time>2015-06-05T14:07:20Z</time>
      </trkpt>
      <trkpt lat="49.10964" lon="-1.4807">
        <ele>75.31623</ele>
        <time>2015-06-05T14:07:25Z</time>
      </trkpt>
      <trkpt lat="49.10965" lon="-1.48062">
        <ele>74.39811</ele>
        <time>2015-06-05T14:07:30Z</time>
      </trkpt>
      <trkpt lat="49.10965" lon="-1.48055">
        <ele>74.39811</ele>
        <time>2015-06-05T14:07:35Z</time>
      </trkpt>
      <trkpt lat="49.10966" lon="-1.48044">
        <ele>73.59284</ele>
        <time>2015-06-05T14:07:40Z</time>
      </trkpt>
      <trkpt lat="49.10966" lon="-1.48037">
        <ele>73.59284</ele>
        <time>2015-06-05T14:07:45Z</time>
      </trkpt>
      <trkpt lat="49.10967" lon="-1.48029">
        <ele>72.794395</ele>
        <time>2015-06-05T14:07:50Z</time>
      </trkpt>
      <trkpt lat="49.10968" lon="-1.48023">
        <ele>72.794395</ele>
        <time>2015-06-05T14:07:55Z</time>
      </trkpt>
      <trkpt lat="49.10967" lon="-1.48016">
        <ele>72.794395</ele>
        <time>2015-06-05T14:08:00Z</time>
      </trkpt>
      <trkpt lat="49.10966" lon="-1.48012">
        <ele>72.03413</ele>
        <time>2015-06-05T14:08:05Z</time>
      </trkpt>
      <trkpt lat="49.10966" lon="-1.48012">
        <ele>72.03413</ele>
        <time>2015-06-05T14:08:10Z</time>
      </trkpt>
      <trkpt lat="49.10965" lon="-1.4801">
        <ele>72.03413</ele>
        <time>2015-06-05T14:08:20Z</time>
      </trkpt>
      <trkpt lat="49.10967" lon="-1.48008">
        <ele>72.03413</ele>
        <time>2015-06-05T14:08:25Z</time>
      </trkpt>
      <trkpt lat="49.10966" lon="-1.48006">
        <ele>72.03413</ele>
        <time>2015-06-05T14:08:30Z</time>
      </trkpt>
      <trkpt lat="49.10966" lon="-1.48006">
        <ele>72.03413</ele>
        <time>2015-06-05T14:08:35Z</time>
      </trkpt>
      <trkpt lat="49.10966" lon="-1.48005">
        <ele>72.03413</ele>
        <time>2015-06-05T14:08:40Z</time>
      </trkpt>
      <trkpt lat="49.10965" lon="-1.47999">
        <ele>71.34087</ele>
        <time>2015-06-05T14:08:45Z</time>
      </trkpt>
      <trkpt lat="49.10965" lon="-1.47999">
        <ele>71.34087</ele>
        <time>2015-06-05T14:08:50Z</time>
      </trkpt>
      <trkpt lat="49.10965" lon="-1.47996">
        <ele>71.34087</ele>
        <time>2015-06-05T14:09:00Z</time>
      </trkpt>
      <trkpt lat="49.10965" lon="-1.47996">
        <ele>71.34087</ele>
        <time>2015-06-05T14:09:05Z</time>
      </trkpt>
      <trkpt lat="49.10965" lon="-1.47996">
        <ele>71.34087</ele>
        <time>2015-06-05T14:09:15Z</time>
      </trkpt>
      <trkpt lat="49.10965" lon="-1.47996">
        <ele>71.34087</ele>
        <time>2015-06-05T14:09:20Z</time>
      </trkpt>
      <trkpt lat="49.10965" lon="-1.47994">
        <ele>71.34087</ele>
        <time>2015-06-05T14:09:55Z</time>
      </trkpt>
      <trkpt lat="49.10965" lon="-1.47991">
        <ele>71.34087</ele>
        <time>2015-06-05T14:10:00Z</time>
      </trkpt>
      <trkpt lat="49.10964" lon="-1.4798">
        <ele>70.62582</ele>
        <time>2015-06-05T14:10:05Z</time>
      </trkpt>
      <trkpt lat="49.10965" lon="-1.47975">
        <ele>70.62582</ele>
        <time>2015-06-05T14:10:10Z</time>
      </trkpt>
      <trkpt lat="49.10964" lon="-1.4796">
        <ele>70.00838</ele>
        <time>2015-06-05T14:10:15Z</time>
      </trkpt>
      <trkpt lat="49.10963" lon="-1.47952">
        <ele>70.00838</ele>
        <time>2015-06-05T14:10:20Z</time>
      </trkpt>
      <trkpt lat="49.10963" lon="-1.47946">
        <ele>69.440315</ele>
        <time>2015-06-05T14:10:25Z</time>
      </trkpt>
      <trkpt lat="49.10963" lon="-1.47937">
        <ele>69.440315</ele>
        <time>2015-06-05T14:10:30Z</time>
      </trkpt>
      <trkpt lat="49.10961" lon="-1.47928">
        <ele>68.96319</ele>
        <time>2015-06-05T14:10:35Z</time>
      </trkpt>
      <trkpt lat="49.10961" lon="-1.4792">
        <ele>68.96319</ele>
        <time>2015-06-05T14:10:40Z</time>
      </trkpt>
      <trkpt lat="49.10961" lon="-1.47911">
        <ele>68.58632</ele>
        <time>2015-06-05T14:10:45Z</time>
      </trkpt>
      <trkpt lat="49.10961" lon="-1.47902">
        <ele>68.58632</ele>
        <time>2015-06-05T14:10:50Z</time>
      </trkpt>
      <trkpt lat="49.1096" lon="-1.47894">
        <ele>68.231514</ele>
        <time>2015-06-05T14:10:55Z</time>
      </trkpt>
      <trkpt lat="49.10959" lon="-1.47885">
        <ele>68.231514</ele>
        <time>2015-06-05T14:11:00Z</time>
      </trkpt>
      <trkpt lat="49.10958" lon="-1.47879">
        <ele>67.86944</ele>
        <time>2015-06-05T14:11:05Z</time>
      </trkpt>
      <trkpt lat="49.10957" lon="-1.47872">
        <ele>67.86944</ele>
        <time>2015-06-05T14:11:10Z</time>
      </trkpt>
      <trkpt lat="49.10957" lon="-1.47864">
        <ele>67.50163</ele>
        <time>2015-06-05T14:11:15Z</time>
      </trkpt>
      <trkpt lat="49.10957" lon="-1.47853">
        <ele>67.50163</ele>
        <time>2015-06-05T14:11:20Z</time>
      </trkpt>
      <trkpt lat="49.10956" lon="-1.47844">
        <ele>67.17273</ele>
        <time>2015-06-05T14:11:25Z</time>
      </trkpt>
      <trkpt lat="49.10955" lon="-1.47833">
        <ele>67.17273</ele>
        <time>2015-06-05T14:11:30Z</time>
      </trkpt>
      <trkpt lat="49.10954" lon="-1.47826">
        <ele>66.90946</ele>
        <time>2015-06-05T14:11:35Z</time>
      </trkpt>
      <trkpt lat="49.10953" lon="-1.47818">
        <ele>66.90946</ele>
        <time>2015-06-05T14:11:40Z</time>
      </trkpt>
      <trkpt lat="49.10954" lon="-1.47809">
        <ele>66.678734</ele>
        <time>2015-06-05T14:11:45Z</time>
      </trkpt>
      <trkpt lat="49.10955" lon="-1.47801">
        <ele>66.678734</ele>
        <time>2015-06-05T14:11:50Z</time>
      </trkpt>
      <trkpt lat="49.10956" lon="-1.47791">
        <ele>66.42086</ele>
        <time>2015-06-05T14:11:55Z</time>
      </trkpt>
      <trkpt lat="49.10957" lon="-1.47779">
        <ele>66.42086</ele>
        <time>2015-06-05T14:12:00Z</time>
      </trkpt>
      <trkpt lat="49.10957" lon="-1.47769">
        <ele>66.12382</ele>
        <time>2015-06-05T14:12:05Z</time>
      </trkpt>
      <trkpt lat="49.10958" lon="-1.47762">
        <ele>66.12382</ele>
        <time>2015-06-05T14:12:10Z</time>
      </trkpt>
      <trkpt lat="49.10958" lon="-1.47753">
        <ele>65.7909</ele>
        <time>2015-06-05T14:12:15Z</time>
      </trkpt>
      <trkpt lat="49.10957" lon="-1.47746">
        <ele>65.7909</ele>
        <time>2015-06-05T14:12:20Z</time>
      </trkpt>
      <trkpt lat="49.10956" lon="-1.47739">
        <ele>65.48288</ele>
        <time>2015-06-05T14:12:25Z</time>
      </trkpt>
      <trkpt lat="49.10955" lon="-1.4773">
        <ele>65.48288</ele>
        <time>2015-06-05T14:12:30Z</time>
      </trkpt>
      <trkpt lat="49.10956" lon="-1.4772">
        <ele>65.27033</ele>
        <time>2015-06-05T14:12:35Z</time>
      </trkpt>
      <trkpt lat="49.10955" lon="-1.47707">
        <ele>65.27033</ele>
        <time>2015-06-05T14:12:40Z</time>
      </trkpt>
      <trkpt lat="49.10954" lon="-1.47699">
        <ele>65.030975</ele>
        <time>2015-06-05T14:12:45Z</time>
      </trkpt>
      <trkpt lat="49.10951" lon="-1.47693">
        <ele>65.030975</ele>
        <time>2015-06-05T14:12:50Z</time>
      </trkpt>
      <trkpt lat="49.10947" lon="-1.47685">
        <ele>64.781265</ele>
        <time>2015-06-05T14:12:55Z</time>
      </trkpt>
      <trkpt lat="49.10944" lon="-1.47677">
        <ele>64.781265</ele>
        <time>2015-06-05T14:13:00Z</time>
      </trkpt>
      <trkpt lat="49.10942" lon="-1.47671">
        <ele>64.5076</ele>
        <time>2015-06-05T14:13:05Z</time>
      </trkpt>
      <trkpt lat="49.1094" lon="-1.47665">
        <ele>64.5076</ele>
        <time>2015-06-05T14:13:10Z</time>
      </trkpt>
      <trkpt lat="49.10934" lon="-1.47658">
        <ele>64.197395</ele>
        <time>2015-06-05T14:13:15Z</time>
      </trkpt>
      <trkpt lat="49.10928" lon="-1.4765">
        <ele>64.197395</ele>
        <time>2015-06-05T14:13:20Z</time>
      </trkpt>
      <trkpt lat="49.10924" lon="-1.47641">
        <ele>63.96876</ele>
        <time>2015-06-05T14:13:25Z</time>
      </trkpt>
      <trkpt lat="49.1092" lon="-1.47635">
        <ele>63.96876</ele>
        <time>2015-06-05T14:13:30Z</time>
      </trkpt>
      <trkpt lat="49.10918" lon="-1.47628">
        <ele>63.75795</ele>
        <time>2015-06-05T14:13:35Z</time>
      </trkpt>
      <trkpt lat="49.10914" lon="-1.47621">
        <ele>63.75795</ele>
        <time>2015-06-05T14:13:40Z</time>
      </trkpt>
      <trkpt lat="49.10911" lon="-1.47614">
        <ele>63.549023</ele>
        <time>2015-06-05T14:13:45Z</time>
      </trkpt>
      <trkpt lat="49.10909" lon="-1.47606">
        <ele>63.549023</ele>
        <time>2015-06-05T14:13:50Z</time>
      </trkpt>
      <trkpt lat="49.10905" lon="-1.47598">
        <ele>63.269554</ele>
        <time>2015-06-05T14:13:55Z</time>
      </trkpt>
      <trkpt lat="49.10904" lon="-1.47592">
        <ele>63.269554</ele>
        <time>2015-06-05T14:14:00Z</time>
      </trkpt>
      <trkpt lat="49.10903" lon="-1.47582">
        <ele>62.939064</ele>
        <time>2015-06-05T14:14:05Z</time>
      </trkpt>
      <trkpt lat="49.10903" lon="-1.47575">
        <ele>62.939064</ele>
        <time>2015-06-05T14:14:10Z</time>
      </trkpt>
      <trkpt lat="49.10904" lon="-1.47565">
        <ele>62.53253</ele>
        <time>2015-06-05T14:14:15Z</time>
      </trkpt>
      <trkpt lat="49.10906" lon="-1.4756">
        <ele>62.53253</ele>
        <time>2015-06-05T14:14:20Z</time>
      </trkpt>
      <trkpt lat="49.1091" lon="-1.47555">
        <ele>62.53253</ele>
        <time>2015-06-05T14:14:25Z</time>
      </trkpt>
      <trkpt lat="49.10915" lon="-1.47551">
        <ele>61.954903</ele>
        <time>2015-06-05T14:14:30Z</time>
      </trkpt>
      <trkpt lat="49.10921" lon="-1.4755">
        <ele>61.954903</ele>
        <time>2015-06-05T14:14:35Z</time>
      </trkpt>
      <trkpt lat="49.10927" lon="-1.47548">
        <ele>61.334736</ele>
        <time>2015-06-05T14:14:40Z</time>
      </trkpt>
      <trkpt lat="49.10935" lon="-1.47545">
        <ele>61.334736</ele>
        <time>2015-06-05T14:14:45Z</time>
      </trkpt>
      <trkpt lat="49.10942" lon="-1.47544">
        <ele>60.66154</ele>
        <time>2015-06-05T14:14:50Z</time>
      </trkpt>
      <trkpt lat="49.1095" lon="-1.47541">
        <ele>60.66154</ele>
        <time>2015-06-05T14:14:55Z</time>
      </trkpt>
      <trkpt lat="49.10956" lon="-1.4754">
        <ele>59.997776</ele>
        <time>2015-06-05T14:15:00Z</time>
      </trkpt>
      <trkpt lat="49.10962" lon="-1.47541">
        <ele>59.997776</ele>
        <time>2015-06-05T14:15:05Z</time>
      </trkpt>
      <trkpt lat="49.10967" lon="-1.47541">
        <ele>59.415684</ele>
        <time>2015-06-05T14:15:10Z</time>
      </trkpt>
      <trkpt lat="49.10971" lon="-1.47544">
        <ele>59.415684</ele>
        <time>2015-06-05T14:15:15Z</time>
      </trkpt>
      <trkpt lat="49.10977" lon="-1.47547">
        <ele>58.866646</ele>
        <time>2015-06-05T14:15:20Z</time>
      </trkpt>
      <trkpt lat="49.10983" lon="-1.4755">
        <ele>58.866646</ele>
        <time>2015-06-05T14:15:25Z</time>
      </trkpt>
      <trkpt lat="49.10989" lon="-1.47554">
        <ele>58.27668</ele>
        <time>2015-06-05T14:15:30Z</time>
      </trkpt>
      <trkpt lat="49.10995" lon="-1.47555">
        <ele>58.27668</ele>
        <time>2015-06-05T14:15:35Z</time>
      </trkpt>
      <trkpt lat="49.11" lon="-1.47556">
        <ele>57.63498</ele>
        <time>2015-06-05T14:15:40Z</time>
      </trkpt>
      <trkpt lat="49.11005" lon="-1.47558">
        <ele>57.63498</ele>
        <time>2015-06-05T14:15:45Z</time>
      </trkpt>
      <trkpt lat="49.1101" lon="-1.47559">
        <ele>56.917236</ele>
        <time>2015-06-05T14:15:50Z</time>
      </trkpt>
      <trkpt lat="49.11016" lon="-1.47564">
        <ele>56.917236</ele>
        <time>2015-06-05T14:15:55Z</time>
      </trkpt>
      <trkpt lat="49.11021" lon="-1.47567">
        <ele>56.2164</ele>
        <time>2015-06-05T14:16:00Z</time>
      </trkpt>
      <trkpt lat="49.11027" lon="-1.47569">
        <ele>56.2164</ele>
        <time>2015-06-05T14:16:05Z</time>
      </trkpt>
      <trkpt lat="49.11033" lon="-1.47572">
        <ele>55.589714</ele>
        <time>2015-06-05T14:16:10Z</time>
      </trkpt>
      <trkpt lat="49.11038" lon="-1.47573">
        <ele>55.589714</ele>
        <time>2015-06-05T14:16:15Z</time>
      </trkpt>
      <trkpt lat="49.11043" lon="-1.47575">
        <ele>55.133198</ele>
        <time>2015-06-05T14:16:20Z</time>
      </trkpt>
      <trkpt lat="49.11048" lon="-1.4758">
        <ele>55.133198</ele>
        <time>2015-06-05T14:16:25Z</time>
      </trkpt>
      <trkpt lat="49.11054" lon="-1.47582">
        <ele>54.834454</ele>
        <time>2015-06-05T14:16:30Z</time>
      </trkpt>
      <trkpt lat="49.11058" lon="-1.47586">
        <ele>54.834454</ele>
        <time>2015-06-05T14:16:35Z</time>
      </trkpt>
      <trkpt lat="49.11064" lon="-1.47587">
        <ele>54.73916</ele>
        <time>2015-06-05T14:16:40Z</time>
      </trkpt>
      <trkpt lat="49.11069" lon="-1.47588">
        <ele>54.73916</ele>
        <time>2015-06-05T14:16:45Z</time>
      </trkpt>
      <trkpt lat="49.11075" lon="-1.4759">
        <ele>54.687305</ele>
        <time>2015-06-05T14:16:50Z</time>
      </trkpt>
      <trkpt lat="49.11081" lon="-1.4759">
        <ele>54.687305</ele>
        <time>2015-06-05T14:16:55Z</time>
      </trkpt>
      <trkpt lat="49.11087" lon="-1.47589">
        <ele>54.645775</ele>
        <time>2015-06-05T14:17:00Z</time>
      </trkpt>
      <trkpt lat="49.11091" lon="-1.47586">
        <ele>54.645775</ele>
        <time>2015-06-05T14:17:05Z</time>
      </trkpt>
      <trkpt lat="49.11091" lon="-1.47587">
        <ele>54.645775</ele>
        <time>2015-06-05T14:17:10Z</time>
      </trkpt>
      <trkpt lat="49.11092" lon="-1.47585">
        <ele>54.645775</ele>
        <time>2015-06-05T14:17:15Z</time>
      </trkpt>
      <trkpt lat="49.11095" lon="-1.47585">
        <ele>54.645775</ele>
        <time>2015-06-05T14:17:20Z</time>
      </trkpt>
      <trkpt lat="49.111" lon="-1.47582">
        <ele>54.497383</ele>
        <time>2015-06-05T14:17:25Z</time>
      </trkpt>
      <trkpt lat="49.11105" lon="-1.47584">
        <ele>54.497383</ele>
        <time>2015-06-05T14:17:30Z</time>
      </trkpt>
      <trkpt lat="49.11111" lon="-1.47581">
        <ele>54.42207</ele>
        <time>2015-06-05T14:17:35Z</time>
      </trkpt>
      <trkpt lat="49.11115" lon="-1.47577">
        <ele>54.42207</ele>
        <time>2015-06-05T14:17:40Z</time>
      </trkpt>
      <trkpt lat="49.1112" lon="-1.47574">
        <ele>54.456635</ele>
        <time>2015-06-05T14:17:45Z</time>
      </trkpt>
      <trkpt lat="49.11125" lon="-1.4757">
        <ele>54.456635</ele>
        <time>2015-06-05T14:17:50Z</time>
      </trkpt>
      <trkpt lat="49.1113" lon="-1.47564">
        <ele>54.548416</ele>
        <time>2015-06-05T14:17:55Z</time>
      </trkpt>
      <trkpt lat="49.11135" lon="-1.47558">
        <ele>54.548416</ele>
        <time>2015-06-05T14:18:00Z</time>
      </trkpt>
      <trkpt lat="49.11139" lon="-1.47553">
        <ele>54.792564</ele>
        <time>2015-06-05T14:18:05Z</time>
      </trkpt>
      <trkpt lat="49.11141" lon="-1.47547">
        <ele>54.792564</ele>
        <time>2015-06-05T14:18:10Z</time>
      </trkpt>
      <trkpt lat="49.11144" lon="-1.4754">
        <ele>55.219177</ele>
        <time>2015-06-05T14:18:15Z</time>
      </trkpt>
      <trkpt lat="49.11148" lon="-1.47533">
        <ele>55.219177</ele>
        <time>2015-06-05T14:18:20Z</time>
      </trkpt>
      <trkpt lat="49.11154" lon="-1.47524">
        <ele>55.72595</ele>
        <time>2015-06-05T14:18:25Z</time>
      </trkpt>
      <trkpt lat="49.11156" lon="-1.47514">
        <ele>55.72595</ele>
        <time>2015-06-05T14:18:30Z</time>
      </trkpt>
      <trkpt lat="49.11158" lon="-1.47509">
        <ele>56.189053</ele>
        <time>2015-06-05T14:18:35Z</time>
      </trkpt>
      <trkpt lat="49.1116" lon="-1.47501">
        <ele>56.189053</ele>
        <time>2015-06-05T14:18:40Z</time>
      </trkpt>
      <trkpt lat="49.11161" lon="-1.47492">
        <ele>56.767723</ele>
        <time>2015-06-05T14:18:45Z</time>
      </trkpt>
      <trkpt lat="49.11163" lon="-1.47481">
        <ele>56.767723</ele>
        <time>2015-06-05T14:18:50Z</time>
      </trkpt>
      <trkpt lat="49.11163" lon="-1.47473">
        <ele>57.522743</ele>
        <time>2015-06-05T14:18:55Z</time>
      </trkpt>
      <trkpt lat="49.11163" lon="-1.47464">
        <ele>57.522743</ele>
        <time>2015-06-05T14:19:00Z</time>
      </trkpt>
      <trkpt lat="49.11163" lon="-1.47457">
        <ele>58.308212</ele>
        <time>2015-06-05T14:19:05Z</time>
      </trkpt>
      <trkpt lat="49.11164" lon="-1.47448">
        <ele>58.308212</ele>
        <time>2015-06-05T14:19:10Z</time>
      </trkpt>
      <trkpt lat="49.11165" lon="-1.47439">
        <ele>59.07537</ele>
        <time>2015-06-05T14:19:15Z</time>
      </trkpt>
      <trkpt lat="49.11166" lon="-1.47434">
        <ele>59.07537</ele>
        <time>2015-06-05T14:19:20Z</time>
      </trkpt>
      <trkpt lat="49.11167" lon="-1.47434">
        <ele>59.07537</ele>
        <time>2015-06-05T14:19:25Z</time>
      </trkpt>
      <trkpt lat="49.1117" lon="-1.4743">
        <ele>59.07537</ele>
        <time>2015-06-05T14:19:30Z</time>
      </trkpt>
      <trkpt lat="49.11174" lon="-1.47427">
        <ele>59.692684</ele>
        <time>2015-06-05T14:19:35Z</time>
      </trkpt>
      <trkpt lat="49.11178" lon="-1.47424">
        <ele>59.692684</ele>
        <time>2015-06-05T14:19:40Z</time>
      </trkpt>
      <trkpt lat="49.11181" lon="-1.47421">
        <ele>59.692684</ele>
        <time>2015-06-05T14:19:45Z</time>
      </trkpt>
      <trkpt lat="49.11184" lon="-1.47416">
        <ele>60.226093</ele>
        <time>2015-06-05T14:19:50Z</time>
      </trkpt>
      <trkpt lat="49.11189" lon="-1.47411">
        <ele>60.226093</ele>
        <time>2015-06-05T14:19:55Z</time>
      </trkpt>
      <trkpt lat="49.11192" lon="-1.47408">
        <ele>60.226093</ele>
        <time>2015-06-05T14:20:00Z</time>
      </trkpt>
      <trkpt lat="49.11196" lon="-1.47404">
        <ele>60.73699</ele>
        <time>2015-06-05T14:20:05Z</time>
      </trkpt>
      <trkpt lat="49.112" lon="-1.47401">
        <ele>60.73699</ele>
        <time>2015-06-05T14:20:10Z</time>
      </trkpt>
      <trkpt lat="49.11206" lon="-1.47398">
        <ele>61.21034</ele>
        <time>2015-06-05T14:20:15Z</time>
      </trkpt>
      <trkpt lat="49.11211" lon="-1.47397">
        <ele>61.21034</ele>
        <time>2015-06-05T14:20:20Z</time>
      </trkpt>
      <trkpt lat="49.11217" lon="-1.47395">
        <ele>61.646774</ele>
        <time>2015-06-05T14:20:25Z</time>
      </trkpt>
      <trkpt lat="49.11223" lon="-1.47391">
        <ele>61.646774</ele>
        <time>2015-06-05T14:20:30Z</time>
      </trkpt>
      <trkpt lat="49.11228" lon="-1.47388">
        <ele>61.960594</ele>
        <time>2015-06-05T14:20:35Z</time>
      </trkpt>
      <trkpt lat="49.11232" lon="-1.47385">
        <ele>61.960594</ele>
        <time>2015-06-05T14:20:40Z</time>
      </trkpt>
      <trkpt lat="49.11238" lon="-1.4738">
        <ele>62.202507</ele>
        <time>2015-06-05T14:20:45Z</time>
      </trkpt>
      <trkpt lat="49.11242" lon="-1.47375">
        <ele>62.202507</ele>
        <time>2015-06-05T14:20:50Z</time>
      </trkpt>
      <trkpt lat="49.11247" lon="-1.47372">
        <ele>62.362114</ele>
        <time>2015-06-05T14:20:55Z</time>
      </trkpt>
      <trkpt lat="49.11252" lon="-1.47369">
        <ele>62.362114</ele>
        <time>2015-06-05T14:21:00Z</time>
      </trkpt>
      <trkpt lat="49.11256" lon="-1.47365">
        <ele>62.372433</ele>
        <time>2015-06-05T14:21:05Z</time>
      </trkpt>
      <trkpt lat="49.11263" lon="-1.47362">
        <ele>62.372433</ele>
        <time>2015-06-05T14:21:10Z</time>
      </trkpt>
      <trkpt lat="49.11268" lon="-1.4736">
        <ele>62.315994</ele>
        <time>2015-06-05T14:21:15Z</time>
      </trkpt>
      <trkpt lat="49.11274" lon="-1.47356">
        <ele>62.315994</ele>
        <time>2015-06-05T14:21:20Z</time>
      </trkpt>
      <trkpt lat="49.11278" lon="-1.47352">
        <ele>62.298336</ele>
        <time>2015-06-05T14:21:25Z</time>
      </trkpt>
      <trkpt lat="49.11284" lon="-1.47348">
        <ele>62.298336</ele>
        <time>2015-06-05T14:21:30Z</time>
      </trkpt>
      <trkpt lat="49.11289" lon="-1.47343">
        <ele>62.287495</ele>
        <time>2015-06-05T14:21:35Z</time>
      </trkpt>
      <trkpt lat="49.11295" lon="-1.47338">
        <ele>62.287495</ele>
        <time>2015-06-05T14:21:40Z</time>
      </trkpt>
      <trkpt lat="49.113" lon="-1.47333">
        <ele>62.239475</ele>
        <time>2015-06-05T14:21:45Z</time>
      </trkpt>
      <trkpt lat="49.11304" lon="-1.47328">
        <ele>62.239475</ele>
        <time>2015-06-05T14:21:50Z</time>
      </trkpt>
      <trkpt lat="49.11309" lon="-1.47324">
        <ele>62.12808</ele>
        <time>2015-06-05T14:21:55Z</time>
      </trkpt>
      <trkpt lat="49.11315" lon="-1.47318">
        <ele>62.12808</ele>
        <time>2015-06-05T14:22:00Z</time>
      </trkpt>
      <trkpt lat="49.11318" lon="-1.4731">
        <ele>62.058952</ele>
        <time>2015-06-05T14:22:05Z</time>
      </trkpt>
      <trkpt lat="49.11322" lon="-1.47303">
        <ele>62.058952</ele>
        <time>2015-06-05T14:22:10Z</time>
      </trkpt>
      <trkpt lat="49.11324" lon="-1.47299">
        <ele>62.029034</ele>
        <time>2015-06-05T14:22:15Z</time>
      </trkpt>
      <trkpt lat="49.11328" lon="-1.47291">
        <ele>62.029034</ele>
        <time>2015-06-05T14:22:20Z</time>
      </trkpt>
      <trkpt lat="49.11331" lon="-1.47286">
        <ele>62.049828</ele>
        <time>2015-06-05T14:22:25Z</time>
      </trkpt>
      <trkpt lat="49.11334" lon="-1.47278">
        <ele>62.049828</ele>
        <time>2015-06-05T14:22:30Z</time>
      </trkpt>
      <trkpt lat="49.11338" lon="-1.47272">
        <ele>62.13188</ele>
        <time>2015-06-05T14:22:35Z</time>
      </trkpt>
      <trkpt lat="49.11342" lon="-1.47266">
        <ele>62.13188</ele>
        <time>2015-06-05T14:22:40Z</time>
      </trkpt>
      <trkpt lat="49.11348" lon="-1.47261">
        <ele>62.1119</ele>
        <time>2015-06-05T14:22:45Z</time>
      </trkpt>
      <trkpt lat="49.11355" lon="-1.47253">
        <ele>62.1119</ele>
        <time>2015-06-05T14:22:50Z</time>
      </trkpt>
      <trkpt lat="49.11359" lon="-1.47249">
        <ele>62.069477</ele>
        <time>2015-06-05T14:22:55Z</time>
      </trkpt>
      <trkpt lat="49.11363" lon="-1.47244">
        <ele>62.069477</ele>
        <time>2015-06-05T14:23:00Z</time>
      </trkpt>
      <trkpt lat="49.11368" lon="-1.47241">
        <ele>62.020817</ele>
        <time>2015-06-05T14:23:05Z</time>
      </trkpt>
      <trkpt lat="49.11372" lon="-1.47236">
        <ele>62.020817</ele>
        <time>2015-06-05T14:23:10Z</time>
      </trkpt>
      <trkpt lat="49.11375" lon="-1.47231">
        <ele>61.865673</ele>
        <time>2015-06-05T14:23:15Z</time>
      </trkpt>
      <trkpt lat="49.11381" lon="-1.47223">
        <ele>61.865673</ele>
        <time>2015-06-05T14:23:20Z</time>
      </trkpt>
      <trkpt lat="49.11385" lon="-1.47218">
        <ele>61.742077</ele>
        <time>2015-06-05T14:23:25Z</time>
      </trkpt>
      <trkpt lat="49.11389" lon="-1.47212">
        <ele>61.742077</ele>
        <time>2015-06-05T14:23:30Z</time>
      </trkpt>
      <trkpt lat="49.11393" lon="-1.47207">
        <ele>61.676968</ele>
        <time>2015-06-05T14:23:35Z</time>
      </trkpt>
      <trkpt lat="49.11398" lon="-1.47199">
        <ele>61.676968</ele>
        <time>2015-06-05T14:23:40Z</time>
      </trkpt>
      <trkpt lat="49.11402" lon="-1.47194">
        <ele>61.63752</ele>
        <time>2015-06-05T14:23:45Z</time>
      </trkpt>
      <trkpt lat="49.11406" lon="-1.47187">
        <ele>61.63752</ele>
        <time>2015-06-05T14:23:50Z</time>
      </trkpt>
      <trkpt lat="49.11409" lon="-1.47184">
        <ele>61.636494</ele>
        <time>2015-06-05T14:23:55Z</time>
      </trkpt>
      <trkpt lat="49.11413" lon="-1.4718">
        <ele>61.636494</ele>
        <time>2015-06-05T14:24:00Z</time>
      </trkpt>
      <trkpt lat="49.11418" lon="-1.47173">
        <ele>61.757675</ele>
        <time>2015-06-05T14:24:05Z</time>
      </trkpt>
      <trkpt lat="49.11424" lon="-1.47167">
        <ele>61.757675</ele>
        <time>2015-06-05T14:24:10Z</time>
      </trkpt>
      <trkpt lat="49.1143" lon="-1.4716">
        <ele>61.991898</ele>
        <time>2015-06-05T14:24:15Z</time>
      </trkpt>
      <trkpt lat="49.11433" lon="-1.47154">
        <ele>61.991898</ele>
        <time>2015-06-05T14:24:20Z</time>
      </trkpt>
      <trkpt lat="49.11436" lon="-1.47148">
        <ele>62.200665</ele>
        <time>2015-06-05T14:24:25Z</time>
      </trkpt>
      <trkpt lat="49.1144" lon="-1.47144">
        <ele>62.200665</ele>
        <time>2015-06-05T14:24:30Z</time>
      </trkpt>
      <trkpt lat="49.11445" lon="-1.47138">
        <ele>62.28456</ele>
        <time>2015-06-05T14:24:35Z</time>
      </trkpt>
      <trkpt lat="49.11449" lon="-1.47133">
        <ele>62.28456</ele>
        <time>2015-06-05T14:24:40Z</time>
      </trkpt>
      <trkpt lat="49.11452" lon="-1.47126">
        <ele>62.310356</ele>
        <time>2015-06-05T14:24:45Z</time>
      </trkpt>
      <trkpt lat="49.11455" lon="-1.47118">
        <ele>62.310356</ele>
        <time>2015-06-05T14:24:50Z</time>
      </trkpt>
      <trkpt lat="49.11456" lon="-1.47112">
        <ele>62.32568</ele>
        <time>2015-06-05T14:24:55Z</time>
      </trkpt>
      <trkpt lat="49.1146" lon="-1.47105">
        <ele>62.32568</ele>
        <time>2015-06-05T14:25:00Z</time>
      </trkpt>
      <trkpt lat="49.11466" lon="-1.47097">
        <ele>62.36029</ele>
        <time>2015-06-05T14:25:05Z</time>
      </trkpt>
      <trkpt lat="49.11472" lon="-1.47089">
        <ele>62.36029</ele>
        <time>2015-06-05T14:25:10Z</time>
      </trkpt>
      <trkpt lat="49.11476" lon="-1.47084">
        <ele>62.412895</ele>
        <time>2015-06-05T14:25:15Z</time>
      </trkpt>
      <trkpt lat="49.1148" lon="-1.47078">
        <ele>62.412895</ele>
        <time>2015-06-05T14:25:20Z</time>
      </trkpt>
      <trkpt lat="49.11484" lon="-1.47073">
        <ele>62.482254</ele>
        <time>2015-06-05T14:25:25Z</time>
      </trkpt>
      <trkpt lat="49.11488" lon="-1.47067">
        <ele>62.482254</ele>
        <time>2015-06-05T14:25:30Z</time>
      </trkpt>
      <trkpt lat="49.11493" lon="-1.47059">
        <ele>62.49512</ele>
        <time>2015-06-05T14:25:35Z</time>
      </trkpt>
      <trkpt lat="49.11497" lon="-1.47052">
        <ele>62.49512</ele>
        <time>2015-06-05T14:25:40Z</time>
      </trkpt>
      <trkpt lat="49.11501" lon="-1.47046">
        <ele>62.484676</ele>
        <time>2015-06-05T14:25:45Z</time>
      </trkpt>
      <trkpt lat="49.11504" lon="-1.47041">
        <ele>62.484676</ele>
        <time>2015-06-05T14:25:50Z</time>
      </trkpt>
      <trkpt lat="49.11507" lon="-1.47032">
        <ele>62.481728</ele>
        <time>2015-06-05T14:25:55Z</time>
      </trkpt>
      <trkpt lat="49.11511" lon="-1.47027">
        <ele>62.481728</ele>
        <time>2015-06-05T14:26:00Z</time>
      </trkpt>
      <trkpt lat="49.11516" lon="-1.4702">
        <ele>62.428345</ele>
        <time>2015-06-05T14:26:05Z</time>
      </trkpt>
      <trkpt lat="49.1152" lon="-1.47013">
        <ele>62.428345</ele>
        <time>2015-06-05T14:26:10Z</time>
      </trkpt>
      <trkpt lat="49.11525" lon="-1.47007">
        <ele>62.371872</ele>
        <time>2015-06-05T14:26:15Z</time>
      </trkpt>
      <trkpt lat="49.11529" lon="-1.47001">
        <ele>62.371872</ele>
        <time>2015-06-05T14:26:20Z</time>
      </trkpt>
      <trkpt lat="49.11531" lon="-1.46996">
        <ele>62.26971</ele>
        <time>2015-06-05T14:26:25Z</time>
      </trkpt>
      <trkpt lat="49.11534" lon="-1.46988">
        <ele>62.26971</ele>
        <time>2015-06-05T14:26:30Z</time>
      </trkpt>
      <trkpt lat="49.11538" lon="-1.46981">
        <ele>62.096947</ele>
        <time>2015-06-05T14:26:35Z</time>
      </trkpt>
      <trkpt lat="49.11542" lon="-1.46973">
        <ele>62.096947</ele>
        <time>2015-06-05T14:26:40Z</time>
      </trkpt>
      <trkpt lat="49.11545" lon="-1.46968">
        <ele>61.873913</ele>
        <time>2015-06-05T14:26:45Z</time>
      </trkpt>
      <trkpt lat="49.11551" lon="-1.46962">
        <ele>61.873913</ele>
        <time>2015-06-05T14:26:50Z</time>
      </trkpt>
      <trkpt lat="49.11557" lon="-1.46958">
        <ele>61.64841</ele>
        <time>2015-06-05T14:26:55Z</time>
      </trkpt>
      <trkpt lat="49.11564" lon="-1.46951">
        <ele>61.64841</ele>
        <time>2015-06-05T14:27:00Z</time>
      </trkpt>
      <trkpt lat="49.11569" lon="-1.46947">
        <ele>61.47915</ele>
        <time>2015-06-05T14:27:05Z</time>
      </trkpt>
      <trkpt lat="49.11574" lon="-1.46941">
        <ele>61.47915</ele>
        <time>2015-06-05T14:27:10Z</time>
      </trkpt>
      <trkpt lat="49.11579" lon="-1.46937">
        <ele>61.362705</ele>
        <time>2015-06-05T14:27:15Z</time>
      </trkpt>
      <trkpt lat="49.11583" lon="-1.46933">
        <ele>61.362705</ele>
        <time>2015-06-05T14:27:20Z</time>
      </trkpt>
      <trkpt lat="49.11586" lon="-1.4693">
        <ele>61.362705</ele>
        <time>2015-06-05T14:27:25Z</time>
      </trkpt>
      <trkpt lat="49.11589" lon="-1.46926">
        <ele>61.18047</ele>
        <time>2015-06-05T14:27:30Z</time>
      </trkpt>
      <trkpt lat="49.11595" lon="-1.46919">
        <ele>61.18047</ele>
        <time>2015-06-05T14:27:35Z</time>
      </trkpt>
      <trkpt lat="49.11599" lon="-1.46918">
        <ele>61.0677</ele>
        <time>2015-06-05T14:27:40Z</time>
      </trkpt>
      <trkpt lat="49.11603" lon="-1.46917">
        <ele>61.0677</ele>
        <time>2015-06-05T14:27:45Z</time>
      </trkpt>
      <trkpt lat="49.11605" lon="-1.46916">
        <ele>61.0677</ele>
        <time>2015-06-05T14:27:50Z</time>
      </trkpt>
      <trkpt lat="49.11605" lon="-1.46916">
        <ele>61.0677</ele>
        <time>2015-06-05T14:27:55Z</time>
      </trkpt>
      <trkpt lat="49.11604" lon="-1.46917">
        <ele>61.0677</ele>
        <time>2015-06-05T14:28:00Z</time>
      </trkpt>
      <trkpt lat="49.11604" lon="-1.46917">
        <ele>61.0677</ele>
        <time>2015-06-05T14:28:05Z</time>
      </trkpt>
      <trkpt lat="49.11605" lon="-1.46917">
        <ele>61.04864</ele>
        <time>2015-06-05T14:28:10Z</time>
      </trkpt>
      <trkpt lat="49.11605" lon="-1.46917">
        <ele>61.04864</ele>
        <time>2015-06-05T14:28:15Z</time>
      </trkpt>
      <trkpt lat="49.11606" lon="-1.46917">
        <ele>61.04864</ele>
        <time>2015-06-05T14:28:20Z</time>
      </trkpt>
      <trkpt lat="49.11606" lon="-1.46917">
        <ele>61.04864</ele>
        <time>2015-06-05T14:28:25Z</time>
      </trkpt>
      <trkpt lat="49.11605" lon="-1.46918">
        <ele>61.04864</ele>
        <time>2015-06-05T14:28:30Z</time>
      </trkpt>
      <trkpt lat="49.11605" lon="-1.46916">
        <ele>61.04864</ele>
        <time>2015-06-05T14:28:35Z</time>
      </trkpt>
      <trkpt lat="49.11604" lon="-1.46915">
        <ele>61.04864</ele>
        <time>2015-06-05T14:28:40Z</time>
      </trkpt>
      <trkpt lat="49.11605" lon="-1.46914">
        <ele>61.04864</ele>
        <time>2015-06-05T14:28:45Z</time>
      </trkpt>
      <trkpt lat="49.11606" lon="-1.46914">
        <ele>61.04864</ele>
        <time>2015-06-05T14:28:50Z</time>
      </trkpt>
      <trkpt lat="49.11606" lon="-1.46913">
        <ele>61.04864</ele>
        <time>2015-06-05T14:28:55Z</time>
      </trkpt>
      <trkpt lat="49.11607" lon="-1.46914">
        <ele>61.04864</ele>
        <time>2015-06-05T14:29:00Z</time>
      </trkpt>
      <trkpt lat="49.11608" lon="-1.46915">
        <ele>61.476933</ele>
        <time>2015-06-05T14:29:05Z</time>
      </trkpt>
      <trkpt lat="49.1161" lon="-1.46918">
        <ele>61.476933</ele>
        <time>2015-06-05T14:29:10Z</time>
      </trkpt>
      <trkpt lat="49.11614" lon="-1.46925">
        <ele>61.91519</ele>
        <time>2015-06-05T14:29:15Z</time>
      </trkpt>
      <trkpt lat="49.11617" lon="-1.46931">
        <ele>61.91519</ele>
        <time>2015-06-05T14:29:20Z</time>
      </trkpt>
      <trkpt lat="49.11621" lon="-1.46937">
        <ele>62.3328</ele>
        <time>2015-06-05T14:29:25Z</time>
      </trkpt>
      <trkpt lat="49.11625" lon="-1.46945">
        <ele>62.3328</ele>
        <time>2015-06-05T14:29:30Z</time>
      </trkpt>
      <trkpt lat="49.11629" lon="-1.46953">
        <ele>62.759113</ele>
        <time>2015-06-05T14:29:35Z</time>
      </trkpt>
      <trkpt lat="49.11633" lon="-1.46959">
        <ele>62.759113</ele>
        <time>2015-06-05T14:29:40Z</time>
      </trkpt>
      <trkpt lat="49.11637" lon="-1.46966">
        <ele>63.221275</ele>
        <time>2015-06-05T14:29:45Z</time>
      </trkpt>
      <trkpt lat="49.11639" lon="-1.46974">
        <ele>63.221275</ele>
        <time>2015-06-05T14:29:50Z</time>
      </trkpt>
      <trkpt lat="49.11643" lon="-1.46981">
        <ele>63.715534</ele>
        <time>2015-06-05T14:29:55Z</time>
      </trkpt>
      <trkpt lat="49.11647" lon="-1.46987">
        <ele>63.715534</ele>
        <time>2015-06-05T14:30:00Z</time>
      </trkpt>
      <trkpt lat="49.11653" lon="-1.46992">
        <ele>64.19509</ele>
        <time>2015-06-05T14:30:05Z</time>
      </trkpt>
      <trkpt lat="49.11657" lon="-1.47001">
        <ele>64.19509</ele>
        <time>2015-06-05T14:30:10Z</time>
      </trkpt>
      <trkpt lat="49.11661" lon="-1.47006">
        <ele>64.63104</ele>
        <time>2015-06-05T14:30:15Z</time>
      </trkpt>
      <trkpt lat="49.11665" lon="-1.47012">
        <ele>64.63104</ele>
        <time>2015-06-05T14:30:20Z</time>
      </trkpt>
      <trkpt lat="49.11669" lon="-1.47018">
        <ele>64.98234</ele>
        <time>2015-06-05T14:30:25Z</time>
      </trkpt>
      <trkpt lat="49.11673" lon="-1.47028">
        <ele>64.98234</ele>
        <time>2015-06-05T14:30:30Z</time>
      </trkpt>
      <trkpt lat="49.11677" lon="-1.47037">
        <ele>65.038246</ele>
        <time>2015-06-05T14:30:35Z</time>
      </trkpt>
      <trkpt lat="49.11681" lon="-1.47045">
        <ele>65.038246</ele>
        <time>2015-06-05T14:30:40Z</time>
      </trkpt>
      <trkpt lat="49.11685" lon="-1.47049">
        <ele>64.76289</ele>
        <time>2015-06-05T14:30:45Z</time>
      </trkpt>
      <trkpt lat="49.1169" lon="-1.47052">
        <ele>64.76289</ele>
        <time>2015-06-05T14:30:50Z</time>
      </trkpt>
      <trkpt lat="49.11693" lon="-1.47056">
        <ele>64.224846</ele>
        <time>2015-06-05T14:30:55Z</time>
      </trkpt>
      <trkpt lat="49.117" lon="-1.4706">
        <ele>64.224846</ele>
        <time>2015-06-05T14:31:00Z</time>
      </trkpt>
      <trkpt lat="49.11703" lon="-1.4706">
        <ele>63.488396</ele>
        <time>2015-06-05T14:31:05Z</time>
      </trkpt>
      <trkpt lat="49.11709" lon="-1.47061">
        <ele>63.488396</ele>
        <time>2015-06-05T14:31:10Z</time>
      </trkpt>
      <trkpt lat="49.11711" lon="-1.47065">
        <ele>63.488396</ele>
        <time>2015-06-05T14:31:15Z</time>
      </trkpt>
      <trkpt lat="49.11713" lon="-1.47066">
        <ele>62.70012</ele>
        <time>2015-06-05T14:31:20Z</time>
      </trkpt>
      <trkpt lat="49.11721" lon="-1.47071">
        <ele>62.70012</ele>
        <time>2015-06-05T14:31:25Z</time>
      </trkpt>
      <trkpt lat="49.11729" lon="-1.47071">
        <ele>62.024796</ele>
        <time>2015-06-05T14:31:30Z</time>
      </trkpt>
      <trkpt lat="49.11734" lon="-1.47073">
        <ele>62.024796</ele>
        <time>2015-06-05T14:31:35Z</time>
      </trkpt>
      <trkpt lat="49.11737" lon="-1.47076">
        <ele>62.024796</ele>
        <time>2015-06-05T14:31:40Z</time>
      </trkpt>
      <trkpt lat="49.1174" lon="-1.47079">
        <ele>61.571545</ele>
        <time>2015-06-05T14:31:45Z</time>
      </trkpt>
      <trkpt lat="49.11749" lon="-1.47081">
        <ele>61.152607</ele>
        <time>2015-06-05T14:31:50Z</time>
      </trkpt>
      <trkpt lat="49.11755" lon="-1.47082">
        <ele>61.152607</ele>
        <time>2015-06-05T14:31:55Z</time>
      </trkpt>
      <trkpt lat="49.11758" lon="-1.47082">
        <ele>60.867714</ele>
        <time>2015-06-05T14:32:00Z</time>
      </trkpt>
      <trkpt lat="49.11763" lon="-1.47083">
        <ele>60.867714</ele>
        <time>2015-06-05T14:32:05Z</time>
      </trkpt>
      <trkpt lat="49.11771" lon="-1.47085">
        <ele>60.76563</ele>
        <time>2015-06-05T14:32:10Z</time>
      </trkpt>
      <trkpt lat="49.11777" lon="-1.47087">
        <ele>60.76563</ele>
        <time>2015-06-05T14:32:15Z</time>
      </trkpt>
      <trkpt lat="49.11782" lon="-1.47091">
        <ele>60.761314</ele>
        <time>2015-06-05T14:32:20Z</time>
      </trkpt>
      <trkpt lat="49.11786" lon="-1.47092">
        <ele>60.761314</ele>
        <time>2015-06-05T14:32:25Z</time>
      </trkpt>
      <trkpt lat="49.11791" lon="-1.47094">
        <ele>60.94861</ele>
        <time>2015-06-05T14:32:30Z</time>
      </trkpt>
      <trkpt lat="49.11797" lon="-1.47095">
        <ele>60.94861</ele>
        <time>2015-06-05T14:32:35Z</time>
      </trkpt>
      <trkpt lat="49.11804" lon="-1.47098">
        <ele>61.25537</ele>
        <time>2015-06-05T14:32:40Z</time>
      </trkpt>
      <trkpt lat="49.11809" lon="-1.47097">
        <ele>61.25537</ele>
        <time>2015-06-05T14:32:45Z</time>
      </trkpt>
      <trkpt lat="49.11812" lon="-1.47099">
        <ele>61.25537</ele>
        <time>2015-06-05T14:32:50Z</time>
      </trkpt>
      <trkpt lat="49.11821" lon="-1.47104">
        <ele>61.75853</ele>
        <time>2015-06-05T14:32:55Z</time>
      </trkpt>
      <trkpt lat="49.11826" lon="-1.47105">
        <ele>61.75853</ele>
        <time>2015-06-05T14:33:00Z</time>
      </trkpt>
      <trkpt lat="49.11831" lon="-1.47106">
        <ele>62.240562</ele>
        <time>2015-06-05T14:33:05Z</time>
      </trkpt>
      <trkpt lat="49.11837" lon="-1.47109">
        <ele>62.240562</ele>
        <time>2015-06-05T14:33:10Z</time>
      </trkpt>
      <trkpt lat="49.11844" lon="-1.47112">
        <ele>62.701744</ele>
        <time>2015-06-05T14:33:15Z</time>
      </trkpt>
      <trkpt lat="49.11849" lon="-1.47114">
        <ele>62.701744</ele>
        <time>2015-06-05T14:33:20Z</time>
      </trkpt>
      <trkpt lat="49.11854" lon="-1.47115">
        <ele>63.127956</ele>
        <time>2015-06-05T14:33:25Z</time>
      </trkpt>
      <trkpt lat="49.1186" lon="-1.47115">
        <ele>63.127956</ele>
        <time>2015-06-05T14:33:30Z</time>
      </trkpt>
      <trkpt lat="49.11866" lon="-1.47116">
        <ele>63.53505</ele>
        <time>2015-06-05T14:33:35Z</time>
      </trkpt>
      <trkpt lat="49.11873" lon="-1.4712">
        <ele>63.53505</ele>
        <time>2015-06-05T14:33:40Z</time>
      </trkpt>
      <trkpt lat="49.11881" lon="-1.47123">
        <ele>63.952168</ele>
        <time>2015-06-05T14:33:45Z</time>
      </trkpt>
      <trkpt lat="49.11888" lon="-1.47124">
        <ele>63.952168</ele>
        <time>2015-06-05T14:33:50Z</time>
      </trkpt>
      <trkpt lat="49.11895" lon="-1.47125">
        <ele>64.334236</ele>
        <time>2015-06-05T14:33:55Z</time>
      </trkpt>
      <trkpt lat="49.119" lon="-1.47128">
        <ele>64.334236</ele>
        <time>2015-06-05T14:34:00Z</time>
      </trkpt>
      <trkpt lat="49.11907" lon="-1.4713">
        <ele>64.668434</ele>
        <time>2015-06-05T14:34:05Z</time>
      </trkpt>
      <trkpt lat="49.11913" lon="-1.47132">
        <ele>64.668434</ele>
        <time>2015-06-05T14:34:10Z</time>
      </trkpt>
      <trkpt lat="49.11919" lon="-1.47132">
        <ele>65.01505</ele>
        <time>2015-06-05T14:34:15Z</time>
      </trkpt>
      <trkpt lat="49.11926" lon="-1.47134">
        <ele>65.01505</ele>
        <time>2015-06-05T14:34:20Z</time>
      </trkpt>
      <trkpt lat="49.11932" lon="-1.47137">
        <ele>65.30027</ele>
        <time>2015-06-05T14:34:25Z</time>
      </trkpt>
      <trkpt lat="49.11938" lon="-1.47139">
        <ele>65.30027</ele>
        <time>2015-06-05T14:34:30Z</time>
      </trkpt>
      <trkpt lat="49.11944" lon="-1.47141">
        <ele>65.55672</ele>
        <time>2015-06-05T14:34:35Z</time>
      </trkpt>
      <trkpt lat="49.11949" lon="-1.47143">
        <ele>65.55672</ele>
        <time>2015-06-05T14:34:40Z</time>
      </trkpt>
      <trkpt lat="49.11955" lon="-1.47145">
        <ele>65.78592</ele>
        <time>2015-06-05T14:34:45Z</time>
      </trkpt>
      <trkpt lat="49.11961" lon="-1.47147">
        <ele>65.78592</ele>
        <time>2015-06-05T14:34:50Z</time>
      </trkpt>
      <trkpt lat="49.11966" lon="-1.47149">
        <ele>66.018196</ele>
        <time>2015-06-05T14:34:55Z</time>
      </trkpt>
      <trkpt lat="49.11972" lon="-1.47152">
        <ele>66.018196</ele>
        <time>2015-06-05T14:35:00Z</time>
      </trkpt>
      <trkpt lat="49.1198" lon="-1.47154">
        <ele>66.25283</ele>
        <time>2015-06-05T14:35:05Z</time>
      </trkpt>
      <trkpt lat="49.11984" lon="-1.47154">
        <ele>66.25283</ele>
        <time>2015-06-05T14:35:10Z</time>
      </trkpt>
      <trkpt lat="49.1199" lon="-1.47155">
        <ele>66.53241</ele>
        <time>2015-06-05T14:35:15Z</time>
      </trkpt>
      <trkpt lat="49.11995" lon="-1.47157">
        <ele>66.53241</ele>
        <time>2015-06-05T14:35:20Z</time>
      </trkpt>
      <trkpt lat="49.12001" lon="-1.4716">
        <ele>66.838615</ele>
        <time>2015-06-05T14:35:25Z</time>
      </trkpt>
      <trkpt lat="49.12007" lon="-1.47162">
        <ele>66.838615</ele>
        <time>2015-06-05T14:35:30Z</time>
      </trkpt>
      <trkpt lat="49.12013" lon="-1.47163">
        <ele>67.154434</ele>
        <time>2015-06-05T14:35:35Z</time>
      </trkpt>
      <trkpt lat="49.12018" lon="-1.47162">
        <ele>67.154434</ele>
        <time>2015-06-05T14:35:40Z</time>
      </trkpt>
      <trkpt lat="49.12019" lon="-1.47162">
        <ele>67.154434</ele>
        <time>2015-06-05T14:35:45Z</time>
      </trkpt>
      <trkpt lat="49.12019" lon="-1.47161">
        <ele>67.154434</ele>
        <time>2015-06-05T14:35:50Z</time>
      </trkpt>
      <trkpt lat="49.12018" lon="-1.47159">
        <ele>67.154434</ele>
        <time>2015-06-05T14:35:55Z</time>
      </trkpt>
      <trkpt lat="49.12018" lon="-1.47158">
        <ele>67.154434</ele>
        <time>2015-06-05T14:36:00Z</time>
      </trkpt>
      <trkpt lat="49.12019" lon="-1.47158">
        <ele>67.464096</ele>
        <time>2015-06-05T14:36:05Z</time>
      </trkpt>
      <trkpt lat="49.12019" lon="-1.47157">
        <ele>67.464096</ele>
        <time>2015-06-05T14:36:10Z</time>
      </trkpt>
      <trkpt lat="49.12021" lon="-1.47157">
        <ele>67.464096</ele>
        <time>2015-06-05T14:36:15Z</time>
      </trkpt>
      <trkpt lat="49.12028" lon="-1.47158">
        <ele>67.76742</ele>
        <time>2015-06-05T14:36:20Z</time>
      </trkpt>
      <trkpt lat="49.12033" lon="-1.47159">
        <ele>67.76742</ele>
        <time>2015-06-05T14:36:25Z</time>
      </trkpt>
      <trkpt lat="49.12038" lon="-1.47159">
        <ele>68.04988</ele>
        <time>2015-06-05T14:36:30Z</time>
      </trkpt>
      <trkpt lat="49.12044" lon="-1.47161">
        <ele>68.04988</ele>
        <time>2015-06-05T14:36:35Z</time>
      </trkpt>
      <trkpt lat="49.12051" lon="-1.47162">
        <ele>68.341324</ele>
        <time>2015-06-05T14:36:40Z</time>
      </trkpt>
      <trkpt lat="49.12056" lon="-1.47162">
        <ele>68.341324</ele>
        <time>2015-06-05T14:36:45Z</time>
      </trkpt>
      <trkpt lat="49.12062" lon="-1.47164">
        <ele>68.61175</ele>
        <time>2015-06-05T14:36:50Z</time>
      </trkpt>
      <trkpt lat="49.12068" lon="-1.47164">
        <ele>68.61175</ele>
        <time>2015-06-05T14:36:55Z</time>
      </trkpt>
      <trkpt lat="49.12075" lon="-1.47165">
        <ele>68.83344</ele>
        <time>2015-06-05T14:37:00Z</time>
      </trkpt>
      <trkpt lat="49.12081" lon="-1.47165">
        <ele>68.83344</ele>
        <time>2015-06-05T14:37:05Z</time>
      </trkpt>
      <trkpt lat="49.12086" lon="-1.47166">
        <ele>69.05294</ele>
        <time>2015-06-05T14:37:10Z</time>
      </trkpt>
      <trkpt lat="49.12092" lon="-1.47166">
        <ele>69.05294</ele>
        <time>2015-06-05T14:37:15Z</time>
      </trkpt>
      <trkpt lat="49.12099" lon="-1.47167">
        <ele>69.25573</ele>
        <time>2015-06-05T14:37:20Z</time>
      </trkpt>
      <trkpt lat="49.12105" lon="-1.47167">
        <ele>69.25573</ele>
        <time>2015-06-05T14:37:25Z</time>
      </trkpt>
      <trkpt lat="49.12111" lon="-1.47167">
        <ele>69.45727</ele>
        <time>2015-06-05T14:37:30Z</time>
      </trkpt>
      <trkpt lat="49.12118" lon="-1.47167">
        <ele>69.45727</ele>
        <time>2015-06-05T14:37:35Z</time>
      </trkpt>
      <trkpt lat="49.12124" lon="-1.47168">
        <ele>69.61423</ele>
        <time>2015-06-05T14:37:40Z</time>
      </trkpt>
      <trkpt lat="49.12129" lon="-1.47169">
        <ele>69.61423</ele>
        <time>2015-06-05T14:37:45Z</time>
      </trkpt>
      <trkpt lat="49.12136" lon="-1.47169">
        <ele>69.75869</ele>
        <time>2015-06-05T14:37:50Z</time>
      </trkpt>
      <trkpt lat="49.12142" lon="-1.4717">
        <ele>69.75869</ele>
        <time>2015-06-05T14:37:55Z</time>
      </trkpt>
      <trkpt lat="49.12148" lon="-1.4717">
        <ele>69.90599</ele>
        <time>2015-06-05T14:38:00Z</time>
      </trkpt>
      <trkpt lat="49.12155" lon="-1.47172">
        <ele>69.90599</ele>
        <time>2015-06-05T14:38:05Z</time>
      </trkpt>
      <trkpt lat="49.12161" lon="-1.47173">
        <ele>69.998314</ele>
        <time>2015-06-05T14:38:10Z</time>
      </trkpt>
      <trkpt lat="49.12166" lon="-1.47174">
        <ele>69.998314</ele>
        <time>2015-06-05T14:38:15Z</time>
      </trkpt>
      <trkpt lat="49.12173" lon="-1.47174">
        <ele>70.02548</ele>
        <time>2015-06-05T14:38:20Z</time>
      </trkpt>
      <trkpt lat="49.12177" lon="-1.47174">
        <ele>70.02548</ele>
        <time>2015-06-05T14:38:25Z</time>
      </trkpt>
      <trkpt lat="49.12185" lon="-1.47175">
        <ele>70.007065</ele>
        <time>2015-06-05T14:38:30Z</time>
      </trkpt>
      <trkpt lat="49.12191" lon="-1.47175">
        <ele>70.007065</ele>
        <time>2015-06-05T14:38:35Z</time>
      </trkpt>
      <trkpt lat="49.12197" lon="-1.47174">
        <ele>69.961365</ele>
        <time>2015-06-05T14:38:40Z</time>
      </trkpt>
      <trkpt lat="49.12204" lon="-1.47173">
        <ele>69.961365</ele>
        <time>2015-06-05T14:38:45Z</time>
      </trkpt>
      <trkpt lat="49.12212" lon="-1.47173">
        <ele>69.90539</ele>
        <time>2015-06-05T14:38:50Z</time>
      </trkpt>
      <trkpt lat="49.12217" lon="-1.47174">
        <ele>69.90539</ele>
        <time>2015-06-05T14:38:55Z</time>
      </trkpt>
      <trkpt lat="49.12223" lon="-1.47174">
        <ele>69.811714</ele>
        <time>2015-06-05T14:39:00Z</time>
      </trkpt>
      <trkpt lat="49.12229" lon="-1.47174">
        <ele>69.811714</ele>
        <time>2015-06-05T14:39:05Z</time>
      </trkpt>
      <trkpt lat="49.12235" lon="-1.47174">
        <ele>69.69828</ele>
        <time>2015-06-05T14:39:10Z</time>
      </trkpt>
      <trkpt lat="49.1224" lon="-1.47174">
        <ele>69.69828</ele>
        <time>2015-06-05T14:39:15Z</time>
      </trkpt>
      <trkpt lat="49.12246" lon="-1.47172">
        <ele>69.63938</ele>
        <time>2015-06-05T14:39:20Z</time>
      </trkpt>
      <trkpt lat="49.1225" lon="-1.4717">
        <ele>69.63938</ele>
        <time>2015-06-05T14:39:25Z</time>
      </trkpt>
      <trkpt lat="49.12253" lon="-1.4717">
        <ele>69.63938</ele>
        <time>2015-06-05T14:39:30Z</time>
      </trkpt>
      <trkpt lat="49.12259" lon="-1.47169">
        <ele>69.57403</ele>
        <time>2015-06-05T14:39:35Z</time>
      </trkpt>
      <trkpt lat="49.12264" lon="-1.4717">
        <ele>69.57403</ele>
        <time>2015-06-05T14:39:40Z</time>
      </trkpt>
      <trkpt lat="49.12271" lon="-1.4717">
        <ele>69.4457</ele>
        <time>2015-06-05T14:39:45Z</time>
      </trkpt>
      <trkpt lat="49.12276" lon="-1.47171">
        <ele>69.4457</ele>
        <time>2015-06-05T14:39:50Z</time>
      </trkpt>
      <trkpt lat="49.12279" lon="-1.4717">
        <ele>69.4457</ele>
        <time>2015-06-05T14:39:55Z</time>
      </trkpt>
      <trkpt lat="49.12284" lon="-1.47166">
        <ele>69.202225</ele>
        <time>2015-06-05T14:40:00Z</time>
      </trkpt>
      <trkpt lat="49.1229" lon="-1.47161">
        <ele>69.202225</ele>
        <time>2015-06-05T14:40:05Z</time>
      </trkpt>
      <trkpt lat="49.12292" lon="-1.47154">
        <ele>68.79556</ele>
        <time>2015-06-05T14:40:10Z</time>
      </trkpt>
      <trkpt lat="49.12295" lon="-1.47147">
        <ele>68.79556</ele>
        <time>2015-06-05T14:40:15Z</time>
      </trkpt>
      <trkpt lat="49.123" lon="-1.4714">
        <ele>68.31134</ele>
        <time>2015-06-05T14:40:20Z</time>
      </trkpt>
      <trkpt lat="49.12304" lon="-1.47132">
        <ele>68.31134</ele>
        <time>2015-06-05T14:40:25Z</time>
      </trkpt>
      <trkpt lat="49.12309" lon="-1.47126">
        <ele>67.742645</ele>
        <time>2015-06-05T14:40:30Z</time>
      </trkpt>
      <trkpt lat="49.12312" lon="-1.47119">
        <ele>67.742645</ele>
        <time>2015-06-05T14:40:35Z</time>
      </trkpt>
      <trkpt lat="49.12315" lon="-1.47113">
        <ele>67.12651</ele>
        <time>2015-06-05T14:40:40Z</time>
      </trkpt>
      <trkpt lat="49.12319" lon="-1.47107">
        <ele>67.12651</ele>
        <time>2015-06-05T14:40:45Z</time>
      </trkpt>
      <trkpt lat="49.12323" lon="-1.47097">
        <ele>66.48296</ele>
        <time>2015-06-05T14:40:50Z</time>
      </trkpt>
      <trkpt lat="49.12327" lon="-1.47091">
        <ele>66.48296</ele>
        <time>2015-06-05T14:40:55Z</time>
      </trkpt>
      <trkpt lat="49.1233" lon="-1.47083">
        <ele>65.888245</ele>
        <time>2015-06-05T14:41:00Z</time>
      </trkpt>
      <trkpt lat="49.12333" lon="-1.47075">
        <ele>65.888245</ele>
        <time>2015-06-05T14:41:05Z</time>
      </trkpt>
      <trkpt lat="49.12337" lon="-1.47068">
        <ele>65.311935</ele>
        <time>2015-06-05T14:41:10Z</time>
      </trkpt>
      <trkpt lat="49.12341" lon="-1.4706">
        <ele>65.311935</ele>
        <time>2015-06-05T14:41:15Z</time>
      </trkpt>
      <trkpt lat="49.12344" lon="-1.47054">
        <ele>64.711365</ele>
        <time>2015-06-05T14:41:20Z</time>
      </trkpt>
      <trkpt lat="49.12347" lon="-1.47048">
        <ele>64.711365</ele>
        <time>2015-06-05T14:41:25Z</time>
      </trkpt>
      <trkpt lat="49.12351" lon="-1.4704">
        <ele>64.11909</ele>
        <time>2015-06-05T14:41:30Z</time>
      </trkpt>
      <trkpt lat="49.12355" lon="-1.47035">
        <ele>64.11909</ele>
        <time>2015-06-05T14:41:35Z</time>
      </trkpt>
      <trkpt lat="49.12359" lon="-1.47026">
        <ele>63.435482</ele>
        <time>2015-06-05T14:41:40Z</time>
      </trkpt>
      <trkpt lat="49.12363" lon="-1.47018">
        <ele>63.435482</ele>
        <time>2015-06-05T14:41:45Z</time>
      </trkpt>
      <trkpt lat="49.12367" lon="-1.47009">
        <ele>62.726997</ele>
        <time>2015-06-05T14:41:50Z</time>
      </trkpt>
      <trkpt lat="49.12372" lon="-1.47">
        <ele>62.726997</ele>
        <time>2015-06-05T14:41:55Z</time>
      </trkpt>
      <trkpt lat="49.12374" lon="-1.46994">
        <ele>62.040802</ele>
        <time>2015-06-05T14:42:00Z</time>
      </trkpt>
      <trkpt lat="49.12378" lon="-1.46986">
        <ele>62.040802</ele>
        <time>2015-06-05T14:42:05Z</time>
      </trkpt>
      <trkpt lat="49.12382" lon="-1.46979">
        <ele>61.362846</ele>
        <time>2015-06-05T14:42:10Z</time>
      </trkpt>
      <trkpt lat="49.12387" lon="-1.46972">
        <ele>61.362846</ele>
        <time>2015-06-05T14:42:15Z</time>
      </trkpt>
      <trkpt lat="49.12393" lon="-1.46968">
        <ele>60.680035</ele>
        <time>2015-06-05T14:42:20Z</time>
      </trkpt>
      <trkpt lat="49.12397" lon="-1.46962">
        <ele>60.680035</ele>
        <time>2015-06-05T14:42:25Z</time>
      </trkpt>
      <trkpt lat="49.12401" lon="-1.46957">
        <ele>60.023422</ele>
        <time>2015-06-05T14:42:30Z</time>
      </trkpt>
      <trkpt lat="49.12407" lon="-1.46951">
        <ele>60.023422</ele>
        <time>2015-06-05T14:42:35Z</time>
      </trkpt>
      <trkpt lat="49.12412" lon="-1.46943">
        <ele>59.39284</ele>
        <time>2015-06-05T14:42:40Z</time>
      </trkpt>
      <trkpt lat="49.12415" lon="-1.46937">
        <ele>59.39284</ele>
        <time>2015-06-05T14:42:45Z</time>
      </trkpt>
      <trkpt lat="49.12421" lon="-1.4693">
        <ele>58.816826</ele>
        <time>2015-06-05T14:42:50Z</time>
      </trkpt>
      <trkpt lat="49.12425" lon="-1.46924">
        <ele>58.816826</ele>
        <time>2015-06-05T14:42:55Z</time>
      </trkpt>
      <trkpt lat="49.1243" lon="-1.46918">
        <ele>58.278366</ele>
        <time>2015-06-05T14:43:00Z</time>
      </trkpt>
      <trkpt lat="49.12435" lon="-1.46911">
        <ele>58.278366</ele>
        <time>2015-06-05T14:43:05Z</time>
      </trkpt>
      <trkpt lat="49.1244" lon="-1.46906">
        <ele>57.790363</ele>
        <time>2015-06-05T14:43:10Z</time>
      </trkpt>
      <trkpt lat="49.12446" lon="-1.46898">
        <ele>57.790363</ele>
        <time>2015-06-05T14:43:15Z</time>
      </trkpt>
      <trkpt lat="49.1245" lon="-1.46892">
        <ele>57.335754</ele>
        <time>2015-06-05T14:43:20Z</time>
      </trkpt>
      <trkpt lat="49.12453" lon="-1.46889">
        <ele>57.335754</ele>
        <time>2015-06-05T14:43:25Z</time>
      </trkpt>
      <trkpt lat="49.12457" lon="-1.46885">
        <ele>57.335754</ele>
        <time>2015-06-05T14:43:30Z</time>
      </trkpt>
      <trkpt lat="49.12461" lon="-1.4688">
        <ele>56.85534</ele>
        <time>2015-06-05T14:43:35Z</time>
      </trkpt>
      <trkpt lat="49.12465" lon="-1.46877">
        <ele>56.85534</ele>
        <time>2015-06-05T14:43:40Z</time>
      </trkpt>
      <trkpt lat="49.12466" lon="-1.46877">
        <ele>56.85534</ele>
        <time>2015-06-05T14:43:45Z</time>
      </trkpt>
      <trkpt lat="49.12466" lon="-1.46877">
        <ele>56.85534</ele>
        <time>2015-06-05T14:43:50Z</time>
      </trkpt>
      <trkpt lat="49.12466" lon="-1.46876">
        <ele>56.85534</ele>
        <time>2015-06-05T14:43:55Z</time>
      </trkpt>
      <trkpt lat="49.12468" lon="-1.46875">
        <ele>56.85534</ele>
        <time>2015-06-05T14:44:00Z</time>
      </trkpt>
      <trkpt lat="49.12469" lon="-1.46874">
        <ele>56.30871</ele>
        <time>2015-06-05T14:44:05Z</time>
      </trkpt>
      <trkpt lat="49.12467" lon="-1.46872">
        <ele>56.30871</ele>
        <time>2015-06-05T14:44:10Z</time>
      </trkpt>
      <trkpt lat="49.12465" lon="-1.46871">
        <ele>56.30871</ele>
        <time>2015-06-05T14:44:15Z</time>
      </trkpt>
      <trkpt lat="49.12465" lon="-1.46871">
        <ele>56.30871</ele>
        <time>2015-06-05T14:44:20Z</time>
      </trkpt>
      <trkpt lat="49.12465" lon="-1.46872">
        <ele>56.30871</ele>
        <time>2015-06-05T14:44:25Z</time>
      </trkpt>
      <trkpt lat="49.12466" lon="-1.46873">
        <ele>56.30871</ele>
        <time>2015-06-05T14:44:30Z</time>
      </trkpt>
      <trkpt lat="49.12468" lon="-1.46874">
        <ele>56.30871</ele>
        <time>2015-06-05T14:44:35Z</time>
      </trkpt>
      <trkpt lat="49.12469" lon="-1.46875">
        <ele>55.817062</ele>
        <time>2015-06-05T14:44:40Z</time>
      </trkpt>
      <trkpt lat="49.1247" lon="-1.46874">
        <ele>55.817062</ele>
        <time>2015-06-05T14:44:45Z</time>
      </trkpt>
      <trkpt lat="49.1247" lon="-1.46873">
        <ele>55.817062</ele>
        <time>2015-06-05T14:44:50Z</time>
      </trkpt>
      <trkpt lat="49.1247" lon="-1.46874">
        <ele>55.817062</ele>
        <time>2015-06-05T14:44:55Z</time>
      </trkpt>
      <trkpt lat="49.12469" lon="-1.46875">
        <ele>55.817062</ele>
        <time>2015-06-05T14:45:00Z</time>
      </trkpt>
      <trkpt lat="49.12468" lon="-1.46875">
        <ele>55.817062</ele>
        <time>2015-06-05T14:45:05Z</time>
      </trkpt>
      <trkpt lat="49.12468" lon="-1.46876">
        <ele>55.817062</ele>
        <time>2015-06-05T14:45:10Z</time>
      </trkpt>
      <trkpt lat="49.12468" lon="-1.46876">
        <ele>55.817062</ele>
        <time>2015-06-05T14:45:15Z</time>
      </trkpt>
      <trkpt lat="49.12469" lon="-1.46877">
        <ele>55.817062</ele>
        <time>2015-06-05T14:45:20Z</time>
      </trkpt>
      <trkpt lat="49.12469" lon="-1.46877">
        <ele>55.817062</ele>
        <time>2015-06-05T14:45:25Z</time>
      </trkpt>
      <trkpt lat="49.12469" lon="-1.46877">
        <ele>55.817062</ele>
        <time>2015-06-05T14:45:30Z</time>
      </trkpt>
      <trkpt lat="49.1247" lon="-1.46877">
        <ele>55.817062</ele>
        <time>2015-06-05T14:45:35Z</time>
      </trkpt>
      <trkpt lat="49.12471" lon="-1.46877">
        <ele>55.817062</ele>
        <time>2015-06-05T14:45:40Z</time>
      </trkpt>
      <trkpt lat="49.12472" lon="-1.46878">
        <ele>55.817062</ele>
        <time>2015-06-05T14:45:45Z</time>
      </trkpt>
      <trkpt lat="49.12472" lon="-1.46878">
        <ele>55.24751</ele>
        <time>2015-06-05T14:45:50Z</time>
      </trkpt>
      <trkpt lat="49.12472" lon="-1.46879">
        <ele>55.24751</ele>
        <time>2015-06-05T14:45:55Z</time>
      </trkpt>
      <trkpt lat="49.12472" lon="-1.46879">
        <ele>55.24751</ele>
        <time>2015-06-05T14:46:00Z</time>
      </trkpt>
      <trkpt lat="49.12471" lon="-1.46879">
        <ele>55.24751</ele>
        <time>2015-06-05T14:46:05Z</time>
      </trkpt>
      <trkpt lat="49.12471" lon="-1.46879">
        <ele>55.24751</ele>
        <time>2015-06-05T14:46:10Z</time>
      </trkpt>
      <trkpt lat="49.12471" lon="-1.4688">
        <ele>55.24751</ele>
        <time>2015-06-05T14:46:15Z</time>
      </trkpt>
      <trkpt lat="49.12472" lon="-1.46881">
        <ele>55.24751</ele>
        <time>2015-06-05T14:46:20Z</time>
      </trkpt>
      <trkpt lat="49.12472" lon="-1.46881">
        <ele>55.24751</ele>
        <time>2015-06-05T14:46:25Z</time>
      </trkpt>
      <trkpt lat="49.12472" lon="-1.46883">
        <ele>55.24751</ele>
        <time>2015-06-05T14:46:30Z</time>
      </trkpt>
      <trkpt lat="49.12471" lon="-1.46883">
        <ele>55.24751</ele>
        <time>2015-06-05T14:46:35Z</time>
      </trkpt>
      <trkpt lat="49.1247" lon="-1.46883">
        <ele>55.24751</ele>
        <time>2015-06-05T14:46:40Z</time>
      </trkpt>
      <trkpt lat="49.1247" lon="-1.46882">
        <ele>55.24751</ele>
        <time>2015-06-05T14:46:45Z</time>
      </trkpt>
      <trkpt lat="49.1247" lon="-1.46881">
        <ele>55.24751</ele>
        <time>2015-06-05T14:46:50Z</time>
      </trkpt>
      <trkpt lat="49.12469" lon="-1.4688">
        <ele>55.24751</ele>
        <time>2015-06-05T14:46:55Z</time>
      </trkpt>
      <trkpt lat="49.12469" lon="-1.46879">
        <ele>54.31857</ele>
        <time>2015-06-05T14:47:00Z</time>
      </trkpt>
      <trkpt lat="49.12469" lon="-1.46878">
        <ele>54.31857</ele>
        <time>2015-06-05T14:47:05Z</time>
      </trkpt>
      <trkpt lat="49.12472" lon="-1.46872">
        <ele>54.31857</ele>
        <time>2015-06-05T14:47:10Z</time>
      </trkpt>
      <trkpt lat="49.12475" lon="-1.46868">
        <ele>53.490944</ele>
        <time>2015-06-05T14:47:15Z</time>
      </trkpt>
      <trkpt lat="49.12478" lon="-1.46863">
        <ele>53.490944</ele>
        <time>2015-06-05T14:47:20Z</time>
      </trkpt>
      <trkpt lat="49.1248" lon="-1.4686">
        <ele>53.490944</ele>
        <time>2015-06-05T14:47:25Z</time>
      </trkpt>
      <trkpt lat="49.12484" lon="-1.46856">
        <ele>52.81647</ele>
        <time>2015-06-05T14:47:30Z</time>
      </trkpt>
      <trkpt lat="49.12488" lon="-1.46851">
        <ele>52.81647</ele>
        <time>2015-06-05T14:47:35Z</time>
      </trkpt>
      <trkpt lat="49.12492" lon="-1.46843">
        <ele>52.24182</ele>
        <time>2015-06-05T14:47:40Z</time>
      </trkpt>
      <trkpt lat="49.12495" lon="-1.46837">
        <ele>52.24182</ele>
        <time>2015-06-05T14:47:45Z</time>
      </trkpt>
      <trkpt lat="49.125" lon="-1.46832">
        <ele>51.71725</ele>
        <time>2015-06-05T14:47:50Z</time>
      </trkpt>
      <trkpt lat="49.12504" lon="-1.46827">
        <ele>51.71725</ele>
        <time>2015-06-05T14:47:55Z</time>
      </trkpt>
      <trkpt lat="49.12509" lon="-1.46822">
        <ele>51.268536</ele>
        <time>2015-06-05T14:48:00Z</time>
      </trkpt>
      <trkpt lat="49.12513" lon="-1.46815">
        <ele>51.268536</ele>
        <time>2015-06-05T14:48:05Z</time>
      </trkpt>
      <trkpt lat="49.12517" lon="-1.46807">
        <ele>50.933704</ele>
        <time>2015-06-05T14:48:10Z</time>
      </trkpt>
      <trkpt lat="49.1252" lon="-1.46802">
        <ele>50.933704</ele>
        <time>2015-06-05T14:48:15Z</time>
      </trkpt>
      <trkpt lat="49.12525" lon="-1.46795">
        <ele>50.74763</ele>
        <time>2015-06-05T14:48:20Z</time>
      </trkpt>
      <trkpt lat="49.1253" lon="-1.4679">
        <ele>50.74763</ele>
        <time>2015-06-05T14:48:25Z</time>
      </trkpt>
      <trkpt lat="49.12535" lon="-1.46784">
        <ele>50.698936</ele>
        <time>2015-06-05T14:48:30Z</time>
      </trkpt>
      <trkpt lat="49.1254" lon="-1.46779">
        <ele>50.698936</ele>
        <time>2015-06-05T14:48:35Z</time>
      </trkpt>
      <trkpt lat="49.12546" lon="-1.46775">
        <ele>50.719006</ele>
        <time>2015-06-05T14:48:40Z</time>
      </trkpt>
      <trkpt lat="49.12552" lon="-1.4677">
        <ele>50.719006</ele>
        <time>2015-06-05T14:48:45Z</time>
      </trkpt>
      <trkpt lat="49.12558" lon="-1.46765">
        <ele>50.758453</ele>
        <time>2015-06-05T14:48:50Z</time>
      </trkpt>
      <trkpt lat="49.12563" lon="-1.46759">
        <ele>50.758453</ele>
        <time>2015-06-05T14:48:55Z</time>
      </trkpt>
      <trkpt lat="49.12568" lon="-1.46753">
        <ele>50.8435</ele>
        <time>2015-06-05T14:49:00Z</time>
      </trkpt>
      <trkpt lat="49.12573" lon="-1.46747">
        <ele>50.8435</ele>
        <time>2015-06-05T14:49:05Z</time>
      </trkpt>
      <trkpt lat="49.12578" lon="-1.46743">
        <ele>50.911808</ele>
        <time>2015-06-05T14:49:10Z</time>
      </trkpt>
      <trkpt lat="49.12583" lon="-1.46737">
        <ele>50.911808</ele>
        <time>2015-06-05T14:49:15Z</time>
      </trkpt>
      <trkpt lat="49.12589" lon="-1.46731">
        <ele>50.96332</ele>
        <time>2015-06-05T14:49:20Z</time>
      </trkpt>
      <trkpt lat="49.12594" lon="-1.46724">
        <ele>50.96332</ele>
        <time>2015-06-05T14:49:25Z</time>
      </trkpt>
      <trkpt lat="49.12599" lon="-1.46719">
        <ele>51.098877</ele>
        <time>2015-06-05T14:49:30Z</time>
      </trkpt>
      <trkpt lat="49.12604" lon="-1.46714">
        <ele>51.098877</ele>
        <time>2015-06-05T14:49:35Z</time>
      </trkpt>
      <trkpt lat="49.12609" lon="-1.46709">
        <ele>51.181103</ele>
        <time>2015-06-05T14:49:40Z</time>
      </trkpt>
      <trkpt lat="49.12613" lon="-1.46702">
        <ele>51.181103</ele>
        <time>2015-06-05T14:49:45Z</time>
      </trkpt>
      <trkpt lat="49.12618" lon="-1.46695">
        <ele>51.21255</ele>
        <time>2015-06-05T14:49:50Z</time>
      </trkpt>
      <trkpt lat="49.12623" lon="-1.4669">
        <ele>51.21255</ele>
        <time>2015-06-05T14:49:55Z</time>
      </trkpt>
      <trkpt lat="49.12629" lon="-1.46685">
        <ele>51.195747</ele>
        <time>2015-06-05T14:50:00Z</time>
      </trkpt>
      <trkpt lat="49.12634" lon="-1.46679">
        <ele>51.195747</ele>
        <time>2015-06-05T14:50:05Z</time>
      </trkpt>
      <trkpt lat="49.1264" lon="-1.46673">
        <ele>51.133163</ele>
        <time>2015-06-05T14:50:10Z</time>
      </trkpt>
      <trkpt lat="49.12644" lon="-1.46669">
        <ele>51.133163</ele>
        <time>2015-06-05T14:50:15Z</time>
      </trkpt>
      <trkpt lat="49.1265" lon="-1.46665">
        <ele>51.027233</ele>
        <time>2015-06-05T14:50:20Z</time>
      </trkpt>
      <trkpt lat="49.12655" lon="-1.46661">
        <ele>51.027233</ele>
        <time>2015-06-05T14:50:25Z</time>
      </trkpt>
      <trkpt lat="49.12662" lon="-1.46656">
        <ele>50.909157</ele>
        <time>2015-06-05T14:50:30Z</time>
      </trkpt>
      <trkpt lat="49.12666" lon="-1.4665">
        <ele>50.909157</ele>
        <time>2015-06-05T14:50:35Z</time>
      </trkpt>
      <trkpt lat="49.1267" lon="-1.46645">
        <ele>50.83672</ele>
        <time>2015-06-05T14:50:40Z</time>
      </trkpt>
      <trkpt lat="49.12674" lon="-1.46642">
        <ele>50.83672</ele>
        <time>2015-06-05T14:50:45Z</time>
      </trkpt>
      <trkpt lat="49.12681" lon="-1.46636">
        <ele>50.84894</ele>
        <time>2015-06-05T14:50:50Z</time>
      </trkpt>
      <trkpt lat="49.12687" lon="-1.46629">
        <ele>50.84894</ele>
        <time>2015-06-05T14:50:55Z</time>
      </trkpt>
      <trkpt lat="49.12692" lon="-1.46624">
        <ele>50.89528</ele>
        <time>2015-06-05T14:51:00Z</time>
      </trkpt>
      <trkpt lat="49.12694" lon="-1.46618">
        <ele>50.89528</ele>
        <time>2015-06-05T14:51:05Z</time>
      </trkpt>
      <trkpt lat="49.12692" lon="-1.46611">
        <ele>50.885593</ele>
        <time>2015-06-05T14:51:10Z</time>
      </trkpt>
      <trkpt lat="49.12688" lon="-1.46604">
        <ele>50.885593</ele>
        <time>2015-06-05T14:51:15Z</time>
      </trkpt>
      <trkpt lat="49.12685" lon="-1.46598">
        <ele>50.765373</ele>
        <time>2015-06-05T14:51:20Z</time>
      </trkpt>
      <trkpt lat="49.12682" lon="-1.46592">
        <ele>50.765373</ele>
        <time>2015-06-05T14:51:25Z</time>
      </trkpt>
      <trkpt lat="49.12677" lon="-1.46584">
        <ele>50.671776</ele>
        <time>2015-06-05T14:51:30Z</time>
      </trkpt>
      <trkpt lat="49.12673" lon="-1.46575">
        <ele>50.671776</ele>
        <time>2015-06-05T14:51:35Z</time>
      </trkpt>
      <trkpt lat="49.12671" lon="-1.46569">
        <ele>50.558907</ele>
        <time>2015-06-05T14:51:40Z</time>
      </trkpt>
      <trkpt lat="49.12666" lon="-1.46561">
        <ele>50.558907</ele>
        <time>2015-06-05T14:51:45Z</time>
      </trkpt>
      <trkpt lat="49.12662" lon="-1.46555">
        <ele>50.369904</ele>
        <time>2015-06-05T14:51:50Z</time>
      </trkpt>
      <trkpt lat="49.12658" lon="-1.46549">
        <ele>50.369904</ele>
        <time>2015-06-05T14:51:55Z</time>
      </trkpt>
      <trkpt lat="49.12653" lon="-1.46543">
        <ele>50.196426</ele>
        <time>2015-06-05T14:52:00Z</time>
      </trkpt>
      <trkpt lat="49.12649" lon="-1.46538">
        <ele>50.196426</ele>
        <time>2015-06-05T14:52:05Z</time>
      </trkpt>
      <trkpt lat="49.12644" lon="-1.4653">
        <ele>50.022503</ele>
        <time>2015-06-05T14:52:10Z</time>
      </trkpt>
      <trkpt lat="49.1264" lon="-1.46523">
        <ele>50.022503</ele>
        <time>2015-06-05T14:52:15Z</time>
      </trkpt>
      <trkpt lat="49.12637" lon="-1.46516">
        <ele>49.833363</ele>
        <time>2015-06-05T14:52:20Z</time>
      </trkpt>
      <trkpt lat="49.12634" lon="-1.4651">
        <ele>49.833363</ele>
        <time>2015-06-05T14:52:25Z</time>
      </trkpt>
      <trkpt lat="49.1263" lon="-1.46502">
        <ele>49.701847</ele>
        <time>2015-06-05T14:52:30Z</time>
      </trkpt>
      <trkpt lat="49.12628" lon="-1.46493">
        <ele>49.701847</ele>
        <time>2015-06-05T14:52:35Z</time>
      </trkpt>
      <trkpt lat="49.12626" lon="-1.46486">
        <ele>49.62325</ele>
        <time>2015-06-05T14:52:40Z</time>
      </trkpt>
      <trkpt lat="49.12621" lon="-1.4648">
        <ele>49.62325</ele>
        <time>2015-06-05T14:52:45Z</time>
      </trkpt>
      <trkpt lat="49.12619" lon="-1.46473">
        <ele>49.57867</ele>
        <time>2015-06-05T14:52:50Z</time>
      </trkpt>
      <trkpt lat="49.12616" lon="-1.46466">
        <ele>49.57867</ele>
        <time>2015-06-05T14:52:55Z</time>
      </trkpt>
      <trkpt lat="49.12613" lon="-1.46459">
        <ele>49.464058</ele>
        <time>2015-06-05T14:53:00Z</time>
      </trkpt>
      <trkpt lat="49.1261" lon="-1.46454">
        <ele>49.464058</ele>
        <time>2015-06-05T14:53:05Z</time>
      </trkpt>
      <trkpt lat="49.12607" lon="-1.46447">
        <ele>49.341747</ele>
        <time>2015-06-05T14:53:10Z</time>
      </trkpt>
      <trkpt lat="49.12603" lon="-1.4644">
        <ele>49.341747</ele>
        <time>2015-06-05T14:53:15Z</time>
      </trkpt>
      <trkpt lat="49.126" lon="-1.46433">
        <ele>49.240707</ele>
        <time>2015-06-05T14:53:20Z</time>
      </trkpt>
      <trkpt lat="49.12596" lon="-1.46425">
        <ele>49.240707</ele>
        <time>2015-06-05T14:53:25Z</time>
      </trkpt>
      <trkpt lat="49.12594" lon="-1.46419">
        <ele>49.187744</ele>
        <time>2015-06-05T14:53:30Z</time>
      </trkpt>
      <trkpt lat="49.1259" lon="-1.46411">
        <ele>49.187744</ele>
        <time>2015-06-05T14:53:35Z</time>
      </trkpt>
      <trkpt lat="49.12586" lon="-1.46404">
        <ele>49.16435</ele>
        <time>2015-06-05T14:53:40Z</time>
      </trkpt>
      <trkpt lat="49.12582" lon="-1.46396">
        <ele>49.16435</ele>
        <time>2015-06-05T14:53:45Z</time>
      </trkpt>
      <trkpt lat="49.1258" lon="-1.46389">
        <ele>49.18213</ele>
        <time>2015-06-05T14:53:50Z</time>
      </trkpt>
      <trkpt lat="49.12577" lon="-1.46381">
        <ele>49.18213</ele>
        <time>2015-06-05T14:53:55Z</time>
      </trkpt>
      <trkpt lat="49.12574" lon="-1.46373">
        <ele>49.194103</ele>
        <time>2015-06-05T14:54:00Z</time>
      </trkpt>
      <trkpt lat="49.12573" lon="-1.46366">
        <ele>49.194103</ele>
        <time>2015-06-05T14:54:05Z</time>
      </trkpt>
      <trkpt lat="49.1257" lon="-1.46356">
        <ele>49.20001</ele>
        <time>2015-06-05T14:54:10Z</time>
      </trkpt>
      <trkpt lat="49.12568" lon="-1.46347">
        <ele>49.20001</ele>
        <time>2015-06-05T14:54:15Z</time>
      </trkpt>
      <trkpt lat="49.12565" lon="-1.4634">
        <ele>49.15641</ele>
        <time>2015-06-05T14:54:20Z</time>
      </trkpt>
      <trkpt lat="49.12562" lon="-1.46333">
        <ele>49.15641</ele>
        <time>2015-06-05T14:54:25Z</time>
      </trkpt>
      <trkpt lat="49.12557" lon="-1.46324">
        <ele>49.13852</ele>
        <time>2015-06-05T14:54:30Z</time>
      </trkpt>
      <trkpt lat="49.12556" lon="-1.46317">
        <ele>49.13852</ele>
        <time>2015-06-05T14:54:35Z</time>
      </trkpt>
      <trkpt lat="49.12555" lon="-1.4631">
        <ele>48.956554</ele>
        <time>2015-06-05T14:54:40Z</time>
      </trkpt>
      <trkpt lat="49.12555" lon="-1.46302">
        <ele>48.956554</ele>
        <time>2015-06-05T14:54:45Z</time>
      </trkpt>
      <trkpt lat="49.12554" lon="-1.46298">
        <ele>48.956554</ele>
        <time>2015-06-05T14:54:50Z</time>
      </trkpt>
      <trkpt lat="49.12551" lon="-1.46291">
        <ele>48.536053</ele>
        <time>2015-06-05T14:54:55Z</time>
      </trkpt>
      <trkpt lat="49.12551" lon="-1.46284">
        <ele>48.536053</ele>
        <time>2015-06-05T14:55:00Z</time>
      </trkpt>
      <trkpt lat="49.12551" lon="-1.46277">
        <ele>48.212215</ele>
        <time>2015-06-05T14:55:05Z</time>
      </trkpt>
      <trkpt lat="49.12549" lon="-1.46272">
        <ele>48.212215</ele>
        <time>2015-06-05T14:55:10Z</time>
      </trkpt>
      <trkpt lat="49.12549" lon="-1.46268">
        <ele>48.212215</ele>
        <time>2015-06-05T14:55:15Z</time>
      </trkpt>
      <trkpt lat="49.12548" lon="-1.46266">
        <ele>48.212215</ele>
        <time>2015-06-05T14:55:20Z</time>
      </trkpt>
      <trkpt lat="49.12548" lon="-1.46266">
        <ele>48.212215</ele>
        <time>2015-06-05T14:55:25Z</time>
      </trkpt>
      <trkpt lat="49.12547" lon="-1.46266">
        <ele>48.212215</ele>
        <time>2015-06-05T14:55:30Z</time>
      </trkpt>
      <trkpt lat="49.12546" lon="-1.46266">
        <ele>48.252125</ele>
        <time>2015-06-05T14:55:35Z</time>
      </trkpt>
      <trkpt lat="49.12545" lon="-1.46267">
        <ele>48.252125</ele>
        <time>2015-06-05T14:55:40Z</time>
      </trkpt>
      <trkpt lat="49.12545" lon="-1.46266">
        <ele>48.252125</ele>
        <time>2015-06-05T14:55:45Z</time>
      </trkpt>
      <trkpt lat="49.12543" lon="-1.46258">
        <ele>48.252125</ele>
        <time>2015-06-05T14:55:50Z</time>
      </trkpt>
      <trkpt lat="49.12541" lon="-1.46254">
        <ele>48.61403</ele>
        <time>2015-06-05T14:55:55Z</time>
      </trkpt>
      <trkpt lat="49.12541" lon="-1.46254">
        <ele>48.61403</ele>
        <time>2015-06-05T14:56:00Z</time>
      </trkpt>
      <trkpt lat="49.12541" lon="-1.46253">
        <ele>48.61403</ele>
        <time>2015-06-05T14:56:05Z</time>
      </trkpt>
      <trkpt lat="49.12541" lon="-1.46246">
        <ele>48.61403</ele>
        <time>2015-06-05T14:56:10Z</time>
      </trkpt>
      <trkpt lat="49.1254" lon="-1.4624">
        <ele>49.099827</ele>
        <time>2015-06-05T14:56:15Z</time>
      </trkpt>
      <trkpt lat="49.12539" lon="-1.46231">
        <ele>49.099827</ele>
        <time>2015-06-05T14:56:20Z</time>
      </trkpt>
      <trkpt lat="49.12537" lon="-1.46223">
        <ele>49.554474</ele>
        <time>2015-06-05T14:56:25Z</time>
      </trkpt>
      <trkpt lat="49.12534" lon="-1.46216">
        <ele>49.554474</ele>
        <time>2015-06-05T14:56:30Z</time>
      </trkpt>
      <trkpt lat="49.12531" lon="-1.46207">
        <ele>49.978523</ele>
        <time>2015-06-05T14:56:35Z</time>
      </trkpt>
      <trkpt lat="49.12529" lon="-1.46202">
        <ele>49.978523</ele>
        <time>2015-06-05T14:56:40Z</time>
      </trkpt>
      <trkpt lat="49.12526" lon="-1.46194">
        <ele>50.444668</ele>
        <time>2015-06-05T14:56:45Z</time>
      </trkpt>
      <trkpt lat="49.12523" lon="-1.46187">
        <ele>50.444668</ele>
        <time>2015-06-05T14:56:50Z</time>
      </trkpt>
      <trkpt lat="49.1252" lon="-1.4618">
        <ele>50.962517</ele>
        <time>2015-06-05T14:56:55Z</time>
      </trkpt>
      <trkpt lat="49.12518" lon="-1.4617">
        <ele>50.962517</ele>
        <time>2015-06-05T14:57:00Z</time>
      </trkpt>
      <trkpt lat="49.12516" lon="-1.46161">
        <ele>51.512043</ele>
        <time>2015-06-05T14:57:05Z</time>
      </trkpt>
      <trkpt lat="49.12515" lon="-1.46155">
        <ele>51.512043</ele>
        <time>2015-06-05T14:57:10Z</time>
      </trkpt>
      <trkpt lat="49.12513" lon="-1.46148">
        <ele>52.074635</ele>
        <time>2015-06-05T14:57:15Z</time>
      </trkpt>
      <trkpt lat="49.12511" lon="-1.46141">
        <ele>52.074635</ele>
        <time>2015-06-05T14:57:20Z</time>
      </trkpt>
      <trkpt lat="49.12509" lon="-1.46134">
        <ele>52.589825</ele>
        <time>2015-06-05T14:57:25Z</time>
      </trkpt>
      <trkpt lat="49.12508" lon="-1.46124">
        <ele>52.589825</ele>
        <time>2015-06-05T14:57:30Z</time>
      </trkpt>
      <trkpt lat="49.12508" lon="-1.46115">
        <ele>53.145855</ele>
        <time>2015-06-05T14:57:35Z</time>
      </trkpt>
      <trkpt lat="49.12506" lon="-1.46108">
        <ele>53.145855</ele>
        <time>2015-06-05T14:57:40Z</time>
      </trkpt>
      <trkpt lat="49.12503" lon="-1.461">
        <ele>53.709145</ele>
        <time>2015-06-05T14:57:45Z</time>
      </trkpt>
      <trkpt lat="49.125" lon="-1.46094">
        <ele>53.709145</ele>
        <time>2015-06-05T14:57:50Z</time>
      </trkpt>
      <trkpt lat="49.12498" lon="-1.46087">
        <ele>54.30623</ele>
        <time>2015-06-05T14:57:55Z</time>
      </trkpt>
      <trkpt lat="49.12495" lon="-1.4608">
        <ele>54.30623</ele>
        <time>2015-06-05T14:58:00Z</time>
      </trkpt>
      <trkpt lat="49.12492" lon="-1.4607">
        <ele>54.8752</ele>
        <time>2015-06-05T14:58:05Z</time>
      </trkpt>
      <trkpt lat="49.12489" lon="-1.4606">
        <ele>54.8752</ele>
        <time>2015-06-05T14:58:10Z</time>
      </trkpt>
      <trkpt lat="49.12489" lon="-1.46053">
        <ele>55.286747</ele>
        <time>2015-06-05T14:58:15Z</time>
      </trkpt>
      <trkpt lat="49.12487" lon="-1.46043">
        <ele>55.286747</ele>
        <time>2015-06-05T14:58:20Z</time>
      </trkpt>
      <trkpt lat="49.12487" lon="-1.46036">
        <ele>55.565678</ele>
        <time>2015-06-05T14:58:25Z</time>
      </trkpt>
      <trkpt lat="49.12486" lon="-1.46029">
        <ele>55.565678</ele>
        <time>2015-06-05T14:58:30Z</time>
      </trkpt>
      <trkpt lat="49.12486" lon="-1.46021">
        <ele>55.706566</ele>
        <time>2015-06-05T14:58:35Z</time>
      </trkpt>
      <trkpt lat="49.12486" lon="-1.46017">
        <ele>55.706566</ele>
        <time>2015-06-05T14:58:40Z</time>
      </trkpt>
      <trkpt lat="49.12485" lon="-1.46012">
        <ele>55.706566</ele>
        <time>2015-06-05T14:58:45Z</time>
      </trkpt>
      <trkpt lat="49.12484" lon="-1.46003">
        <ele>55.676003</ele>
        <time>2015-06-05T14:58:50Z</time>
      </trkpt>
      <trkpt lat="49.12485" lon="-1.45995">
        <ele>55.676003</ele>
        <time>2015-06-05T14:58:55Z</time>
      </trkpt>
      <trkpt lat="49.12484" lon="-1.45988">
        <ele>55.630898</ele>
        <time>2015-06-05T14:59:00Z</time>
      </trkpt>
      <trkpt lat="49.12484" lon="-1.45979">
        <ele>55.630898</ele>
        <time>2015-06-05T14:59:05Z</time>
      </trkpt>
      <trkpt lat="49.12484" lon="-1.45971">
        <ele>55.70231</ele>
        <time>2015-06-05T14:59:10Z</time>
      </trkpt>
      <trkpt lat="49.12482" lon="-1.45963">
        <ele>55.70231</ele>
        <time>2015-06-05T14:59:15Z</time>
      </trkpt>
      <trkpt lat="49.12481" lon="-1.45956">
        <ele>55.838444</ele>
        <time>2015-06-05T14:59:20Z</time>
      </trkpt>
      <trkpt lat="49.12479" lon="-1.45951">
        <ele>55.838444</ele>
        <time>2015-06-05T14:59:25Z</time>
      </trkpt>
      <trkpt lat="49.12481" lon="-1.45942">
        <ele>56.10646</ele>
        <time>2015-06-05T14:59:30Z</time>
      </trkpt>
      <trkpt lat="49.12482" lon="-1.45932">
        <ele>56.10646</ele>
        <time>2015-06-05T14:59:35Z</time>
      </trkpt>
      <trkpt lat="49.12482" lon="-1.45928">
        <ele>56.539413</ele>
        <time>2015-06-05T14:59:40Z</time>
      </trkpt>
      <trkpt lat="49.12482" lon="-1.45922">
        <ele>56.539413</ele>
        <time>2015-06-05T14:59:45Z</time>
      </trkpt>
      <trkpt lat="49.12482" lon="-1.45915">
        <ele>56.539413</ele>
        <time>2015-06-05T14:59:50Z</time>
      </trkpt>
      <trkpt lat="49.12483" lon="-1.45908">
        <ele>57.124283</ele>
        <time>2015-06-05T14:59:55Z</time>
      </trkpt>
      <trkpt lat="49.12484" lon="-1.45896">
        <ele>57.124283</ele>
        <time>2015-06-05T15:00:00Z</time>
      </trkpt>
      <trkpt lat="49.12485" lon="-1.4589">
        <ele>57.733307</ele>
        <time>2015-06-05T15:00:05Z</time>
      </trkpt>
      <trkpt lat="49.12487" lon="-1.45881">
        <ele>57.733307</ele>
        <time>2015-06-05T15:00:10Z</time>
      </trkpt>
      <trkpt lat="49.12487" lon="-1.45872">
        <ele>58.43543</ele>
        <time>2015-06-05T15:00:15Z</time>
      </trkpt>
      <trkpt lat="49.12486" lon="-1.45865">
        <ele>58.43543</ele>
        <time>2015-06-05T15:00:20Z</time>
      </trkpt>
      <trkpt lat="49.12488" lon="-1.45858">
        <ele>59.121365</ele>
        <time>2015-06-05T15:00:25Z</time>
      </trkpt>
      <trkpt lat="49.1249" lon="-1.45855">
        <ele>59.121365</ele>
        <time>2015-06-05T15:00:30Z</time>
      </trkpt>
      <trkpt lat="49.12493" lon="-1.45851">
        <ele>59.121365</ele>
        <time>2015-06-05T15:00:35Z</time>
      </trkpt>
      <trkpt lat="49.12495" lon="-1.45844">
        <ele>59.790817</ele>
        <time>2015-06-05T15:00:40Z</time>
      </trkpt>
      <trkpt lat="49.12499" lon="-1.45842">
        <ele>59.790817</ele>
        <time>2015-06-05T15:00:45Z</time>
      </trkpt>
      <trkpt lat="49.12503" lon="-1.4584">
        <ele>59.790817</ele>
        <time>2015-06-05T15:00:50Z</time>
      </trkpt>
      <trkpt lat="49.12509" lon="-1.45835">
        <ele>60.357136</ele>
        <time>2015-06-05T15:00:55Z</time>
      </trkpt>
      <trkpt lat="49.12511" lon="-1.45833">
        <ele>60.357136</ele>
        <time>2015-06-05T15:01:00Z</time>
      </trkpt>
      <trkpt lat="49.12512" lon="-1.45831">
        <ele>60.357136</ele>
        <time>2015-06-05T15:01:05Z</time>
      </trkpt>
      <trkpt lat="49.12516" lon="-1.45825">
        <ele>60.95652</ele>
        <time>2015-06-05T15:01:10Z</time>
      </trkpt>
      <trkpt lat="49.12518" lon="-1.45823">
        <ele>60.95652</ele>
        <time>2015-06-05T15:01:15Z</time>
      </trkpt>
      <trkpt lat="49.12519" lon="-1.45819">
        <ele>60.95652</ele>
        <time>2015-06-05T15:01:20Z</time>
      </trkpt>
      <trkpt lat="49.12521" lon="-1.45816">
        <ele>60.95652</ele>
        <time>2015-06-05T15:01:25Z</time>
      </trkpt>
      <trkpt lat="49.12525" lon="-1.45811">
        <ele>61.715115</ele>
        <time>2015-06-05T15:01:30Z</time>
      </trkpt>
      <trkpt lat="49.12527" lon="-1.45805">
        <ele>61.715115</ele>
        <time>2015-06-05T15:01:35Z</time>
      </trkpt>
      <trkpt lat="49.12531" lon="-1.45797">
        <ele>62.518826</ele>
        <time>2015-06-05T15:01:40Z</time>
      </trkpt>
      <trkpt lat="49.12534" lon="-1.45784">
        <ele>63.24743</ele>
        <time>2015-06-05T15:01:45Z</time>
      </trkpt>
      <trkpt lat="49.12536" lon="-1.45774">
        <ele>63.24743</ele>
        <time>2015-06-05T15:01:50Z</time>
      </trkpt>
      <trkpt lat="49.12538" lon="-1.45768">
        <ele>63.91949</ele>
        <time>2015-06-05T15:01:55Z</time>
      </trkpt>
      <trkpt lat="49.12541" lon="-1.45764">
        <ele>63.91949</ele>
        <time>2015-06-05T15:02:00Z</time>
      </trkpt>
      <trkpt lat="49.1254" lon="-1.45754">
        <ele>64.63889</ele>
        <time>2015-06-05T15:02:05Z</time>
      </trkpt>
      <trkpt lat="49.1254" lon="-1.45748">
        <ele>64.63889</ele>
        <time>2015-06-05T15:02:10Z</time>
      </trkpt>
      <trkpt lat="49.1254" lon="-1.45741">
        <ele>64.63889</ele>
        <time>2015-06-05T15:02:15Z</time>
      </trkpt>
      <trkpt lat="49.12539" lon="-1.45732">
        <ele>65.429726</ele>
        <time>2015-06-05T15:02:20Z</time>
      </trkpt>
      <trkpt lat="49.12538" lon="-1.45724">
        <ele>65.429726</ele>
        <time>2015-06-05T15:02:25Z</time>
      </trkpt>
      <trkpt lat="49.12538" lon="-1.45718">
        <ele>66.141235</ele>
        <time>2015-06-05T15:02:30Z</time>
      </trkpt>
      <trkpt lat="49.12539" lon="-1.45708">
        <ele>66.141235</ele>
        <time>2015-06-05T15:02:35Z</time>
      </trkpt>
      <trkpt lat="49.12538" lon="-1.45703">
        <ele>66.79253</ele>
        <time>2015-06-05T15:02:40Z</time>
      </trkpt>
      <trkpt lat="49.12537" lon="-1.45692">
        <ele>66.79253</ele>
        <time>2015-06-05T15:02:45Z</time>
      </trkpt>
      <trkpt lat="49.12537" lon="-1.45683">
        <ele>67.43033</ele>
        <time>2015-06-05T15:02:50Z</time>
      </trkpt>
      <trkpt lat="49.12536" lon="-1.45675">
        <ele>67.43033</ele>
        <time>2015-06-05T15:02:55Z</time>
      </trkpt>
      <trkpt lat="49.12535" lon="-1.45668">
        <ele>67.881874</ele>
        <time>2015-06-05T15:03:00Z</time>
      </trkpt>
      <trkpt lat="49.12535" lon="-1.45662">
        <ele>67.881874</ele>
        <time>2015-06-05T15:03:05Z</time>
      </trkpt>
      <trkpt lat="49.12534" lon="-1.45658">
        <ele>67.881874</ele>
        <time>2015-06-05T15:03:10Z</time>
      </trkpt>
      <trkpt lat="49.12533" lon="-1.45653">
        <ele>68.17497</ele>
        <time>2015-06-05T15:03:15Z</time>
      </trkpt>
      <trkpt lat="49.12533" lon="-1.45646">
        <ele>68.17497</ele>
        <time>2015-06-05T15:03:20Z</time>
      </trkpt>
      <trkpt lat="49.12532" lon="-1.45639">
        <ele>68.42237</ele>
        <time>2015-06-05T15:03:25Z</time>
      </trkpt>
      <trkpt lat="49.12532" lon="-1.45631">
        <ele>68.42237</ele>
        <time>2015-06-05T15:03:30Z</time>
      </trkpt>
      <trkpt lat="49.12532" lon="-1.45626">
        <ele>68.42237</ele>
        <time>2015-06-05T15:03:35Z</time>
      </trkpt>
      <trkpt lat="49.12531" lon="-1.45619">
        <ele>68.498085</ele>
        <time>2015-06-05T15:03:40Z</time>
      </trkpt>
      <trkpt lat="49.12531" lon="-1.45616">
        <ele>68.498085</ele>
        <time>2015-06-05T15:03:45Z</time>
      </trkpt>
      <trkpt lat="49.1253" lon="-1.45609">
        <ele>68.498085</ele>
        <time>2015-06-05T15:03:50Z</time>
      </trkpt>
      <trkpt lat="49.12529" lon="-1.45602">
        <ele>68.21388</ele>
        <time>2015-06-05T15:03:55Z</time>
      </trkpt>
      <trkpt lat="49.12529" lon="-1.45598">
        <ele>68.21388</ele>
        <time>2015-06-05T15:04:00Z</time>
      </trkpt>
      <trkpt lat="49.12528" lon="-1.45591">
        <ele>68.21388</ele>
        <time>2015-06-05T15:04:05Z</time>
      </trkpt>
      <trkpt lat="49.12528" lon="-1.45586">
        <ele>67.626945</ele>
        <time>2015-06-05T15:04:10Z</time>
      </trkpt>
      <trkpt lat="49.12527" lon="-1.45583">
        <ele>67.626945</ele>
        <time>2015-06-05T15:04:15Z</time>
      </trkpt>
      <trkpt lat="49.12526" lon="-1.45579">
        <ele>67.626945</ele>
        <time>2015-06-05T15:04:20Z</time>
      </trkpt>
      <trkpt lat="49.12527" lon="-1.45572">
        <ele>66.77671</ele>
        <time>2015-06-05T15:04:25Z</time>
      </trkpt>
      <trkpt lat="49.12526" lon="-1.45566">
        <ele>66.77671</ele>
        <time>2015-06-05T15:04:30Z</time>
      </trkpt>
      <trkpt lat="49.12526" lon="-1.45561">
        <ele>66.77671</ele>
        <time>2015-06-05T15:04:35Z</time>
      </trkpt>
      <trkpt lat="49.12525" lon="-1.45555">
        <ele>65.83019</ele>
        <time>2015-06-05T15:04:40Z</time>
      </trkpt>
      <trkpt lat="49.12525" lon="-1.4555">
        <ele>65.83019</ele>
        <time>2015-06-05T15:04:45Z</time>
      </trkpt>
      <trkpt lat="49.12525" lon="-1.45544">
        <ele>65.83019</ele>
        <time>2015-06-05T15:04:50Z</time>
      </trkpt>
      <trkpt lat="49.12525" lon="-1.45542">
        <ele>65.83019</ele>
        <time>2015-06-05T15:04:55Z</time>
      </trkpt>
      <trkpt lat="49.12525" lon="-1.45534">
        <ele>64.75503</ele>
        <time>2015-06-05T15:05:00Z</time>
      </trkpt>
      <trkpt lat="49.12525" lon="-1.45528">
        <ele>64.75503</ele>
        <time>2015-06-05T15:05:05Z</time>
      </trkpt>
      <trkpt lat="49.12526" lon="-1.45524">
        <ele>64.75503</ele>
        <time>2015-06-05T15:05:10Z</time>
      </trkpt>
      <trkpt lat="49.12526" lon="-1.45519">
        <ele>63.73777</ele>
        <time>2015-06-05T15:05:15Z</time>
      </trkpt>
      <trkpt lat="49.12525" lon="-1.45513">
        <ele>63.73777</ele>
        <time>2015-06-05T15:05:20Z</time>
      </trkpt>
      <trkpt lat="49.12523" lon="-1.45506">
        <ele>63.73777</ele>
        <time>2015-06-05T15:05:25Z</time>
      </trkpt>
      <trkpt lat="49.12523" lon="-1.455">
        <ele>62.749313</ele>
        <time>2015-06-05T15:05:30Z</time>
      </trkpt>
      <trkpt lat="49.12521" lon="-1.45494">
        <ele>62.749313</ele>
        <time>2015-06-05T15:05:35Z</time>
      </trkpt>
      <trkpt lat="49.1252" lon="-1.45488">
        <ele>62.749313</ele>
        <time>2015-06-05T15:05:40Z</time>
      </trkpt>
      <trkpt lat="49.1252" lon="-1.45481">
        <ele>62.079628</ele>
        <time>2015-06-05T15:05:45Z</time>
      </trkpt>
      <trkpt lat="49.12518" lon="-1.45473">
        <ele>62.079628</ele>
        <time>2015-06-05T15:05:50Z</time>
      </trkpt>
      <trkpt lat="49.12517" lon="-1.45469">
        <ele>62.079628</ele>
        <time>2015-06-05T15:05:55Z</time>
      </trkpt>
      <trkpt lat="49.12517" lon="-1.45464">
        <ele>61.79469</ele>
        <time>2015-06-05T15:06:00Z</time>
      </trkpt>
      <trkpt lat="49.12518" lon="-1.4546">
        <ele>61.79469</ele>
        <time>2015-06-05T15:06:05Z</time>
      </trkpt>
      <trkpt lat="49.12518" lon="-1.45452">
        <ele>61.79469</ele>
        <time>2015-06-05T15:06:10Z</time>
      </trkpt>
      <trkpt lat="49.12518" lon="-1.45446">
        <ele>61.8248</ele>
        <time>2015-06-05T15:06:15Z</time>
      </trkpt>
      <trkpt lat="49.12518" lon="-1.45439">
        <ele>61.8248</ele>
        <time>2015-06-05T15:06:20Z</time>
      </trkpt>
      <trkpt lat="49.12518" lon="-1.45437">
        <ele>61.8248</ele>
        <time>2015-06-05T15:06:25Z</time>
      </trkpt>
      <trkpt lat="49.12518" lon="-1.45434">
        <ele>61.8248</ele>
        <time>2015-06-05T15:06:30Z</time>
      </trkpt>
      <trkpt lat="49.12517" lon="-1.45433">
        <ele>62.17651</ele>
        <time>2015-06-05T15:06:35Z</time>
      </trkpt>
      <trkpt lat="49.12517" lon="-1.45431">
        <ele>62.17651</ele>
        <time>2015-06-05T15:06:40Z</time>
      </trkpt>
      <trkpt lat="49.12517" lon="-1.45432">
        <ele>62.17651</ele>
        <time>2015-06-05T15:06:45Z</time>
      </trkpt>
      <trkpt lat="49.12518" lon="-1.4543">
        <ele>62.17651</ele>
        <time>2015-06-05T15:06:50Z</time>
      </trkpt>
      <trkpt lat="49.12518" lon="-1.45431">
        <ele>62.17651</ele>
        <time>2015-06-05T15:06:55Z</time>
      </trkpt>
      <trkpt lat="49.12518" lon="-1.45431">
        <ele>62.17651</ele>
        <time>2015-06-05T15:07:00Z</time>
      </trkpt>
      <trkpt lat="49.12518" lon="-1.4543">
        <ele>62.17651</ele>
        <time>2015-06-05T15:07:05Z</time>
      </trkpt>
      <trkpt lat="49.12519" lon="-1.45429">
        <ele>62.17651</ele>
        <time>2015-06-05T15:07:10Z</time>
      </trkpt>
      <trkpt lat="49.12518" lon="-1.45429">
        <ele>62.17651</ele>
        <time>2015-06-05T15:07:15Z</time>
      </trkpt>
      <trkpt lat="49.12518" lon="-1.45429">
        <ele>62.17651</ele>
        <time>2015-06-05T15:07:20Z</time>
      </trkpt>
      <trkpt lat="49.12516" lon="-1.45429">
        <ele>62.17651</ele>
        <time>2015-06-05T15:07:25Z</time>
      </trkpt>
      <trkpt lat="49.12517" lon="-1.45429">
        <ele>62.17651</ele>
        <time>2015-06-05T15:07:30Z</time>
      </trkpt>
      <trkpt lat="49.12516" lon="-1.45429">
        <ele>62.71027</ele>
        <time>2015-06-05T15:07:35Z</time>
      </trkpt>
      <trkpt lat="49.12516" lon="-1.45431">
        <ele>63.244034</ele>
        <time>2015-06-05T15:07:40Z</time>
      </trkpt>
      <trkpt lat="49.12517" lon="-1.4543">
        <ele>63.244034</ele>
        <time>2015-06-05T15:07:45Z</time>
      </trkpt>
      <trkpt lat="49.12519" lon="-1.4543">
        <ele>63.244034</ele>
        <time>2015-06-05T15:07:50Z</time>
      </trkpt>
      <trkpt lat="49.12519" lon="-1.45431">
        <ele>63.244034</ele>
        <time>2015-06-05T15:07:55Z</time>
      </trkpt>
      <trkpt lat="49.12519" lon="-1.45431">
        <ele>63.244034</ele>
        <time>2015-06-05T15:08:00Z</time>
      </trkpt>
      <trkpt lat="49.12519" lon="-1.45431">
        <ele>63.244034</ele>
        <time>2015-06-05T15:08:05Z</time>
      </trkpt>
      <trkpt lat="49.12518" lon="-1.45431">
        <ele>63.244034</ele>
        <time>2015-06-05T15:08:10Z</time>
      </trkpt>
      <trkpt lat="49.12517" lon="-1.45424">
        <ele>64.20887</ele>
        <time>2015-06-05T15:08:15Z</time>
      </trkpt>
      <trkpt lat="49.12515" lon="-1.45416">
        <ele>64.20887</ele>
        <time>2015-06-05T15:08:20Z</time>
      </trkpt>
      <trkpt lat="49.12514" lon="-1.45409">
        <ele>65.16316</ele>
        <time>2015-06-05T15:08:25Z</time>
      </trkpt>
      <trkpt lat="49.12514" lon="-1.454">
        <ele>65.16316</ele>
        <time>2015-06-05T15:08:30Z</time>
      </trkpt>
      <trkpt lat="49.12515" lon="-1.45387">
        <ele>65.97609</ele>
        <time>2015-06-05T15:08:35Z</time>
      </trkpt>
      <trkpt lat="49.12514" lon="-1.4538">
        <ele>65.97609</ele>
        <time>2015-06-05T15:08:40Z</time>
      </trkpt>
      <trkpt lat="49.12514" lon="-1.45371">
        <ele>66.714195</ele>
        <time>2015-06-05T15:08:45Z</time>
      </trkpt>
      <trkpt lat="49.12516" lon="-1.45363">
        <ele>66.714195</ele>
        <time>2015-06-05T15:08:50Z</time>
      </trkpt>
      <trkpt lat="49.12516" lon="-1.45356">
        <ele>67.439316</ele>
        <time>2015-06-05T15:08:55Z</time>
      </trkpt>
      <trkpt lat="49.12516" lon="-1.4535">
        <ele>67.439316</ele>
        <time>2015-06-05T15:09:00Z</time>
      </trkpt>
      <trkpt lat="49.12514" lon="-1.45342">
        <ele>67.963776</ele>
        <time>2015-06-05T15:09:05Z</time>
      </trkpt>
      <trkpt lat="49.12513" lon="-1.45337">
        <ele>67.963776</ele>
        <time>2015-06-05T15:09:10Z</time>
      </trkpt>
      <trkpt lat="49.12509" lon="-1.45334">
        <ele>67.963776</ele>
        <time>2015-06-05T15:09:15Z</time>
      </trkpt>
      <trkpt lat="49.12506" lon="-1.45332">
        <ele>68.301605</ele>
        <time>2015-06-05T15:09:20Z</time>
      </trkpt>
      <trkpt lat="49.12503" lon="-1.45332">
        <ele>68.301605</ele>
        <time>2015-06-05T15:09:25Z</time>
      </trkpt>
      <trkpt lat="49.12498" lon="-1.45333">
        <ele>68.301605</ele>
        <time>2015-06-05T15:09:30Z</time>
      </trkpt>
      <trkpt lat="49.12492" lon="-1.45334">
        <ele>68.40866</ele>
        <time>2015-06-05T15:09:35Z</time>
      </trkpt>
      <trkpt lat="49.12487" lon="-1.45333">
        <ele>68.40866</ele>
        <time>2015-06-05T15:09:40Z</time>
      </trkpt>
      <trkpt lat="49.12482" lon="-1.45335">
        <ele>68.432045</ele>
        <time>2015-06-05T15:09:45Z</time>
      </trkpt>
      <trkpt lat="49.12475" lon="-1.45333">
        <ele>68.432045</ele>
        <time>2015-06-05T15:09:50Z</time>
      </trkpt>
      <trkpt lat="49.12468" lon="-1.45332">
        <ele>68.56593</ele>
        <time>2015-06-05T15:09:55Z</time>
      </trkpt>
      <trkpt lat="49.12461" lon="-1.45334">
        <ele>68.56593</ele>
        <time>2015-06-05T15:10:00Z</time>
      </trkpt>
      <trkpt lat="49.12457" lon="-1.45336">
        <ele>68.81697</ele>
        <time>2015-06-05T15:10:05Z</time>
      </trkpt>
      <trkpt lat="49.1245" lon="-1.45334">
        <ele>68.81697</ele>
        <time>2015-06-05T15:10:10Z</time>
      </trkpt>
      <trkpt lat="49.12446" lon="-1.45333">
        <ele>69.19101</ele>
        <time>2015-06-05T15:10:15Z</time>
      </trkpt>
      <trkpt lat="49.12441" lon="-1.45334">
        <ele>69.19101</ele>
        <time>2015-06-05T15:10:20Z</time>
      </trkpt>
      <trkpt lat="49.12434" lon="-1.45334">
        <ele>69.66428</ele>
        <time>2015-06-05T15:10:25Z</time>
      </trkpt>
      <trkpt lat="49.12427" lon="-1.45331">
        <ele>69.66428</ele>
        <time>2015-06-05T15:10:30Z</time>
      </trkpt>
      <trkpt lat="49.12422" lon="-1.45326">
        <ele>70.05597</ele>
        <time>2015-06-05T15:10:35Z</time>
      </trkpt>
      <trkpt lat="49.12417" lon="-1.45321">
        <ele>70.05597</ele>
        <time>2015-06-05T15:10:40Z</time>
      </trkpt>
      <trkpt lat="49.12412" lon="-1.45319">
        <ele>70.45816</ele>
        <time>2015-06-05T15:10:45Z</time>
      </trkpt>
      <trkpt lat="49.12408" lon="-1.45317">
        <ele>70.45816</ele>
        <time>2015-06-05T15:10:50Z</time>
      </trkpt>
      <trkpt lat="49.12403" lon="-1.45317">
        <ele>70.8985</ele>
        <time>2015-06-05T15:10:55Z</time>
      </trkpt>
      <trkpt lat="49.12398" lon="-1.45315">
        <ele>70.8985</ele>
        <time>2015-06-05T15:11:00Z</time>
      </trkpt>
      <trkpt lat="49.12395" lon="-1.45315">
        <ele>70.8985</ele>
        <time>2015-06-05T15:11:05Z</time>
      </trkpt>
      <trkpt lat="49.12394" lon="-1.45316">
        <ele>71.40251</ele>
        <time>2015-06-05T15:11:10Z</time>
      </trkpt>
      <trkpt lat="49.12394" lon="-1.45317">
        <ele>71.40251</ele>
        <time>2015-06-05T15:11:15Z</time>
      </trkpt>
      <trkpt lat="49.12394" lon="-1.45319">
        <ele>71.40251</ele>
        <time>2015-06-05T15:11:20Z</time>
      </trkpt>
      <trkpt lat="49.12394" lon="-1.45319">
        <ele>71.40251</ele>
        <time>2015-06-05T15:11:25Z</time>
      </trkpt>
      <trkpt lat="49.12392" lon="-1.45318">
        <ele>71.40251</ele>
        <time>2015-06-05T15:11:30Z</time>
      </trkpt>
      <trkpt lat="49.12391" lon="-1.45317">
        <ele>71.40251</ele>
        <time>2015-06-05T15:11:35Z</time>
      </trkpt>
      <trkpt lat="49.12393" lon="-1.45313">
        <ele>71.40251</ele>
        <time>2015-06-05T15:11:40Z</time>
      </trkpt>
      <trkpt lat="49.12394" lon="-1.45312">
        <ele>71.96484</ele>
        <time>2015-06-05T15:11:45Z</time>
      </trkpt>
      <trkpt lat="49.12394" lon="-1.45312">
        <ele>71.96484</ele>
        <time>2015-06-05T15:11:50Z</time>
      </trkpt>
      <trkpt lat="49.12394" lon="-1.45313">
        <ele>71.96484</ele>
        <time>2015-06-05T15:11:55Z</time>
      </trkpt>
      <trkpt lat="49.12392" lon="-1.45314">
        <ele>71.96484</ele>
        <time>2015-06-05T15:12:00Z</time>
      </trkpt>
      <trkpt lat="49.12388" lon="-1.45315">
        <ele>71.96484</ele>
        <time>2015-06-05T15:12:05Z</time>
      </trkpt>
      <trkpt lat="49.12387" lon="-1.45312">
        <ele>72.638</ele>
        <time>2015-06-05T15:12:10Z</time>
      </trkpt>
      <trkpt lat="49.12387" lon="-1.45312">
        <ele>72.638</ele>
        <time>2015-06-05T15:12:15Z</time>
      </trkpt>
      <trkpt lat="49.12386" lon="-1.45312">
        <ele>72.638</ele>
        <time>2015-06-05T15:12:20Z</time>
      </trkpt>
      <trkpt lat="49.12385" lon="-1.45311">
        <ele>72.638</ele>
        <time>2015-06-05T15:12:25Z</time>
      </trkpt>
      <trkpt lat="49.12381" lon="-1.4531">
        <ele>72.638</ele>
        <time>2015-06-05T15:12:30Z</time>
      </trkpt>
      <trkpt lat="49.12378" lon="-1.45311">
        <ele>73.513596</ele>
        <time>2015-06-05T15:12:35Z</time>
      </trkpt>
      <trkpt lat="49.12371" lon="-1.45313">
        <ele>73.513596</ele>
        <time>2015-06-05T15:12:40Z</time>
      </trkpt>
      <trkpt lat="49.12367" lon="-1.45314">
        <ele>74.41652</ele>
        <time>2015-06-05T15:12:45Z</time>
      </trkpt>
      <trkpt lat="49.12364" lon="-1.45313">
        <ele>74.41652</ele>
        <time>2015-06-05T15:12:50Z</time>
      </trkpt>
      <trkpt lat="49.12362" lon="-1.45312">
        <ele>74.41652</ele>
        <time>2015-06-05T15:12:55Z</time>
      </trkpt>
      <trkpt lat="49.1236" lon="-1.4531">
        <ele>74.41652</ele>
        <time>2015-06-05T15:13:00Z</time>
      </trkpt>
      <trkpt lat="49.12354" lon="-1.45309">
        <ele>75.24214</ele>
        <time>2015-06-05T15:13:05Z</time>
      </trkpt>
      <trkpt lat="49.12349" lon="-1.45306">
        <ele>75.24214</ele>
        <time>2015-06-05T15:13:10Z</time>
      </trkpt>
      <trkpt lat="49.12345" lon="-1.45305">
        <ele>76.06666</ele>
        <time>2015-06-05T15:13:15Z</time>
      </trkpt>
      <trkpt lat="49.12341" lon="-1.45304">
        <ele>76.06666</ele>
        <time>2015-06-05T15:13:20Z</time>
      </trkpt>
      <trkpt lat="49.12333" lon="-1.453">
        <ele>76.77336</ele>
        <time>2015-06-05T15:13:25Z</time>
      </trkpt>
      <trkpt lat="49.12329" lon="-1.453">
        <ele>76.77336</ele>
        <time>2015-06-05T15:13:30Z</time>
      </trkpt>
      <trkpt lat="49.12323" lon="-1.45298">
        <ele>77.44182</ele>
        <time>2015-06-05T15:13:35Z</time>
      </trkpt>
      <trkpt lat="49.12315" lon="-1.45296">
        <ele>77.44182</ele>
        <time>2015-06-05T15:13:40Z</time>
      </trkpt>
      <trkpt lat="49.1231" lon="-1.45295">
        <ele>77.98734</ele>
        <time>2015-06-05T15:13:45Z</time>
      </trkpt>
      <trkpt lat="49.12304" lon="-1.45295">
        <ele>77.98734</ele>
        <time>2015-06-05T15:13:50Z</time>
      </trkpt>
      <trkpt lat="49.12299" lon="-1.45293">
        <ele>78.49039</ele>
        <time>2015-06-05T15:13:55Z</time>
      </trkpt>
      <trkpt lat="49.12293" lon="-1.45291">
        <ele>78.49039</ele>
        <time>2015-06-05T15:14:00Z</time>
      </trkpt>
      <trkpt lat="49.12288" lon="-1.45291">
        <ele>78.98239</ele>
        <time>2015-06-05T15:14:05Z</time>
      </trkpt>
      <trkpt lat="49.12284" lon="-1.4529">
        <ele>78.98239</ele>
        <time>2015-06-05T15:14:10Z</time>
      </trkpt>
      <trkpt lat="49.12276" lon="-1.45288">
        <ele>79.52138</ele>
        <time>2015-06-05T15:14:15Z</time>
      </trkpt>
      <trkpt lat="49.1227" lon="-1.45287">
        <ele>79.52138</ele>
        <time>2015-06-05T15:14:20Z</time>
      </trkpt>
      <trkpt lat="49.12264" lon="-1.45288">
        <ele>79.988045</ele>
        <time>2015-06-05T15:14:25Z</time>
      </trkpt>
      <trkpt lat="49.12256" lon="-1.45288">
        <ele>79.988045</ele>
        <time>2015-06-05T15:14:30Z</time>
      </trkpt>
      <trkpt lat="49.1225" lon="-1.45287">
        <ele>80.44504</ele>
        <time>2015-06-05T15:14:35Z</time>
      </trkpt>
      <trkpt lat="49.12244" lon="-1.45285">
        <ele>80.44504</ele>
        <time>2015-06-05T15:14:40Z</time>
      </trkpt>
      <trkpt lat="49.1224" lon="-1.45285">
        <ele>80.95045</ele>
        <time>2015-06-05T15:14:45Z</time>
      </trkpt>
      <trkpt lat="49.12234" lon="-1.45286">
        <ele>80.95045</ele>
        <time>2015-06-05T15:14:50Z</time>
      </trkpt>
      <trkpt lat="49.12228" lon="-1.45284">
        <ele>81.557976</ele>
        <time>2015-06-05T15:14:55Z</time>
      </trkpt>
      <trkpt lat="49.12221" lon="-1.45282">
        <ele>81.557976</ele>
        <time>2015-06-05T15:15:00Z</time>
      </trkpt>
      <trkpt lat="49.12215" lon="-1.45279">
        <ele>82.14419</ele>
        <time>2015-06-05T15:15:05Z</time>
      </trkpt>
      <trkpt lat="49.1221" lon="-1.45278">
        <ele>82.14419</ele>
        <time>2015-06-05T15:15:10Z</time>
      </trkpt>
      <trkpt lat="49.12204" lon="-1.45276">
        <ele>82.59481</ele>
        <time>2015-06-05T15:15:15Z</time>
      </trkpt>
      <trkpt lat="49.122" lon="-1.45276">
        <ele>82.59481</ele>
        <time>2015-06-05T15:15:20Z</time>
      </trkpt>
      <trkpt lat="49.12197" lon="-1.45276">
        <ele>82.59481</ele>
        <time>2015-06-05T15:15:25Z</time>
      </trkpt>
      <trkpt lat="49.12191" lon="-1.45275">
        <ele>83.07816</ele>
        <time>2015-06-05T15:15:30Z</time>
      </trkpt>
      <trkpt lat="49.12183" lon="-1.45274">
        <ele>83.07816</ele>
        <time>2015-06-05T15:15:35Z</time>
      </trkpt>
      <trkpt lat="49.12176" lon="-1.45271">
        <ele>83.43309</ele>
        <time>2015-06-05T15:15:40Z</time>
      </trkpt>
      <trkpt lat="49.1217" lon="-1.45269">
        <ele>83.43309</ele>
        <time>2015-06-05T15:15:45Z</time>
      </trkpt>
      <trkpt lat="49.12165" lon="-1.45268">
        <ele>83.669174</ele>
        <time>2015-06-05T15:15:50Z</time>
      </trkpt>
      <trkpt lat="49.12159" lon="-1.45264">
        <ele>83.669174</ele>
        <time>2015-06-05T15:15:55Z</time>
      </trkpt>
      <trkpt lat="49.12152" lon="-1.45263">
        <ele>83.85331</ele>
        <time>2015-06-05T15:16:00Z</time>
      </trkpt>
      <trkpt lat="49.12146" lon="-1.45262">
        <ele>83.85331</ele>
        <time>2015-06-05T15:16:05Z</time>
      </trkpt>
      <trkpt lat="49.12142" lon="-1.45261">
        <ele>83.961136</ele>
        <time>2015-06-05T15:16:10Z</time>
      </trkpt>
      <trkpt lat="49.12136" lon="-1.45259">
        <ele>83.961136</ele>
        <time>2015-06-05T15:16:15Z</time>
      </trkpt>
      <trkpt lat="49.12132" lon="-1.45257">
        <ele>84.027985</ele>
        <time>2015-06-05T15:16:20Z</time>
      </trkpt>
      <trkpt lat="49.12127" lon="-1.45256">
        <ele>84.027985</ele>
        <time>2015-06-05T15:16:25Z</time>
      </trkpt>
      <trkpt lat="49.1212" lon="-1.45255">
        <ele>84.05788</ele>
        <time>2015-06-05T15:16:30Z</time>
      </trkpt>
      <trkpt lat="49.12114" lon="-1.45254">
        <ele>84.05788</ele>
        <time>2015-06-05T15:16:35Z</time>
      </trkpt>
      <trkpt lat="49.12106" lon="-1.45251">
        <ele>84.04024</ele>
        <time>2015-06-05T15:16:40Z</time>
      </trkpt>
      <trkpt lat="49.121" lon="-1.45247">
        <ele>84.04024</ele>
        <time>2015-06-05T15:16:45Z</time>
      </trkpt>
      <trkpt lat="49.12096" lon="-1.45244">
        <ele>83.90777</ele>
        <time>2015-06-05T15:16:50Z</time>
      </trkpt>
      <trkpt lat="49.1209" lon="-1.45241">
        <ele>83.90777</ele>
        <time>2015-06-05T15:16:55Z</time>
      </trkpt>
      <trkpt lat="49.12082" lon="-1.45235">
        <ele>83.7137</ele>
        <time>2015-06-05T15:17:00Z</time>
      </trkpt>
      <trkpt lat="49.12079" lon="-1.45232">
        <ele>83.7137</ele>
        <time>2015-06-05T15:17:05Z</time>
      </trkpt>
      <trkpt lat="49.12073" lon="-1.45228">
        <ele>83.507545</ele>
        <time>2015-06-05T15:17:10Z</time>
      </trkpt>
      <trkpt lat="49.12067" lon="-1.45223">
        <ele>83.507545</ele>
        <time>2015-06-05T15:17:15Z</time>
      </trkpt>
      <trkpt lat="49.12061" lon="-1.45221">
        <ele>83.26314</ele>
        <time>2015-06-05T15:17:20Z</time>
      </trkpt>
      <trkpt lat="49.12055" lon="-1.45218">
        <ele>83.26314</ele>
        <time>2015-06-05T15:17:25Z</time>
      </trkpt>
      <trkpt lat="49.12051" lon="-1.45216">
        <ele>83.12924</ele>
        <time>2015-06-05T15:17:30Z</time>
      </trkpt>
      <trkpt lat="49.12046" lon="-1.45213">
        <ele>83.12924</ele>
        <time>2015-06-05T15:17:35Z</time>
      </trkpt>
      <trkpt lat="49.12041" lon="-1.4521">
        <ele>83.027214</ele>
        <time>2015-06-05T15:17:40Z</time>
      </trkpt>
      <trkpt lat="49.12035" lon="-1.45206">
        <ele>83.027214</ele>
        <time>2015-06-05T15:17:45Z</time>
      </trkpt>
      <trkpt lat="49.12028" lon="-1.45203">
        <ele>82.984955</ele>
        <time>2015-06-05T15:17:50Z</time>
      </trkpt>
      <trkpt lat="49.12023" lon="-1.452">
        <ele>82.984955</ele>
        <time>2015-06-05T15:17:55Z</time>
      </trkpt>
      <trkpt lat="49.12017" lon="-1.45195">
        <ele>82.98487</ele>
        <time>2015-06-05T15:18:00Z</time>
      </trkpt>
      <trkpt lat="49.12012" lon="-1.45192">
        <ele>82.98487</ele>
        <time>2015-06-05T15:18:05Z</time>
      </trkpt>
      <trkpt lat="49.12006" lon="-1.45188">
        <ele>82.99613</ele>
        <time>2015-06-05T15:18:10Z</time>
      </trkpt>
      <trkpt lat="49.12001" lon="-1.45185">
        <ele>82.99613</ele>
        <time>2015-06-05T15:18:15Z</time>
      </trkpt>
      <trkpt lat="49.11993" lon="-1.4518">
        <ele>83.0189</ele>
        <time>2015-06-05T15:18:20Z</time>
      </trkpt>
      <trkpt lat="49.11988" lon="-1.45178">
        <ele>83.0189</ele>
        <time>2015-06-05T15:18:25Z</time>
      </trkpt>
      <trkpt lat="49.11981" lon="-1.45175">
        <ele>82.90918</ele>
        <time>2015-06-05T15:18:30Z</time>
      </trkpt>
      <trkpt lat="49.11976" lon="-1.45173">
        <ele>82.90918</ele>
        <time>2015-06-05T15:18:35Z</time>
      </trkpt>
      <trkpt lat="49.11971" lon="-1.45171">
        <ele>82.750046</ele>
        <time>2015-06-05T15:18:40Z</time>
      </trkpt>
      <trkpt lat="49.11964" lon="-1.45167">
        <ele>82.750046</ele>
        <time>2015-06-05T15:18:45Z</time>
      </trkpt>
      <trkpt lat="49.11957" lon="-1.45165">
        <ele>82.56094</ele>
        <time>2015-06-05T15:18:50Z</time>
      </trkpt>
      <trkpt lat="49.11953" lon="-1.45159">
        <ele>82.56094</ele>
        <time>2015-06-05T15:18:55Z</time>
      </trkpt>
      <trkpt lat="49.11947" lon="-1.45157">
        <ele>82.24464</ele>
        <time>2015-06-05T15:19:00Z</time>
      </trkpt>
      <trkpt lat="49.11943" lon="-1.45153">
        <ele>82.24464</ele>
        <time>2015-06-05T15:19:05Z</time>
      </trkpt>
      <trkpt lat="49.11938" lon="-1.45147">
        <ele>81.8843</ele>
        <time>2015-06-05T15:19:10Z</time>
      </trkpt>
      <trkpt lat="49.11932" lon="-1.45143">
        <ele>81.8843</ele>
        <time>2015-06-05T15:19:15Z</time>
      </trkpt>
      <trkpt lat="49.11926" lon="-1.45142">
        <ele>81.52826</ele>
        <time>2015-06-05T15:19:20Z</time>
      </trkpt>
      <trkpt lat="49.1192" lon="-1.45138">
        <ele>81.52826</ele>
        <time>2015-06-05T15:19:25Z</time>
      </trkpt>
      <trkpt lat="49.11914" lon="-1.45136">
        <ele>81.1924</ele>
        <time>2015-06-05T15:19:30Z</time>
      </trkpt>
      <trkpt lat="49.11907" lon="-1.45132">
        <ele>81.1924</ele>
        <time>2015-06-05T15:19:35Z</time>
      </trkpt>
      <trkpt lat="49.11902" lon="-1.45129">
        <ele>80.848114</ele>
        <time>2015-06-05T15:19:40Z</time>
      </trkpt>
      <trkpt lat="49.11897" lon="-1.45126">
        <ele>80.848114</ele>
        <time>2015-06-05T15:19:45Z</time>
      </trkpt>
      <trkpt lat="49.11892" lon="-1.45121">
        <ele>80.598595</ele>
        <time>2015-06-05T15:19:50Z</time>
      </trkpt>
      <trkpt lat="49.11886" lon="-1.45117">
        <ele>80.598595</ele>
        <time>2015-06-05T15:19:55Z</time>
      </trkpt>
      <trkpt lat="49.1188" lon="-1.45114">
        <ele>80.42382</ele>
        <time>2015-06-05T15:20:00Z</time>
      </trkpt>
      <trkpt lat="49.11874" lon="-1.45109">
        <ele>80.42382</ele>
        <time>2015-06-05T15:20:05Z</time>
      </trkpt>
      <trkpt lat="49.11869" lon="-1.45106">
        <ele>80.27619</ele>
        <time>2015-06-05T15:20:10Z</time>
      </trkpt>
      <trkpt lat="49.11865" lon="-1.45104">
        <ele>80.27619</ele>
        <time>2015-06-05T15:20:15Z</time>
      </trkpt>
      <trkpt lat="49.11857" lon="-1.451">
        <ele>80.12588</ele>
        <time>2015-06-05T15:20:20Z</time>
      </trkpt>
      <trkpt lat="49.11851" lon="-1.45096">
        <ele>80.12588</ele>
        <time>2015-06-05T15:20:25Z</time>
      </trkpt>
      <trkpt lat="49.11845" lon="-1.45094">
        <ele>79.97402</ele>
        <time>2015-06-05T15:20:30Z</time>
      </trkpt>
      <trkpt lat="49.1184" lon="-1.45089">
        <ele>79.97402</ele>
        <time>2015-06-05T15:20:35Z</time>
      </trkpt>
      <trkpt lat="49.11835" lon="-1.45086">
        <ele>79.807236</ele>
        <time>2015-06-05T15:20:40Z</time>
      </trkpt>
      <trkpt lat="49.11829" lon="-1.45083">
        <ele>79.807236</ele>
        <time>2015-06-05T15:20:45Z</time>
      </trkpt>
      <trkpt lat="49.11824" lon="-1.45081">
        <ele>79.62752</ele>
        <time>2015-06-05T15:20:50Z</time>
      </trkpt>
      <trkpt lat="49.11819" lon="-1.45079">
        <ele>79.62752</ele>
        <time>2015-06-05T15:20:55Z</time>
      </trkpt>
      <trkpt lat="49.11812" lon="-1.45078">
        <ele>79.49437</ele>
        <time>2015-06-05T15:21:00Z</time>
      </trkpt>
      <trkpt lat="49.11806" lon="-1.45072">
        <ele>79.49437</ele>
        <time>2015-06-05T15:21:05Z</time>
      </trkpt>
      <trkpt lat="49.118" lon="-1.45069">
        <ele>79.40508</ele>
        <time>2015-06-05T15:21:10Z</time>
      </trkpt>
      <trkpt lat="49.11792" lon="-1.45069">
        <ele>79.40508</ele>
        <time>2015-06-05T15:21:15Z</time>
      </trkpt>
      <trkpt lat="49.11787" lon="-1.45071">
        <ele>79.31376</ele>
        <time>2015-06-05T15:21:20Z</time>
      </trkpt>
      <trkpt lat="49.11782" lon="-1.45072">
        <ele>79.31376</ele>
        <time>2015-06-05T15:21:25Z</time>
      </trkpt>
      <trkpt lat="49.11776" lon="-1.45074">
        <ele>79.24989</ele>
        <time>2015-06-05T15:21:30Z</time>
      </trkpt>
      <trkpt lat="49.11772" lon="-1.45074">
        <ele>79.24989</ele>
        <time>2015-06-05T15:21:35Z</time>
      </trkpt>
      <trkpt lat="49.11769" lon="-1.45075">
        <ele>79.24989</ele>
        <time>2015-06-05T15:21:40Z</time>
      </trkpt>
      <trkpt lat="49.11764" lon="-1.45073">
        <ele>79.08218</ele>
        <time>2015-06-05T15:21:45Z</time>
      </trkpt>
      <trkpt lat="49.11755" lon="-1.45075">
        <ele>78.86214</ele>
        <time>2015-06-05T15:21:50Z</time>
      </trkpt>
      <trkpt lat="49.11749" lon="-1.45077">
        <ele>78.86214</ele>
        <time>2015-06-05T15:21:55Z</time>
      </trkpt>
      <trkpt lat="49.11744" lon="-1.45078">
        <ele>78.55114</ele>
        <time>2015-06-05T15:22:00Z</time>
      </trkpt>
      <trkpt lat="49.11738" lon="-1.4508">
        <ele>78.55114</ele>
        <time>2015-06-05T15:22:05Z</time>
      </trkpt>
      <trkpt lat="49.11732" lon="-1.45083">
        <ele>78.27214</ele>
        <time>2015-06-05T15:22:10Z</time>
      </trkpt>
      <trkpt lat="49.11729" lon="-1.45087">
        <ele>78.27214</ele>
        <time>2015-06-05T15:22:15Z</time>
      </trkpt>
      <trkpt lat="49.11725" lon="-1.45092">
        <ele>77.92279</ele>
        <time>2015-06-05T15:22:20Z</time>
      </trkpt>
      <trkpt lat="49.11723" lon="-1.45093">
        <ele>77.92279</ele>
        <time>2015-06-05T15:22:25Z</time>
      </trkpt>
      <trkpt lat="49.11724" lon="-1.4509">
        <ele>77.92279</ele>
        <time>2015-06-05T15:22:30Z</time>
      </trkpt>
      <trkpt lat="49.11725" lon="-1.45089">
        <ele>77.92279</ele>
        <time>2015-06-05T15:22:35Z</time>
      </trkpt>
      <trkpt lat="49.11725" lon="-1.4509">
        <ele>77.92279</ele>
        <time>2015-06-05T15:22:40Z</time>
      </trkpt>
      <trkpt lat="49.11724" lon="-1.45091">
        <ele>77.92279</ele>
        <time>2015-06-05T15:22:45Z</time>
      </trkpt>
      <trkpt lat="49.11725" lon="-1.45091">
        <ele>77.92279</ele>
        <time>2015-06-05T15:22:50Z</time>
      </trkpt>
      <trkpt lat="49.11724" lon="-1.4509">
        <ele>77.92279</ele>
        <time>2015-06-05T15:22:55Z</time>
      </trkpt>
      <trkpt lat="49.11723" lon="-1.4509">
        <ele>77.92279</ele>
        <time>2015-06-05T15:23:00Z</time>
      </trkpt>
      <trkpt lat="49.11723" lon="-1.4509">
        <ele>77.92279</ele>
        <time>2015-06-05T15:23:05Z</time>
      </trkpt>
      <trkpt lat="49.11722" lon="-1.45089">
        <ele>77.638954</ele>
        <time>2015-06-05T15:23:10Z</time>
      </trkpt>
      <trkpt lat="49.11723" lon="-1.45089">
        <ele>77.638954</ele>
        <time>2015-06-05T15:23:15Z</time>
      </trkpt>
      <trkpt lat="49.11722" lon="-1.45089">
        <ele>77.638954</ele>
        <time>2015-06-05T15:23:20Z</time>
      </trkpt>
      <trkpt lat="49.11722" lon="-1.4509">
        <ele>77.638954</ele>
        <time>2015-06-05T15:23:25Z</time>
      </trkpt>
      <trkpt lat="49.11722" lon="-1.45092">
        <ele>77.638954</ele>
        <time>2015-06-05T15:23:30Z</time>
      </trkpt>
      <trkpt lat="49.11724" lon="-1.45092">
        <ele>77.638954</ele>
        <time>2015-06-05T15:23:35Z</time>
      </trkpt>
      <trkpt lat="49.11723" lon="-1.45092">
        <ele>77.638954</ele>
        <time>2015-06-05T15:23:40Z</time>
      </trkpt>
      <trkpt lat="49.11724" lon="-1.45091">
        <ele>77.638954</ele>
        <time>2015-06-05T15:23:45Z</time>
      </trkpt>
      <trkpt lat="49.11724" lon="-1.45092">
        <ele>77.638954</ele>
        <time>2015-06-05T15:23:50Z</time>
      </trkpt>
      <trkpt lat="49.11725" lon="-1.45092">
        <ele>77.638954</ele>
        <time>2015-06-05T15:23:55Z</time>
      </trkpt>
      <trkpt lat="49.11725" lon="-1.45091">
        <ele>77.638954</ele>
        <time>2015-06-05T15:24:00Z</time>
      </trkpt>
      <trkpt lat="49.11725" lon="-1.45091">
        <ele>77.01313</ele>
        <time>2015-06-05T15:24:05Z</time>
      </trkpt>
      <trkpt lat="49.11726" lon="-1.45092">
        <ele>77.01313</ele>
        <time>2015-06-05T15:24:10Z</time>
      </trkpt>
      <trkpt lat="49.11726" lon="-1.45092">
        <ele>77.01313</ele>
        <time>2015-06-05T15:24:15Z</time>
      </trkpt>
      <trkpt lat="49.11725" lon="-1.45094">
        <ele>77.01313</ele>
        <time>2015-06-05T15:24:20Z</time>
      </trkpt>
      <trkpt lat="49.11726" lon="-1.45093">
        <ele>77.01313</ele>
        <time>2015-06-05T15:24:25Z</time>
      </trkpt>
      <trkpt lat="49.11726" lon="-1.45093">
        <ele>77.01313</ele>
        <time>2015-06-05T15:24:30Z</time>
      </trkpt>
      <trkpt lat="49.11725" lon="-1.45092">
        <ele>77.01313</ele>
        <time>2015-06-05T15:24:35Z</time>
      </trkpt>
      <trkpt lat="49.11725" lon="-1.45092">
        <ele>77.01313</ele>
        <time>2015-06-05T15:24:40Z</time>
      </trkpt>
      <trkpt lat="49.11725" lon="-1.45092">
        <ele>77.01313</ele>
        <time>2015-06-05T15:24:45Z</time>
      </trkpt>
      <trkpt lat="49.11726" lon="-1.45091">
        <ele>77.01313</ele>
        <time>2015-06-05T15:25:05Z</time>
      </trkpt>
      <trkpt lat="49.11727" lon="-1.45088">
        <ele>77.01313</ele>
        <time>2015-06-05T15:25:10Z</time>
      </trkpt>
      <trkpt lat="49.11727" lon="-1.45088">
        <ele>77.01313</ele>
        <time>2015-06-05T15:25:15Z</time>
      </trkpt>
      <trkpt lat="49.11726" lon="-1.45088">
        <ele>77.01313</ele>
        <time>2015-06-05T15:26:00Z</time>
      </trkpt>
      <trkpt lat="49.11726" lon="-1.45088">
        <ele>77.01313</ele>
        <time>2015-06-05T15:26:05Z</time>
      </trkpt>
      <trkpt lat="49.11726" lon="-1.45088">
        <ele>77.01313</ele>
        <time>2015-06-05T15:28:50Z</time>
      </trkpt>
      <trkpt lat="49.11726" lon="-1.45088">
        <ele>77.01313</ele>
        <time>2015-06-05T15:28:55Z</time>
      </trkpt>
      <trkpt lat="49.11726" lon="-1.45088">
        <ele>77.01313</ele>
        <time>2015-06-05T15:29:00Z</time>
      </trkpt>
      <trkpt lat="49.11722" lon="-1.45093">
        <ele>76.547714</ele>
        <time>2015-06-05T15:29:15Z</time>
      </trkpt>
      <trkpt lat="49.11716" lon="-1.45092">
        <ele>76.547714</ele>
        <time>2015-06-05T15:29:20Z</time>
      </trkpt>
      <trkpt lat="49.1171" lon="-1.45091">
        <ele>75.987175</ele>
        <time>2015-06-05T15:29:25Z</time>
      </trkpt>
      <trkpt lat="49.11705" lon="-1.45087">
        <ele>75.987175</ele>
        <time>2015-06-05T15:29:30Z</time>
      </trkpt>
      <trkpt lat="49.11702" lon="-1.45082">
        <ele>75.36878</ele>
        <time>2015-06-05T15:29:35Z</time>
      </trkpt>
      <trkpt lat="49.11697" lon="-1.45078">
        <ele>75.36878</ele>
        <time>2015-06-05T15:29:40Z</time>
      </trkpt>
      <trkpt lat="49.11693" lon="-1.45071">
        <ele>74.72719</ele>
        <time>2015-06-05T15:29:45Z</time>
      </trkpt>
      <trkpt lat="49.11688" lon="-1.45063">
        <ele>74.72719</ele>
        <time>2015-06-05T15:29:50Z</time>
      </trkpt>
      <trkpt lat="49.11684" lon="-1.45057">
        <ele>74.08012</ele>
        <time>2015-06-05T15:29:55Z</time>
      </trkpt>
      <trkpt lat="49.1168" lon="-1.4505">
        <ele>74.08012</ele>
        <time>2015-06-05T15:30:00Z</time>
      </trkpt>
      <trkpt lat="49.11677" lon="-1.45043">
        <ele>73.5016</ele>
        <time>2015-06-05T15:30:05Z</time>
      </trkpt>
      <trkpt lat="49.11673" lon="-1.45035">
        <ele>73.5016</ele>
        <time>2015-06-05T15:30:10Z</time>
      </trkpt>
      <trkpt lat="49.11669" lon="-1.45029">
        <ele>73.01676</ele>
        <time>2015-06-05T15:30:15Z</time>
      </trkpt>
      <trkpt lat="49.11665" lon="-1.45022">
        <ele>73.01676</ele>
        <time>2015-06-05T15:30:20Z</time>
      </trkpt>
      <trkpt lat="49.1166" lon="-1.45016">
        <ele>72.56211</ele>
        <time>2015-06-05T15:30:25Z</time>
      </trkpt>
      <trkpt lat="49.11656" lon="-1.4501">
        <ele>72.56211</ele>
        <time>2015-06-05T15:30:30Z</time>
      </trkpt>
      <trkpt lat="49.11652" lon="-1.45004">
        <ele>72.19397</ele>
        <time>2015-06-05T15:30:35Z</time>
      </trkpt>
      <trkpt lat="49.11648" lon="-1.44996">
        <ele>72.19397</ele>
        <time>2015-06-05T15:30:40Z</time>
      </trkpt>
      <trkpt lat="49.11643" lon="-1.44991">
        <ele>71.89218</ele>
        <time>2015-06-05T15:30:45Z</time>
      </trkpt>
      <trkpt lat="49.11639" lon="-1.44983">
        <ele>71.89218</ele>
        <time>2015-06-05T15:30:50Z</time>
      </trkpt>
      <trkpt lat="49.11635" lon="-1.44977">
        <ele>71.62344</ele>
        <time>2015-06-05T15:30:55Z</time>
      </trkpt>
      <trkpt lat="49.1163" lon="-1.44971">
        <ele>71.62344</ele>
        <time>2015-06-05T15:31:00Z</time>
      </trkpt>
      <trkpt lat="49.11625" lon="-1.44964">
        <ele>71.35676</ele>
        <time>2015-06-05T15:31:05Z</time>
      </trkpt>
      <trkpt lat="49.11622" lon="-1.44959">
        <ele>71.35676</ele>
        <time>2015-06-05T15:31:10Z</time>
      </trkpt>
      <trkpt lat="49.11618" lon="-1.44952">
        <ele>71.19305</ele>
        <time>2015-06-05T15:31:15Z</time>
      </trkpt>
      <trkpt lat="49.11614" lon="-1.44945">
        <ele>71.19305</ele>
        <time>2015-06-05T15:31:20Z</time>
      </trkpt>
      <trkpt lat="49.11609" lon="-1.44935">
        <ele>71.139046</ele>
        <time>2015-06-05T15:31:25Z</time>
      </trkpt>
      <trkpt lat="49.11603" lon="-1.44929">
        <ele>71.139046</ele>
        <time>2015-06-05T15:31:30Z</time>
      </trkpt>
      <trkpt lat="49.116" lon="-1.44921">
        <ele>71.24388</ele>
        <time>2015-06-05T15:31:35Z</time>
      </trkpt>
      <trkpt lat="49.11596" lon="-1.44913">
        <ele>71.24388</ele>
        <time>2015-06-05T15:31:40Z</time>
      </trkpt>
      <trkpt lat="49.11594" lon="-1.44905">
        <ele>71.4373</ele>
        <time>2015-06-05T15:31:45Z</time>
      </trkpt>
      <trkpt lat="49.11591" lon="-1.44898">
        <ele>71.4373</ele>
        <time>2015-06-05T15:31:50Z</time>
      </trkpt>
      <trkpt lat="49.11589" lon="-1.44891">
        <ele>71.61072</ele>
        <time>2015-06-05T15:31:55Z</time>
      </trkpt>
      <trkpt lat="49.11586" lon="-1.4488">
        <ele>71.61072</ele>
        <time>2015-06-05T15:32:00Z</time>
      </trkpt>
      <trkpt lat="49.11582" lon="-1.44873">
        <ele>71.69238</ele>
        <time>2015-06-05T15:32:05Z</time>
      </trkpt>
      <trkpt lat="49.11581" lon="-1.44863">
        <ele>71.69238</ele>
        <time>2015-06-05T15:32:10Z</time>
      </trkpt>
      <trkpt lat="49.11577" lon="-1.44854">
        <ele>71.77457</ele>
        <time>2015-06-05T15:32:15Z</time>
      </trkpt>
      <trkpt lat="49.11572" lon="-1.44847">
        <ele>71.77457</ele>
        <time>2015-06-05T15:32:20Z</time>
      </trkpt>
      <trkpt lat="49.11569" lon="-1.44837">
        <ele>71.885124</ele>
        <time>2015-06-05T15:32:25Z</time>
      </trkpt>
      <trkpt lat="49.11566" lon="-1.44828">
        <ele>71.885124</ele>
        <time>2015-06-05T15:32:30Z</time>
      </trkpt>
      <trkpt lat="49.11564" lon="-1.44819">
        <ele>72.07859</ele>
        <time>2015-06-05T15:32:35Z</time>
      </trkpt>
      <trkpt lat="49.11562" lon="-1.44809">
        <ele>72.07859</ele>
        <time>2015-06-05T15:32:40Z</time>
      </trkpt>
      <trkpt lat="49.11559" lon="-1.448">
        <ele>72.246735</ele>
        <time>2015-06-05T15:32:45Z</time>
      </trkpt>
      <trkpt lat="49.11556" lon="-1.44793">
        <ele>72.246735</ele>
        <time>2015-06-05T15:32:50Z</time>
      </trkpt>
      <trkpt lat="49.11554" lon="-1.44785">
        <ele>72.390236</ele>
        <time>2015-06-05T15:32:55Z</time>
      </trkpt>
      <trkpt lat="49.11552" lon="-1.44775">
        <ele>72.390236</ele>
        <time>2015-06-05T15:33:00Z</time>
      </trkpt>
      <trkpt lat="49.1155" lon="-1.44764">
        <ele>72.50978</ele>
        <time>2015-06-05T15:33:05Z</time>
      </trkpt>
      <trkpt lat="49.11548" lon="-1.44755">
        <ele>72.50978</ele>
        <time>2015-06-05T15:33:10Z</time>
      </trkpt>
      <trkpt lat="49.11547" lon="-1.44746">
        <ele>72.64934</ele>
        <time>2015-06-05T15:33:15Z</time>
      </trkpt>
      <trkpt lat="49.11545" lon="-1.44738">
        <ele>72.64934</ele>
        <time>2015-06-05T15:33:20Z</time>
      </trkpt>
      <trkpt lat="49.11542" lon="-1.44726">
        <ele>72.83516</ele>
        <time>2015-06-05T15:33:25Z</time>
      </trkpt>
      <trkpt lat="49.11541" lon="-1.44717">
        <ele>72.83516</ele>
        <time>2015-06-05T15:33:30Z</time>
      </trkpt>
      <trkpt lat="49.11539" lon="-1.44709">
        <ele>73.091484</ele>
        <time>2015-06-05T15:33:35Z</time>
      </trkpt>
      <trkpt lat="49.11537" lon="-1.44701">
        <ele>73.091484</ele>
        <time>2015-06-05T15:33:40Z</time>
      </trkpt>
      <trkpt lat="49.11535" lon="-1.44693">
        <ele>73.411736</ele>
        <time>2015-06-05T15:33:45Z</time>
      </trkpt>
      <trkpt lat="49.11533" lon="-1.44682">
        <ele>73.411736</ele>
        <time>2015-06-05T15:33:50Z</time>
      </trkpt>
      <trkpt lat="49.11532" lon="-1.4467">
        <ele>73.818504</ele>
        <time>2015-06-05T15:33:55Z</time>
      </trkpt>
      <trkpt lat="49.11531" lon="-1.44661">
        <ele>73.818504</ele>
        <time>2015-06-05T15:34:00Z</time>
      </trkpt>
      <trkpt lat="49.11529" lon="-1.44654">
        <ele>74.26043</ele>
        <time>2015-06-05T15:34:05Z</time>
      </trkpt>
      <trkpt lat="49.11527" lon="-1.44644">
        <ele>74.26043</ele>
        <time>2015-06-05T15:34:10Z</time>
      </trkpt>
      <trkpt lat="49.11525" lon="-1.44636">
        <ele>74.68987</ele>
        <time>2015-06-05T15:34:15Z</time>
      </trkpt>
      <trkpt lat="49.11522" lon="-1.44626">
        <ele>74.68987</ele>
        <time>2015-06-05T15:34:20Z</time>
      </trkpt>
      <trkpt lat="49.1152" lon="-1.44617">
        <ele>75.12037</ele>
        <time>2015-06-05T15:34:25Z</time>
      </trkpt>
      <trkpt lat="49.11516" lon="-1.44608">
        <ele>75.12037</ele>
        <time>2015-06-05T15:34:30Z</time>
      </trkpt>
      <trkpt lat="49.11513" lon="-1.44603">
        <ele>75.55011</ele>
        <time>2015-06-05T15:34:35Z</time>
      </trkpt>
      <trkpt lat="49.1151" lon="-1.44594">
        <ele>75.55011</ele>
        <time>2015-06-05T15:34:40Z</time>
      </trkpt>
      <trkpt lat="49.11507" lon="-1.44588">
        <ele>76.00626</ele>
        <time>2015-06-05T15:34:45Z</time>
      </trkpt>
      <trkpt lat="49.11502" lon="-1.44581">
        <ele>76.00626</ele>
        <time>2015-06-05T15:34:50Z</time>
      </trkpt>
      <trkpt lat="49.11497" lon="-1.44571">
        <ele>76.58602</ele>
        <time>2015-06-05T15:34:55Z</time>
      </trkpt>
      <trkpt lat="49.11492" lon="-1.44564">
        <ele>76.58602</ele>
        <time>2015-06-05T15:35:00Z</time>
      </trkpt>
      <trkpt lat="49.11488" lon="-1.44558">
        <ele>77.235016</ele>
        <time>2015-06-05T15:35:05Z</time>
      </trkpt>
      <trkpt lat="49.11484" lon="-1.4455">
        <ele>77.235016</ele>
        <time>2015-06-05T15:35:10Z</time>
      </trkpt>
      <trkpt lat="49.11481" lon="-1.44541">
        <ele>77.88832</ele>
        <time>2015-06-05T15:35:15Z</time>
      </trkpt>
      <trkpt lat="49.11479" lon="-1.44535">
        <ele>77.88832</ele>
        <time>2015-06-05T15:35:20Z</time>
      </trkpt>
      <trkpt lat="49.11475" lon="-1.44526">
        <ele>78.514626</ele>
        <time>2015-06-05T15:35:25Z</time>
      </trkpt>
      <trkpt lat="49.11471" lon="-1.44518">
        <ele>78.514626</ele>
        <time>2015-06-05T15:35:30Z</time>
      </trkpt>
      <trkpt lat="49.11467" lon="-1.4451">
        <ele>79.20034</ele>
        <time>2015-06-05T15:35:35Z</time>
      </trkpt>
      <trkpt lat="49.11462" lon="-1.44503">
        <ele>79.20034</ele>
        <time>2015-06-05T15:35:40Z</time>
      </trkpt>
      <trkpt lat="49.11459" lon="-1.44493">
        <ele>79.95336</ele>
        <time>2015-06-05T15:35:45Z</time>
      </trkpt>
      <trkpt lat="49.11455" lon="-1.44487">
        <ele>79.95336</ele>
        <time>2015-06-05T15:35:50Z</time>
      </trkpt>
      <trkpt lat="49.1145" lon="-1.44479">
        <ele>80.67998</ele>
        <time>2015-06-05T15:35:55Z</time>
      </trkpt>
      <trkpt lat="49.11446" lon="-1.44471">
        <ele>80.67998</ele>
        <time>2015-06-05T15:36:00Z</time>
      </trkpt>
      <trkpt lat="49.11443" lon="-1.44463">
        <ele>81.40879</ele>
        <time>2015-06-05T15:36:05Z</time>
      </trkpt>
      <trkpt lat="49.1144" lon="-1.44455">
        <ele>81.40879</ele>
        <time>2015-06-05T15:36:10Z</time>
      </trkpt>
      <trkpt lat="49.11437" lon="-1.44449">
        <ele>82.09431</ele>
        <time>2015-06-05T15:36:15Z</time>
      </trkpt>
      <trkpt lat="49.11434" lon="-1.4444">
        <ele>82.09431</ele>
        <time>2015-06-05T15:36:20Z</time>
      </trkpt>
      <trkpt lat="49.1143" lon="-1.4443">
        <ele>82.69454</ele>
        <time>2015-06-05T15:36:25Z</time>
      </trkpt>
      <trkpt lat="49.11428" lon="-1.44422">
        <ele>82.69454</ele>
        <time>2015-06-05T15:36:30Z</time>
      </trkpt>
      <trkpt lat="49.11424" lon="-1.44415">
        <ele>83.22855</ele>
        <time>2015-06-05T15:36:35Z</time>
      </trkpt>
      <trkpt lat="49.11421" lon="-1.44408">
        <ele>83.22855</ele>
        <time>2015-06-05T15:36:40Z</time>
      </trkpt>
      <trkpt lat="49.11419" lon="-1.44401">
        <ele>83.64218</ele>
        <time>2015-06-05T15:36:45Z</time>
      </trkpt>
      <trkpt lat="49.11417" lon="-1.44394">
        <ele>83.64218</ele>
        <time>2015-06-05T15:36:50Z</time>
      </trkpt>
      <trkpt lat="49.11417" lon="-1.4439">
        <ele>83.64218</ele>
        <time>2015-06-05T15:36:55Z</time>
      </trkpt>
      <trkpt lat="49.11418" lon="-1.44381">
        <ele>83.94329</ele>
        <time>2015-06-05T15:37:00Z</time>
      </trkpt>
      <trkpt lat="49.11421" lon="-1.44373">
        <ele>83.94329</ele>
        <time>2015-06-05T15:37:05Z</time>
      </trkpt>
      <trkpt lat="49.11421" lon="-1.44363">
        <ele>84.22602</ele>
        <time>2015-06-05T15:37:10Z</time>
      </trkpt>
      <trkpt lat="49.11423" lon="-1.44354">
        <ele>84.22602</ele>
        <time>2015-06-05T15:37:15Z</time>
      </trkpt>
      <trkpt lat="49.11425" lon="-1.44346">
        <ele>84.56327</ele>
        <time>2015-06-05T15:37:20Z</time>
      </trkpt>
      <trkpt lat="49.11426" lon="-1.44338">
        <ele>84.56327</ele>
        <time>2015-06-05T15:37:25Z</time>
      </trkpt>
      <trkpt lat="49.11428" lon="-1.44329">
        <ele>84.95045</ele>
        <time>2015-06-05T15:37:30Z</time>
      </trkpt>
      <trkpt lat="49.11429" lon="-1.4432">
        <ele>84.95045</ele>
        <time>2015-06-05T15:37:35Z</time>
      </trkpt>
      <trkpt lat="49.11432" lon="-1.44311">
        <ele>85.28233</ele>
        <time>2015-06-05T15:37:40Z</time>
      </trkpt>
      <trkpt lat="49.11435" lon="-1.44303">
        <ele>85.28233</ele>
        <time>2015-06-05T15:37:45Z</time>
      </trkpt>
      <trkpt lat="49.11435" lon="-1.44296">
        <ele>85.47604</ele>
        <time>2015-06-05T15:37:50Z</time>
      </trkpt>
      <trkpt lat="49.11436" lon="-1.44286">
        <ele>85.47604</ele>
        <time>2015-06-05T15:37:55Z</time>
      </trkpt>
      <trkpt lat="49.11437" lon="-1.44276">
        <ele>85.6858</ele>
        <time>2015-06-05T15:38:00Z</time>
      </trkpt>
      <trkpt lat="49.11439" lon="-1.44265">
        <ele>85.6858</ele>
        <time>2015-06-05T15:38:05Z</time>
      </trkpt>
      <trkpt lat="49.1144" lon="-1.44258">
        <ele>85.982445</ele>
        <time>2015-06-05T15:38:10Z</time>
      </trkpt>
      <trkpt lat="49.11442" lon="-1.4425">
        <ele>85.982445</ele>
        <time>2015-06-05T15:38:15Z</time>
      </trkpt>
      <trkpt lat="49.11443" lon="-1.4424">
        <ele>86.24406</ele>
        <time>2015-06-05T15:38:20Z</time>
      </trkpt>
      <trkpt lat="49.11445" lon="-1.44232">
        <ele>86.24406</ele>
        <time>2015-06-05T15:38:25Z</time>
      </trkpt>
      <trkpt lat="49.11446" lon="-1.44219">
        <ele>86.48752</ele>
        <time>2015-06-05T15:38:30Z</time>
      </trkpt>
      <trkpt lat="49.11447" lon="-1.4421">
        <ele>86.48752</ele>
        <time>2015-06-05T15:38:35Z</time>
      </trkpt>
      <trkpt lat="49.11447" lon="-1.44203">
        <ele>86.75738</ele>
        <time>2015-06-05T15:38:40Z</time>
      </trkpt>
      <trkpt lat="49.11448" lon="-1.44193">
        <ele>86.75738</ele>
        <time>2015-06-05T15:38:45Z</time>
      </trkpt>
      <trkpt lat="49.11448" lon="-1.44184">
        <ele>87.037224</ele>
        <time>2015-06-05T15:38:50Z</time>
      </trkpt>
      <trkpt lat="49.11448" lon="-1.44175">
        <ele>87.037224</ele>
        <time>2015-06-05T15:38:55Z</time>
      </trkpt>
      <trkpt lat="49.11448" lon="-1.44164">
        <ele>87.355095</ele>
        <time>2015-06-05T15:39:00Z</time>
      </trkpt>
      <trkpt lat="49.11448" lon="-1.44155">
        <ele>87.355095</ele>
        <time>2015-06-05T15:39:05Z</time>
      </trkpt>
      <trkpt lat="49.11449" lon="-1.44146">
        <ele>87.72247</ele>
        <time>2015-06-05T15:39:10Z</time>
      </trkpt>
      <trkpt lat="49.1145" lon="-1.44137">
        <ele>87.72247</ele>
        <time>2015-06-05T15:39:15Z</time>
      </trkpt>
      <trkpt lat="49.1145" lon="-1.4413">
        <ele>88.0346</ele>
        <time>2015-06-05T15:39:20Z</time>
      </trkpt>
      <trkpt lat="49.11451" lon="-1.44121">
        <ele>88.0346</ele>
        <time>2015-06-05T15:39:25Z</time>
      </trkpt>
      <trkpt lat="49.11452" lon="-1.44109">
        <ele>88.3387</ele>
        <time>2015-06-05T15:39:30Z</time>
      </trkpt>
      <trkpt lat="49.11452" lon="-1.44101">
        <ele>88.3387</ele>
        <time>2015-06-05T15:39:35Z</time>
      </trkpt>
      <trkpt lat="49.11451" lon="-1.44093">
        <ele>88.62093</ele>
        <time>2015-06-05T15:39:40Z</time>
      </trkpt>
      <trkpt lat="49.1145" lon="-1.44092">
        <ele>88.62093</ele>
        <time>2015-06-05T15:39:45Z</time>
      </trkpt>
      <trkpt lat="49.1145" lon="-1.4409">
        <ele>88.62093</ele>
        <time>2015-06-05T15:39:50Z</time>
      </trkpt>
      <trkpt lat="49.1145" lon="-1.44091">
        <ele>88.62093</ele>
        <time>2015-06-05T15:39:55Z</time>
      </trkpt>
      <trkpt lat="49.1145" lon="-1.44093">
        <ele>88.62093</ele>
        <time>2015-06-05T15:40:00Z</time>
      </trkpt>
      <trkpt lat="49.1145" lon="-1.44095">
        <ele>88.62093</ele>
        <time>2015-06-05T15:40:05Z</time>
      </trkpt>
      <trkpt lat="49.11449" lon="-1.44096">
        <ele>88.62093</ele>
        <time>2015-06-05T15:40:10Z</time>
      </trkpt>
      <trkpt lat="49.11449" lon="-1.44094">
        <ele>88.62093</ele>
        <time>2015-06-05T15:40:15Z</time>
      </trkpt>
      <trkpt lat="49.11448" lon="-1.44094">
        <ele>88.81091</ele>
        <time>2015-06-05T15:40:20Z</time>
      </trkpt>
      <trkpt lat="49.11447" lon="-1.44095">
        <ele>88.81091</ele>
        <time>2015-06-05T15:40:25Z</time>
      </trkpt>
      <trkpt lat="49.11448" lon="-1.44095">
        <ele>88.81091</ele>
        <time>2015-06-05T15:40:30Z</time>
      </trkpt>
      <trkpt lat="49.11448" lon="-1.44093">
        <ele>88.81091</ele>
        <time>2015-06-05T15:40:35Z</time>
      </trkpt>
      <trkpt lat="49.11448" lon="-1.44093">
        <ele>88.81091</ele>
        <time>2015-06-05T15:40:40Z</time>
      </trkpt>
      <trkpt lat="49.1145" lon="-1.44093">
        <ele>88.81091</ele>
        <time>2015-06-05T15:40:45Z</time>
      </trkpt>
      <trkpt lat="49.11451" lon="-1.44096">
        <ele>88.81091</ele>
        <time>2015-06-05T15:40:50Z</time>
      </trkpt>
      <trkpt lat="49.11451" lon="-1.44095">
        <ele>88.81091</ele>
        <time>2015-06-05T15:40:55Z</time>
      </trkpt>
      <trkpt lat="49.11451" lon="-1.44095">
        <ele>88.81091</ele>
        <time>2015-06-05T15:41:00Z</time>
      </trkpt>
      <trkpt lat="49.1145" lon="-1.44094">
        <ele>88.81091</ele>
        <time>2015-06-05T15:41:05Z</time>
      </trkpt>
      <trkpt lat="49.1145" lon="-1.44093">
        <ele>88.81091</ele>
        <time>2015-06-05T15:41:10Z</time>
      </trkpt>
      <trkpt lat="49.11451" lon="-1.44092">
        <ele>89.29046</ele>
        <time>2015-06-05T15:41:15Z</time>
      </trkpt>
      <trkpt lat="49.11451" lon="-1.44093">
        <ele>89.29046</ele>
        <time>2015-06-05T15:41:20Z</time>
      </trkpt>
      <trkpt lat="49.1145" lon="-1.44092">
        <ele>89.29046</ele>
        <time>2015-06-05T15:41:25Z</time>
      </trkpt>
      <trkpt lat="49.11449" lon="-1.44091">
        <ele>89.29046</ele>
        <time>2015-06-05T15:41:30Z</time>
      </trkpt>
      <trkpt lat="49.11449" lon="-1.44091">
        <ele>89.29046</ele>
        <time>2015-06-05T15:41:35Z</time>
      </trkpt>
      <trkpt lat="49.11448" lon="-1.44093">
        <ele>89.29046</ele>
        <time>2015-06-05T15:41:40Z</time>
      </trkpt>
      <trkpt lat="49.11448" lon="-1.44093">
        <ele>89.29046</ele>
        <time>2015-06-05T15:41:45Z</time>
      </trkpt>
      <trkpt lat="49.11449" lon="-1.44092">
        <ele>89.29046</ele>
        <time>2015-06-05T15:41:50Z</time>
      </trkpt>
      <trkpt lat="49.1145" lon="-1.44092">
        <ele>89.29046</ele>
        <time>2015-06-05T15:41:55Z</time>
      </trkpt>
      <trkpt lat="49.1145" lon="-1.44092">
        <ele>89.29046</ele>
        <time>2015-06-05T15:42:00Z</time>
      </trkpt>
      <trkpt lat="49.1145" lon="-1.44093">
        <ele>89.29046</ele>
        <time>2015-06-05T15:42:05Z</time>
      </trkpt>
      <trkpt lat="49.1145" lon="-1.44094">
        <ele>89.29046</ele>
        <time>2015-06-05T15:42:10Z</time>
      </trkpt>
      <trkpt lat="49.11449" lon="-1.44094">
        <ele>89.29046</ele>
        <time>2015-06-05T15:42:15Z</time>
      </trkpt>
      <trkpt lat="49.11449" lon="-1.44095">
        <ele>89.60551</ele>
        <time>2015-06-05T15:42:20Z</time>
      </trkpt>
      <trkpt lat="49.11448" lon="-1.44092">
        <ele>89.60551</ele>
        <time>2015-06-05T15:42:25Z</time>
      </trkpt>
      <trkpt lat="49.11449" lon="-1.44082">
        <ele>90.09963</ele>
        <time>2015-06-05T15:42:30Z</time>
      </trkpt>
      <trkpt lat="49.1145" lon="-1.44074">
        <ele>90.09963</ele>
        <time>2015-06-05T15:42:35Z</time>
      </trkpt>
      <trkpt lat="49.1145" lon="-1.44067">
        <ele>90.45659</ele>
        <time>2015-06-05T15:42:40Z</time>
      </trkpt>
      <trkpt lat="49.11449" lon="-1.44059">
        <ele>90.45659</ele>
        <time>2015-06-05T15:42:45Z</time>
      </trkpt>
      <trkpt lat="49.1145" lon="-1.44057">
        <ele>90.45659</ele>
        <time>2015-06-05T15:42:50Z</time>
      </trkpt>
      <trkpt lat="49.11452" lon="-1.44042">
        <ele>90.499054</ele>
        <time>2015-06-05T15:42:55Z</time>
      </trkpt>
      <trkpt lat="49.11454" lon="-1.44033">
        <ele>90.499054</ele>
        <time>2015-06-05T15:43:00Z</time>
      </trkpt>
      <trkpt lat="49.11456" lon="-1.44025">
        <ele>90.43831</ele>
        <time>2015-06-05T15:43:05Z</time>
      </trkpt>
      <trkpt lat="49.11457" lon="-1.44017">
        <ele>90.43831</ele>
        <time>2015-06-05T15:43:10Z</time>
      </trkpt>
      <trkpt lat="49.11458" lon="-1.44009">
        <ele>90.297485</ele>
        <time>2015-06-05T15:43:15Z</time>
      </trkpt>
      <trkpt lat="49.11462" lon="-1.44001">
        <ele>90.297485</ele>
        <time>2015-06-05T15:43:20Z</time>
      </trkpt>
      <trkpt lat="49.11465" lon="-1.43994">
        <ele>90.09825</ele>
        <time>2015-06-05T15:43:25Z</time>
      </trkpt>
      <trkpt lat="49.11466" lon="-1.43985">
        <ele>90.09825</ele>
        <time>2015-06-05T15:43:30Z</time>
      </trkpt>
      <trkpt lat="49.11466" lon="-1.43974">
        <ele>89.860855</ele>
        <time>2015-06-05T15:43:35Z</time>
      </trkpt>
      <trkpt lat="49.11465" lon="-1.43963">
        <ele>89.860855</ele>
        <time>2015-06-05T15:43:40Z</time>
      </trkpt>
      <trkpt lat="49.11465" lon="-1.43954">
        <ele>89.66178</ele>
        <time>2015-06-05T15:43:45Z</time>
      </trkpt>
      <trkpt lat="49.11467" lon="-1.43947">
        <ele>89.66178</ele>
        <time>2015-06-05T15:43:50Z</time>
      </trkpt>
      <trkpt lat="49.11468" lon="-1.43942">
        <ele>89.66178</ele>
        <time>2015-06-05T15:43:55Z</time>
      </trkpt>
      <trkpt lat="49.11467" lon="-1.43936">
        <ele>89.370056</ele>
        <time>2015-06-05T15:44:00Z</time>
      </trkpt>
      <trkpt lat="49.11467" lon="-1.43931">
        <ele>89.370056</ele>
        <time>2015-06-05T15:44:05Z</time>
      </trkpt>
      <trkpt lat="49.11469" lon="-1.43923">
        <ele>89.370056</ele>
        <time>2015-06-05T15:44:10Z</time>
      </trkpt>
      <trkpt lat="49.11471" lon="-1.43912">
        <ele>89.08073</ele>
        <time>2015-06-05T15:44:15Z</time>
      </trkpt>
      <trkpt lat="49.11473" lon="-1.43903">
        <ele>89.08073</ele>
        <time>2015-06-05T15:44:20Z</time>
      </trkpt>
      <trkpt lat="49.11474" lon="-1.43894">
        <ele>88.78095</ele>
        <time>2015-06-05T15:44:25Z</time>
      </trkpt>
      <trkpt lat="49.11476" lon="-1.43883">
        <ele>88.78095</ele>
        <time>2015-06-05T15:44:30Z</time>
      </trkpt>
      <trkpt lat="49.11476" lon="-1.43875">
        <ele>88.3868</ele>
        <time>2015-06-05T15:44:35Z</time>
      </trkpt>
      <trkpt lat="49.11476" lon="-1.43864">
        <ele>88.3868</ele>
        <time>2015-06-05T15:44:40Z</time>
      </trkpt>
      <trkpt lat="49.11477" lon="-1.43857">
        <ele>88.03691</ele>
        <time>2015-06-05T15:44:45Z</time>
      </trkpt>
      <trkpt lat="49.11478" lon="-1.43849">
        <ele>88.03691</ele>
        <time>2015-06-05T15:44:50Z</time>
      </trkpt>
      <trkpt lat="49.1148" lon="-1.43841">
        <ele>87.67224</ele>
        <time>2015-06-05T15:44:55Z</time>
      </trkpt>
      <trkpt lat="49.1148" lon="-1.4383">
        <ele>87.67224</ele>
        <time>2015-06-05T15:45:00Z</time>
      </trkpt>
      <trkpt lat="49.11483" lon="-1.4382">
        <ele>87.31015</ele>
        <time>2015-06-05T15:45:05Z</time>
      </trkpt>
      <trkpt lat="49.11484" lon="-1.43814">
        <ele>87.31015</ele>
        <time>2015-06-05T15:45:10Z</time>
      </trkpt>
      <trkpt lat="49.11486" lon="-1.43805">
        <ele>86.93785</ele>
        <time>2015-06-05T15:45:15Z</time>
      </trkpt>
      <trkpt lat="49.11488" lon="-1.43799">
        <ele>86.93785</ele>
        <time>2015-06-05T15:45:20Z</time>
      </trkpt>
      <trkpt lat="49.11492" lon="-1.43791">
        <ele>86.58675</ele>
        <time>2015-06-05T15:45:25Z</time>
      </trkpt>
      <trkpt lat="49.11493" lon="-1.43781">
        <ele>86.58675</ele>
        <time>2015-06-05T15:45:30Z</time>
      </trkpt>
      <trkpt lat="49.11495" lon="-1.43772">
        <ele>86.25697</ele>
        <time>2015-06-05T15:45:35Z</time>
      </trkpt>
      <trkpt lat="49.11497" lon="-1.43765">
        <ele>86.25697</ele>
        <time>2015-06-05T15:45:40Z</time>
      </trkpt>
      <trkpt lat="49.11501" lon="-1.43755">
        <ele>85.87653</ele>
        <time>2015-06-05T15:45:45Z</time>
      </trkpt>
      <trkpt lat="49.11505" lon="-1.43749">
        <ele>85.87653</ele>
        <time>2015-06-05T15:45:50Z</time>
      </trkpt>
      <trkpt lat="49.1151" lon="-1.43741">
        <ele>85.49408</ele>
        <time>2015-06-05T15:45:55Z</time>
      </trkpt>
      <trkpt lat="49.11513" lon="-1.43733">
        <ele>85.49408</ele>
        <time>2015-06-05T15:46:00Z</time>
      </trkpt>
      <trkpt lat="49.11514" lon="-1.43726">
        <ele>85.03939</ele>
        <time>2015-06-05T15:46:05Z</time>
      </trkpt>
      <trkpt lat="49.11516" lon="-1.43712">
        <ele>84.57723</ele>
        <time>2015-06-05T15:46:10Z</time>
      </trkpt>
      <trkpt lat="49.11516" lon="-1.43707">
        <ele>84.57723</ele>
        <time>2015-06-05T15:46:15Z</time>
      </trkpt>
      <trkpt lat="49.11524" lon="-1.43695">
        <ele>84.16759</ele>
        <time>2015-06-05T15:46:20Z</time>
      </trkpt>
      <trkpt lat="49.11526" lon="-1.43691">
        <ele>84.16759</ele>
        <time>2015-06-05T15:46:25Z</time>
      </trkpt>
      <trkpt lat="49.11532" lon="-1.43684">
        <ele>83.83703</ele>
        <time>2015-06-05T15:46:30Z</time>
      </trkpt>
      <trkpt lat="49.11536" lon="-1.43678">
        <ele>83.83703</ele>
        <time>2015-06-05T15:46:35Z</time>
      </trkpt>
      <trkpt lat="49.1154" lon="-1.4367">
        <ele>83.46578</ele>
        <time>2015-06-05T15:46:40Z</time>
      </trkpt>
      <trkpt lat="49.11544" lon="-1.43662">
        <ele>83.46578</ele>
        <time>2015-06-05T15:46:45Z</time>
      </trkpt>
      <trkpt lat="49.11546" lon="-1.43655">
        <ele>83.07263</ele>
        <time>2015-06-05T15:46:50Z</time>
      </trkpt>
      <trkpt lat="49.11549" lon="-1.43648">
        <ele>83.07263</ele>
        <time>2015-06-05T15:46:55Z</time>
      </trkpt>
      <trkpt lat="49.11552" lon="-1.43642">
        <ele>82.689415</ele>
        <time>2015-06-05T15:47:00Z</time>
      </trkpt>
      <trkpt lat="49.11556" lon="-1.43639">
        <ele>82.689415</ele>
        <time>2015-06-05T15:47:05Z</time>
      </trkpt>
      <trkpt lat="49.1156" lon="-1.43634">
        <ele>82.331116</ele>
        <time>2015-06-05T15:47:10Z</time>
      </trkpt>
      <trkpt lat="49.11566" lon="-1.43626">
        <ele>82.331116</ele>
        <time>2015-06-05T15:47:15Z</time>
      </trkpt>
      <trkpt lat="49.1157" lon="-1.43619">
        <ele>81.968285</ele>
        <time>2015-06-05T15:47:20Z</time>
      </trkpt>
      <trkpt lat="49.11573" lon="-1.43611">
        <ele>81.968285</ele>
        <time>2015-06-05T15:47:25Z</time>
      </trkpt>
      <trkpt lat="49.11576" lon="-1.43605">
        <ele>81.60241</ele>
        <time>2015-06-05T15:47:30Z</time>
      </trkpt>
      <trkpt lat="49.1158" lon="-1.43599">
        <ele>81.60241</ele>
        <time>2015-06-05T15:47:35Z</time>
      </trkpt>
      <trkpt lat="49.11583" lon="-1.43594">
        <ele>81.11953</ele>
        <time>2015-06-05T15:47:40Z</time>
      </trkpt>
      <trkpt lat="49.11588" lon="-1.43585">
        <ele>81.11953</ele>
        <time>2015-06-05T15:47:45Z</time>
      </trkpt>
      <trkpt lat="49.11592" lon="-1.43579">
        <ele>80.45759</ele>
        <time>2015-06-05T15:47:50Z</time>
      </trkpt>
      <trkpt lat="49.11595" lon="-1.43572">
        <ele>80.45759</ele>
        <time>2015-06-05T15:47:55Z</time>
      </trkpt>
      <trkpt lat="49.11597" lon="-1.43565">
        <ele>79.70362</ele>
        <time>2015-06-05T15:48:00Z</time>
      </trkpt>
      <trkpt lat="49.116" lon="-1.43556">
        <ele>79.70362</ele>
        <time>2015-06-05T15:48:05Z</time>
      </trkpt>
      <trkpt lat="49.11603" lon="-1.43546">
        <ele>78.86643</ele>
        <time>2015-06-05T15:48:10Z</time>
      </trkpt>
      <trkpt lat="49.11604" lon="-1.43536">
        <ele>78.86643</ele>
        <time>2015-06-05T15:48:15Z</time>
      </trkpt>
      <trkpt lat="49.11605" lon="-1.43528">
        <ele>77.925545</ele>
        <time>2015-06-05T15:48:20Z</time>
      </trkpt>
      <trkpt lat="49.11606" lon="-1.4352">
        <ele>77.925545</ele>
        <time>2015-06-05T15:48:25Z</time>
      </trkpt>
      <trkpt lat="49.11609" lon="-1.43514">
        <ele>77.00631</ele>
        <time>2015-06-05T15:48:30Z</time>
      </trkpt>
      <trkpt lat="49.11613" lon="-1.43504">
        <ele>77.00631</ele>
        <time>2015-06-05T15:48:35Z</time>
      </trkpt>
      <trkpt lat="49.11615" lon="-1.43498">
        <ele>76.10947</ele>
        <time>2015-06-05T15:48:40Z</time>
      </trkpt>
      <trkpt lat="49.11618" lon="-1.4349">
        <ele>76.10947</ele>
        <time>2015-06-05T15:48:45Z</time>
      </trkpt>
      <trkpt lat="49.1162" lon="-1.43483">
        <ele>75.12029</ele>
        <time>2015-06-05T15:48:50Z</time>
      </trkpt>
      <trkpt lat="49.11624" lon="-1.43474">
        <ele>75.12029</ele>
        <time>2015-06-05T15:48:55Z</time>
      </trkpt>
      <trkpt lat="49.11627" lon="-1.4347">
        <ele>74.06239</ele>
        <time>2015-06-05T15:49:00Z</time>
      </trkpt>
      <trkpt lat="49.1163" lon="-1.43461">
        <ele>74.06239</ele>
        <time>2015-06-05T15:49:05Z</time>
      </trkpt>
      <trkpt lat="49.11631" lon="-1.43453">
        <ele>73.02979</ele>
        <time>2015-06-05T15:49:10Z</time>
      </trkpt>
      <trkpt lat="49.11635" lon="-1.43446">
        <ele>73.02979</ele>
        <time>2015-06-05T15:49:15Z</time>
      </trkpt>
      <trkpt lat="49.11638" lon="-1.43439">
        <ele>71.96538</ele>
        <time>2015-06-05T15:49:20Z</time>
      </trkpt>
      <trkpt lat="49.11641" lon="-1.43431">
        <ele>71.96538</ele>
        <time>2015-06-05T15:49:25Z</time>
      </trkpt>
      <trkpt lat="49.11644" lon="-1.43425">
        <ele>70.88831</ele>
        <time>2015-06-05T15:49:30Z</time>
      </trkpt>
      <trkpt lat="49.11646" lon="-1.43417">
        <ele>70.88831</ele>
        <time>2015-06-05T15:49:35Z</time>
      </trkpt>
      <trkpt lat="49.11649" lon="-1.43409">
        <ele>69.88834</ele>
        <time>2015-06-05T15:49:40Z</time>
      </trkpt>
      <trkpt lat="49.11655" lon="-1.43402">
        <ele>69.88834</ele>
        <time>2015-06-05T15:49:45Z</time>
      </trkpt>
      <trkpt lat="49.11658" lon="-1.43394">
        <ele>68.83219</ele>
        <time>2015-06-05T15:49:50Z</time>
      </trkpt>
      <trkpt lat="49.1166" lon="-1.43389">
        <ele>68.83219</ele>
        <time>2015-06-05T15:49:55Z</time>
      </trkpt>
      <trkpt lat="49.11662" lon="-1.43377">
        <ele>67.89907</ele>
        <time>2015-06-05T15:50:00Z</time>
      </trkpt>
      <trkpt lat="49.11664" lon="-1.43368">
        <ele>67.89907</ele>
        <time>2015-06-05T15:50:05Z</time>
      </trkpt>
      <trkpt lat="49.11666" lon="-1.43361">
        <ele>67.08168</ele>
        <time>2015-06-05T15:50:10Z</time>
      </trkpt>
      <trkpt lat="49.11669" lon="-1.43353">
        <ele>67.08168</ele>
        <time>2015-06-05T15:50:15Z</time>
      </trkpt>
      <trkpt lat="49.1167" lon="-1.43348">
        <ele>66.32962</ele>
        <time>2015-06-05T15:50:20Z</time>
      </trkpt>
      <trkpt lat="49.1167" lon="-1.43342">
        <ele>66.32962</ele>
        <time>2015-06-05T15:50:25Z</time>
      </trkpt>
      <trkpt lat="49.1167" lon="-1.43337">
        <ele>66.32962</ele>
        <time>2015-06-05T15:50:30Z</time>
      </trkpt>
      <trkpt lat="49.11672" lon="-1.43328">
        <ele>65.61036</ele>
        <time>2015-06-05T15:50:35Z</time>
      </trkpt>
      <trkpt lat="49.11678" lon="-1.43312">
        <ele>65.03768</ele>
        <time>2015-06-05T15:50:40Z</time>
      </trkpt>
      <trkpt lat="49.11679" lon="-1.43306">
        <ele>65.03768</ele>
        <time>2015-06-05T15:50:45Z</time>
      </trkpt>
      <trkpt lat="49.11681" lon="-1.43297">
        <ele>64.48597</ele>
        <time>2015-06-05T15:50:50Z</time>
      </trkpt>
      <trkpt lat="49.11686" lon="-1.43287">
        <ele>64.48597</ele>
        <time>2015-06-05T15:50:55Z</time>
      </trkpt>
      <trkpt lat="49.11688" lon="-1.43282">
        <ele>63.89636</ele>
        <time>2015-06-05T15:51:00Z</time>
      </trkpt>
      <trkpt lat="49.1169" lon="-1.43274">
        <ele>63.89636</ele>
        <time>2015-06-05T15:51:05Z</time>
      </trkpt>
      <trkpt lat="49.11693" lon="-1.43264">
        <ele>63.243168</ele>
        <time>2015-06-05T15:51:10Z</time>
      </trkpt>
      <trkpt lat="49.11695" lon="-1.43258">
        <ele>63.243168</ele>
        <time>2015-06-05T15:51:15Z</time>
      </trkpt>
      <trkpt lat="49.11698" lon="-1.4325">
        <ele>62.6036</ele>
        <time>2015-06-05T15:51:20Z</time>
      </trkpt>
      <trkpt lat="49.11703" lon="-1.43245">
        <ele>62.6036</ele>
        <time>2015-06-05T15:51:25Z</time>
      </trkpt>
      <trkpt lat="49.11706" lon="-1.43237">
        <ele>62.092327</ele>
        <time>2015-06-05T15:51:30Z</time>
      </trkpt>
      <trkpt lat="49.11708" lon="-1.43233">
        <ele>62.092327</ele>
        <time>2015-06-05T15:51:35Z</time>
      </trkpt>
      <trkpt lat="49.11709" lon="-1.43226">
        <ele>62.092327</ele>
        <time>2015-06-05T15:51:40Z</time>
      </trkpt>
      <trkpt lat="49.11711" lon="-1.43216">
        <ele>61.526974</ele>
        <time>2015-06-05T15:51:45Z</time>
      </trkpt>
      <trkpt lat="49.11713" lon="-1.43213">
        <ele>61.526974</ele>
        <time>2015-06-05T15:51:50Z</time>
      </trkpt>
      <trkpt lat="49.11714" lon="-1.43211">
        <ele>61.526974</ele>
        <time>2015-06-05T15:51:55Z</time>
      </trkpt>
      <trkpt lat="49.11714" lon="-1.43207">
        <ele>61.526974</ele>
        <time>2015-06-05T15:52:00Z</time>
      </trkpt>
      <trkpt lat="49.11714" lon="-1.43204">
        <ele>60.983646</ele>
        <time>2015-06-05T15:52:05Z</time>
      </trkpt>
      <trkpt lat="49.11715" lon="-1.43196">
        <ele>60.983646</ele>
        <time>2015-06-05T15:52:10Z</time>
      </trkpt>
      <trkpt lat="49.11717" lon="-1.43182">
        <ele>60.648045</ele>
        <time>2015-06-05T15:52:15Z</time>
      </trkpt>
      <trkpt lat="49.11719" lon="-1.43175">
        <ele>60.648045</ele>
        <time>2015-06-05T15:52:20Z</time>
      </trkpt>
      <trkpt lat="49.11721" lon="-1.43166">
        <ele>60.37456</ele>
        <time>2015-06-05T15:52:25Z</time>
      </trkpt>
      <trkpt lat="49.11722" lon="-1.43161">
        <ele>60.37456</ele>
        <time>2015-06-05T15:52:30Z</time>
      </trkpt>
      <trkpt lat="49.11725" lon="-1.43154">
        <ele>60.085716</ele>
        <time>2015-06-05T15:52:35Z</time>
      </trkpt>
      <trkpt lat="49.11729" lon="-1.43147">
        <ele>60.085716</ele>
        <time>2015-06-05T15:52:40Z</time>
      </trkpt>
      <trkpt lat="49.11732" lon="-1.43141">
        <ele>59.839443</ele>
        <time>2015-06-05T15:52:45Z</time>
      </trkpt>
      <trkpt lat="49.11734" lon="-1.43134">
        <ele>59.839443</ele>
        <time>2015-06-05T15:52:50Z</time>
      </trkpt>
      <trkpt lat="49.11734" lon="-1.4313">
        <ele>59.839443</ele>
        <time>2015-06-05T15:52:55Z</time>
      </trkpt>
      <trkpt lat="49.11735" lon="-1.43129">
        <ele>59.839443</ele>
        <time>2015-06-05T15:53:00Z</time>
      </trkpt>
      <trkpt lat="49.11736" lon="-1.43129">
        <ele>59.6028</ele>
        <time>2015-06-05T15:53:05Z</time>
      </trkpt>
      <trkpt lat="49.11735" lon="-1.4313">
        <ele>59.6028</ele>
        <time>2015-06-05T15:53:10Z</time>
      </trkpt>
      <trkpt lat="49.1173" lon="-1.43128">
        <ele>59.6028</ele>
        <time>2015-06-05T15:53:15Z</time>
      </trkpt>
      <trkpt lat="49.11722" lon="-1.43125">
        <ele>59.575794</ele>
        <time>2015-06-05T15:53:20Z</time>
      </trkpt>
      <trkpt lat="49.11716" lon="-1.43124">
        <ele>59.575794</ele>
        <time>2015-06-05T15:53:25Z</time>
      </trkpt>
      <trkpt lat="49.11711" lon="-1.43121">
        <ele>59.554047</ele>
        <time>2015-06-05T15:53:30Z</time>
      </trkpt>
      <trkpt lat="49.11705" lon="-1.43117">
        <ele>59.554047</ele>
        <time>2015-06-05T15:53:35Z</time>
      </trkpt>
      <trkpt lat="49.11701" lon="-1.43112">
        <ele>59.549915</ele>
        <time>2015-06-05T15:53:40Z</time>
      </trkpt>
      <trkpt lat="49.11695" lon="-1.4311">
        <ele>59.549915</ele>
        <time>2015-06-05T15:53:45Z</time>
      </trkpt>
      <trkpt lat="49.11691" lon="-1.43106">
        <ele>59.45951</ele>
        <time>2015-06-05T15:53:50Z</time>
      </trkpt>
      <trkpt lat="49.1169" lon="-1.43102">
        <ele>59.45951</ele>
        <time>2015-06-05T15:53:55Z</time>
      </trkpt>
      <trkpt lat="49.11693" lon="-1.4309">
        <ele>59.475037</ele>
        <time>2015-06-05T15:54:00Z</time>
      </trkpt>
      <trkpt lat="49.11693" lon="-1.43089">
        <ele>59.475037</ele>
        <time>2015-06-05T15:54:05Z</time>
      </trkpt>
      <trkpt lat="49.11693" lon="-1.43088">
        <ele>59.475037</ele>
        <time>2015-06-05T15:54:10Z</time>
      </trkpt>
      <trkpt lat="49.11691" lon="-1.43087">
        <ele>59.475037</ele>
        <time>2015-06-05T15:54:15Z</time>
      </trkpt>
      <trkpt lat="49.11691" lon="-1.43086">
        <ele>59.475037</ele>
        <time>2015-06-05T15:54:20Z</time>
      </trkpt>
      <trkpt lat="49.11691" lon="-1.43087">
        <ele>59.475037</ele>
        <time>2015-06-05T15:54:25Z</time>
      </trkpt>
      <trkpt lat="49.11691" lon="-1.43088">
        <ele>59.475037</ele>
        <time>2015-06-05T15:54:30Z</time>
      </trkpt>
      <trkpt lat="49.11691" lon="-1.43088">
        <ele>59.475037</ele>
        <time>2015-06-05T15:54:35Z</time>
      </trkpt>
      <trkpt lat="49.11692" lon="-1.43087">
        <ele>59.475037</ele>
        <time>2015-06-05T15:54:40Z</time>
      </trkpt>
      <trkpt lat="49.11693" lon="-1.43089">
        <ele>59.475037</ele>
        <time>2015-06-05T15:54:45Z</time>
      </trkpt>
      <trkpt lat="49.11693" lon="-1.43089">
        <ele>59.475037</ele>
        <time>2015-06-05T15:54:50Z</time>
      </trkpt>
      <trkpt lat="49.11693" lon="-1.43086">
        <ele>59.67342</ele>
        <time>2015-06-05T15:54:55Z</time>
      </trkpt>
      <trkpt lat="49.11693" lon="-1.43085">
        <ele>59.67342</ele>
        <time>2015-06-05T15:55:00Z</time>
      </trkpt>
      <trkpt lat="49.11692" lon="-1.43083">
        <ele>59.67342</ele>
        <time>2015-06-05T15:55:05Z</time>
      </trkpt>
      <trkpt lat="49.11691" lon="-1.43085">
        <ele>59.67342</ele>
        <time>2015-06-05T15:55:10Z</time>
      </trkpt>
      <trkpt lat="49.11691" lon="-1.43086">
        <ele>59.67342</ele>
        <time>2015-06-05T15:55:15Z</time>
      </trkpt>
      <trkpt lat="49.11692" lon="-1.43086">
        <ele>59.67342</ele>
        <time>2015-06-05T15:55:20Z</time>
      </trkpt>
      <trkpt lat="49.11693" lon="-1.43083">
        <ele>59.67342</ele>
        <time>2015-06-05T15:55:25Z</time>
      </trkpt>
      <trkpt lat="49.11693" lon="-1.43084">
        <ele>59.67342</ele>
        <time>2015-06-05T15:55:30Z</time>
      </trkpt>
      <trkpt lat="49.11693" lon="-1.43082">
        <ele>60.11101</ele>
        <time>2015-06-05T15:55:35Z</time>
      </trkpt>
      <trkpt lat="49.11694" lon="-1.43083">
        <ele>60.11101</ele>
        <time>2015-06-05T15:55:40Z</time>
      </trkpt>
      <trkpt lat="49.11694" lon="-1.43086">
        <ele>60.11101</ele>
        <time>2015-06-05T15:55:45Z</time>
      </trkpt>
      <trkpt lat="49.11693" lon="-1.43089">
        <ele>60.11101</ele>
        <time>2015-06-05T15:55:50Z</time>
      </trkpt>
      <trkpt lat="49.11693" lon="-1.43091">
        <ele>60.11101</ele>
        <time>2015-06-05T15:55:55Z</time>
      </trkpt>
      <trkpt lat="49.11693" lon="-1.43091">
        <ele>60.11101</ele>
        <time>2015-06-05T15:56:00Z</time>
      </trkpt>
      <trkpt lat="49.11694" lon="-1.43091">
        <ele>60.11101</ele>
        <time>2015-06-05T15:56:05Z</time>
      </trkpt>
      <trkpt lat="49.11695" lon="-1.43082">
        <ele>60.594383</ele>
        <time>2015-06-05T15:56:10Z</time>
      </trkpt>
      <trkpt lat="49.11697" lon="-1.43074">
        <ele>60.594383</ele>
        <time>2015-06-05T15:56:15Z</time>
      </trkpt>
      <trkpt lat="49.11698" lon="-1.43065">
        <ele>60.944225</ele>
        <time>2015-06-05T15:56:20Z</time>
      </trkpt>
      <trkpt lat="49.11702" lon="-1.43057">
        <ele>60.944225</ele>
        <time>2015-06-05T15:56:25Z</time>
      </trkpt>
      <trkpt lat="49.11707" lon="-1.43051">
        <ele>61.167717</ele>
        <time>2015-06-05T15:56:30Z</time>
      </trkpt>
      <trkpt lat="49.11709" lon="-1.43045">
        <ele>61.167717</ele>
        <time>2015-06-05T15:56:35Z</time>
      </trkpt>
      <trkpt lat="49.11712" lon="-1.43038">
        <ele>61.27192</ele>
        <time>2015-06-05T15:56:40Z</time>
      </trkpt>
      <trkpt lat="49.11713" lon="-1.43037">
        <ele>61.27192</ele>
        <time>2015-06-05T15:56:45Z</time>
      </trkpt>
      <trkpt lat="49.11716" lon="-1.43034">
        <ele>61.27192</ele>
        <time>2015-06-05T15:56:50Z</time>
      </trkpt>
      <trkpt lat="49.1172" lon="-1.43025">
        <ele>61.22051</ele>
        <time>2015-06-05T15:56:55Z</time>
      </trkpt>
      <trkpt lat="49.11723" lon="-1.4302">
        <ele>61.22051</ele>
        <time>2015-06-05T15:57:00Z</time>
      </trkpt>
      <trkpt lat="49.11727" lon="-1.43012">
        <ele>60.965893</ele>
        <time>2015-06-05T15:57:05Z</time>
      </trkpt>
      <trkpt lat="49.1173" lon="-1.43005">
        <ele>60.965893</ele>
        <time>2015-06-05T15:57:10Z</time>
      </trkpt>
      <trkpt lat="49.11733" lon="-1.42997">
        <ele>60.56547</ele>
        <time>2015-06-05T15:57:15Z</time>
      </trkpt>
      <trkpt lat="49.11737" lon="-1.42989">
        <ele>60.56547</ele>
        <time>2015-06-05T15:57:20Z</time>
      </trkpt>
      <trkpt lat="49.11739" lon="-1.42982">
        <ele>60.245815</ele>
        <time>2015-06-05T15:57:25Z</time>
      </trkpt>
      <trkpt lat="49.11742" lon="-1.42976">
        <ele>60.245815</ele>
        <time>2015-06-05T15:57:30Z</time>
      </trkpt>
      <trkpt lat="49.11749" lon="-1.4297">
        <ele>59.885204</ele>
        <time>2015-06-05T15:57:35Z</time>
      </trkpt>
      <trkpt lat="49.11752" lon="-1.42964">
        <ele>59.885204</ele>
        <time>2015-06-05T15:57:40Z</time>
      </trkpt>
      <trkpt lat="49.11757" lon="-1.42956">
        <ele>59.601597</ele>
        <time>2015-06-05T15:57:45Z</time>
      </trkpt>
      <trkpt lat="49.11758" lon="-1.42953">
        <ele>59.601597</ele>
        <time>2015-06-05T15:57:50Z</time>
      </trkpt>
      <trkpt lat="49.11762" lon="-1.42947">
        <ele>59.601597</ele>
        <time>2015-06-05T15:57:55Z</time>
      </trkpt>
      <trkpt lat="49.11765" lon="-1.42945">
        <ele>59.316757</ele>
        <time>2015-06-05T15:58:00Z</time>
      </trkpt>
      <trkpt lat="49.1177" lon="-1.42943">
        <ele>59.316757</ele>
        <time>2015-06-05T15:58:05Z</time>
      </trkpt>
      <trkpt lat="49.11776" lon="-1.4294">
        <ele>59.087948</ele>
        <time>2015-06-05T15:58:10Z</time>
      </trkpt>
      <trkpt lat="49.1178" lon="-1.42937">
        <ele>59.087948</ele>
        <time>2015-06-05T15:58:15Z</time>
      </trkpt>
      <trkpt lat="49.11784" lon="-1.42935">
        <ele>59.087948</ele>
        <time>2015-06-05T15:58:20Z</time>
      </trkpt>
      <trkpt lat="49.11789" lon="-1.42931">
        <ele>59.09779</ele>
        <time>2015-06-05T15:58:25Z</time>
      </trkpt>
      <trkpt lat="49.11793" lon="-1.42926">
        <ele>59.09779</ele>
        <time>2015-06-05T15:58:30Z</time>
      </trkpt>
      <trkpt lat="49.11796" lon="-1.42923">
        <ele>59.09779</ele>
        <time>2015-06-05T15:58:35Z</time>
      </trkpt>
      <trkpt lat="49.11798" lon="-1.4292">
        <ele>59.24105</ele>
        <time>2015-06-05T15:58:40Z</time>
      </trkpt>
      <trkpt lat="49.11801" lon="-1.42916">
        <ele>59.24105</ele>
        <time>2015-06-05T15:58:45Z</time>
      </trkpt>
      <trkpt lat="49.11802" lon="-1.42912">
        <ele>59.24105</ele>
        <time>2015-06-05T15:58:50Z</time>
      </trkpt>
      <trkpt lat="49.11805" lon="-1.4291">
        <ele>59.63606</ele>
        <time>2015-06-05T15:58:55Z</time>
      </trkpt>
      <trkpt lat="49.11805" lon="-1.42909">
        <ele>59.63606</ele>
        <time>2015-06-05T15:59:00Z</time>
      </trkpt>
      <trkpt lat="49.11808" lon="-1.42901">
        <ele>59.63606</ele>
        <time>2015-06-05T15:59:05Z</time>
      </trkpt>
      <trkpt lat="49.11812" lon="-1.42896">
        <ele>60.045918</ele>
        <time>2015-06-05T15:59:10Z</time>
      </trkpt>
      <trkpt lat="49.11817" lon="-1.4289">
        <ele>60.045918</ele>
        <time>2015-06-05T15:59:15Z</time>
      </trkpt>
      <trkpt lat="49.11821" lon="-1.42885">
        <ele>60.424053</ele>
        <time>2015-06-05T15:59:20Z</time>
      </trkpt>
      <trkpt lat="49.11826" lon="-1.42876">
        <ele>60.424053</ele>
        <time>2015-06-05T15:59:25Z</time>
      </trkpt>
      <trkpt lat="49.11833" lon="-1.42872">
        <ele>60.75628</ele>
        <time>2015-06-05T15:59:30Z</time>
      </trkpt>
      <trkpt lat="49.11837" lon="-1.42867">
        <ele>60.75628</ele>
        <time>2015-06-05T15:59:35Z</time>
      </trkpt>
      <trkpt lat="49.11841" lon="-1.4286">
        <ele>61.05845</ele>
        <time>2015-06-05T15:59:40Z</time>
      </trkpt>
      <trkpt lat="49.11845" lon="-1.42851">
        <ele>61.05845</ele>
        <time>2015-06-05T15:59:45Z</time>
      </trkpt>
      <trkpt lat="49.11849" lon="-1.42845">
        <ele>61.3598</ele>
        <time>2015-06-05T15:59:50Z</time>
      </trkpt>
      <trkpt lat="49.11852" lon="-1.42841">
        <ele>61.3598</ele>
        <time>2015-06-05T15:59:55Z</time>
      </trkpt>
      <trkpt lat="49.11857" lon="-1.42834">
        <ele>61.629814</ele>
        <time>2015-06-05T16:00:00Z</time>
      </trkpt>
      <trkpt lat="49.11862" lon="-1.42827">
        <ele>61.629814</ele>
        <time>2015-06-05T16:00:05Z</time>
      </trkpt>
      <trkpt lat="49.11866" lon="-1.4282">
        <ele>61.869198</ele>
        <time>2015-06-05T16:00:10Z</time>
      </trkpt>
      <trkpt lat="49.11871" lon="-1.42814">
        <ele>61.869198</ele>
        <time>2015-06-05T16:00:15Z</time>
      </trkpt>
      <trkpt lat="49.11875" lon="-1.42808">
        <ele>61.992264</ele>
        <time>2015-06-05T16:00:20Z</time>
      </trkpt>
      <trkpt lat="49.11881" lon="-1.42802">
        <ele>61.992264</ele>
        <time>2015-06-05T16:00:25Z</time>
      </trkpt>
      <trkpt lat="49.11886" lon="-1.42797">
        <ele>62.092945</ele>
        <time>2015-06-05T16:00:30Z</time>
      </trkpt>
      <trkpt lat="49.11892" lon="-1.42791">
        <ele>62.092945</ele>
        <time>2015-06-05T16:00:35Z</time>
      </trkpt>
      <trkpt lat="49.11897" lon="-1.42787">
        <ele>62.22956</ele>
        <time>2015-06-05T16:00:40Z</time>
      </trkpt>
      <trkpt lat="49.119" lon="-1.42781">
        <ele>62.22956</ele>
        <time>2015-06-05T16:00:45Z</time>
      </trkpt>
      <trkpt lat="49.11904" lon="-1.42778">
        <ele>62.42727</ele>
        <time>2015-06-05T16:00:50Z</time>
      </trkpt>
      <trkpt lat="49.11911" lon="-1.4277">
        <ele>62.42727</ele>
        <time>2015-06-05T16:00:55Z</time>
      </trkpt>
      <trkpt lat="49.11916" lon="-1.42763">
        <ele>62.68045</ele>
        <time>2015-06-05T16:01:00Z</time>
      </trkpt>
      <trkpt lat="49.11918" lon="-1.42759">
        <ele>62.68045</ele>
        <time>2015-06-05T16:01:05Z</time>
      </trkpt>
      <trkpt lat="49.11925" lon="-1.42752">
        <ele>62.91173</ele>
        <time>2015-06-05T16:01:10Z</time>
      </trkpt>
      <trkpt lat="49.11929" lon="-1.42745">
        <ele>62.91173</ele>
        <time>2015-06-05T16:01:15Z</time>
      </trkpt>
      <trkpt lat="49.11934" lon="-1.42739">
        <ele>63.078354</ele>
        <time>2015-06-05T16:01:20Z</time>
      </trkpt>
      <trkpt lat="49.11938" lon="-1.42734">
        <ele>63.078354</ele>
        <time>2015-06-05T16:01:25Z</time>
      </trkpt>
      <trkpt lat="49.11943" lon="-1.42728">
        <ele>63.212994</ele>
        <time>2015-06-05T16:01:30Z</time>
      </trkpt>
      <trkpt lat="49.11948" lon="-1.42721">
        <ele>63.212994</ele>
        <time>2015-06-05T16:01:35Z</time>
      </trkpt>
      <trkpt lat="49.11953" lon="-1.42715">
        <ele>63.288418</ele>
        <time>2015-06-05T16:01:40Z</time>
      </trkpt>
      <trkpt lat="49.11957" lon="-1.42709">
        <ele>63.288418</ele>
        <time>2015-06-05T16:01:45Z</time>
      </trkpt>
      <trkpt lat="49.1196" lon="-1.42703">
        <ele>63.30843</ele>
        <time>2015-06-05T16:01:50Z</time>
      </trkpt>
      <trkpt lat="49.11966" lon="-1.42694">
        <ele>63.30843</ele>
        <time>2015-06-05T16:01:55Z</time>
      </trkpt>
      <trkpt lat="49.1197" lon="-1.42689">
        <ele>63.233517</ele>
        <time>2015-06-05T16:02:00Z</time>
      </trkpt>
      <trkpt lat="49.11975" lon="-1.42682">
        <ele>63.233517</ele>
        <time>2015-06-05T16:02:05Z</time>
      </trkpt>
      <trkpt lat="49.11978" lon="-1.42676">
        <ele>63.056206</ele>
        <time>2015-06-05T16:02:10Z</time>
      </trkpt>
      <trkpt lat="49.11981" lon="-1.42667">
        <ele>63.056206</ele>
        <time>2015-06-05T16:02:15Z</time>
      </trkpt>
      <trkpt lat="49.11987" lon="-1.4266">
        <ele>62.813126</ele>
        <time>2015-06-05T16:02:20Z</time>
      </trkpt>
      <trkpt lat="49.11991" lon="-1.42653">
        <ele>62.813126</ele>
        <time>2015-06-05T16:02:25Z</time>
      </trkpt>
      <trkpt lat="49.11996" lon="-1.42646">
        <ele>62.524033</ele>
        <time>2015-06-05T16:02:30Z</time>
      </trkpt>
      <trkpt lat="49.11999" lon="-1.42639">
        <ele>62.524033</ele>
        <time>2015-06-05T16:02:35Z</time>
      </trkpt>
      <trkpt lat="49.12002" lon="-1.42634">
        <ele>62.164154</ele>
        <time>2015-06-05T16:02:40Z</time>
      </trkpt>
      <trkpt lat="49.12007" lon="-1.42623">
        <ele>62.164154</ele>
        <time>2015-06-05T16:02:45Z</time>
      </trkpt>
      <trkpt lat="49.1201" lon="-1.42618">
        <ele>61.725174</ele>
        <time>2015-06-05T16:02:50Z</time>
      </trkpt>
      <trkpt lat="49.12013" lon="-1.42612">
        <ele>61.725174</ele>
        <time>2015-06-05T16:02:55Z</time>
      </trkpt>
      <trkpt lat="49.12018" lon="-1.42605">
        <ele>61.22845</ele>
        <time>2015-06-05T16:03:00Z</time>
      </trkpt>
      <trkpt lat="49.12023" lon="-1.42597">
        <ele>61.22845</ele>
        <time>2015-06-05T16:03:05Z</time>
      </trkpt>
      <trkpt lat="49.12027" lon="-1.42592">
        <ele>60.69396</ele>
        <time>2015-06-05T16:03:10Z</time>
      </trkpt>
      <trkpt lat="49.12032" lon="-1.42587">
        <ele>60.69396</ele>
        <time>2015-06-05T16:03:15Z</time>
      </trkpt>
      <trkpt lat="49.12039" lon="-1.42583">
        <ele>60.183556</ele>
        <time>2015-06-05T16:03:20Z</time>
      </trkpt>
      <trkpt lat="49.12044" lon="-1.42579">
        <ele>60.183556</ele>
        <time>2015-06-05T16:03:25Z</time>
      </trkpt>
      <trkpt lat="49.12049" lon="-1.42574">
        <ele>59.56714</ele>
        <time>2015-06-05T16:03:30Z</time>
      </trkpt>
      <trkpt lat="49.12053" lon="-1.42569">
        <ele>59.56714</ele>
        <time>2015-06-05T16:03:35Z</time>
      </trkpt>
      <trkpt lat="49.12058" lon="-1.42566">
        <ele>58.897415</ele>
        <time>2015-06-05T16:03:40Z</time>
      </trkpt>
      <trkpt lat="49.12067" lon="-1.42562">
        <ele>58.22335</ele>
        <time>2015-06-05T16:03:45Z</time>
      </trkpt>
      <trkpt lat="49.12072" lon="-1.42556">
        <ele>58.22335</ele>
        <time>2015-06-05T16:03:50Z</time>
      </trkpt>
      <trkpt lat="49.12077" lon="-1.42551">
        <ele>57.5615</ele>
        <time>2015-06-05T16:03:55Z</time>
      </trkpt>
      <trkpt lat="49.12081" lon="-1.42545">
        <ele>57.5615</ele>
        <time>2015-06-05T16:04:00Z</time>
      </trkpt>
      <trkpt lat="49.12087" lon="-1.42539">
        <ele>56.95598</ele>
        <time>2015-06-05T16:04:05Z</time>
      </trkpt>
      <trkpt lat="49.12093" lon="-1.42535">
        <ele>56.95598</ele>
        <time>2015-06-05T16:04:10Z</time>
      </trkpt>
      <trkpt lat="49.12094" lon="-1.42536">
        <ele>56.95598</ele>
        <time>2015-06-05T16:04:15Z</time>
      </trkpt>
      <trkpt lat="49.12095" lon="-1.4254">
        <ele>56.461895</ele>
        <time>2015-06-05T16:04:20Z</time>
      </trkpt>
      <trkpt lat="49.12095" lon="-1.42542">
        <ele>56.461895</ele>
        <time>2015-06-05T16:04:25Z</time>
      </trkpt>
      <trkpt lat="49.12095" lon="-1.42541">
        <ele>56.461895</ele>
        <time>2015-06-05T16:04:30Z</time>
      </trkpt>
      <trkpt lat="49.12095" lon="-1.4254">
        <ele>56.461895</ele>
        <time>2015-06-05T16:04:35Z</time>
      </trkpt>
      <trkpt lat="49.12094" lon="-1.42533">
        <ele>56.461895</ele>
        <time>2015-06-05T16:04:40Z</time>
      </trkpt>
      <trkpt lat="49.12093" lon="-1.42532">
        <ele>56.461895</ele>
        <time>2015-06-05T16:04:45Z</time>
      </trkpt>
      <trkpt lat="49.12093" lon="-1.42533">
        <ele>56.461895</ele>
        <time>2015-06-05T16:04:50Z</time>
      </trkpt>
      <trkpt lat="49.12094" lon="-1.42535">
        <ele>56.432617</ele>
        <time>2015-06-05T16:04:55Z</time>
      </trkpt>
      <trkpt lat="49.12094" lon="-1.42534">
        <ele>56.432617</ele>
        <time>2015-06-05T16:05:00Z</time>
      </trkpt>
      <trkpt lat="49.12094" lon="-1.42535">
        <ele>56.432617</ele>
        <time>2015-06-05T16:05:05Z</time>
      </trkpt>
      <trkpt lat="49.12094" lon="-1.42537">
        <ele>56.432617</ele>
        <time>2015-06-05T16:05:10Z</time>
      </trkpt>
      <trkpt lat="49.12093" lon="-1.42539">
        <ele>56.432617</ele>
        <time>2015-06-05T16:05:15Z</time>
      </trkpt>
      <trkpt lat="49.12094" lon="-1.42542">
        <ele>56.432617</ele>
        <time>2015-06-05T16:05:20Z</time>
      </trkpt>
      <trkpt lat="49.12096" lon="-1.42542">
        <ele>56.432617</ele>
        <time>2015-06-05T16:05:25Z</time>
      </trkpt>
      <trkpt lat="49.12096" lon="-1.42542">
        <ele>56.432617</ele>
        <time>2015-06-05T16:05:30Z</time>
      </trkpt>
      <trkpt lat="49.12095" lon="-1.42541">
        <ele>56.432617</ele>
        <time>2015-06-05T16:09:30Z</time>
      </trkpt>
      <trkpt lat="49.12095" lon="-1.4254">
        <ele>56.862762</ele>
        <time>2015-06-05T16:09:35Z</time>
      </trkpt>
      <trkpt lat="49.12095" lon="-1.4254">
        <ele>56.862762</ele>
        <time>2015-06-05T16:09:40Z</time>
      </trkpt>
      <trkpt lat="49.12095" lon="-1.42539">
        <ele>56.862762</ele>
        <time>2015-06-05T16:10:15Z</time>
      </trkpt>
      <trkpt lat="49.12093" lon="-1.42541">
        <ele>56.862762</ele>
        <time>2015-06-05T16:10:20Z</time>
      </trkpt>
      <trkpt lat="49.12093" lon="-1.42541">
        <ele>56.862762</ele>
        <time>2015-06-05T16:10:25Z</time>
      </trkpt>
      <trkpt lat="49.12094" lon="-1.42541">
        <ele>56.862762</ele>
        <time>2015-06-05T16:10:30Z</time>
      </trkpt>
      <trkpt lat="49.12094" lon="-1.42541">
        <ele>56.862762</ele>
        <time>2015-06-05T16:10:35Z</time>
      </trkpt>
      <trkpt lat="49.12094" lon="-1.42538">
        <ele>56.862762</ele>
        <time>2015-06-05T16:10:55Z</time>
      </trkpt>
      <trkpt lat="49.12098" lon="-1.42531">
        <ele>57.198425</ele>
        <time>2015-06-05T16:11:00Z</time>
      </trkpt>
      <trkpt lat="49.12103" lon="-1.42527">
        <ele>57.198425</ele>
        <time>2015-06-05T16:11:05Z</time>
      </trkpt>
      <trkpt lat="49.12107" lon="-1.42522">
        <ele>57.58955</ele>
        <time>2015-06-05T16:11:10Z</time>
      </trkpt>
      <trkpt lat="49.12112" lon="-1.42517">
        <ele>57.58955</ele>
        <time>2015-06-05T16:11:15Z</time>
      </trkpt>
      <trkpt lat="49.12116" lon="-1.42509">
        <ele>58.001953</ele>
        <time>2015-06-05T16:11:20Z</time>
      </trkpt>
      <trkpt lat="49.1212" lon="-1.42503">
        <ele>58.001953</ele>
        <time>2015-06-05T16:11:25Z</time>
      </trkpt>
      <trkpt lat="49.12125" lon="-1.42498">
        <ele>58.346268</ele>
        <time>2015-06-05T16:11:30Z</time>
      </trkpt>
      <trkpt lat="49.12128" lon="-1.42495">
        <ele>58.346268</ele>
        <time>2015-06-05T16:11:35Z</time>
      </trkpt>
      <trkpt lat="49.12134" lon="-1.42488">
        <ele>58.597515</ele>
        <time>2015-06-05T16:11:40Z</time>
      </trkpt>
      <trkpt lat="49.12139" lon="-1.42484">
        <ele>58.597515</ele>
        <time>2015-06-05T16:11:45Z</time>
      </trkpt>
      <trkpt lat="49.12144" lon="-1.42479">
        <ele>58.747227</ele>
        <time>2015-06-05T16:11:50Z</time>
      </trkpt>
      <trkpt lat="49.12148" lon="-1.42474">
        <ele>58.747227</ele>
        <time>2015-06-05T16:11:55Z</time>
      </trkpt>
      <trkpt lat="49.12152" lon="-1.42466">
        <ele>58.874313</ele>
        <time>2015-06-05T16:12:00Z</time>
      </trkpt>
      <trkpt lat="49.12156" lon="-1.4246">
        <ele>58.874313</ele>
        <time>2015-06-05T16:12:05Z</time>
      </trkpt>
      <trkpt lat="49.12159" lon="-1.42456">
        <ele>59.051952</ele>
        <time>2015-06-05T16:12:10Z</time>
      </trkpt>
      <trkpt lat="49.12162" lon="-1.42452">
        <ele>59.051952</ele>
        <time>2015-06-05T16:12:15Z</time>
      </trkpt>
      <trkpt lat="49.12165" lon="-1.42447">
        <ele>59.051952</ele>
        <time>2015-06-05T16:12:20Z</time>
      </trkpt>
      <trkpt lat="49.1217" lon="-1.4244">
        <ele>59.189293</ele>
        <time>2015-06-05T16:12:25Z</time>
      </trkpt>
      <trkpt lat="49.12175" lon="-1.42435">
        <ele>59.189293</ele>
        <time>2015-06-05T16:12:30Z</time>
      </trkpt>
      <trkpt lat="49.12178" lon="-1.42428">
        <ele>59.317566</ele>
        <time>2015-06-05T16:12:35Z</time>
      </trkpt>
      <trkpt lat="49.12182" lon="-1.42422">
        <ele>59.317566</ele>
        <time>2015-06-05T16:12:40Z</time>
      </trkpt>
      <trkpt lat="49.12185" lon="-1.42415">
        <ele>59.508984</ele>
        <time>2015-06-05T16:12:45Z</time>
      </trkpt>
      <trkpt lat="49.12191" lon="-1.42407">
        <ele>59.508984</ele>
        <time>2015-06-05T16:12:50Z</time>
      </trkpt>
      <trkpt lat="49.12196" lon="-1.42403">
        <ele>59.70058</ele>
        <time>2015-06-05T16:12:55Z</time>
      </trkpt>
      <trkpt lat="49.122" lon="-1.42396">
        <ele>59.70058</ele>
        <time>2015-06-05T16:13:00Z</time>
      </trkpt>
      <trkpt lat="49.12204" lon="-1.42389">
        <ele>59.848434</ele>
        <time>2015-06-05T16:13:05Z</time>
      </trkpt>
      <trkpt lat="49.12206" lon="-1.42384">
        <ele>59.848434</ele>
        <time>2015-06-05T16:13:10Z</time>
      </trkpt>
      <trkpt lat="49.12211" lon="-1.42374">
        <ele>59.955227</ele>
        <time>2015-06-05T16:13:15Z</time>
      </trkpt>
      <trkpt lat="49.12215" lon="-1.42366">
        <ele>59.955227</ele>
        <time>2015-06-05T16:13:20Z</time>
      </trkpt>
      <trkpt lat="49.12218" lon="-1.42357">
        <ele>59.95151</ele>
        <time>2015-06-05T16:13:25Z</time>
      </trkpt>
      <trkpt lat="49.1222" lon="-1.42348">
        <ele>59.95151</ele>
        <time>2015-06-05T16:13:30Z</time>
      </trkpt>
      <trkpt lat="49.12223" lon="-1.42339">
        <ele>59.96061</ele>
        <time>2015-06-05T16:13:35Z</time>
      </trkpt>
      <trkpt lat="49.12226" lon="-1.42333">
        <ele>59.96061</ele>
        <time>2015-06-05T16:13:40Z</time>
      </trkpt>
      <trkpt lat="49.12228" lon="-1.42323">
        <ele>59.866184</ele>
        <time>2015-06-05T16:13:45Z</time>
      </trkpt>
      <trkpt lat="49.12231" lon="-1.42316">
        <ele>59.866184</ele>
        <time>2015-06-05T16:13:50Z</time>
      </trkpt>
      <trkpt lat="49.12233" lon="-1.4231">
        <ele>59.79132</ele>
        <time>2015-06-05T16:13:55Z</time>
      </trkpt>
      <trkpt lat="49.12236" lon="-1.42301">
        <ele>59.79132</ele>
        <time>2015-06-05T16:14:00Z</time>
      </trkpt>
      <trkpt lat="49.1224" lon="-1.42289">
        <ele>59.705917</ele>
        <time>2015-06-05T16:14:05Z</time>
      </trkpt>
      <trkpt lat="49.12241" lon="-1.4228">
        <ele>59.705917</ele>
        <time>2015-06-05T16:14:10Z</time>
      </trkpt>
      <trkpt lat="49.12244" lon="-1.42272">
        <ele>59.66858</ele>
        <time>2015-06-05T16:14:15Z</time>
      </trkpt>
      <trkpt lat="49.12246" lon="-1.42265">
        <ele>59.66858</ele>
        <time>2015-06-05T16:14:20Z</time>
      </trkpt>
      <trkpt lat="49.12249" lon="-1.42255">
        <ele>59.70466</ele>
        <time>2015-06-05T16:14:25Z</time>
      </trkpt>
      <trkpt lat="49.12252" lon="-1.42246">
        <ele>59.70466</ele>
        <time>2015-06-05T16:14:30Z</time>
      </trkpt>
      <trkpt lat="49.12255" lon="-1.42237">
        <ele>59.750984</ele>
        <time>2015-06-05T16:14:35Z</time>
      </trkpt>
      <trkpt lat="49.12257" lon="-1.4223">
        <ele>59.750984</ele>
        <time>2015-06-05T16:14:40Z</time>
      </trkpt>
      <trkpt lat="49.12259" lon="-1.42222">
        <ele>59.749</ele>
        <time>2015-06-05T16:14:45Z</time>
      </trkpt>
      <trkpt lat="49.12262" lon="-1.42213">
        <ele>59.749</ele>
        <time>2015-06-05T16:14:50Z</time>
      </trkpt>
      <trkpt lat="49.12265" lon="-1.42204">
        <ele>59.731068</ele>
        <time>2015-06-05T16:14:55Z</time>
      </trkpt>
      <trkpt lat="49.12268" lon="-1.42194">
        <ele>59.731068</ele>
        <time>2015-06-05T16:15:00Z</time>
      </trkpt>
      <trkpt lat="49.1227" lon="-1.42187">
        <ele>59.683983</ele>
        <time>2015-06-05T16:15:05Z</time>
      </trkpt>
      <trkpt lat="49.12272" lon="-1.42179">
        <ele>59.683983</ele>
        <time>2015-06-05T16:15:10Z</time>
      </trkpt>
      <trkpt lat="49.12275" lon="-1.42169">
        <ele>59.595604</ele>
        <time>2015-06-05T16:15:15Z</time>
      </trkpt>
      <trkpt lat="49.12279" lon="-1.42164">
        <ele>59.595604</ele>
        <time>2015-06-05T16:15:20Z</time>
      </trkpt>
      <trkpt lat="49.12282" lon="-1.42157">
        <ele>59.512436</ele>
        <time>2015-06-05T16:15:25Z</time>
      </trkpt>
      <trkpt lat="49.12285" lon="-1.42147">
        <ele>59.512436</ele>
        <time>2015-06-05T16:15:30Z</time>
      </trkpt>
      <trkpt lat="49.1229" lon="-1.42138">
        <ele>59.362278</ele>
        <time>2015-06-05T16:15:35Z</time>
      </trkpt>
      <trkpt lat="49.12293" lon="-1.4213">
        <ele>59.362278</ele>
        <time>2015-06-05T16:15:40Z</time>
      </trkpt>
      <trkpt lat="49.12298" lon="-1.42121">
        <ele>59.107246</ele>
        <time>2015-06-05T16:15:45Z</time>
      </trkpt>
      <trkpt lat="49.12301" lon="-1.42114">
        <ele>59.107246</ele>
        <time>2015-06-05T16:15:50Z</time>
      </trkpt>
      <trkpt lat="49.12304" lon="-1.42106">
        <ele>58.798992</ele>
        <time>2015-06-05T16:15:55Z</time>
      </trkpt>
      <trkpt lat="49.12305" lon="-1.42099">
        <ele>58.798992</ele>
        <time>2015-06-05T16:16:00Z</time>
      </trkpt>
      <trkpt lat="49.12308" lon="-1.42089">
        <ele>58.341423</ele>
        <time>2015-06-05T16:16:05Z</time>
      </trkpt>
      <trkpt lat="49.12311" lon="-1.42082">
        <ele>58.341423</ele>
        <time>2015-06-05T16:16:10Z</time>
      </trkpt>
      <trkpt lat="49.12312" lon="-1.42071">
        <ele>57.67473</ele>
        <time>2015-06-05T16:16:15Z</time>
      </trkpt>
      <trkpt lat="49.12314" lon="-1.42063">
        <ele>57.67473</ele>
        <time>2015-06-05T16:16:20Z</time>
      </trkpt>
      <trkpt lat="49.12315" lon="-1.4206">
        <ele>57.67473</ele>
        <time>2015-06-05T16:16:25Z</time>
      </trkpt>
      <trkpt lat="49.12313" lon="-1.42059">
        <ele>56.98907</ele>
        <time>2015-06-05T16:16:30Z</time>
      </trkpt>
      <trkpt lat="49.1231" lon="-1.42058">
        <ele>56.98907</ele>
        <time>2015-06-05T16:16:35Z</time>
      </trkpt>
      <trkpt lat="49.12306" lon="-1.42054">
        <ele>56.98907</ele>
        <time>2015-06-05T16:16:40Z</time>
      </trkpt>
      <trkpt lat="49.12304" lon="-1.42051">
        <ele>56.82095</ele>
        <time>2015-06-05T16:16:45Z</time>
      </trkpt>
      <trkpt lat="49.12308" lon="-1.42046">
        <ele>56.82095</ele>
        <time>2015-06-05T16:16:50Z</time>
      </trkpt>
      <trkpt lat="49.1231" lon="-1.42047">
        <ele>56.82095</ele>
        <time>2015-06-05T16:16:55Z</time>
      </trkpt>
      <trkpt lat="49.12312" lon="-1.42046">
        <ele>56.902214</ele>
        <time>2015-06-05T16:17:00Z</time>
      </trkpt>
      <trkpt lat="49.12313" lon="-1.42048">
        <ele>56.902214</ele>
        <time>2015-06-05T16:17:05Z</time>
      </trkpt>
      <trkpt lat="49.12314" lon="-1.42049">
        <ele>56.902214</ele>
        <time>2015-06-05T16:17:10Z</time>
      </trkpt>
      <trkpt lat="49.12316" lon="-1.42051">
        <ele>56.902214</ele>
        <time>2015-06-05T16:17:15Z</time>
      </trkpt>
      <trkpt lat="49.12317" lon="-1.42052">
        <ele>56.902214</ele>
        <time>2015-06-05T16:17:20Z</time>
      </trkpt>
      <trkpt lat="49.12317" lon="-1.42052">
        <ele>56.902214</ele>
        <time>2015-06-05T16:17:25Z</time>
      </trkpt>
      <trkpt lat="49.12317" lon="-1.42058">
        <ele>56.781933</ele>
        <time>2015-06-05T16:17:30Z</time>
      </trkpt>
      <trkpt lat="49.12317" lon="-1.42058">
        <ele>56.781933</ele>
        <time>2015-06-05T16:17:35Z</time>
      </trkpt>
      <trkpt lat="49.12317" lon="-1.42058">
        <ele>56.781933</ele>
        <time>2015-06-05T16:17:40Z</time>
      </trkpt>
      <trkpt lat="49.12317" lon="-1.42057">
        <ele>56.781933</ele>
        <time>2015-06-05T16:17:45Z</time>
      </trkpt>
      <trkpt lat="49.12317" lon="-1.42057">
        <ele>56.781933</ele>
        <time>2015-06-05T16:17:50Z</time>
      </trkpt>
      <trkpt lat="49.12319" lon="-1.42054">
        <ele>56.781933</ele>
        <time>2015-06-05T16:18:55Z</time>
      </trkpt>
      <trkpt lat="49.12322" lon="-1.42052">
        <ele>56.781933</ele>
        <time>2015-06-05T16:19:00Z</time>
      </trkpt>
      <trkpt lat="49.12324" lon="-1.4205">
        <ele>56.806633</ele>
        <time>2015-06-05T16:19:05Z</time>
      </trkpt>
      <trkpt lat="49.12325" lon="-1.42049">
        <ele>56.806633</ele>
        <time>2015-06-05T16:19:10Z</time>
      </trkpt>
      <trkpt lat="49.12329" lon="-1.42048">
        <ele>56.806633</ele>
        <time>2015-06-05T16:19:15Z</time>
      </trkpt>
      <trkpt lat="49.12336" lon="-1.42047">
        <ele>56.864647</ele>
        <time>2015-06-05T16:19:20Z</time>
      </trkpt>
      <trkpt lat="49.12343" lon="-1.42047">
        <ele>56.864647</ele>
        <time>2015-06-05T16:19:25Z</time>
      </trkpt>
      <trkpt lat="49.12347" lon="-1.42048">
        <ele>56.8668</ele>
        <time>2015-06-05T16:19:30Z</time>
      </trkpt>
      <trkpt lat="49.12353" lon="-1.42048">
        <ele>56.8668</ele>
        <time>2015-06-05T16:19:35Z</time>
      </trkpt>
      <trkpt lat="49.12358" lon="-1.42049">
        <ele>56.745033</ele>
        <time>2015-06-05T16:19:40Z</time>
      </trkpt>
      <trkpt lat="49.12365" lon="-1.42052">
        <ele>56.745033</ele>
        <time>2015-06-05T16:19:45Z</time>
      </trkpt>
      <trkpt lat="49.12372" lon="-1.42052">
        <ele>56.551907</ele>
        <time>2015-06-05T16:19:50Z</time>
      </trkpt>
      <trkpt lat="49.12379" lon="-1.42053">
        <ele>56.551907</ele>
        <time>2015-06-05T16:19:55Z</time>
      </trkpt>
      <trkpt lat="49.12386" lon="-1.42056">
        <ele>56.494843</ele>
        <time>2015-06-05T16:20:00Z</time>
      </trkpt>
      <trkpt lat="49.12393" lon="-1.4206">
        <ele>56.494843</ele>
        <time>2015-06-05T16:20:05Z</time>
      </trkpt>
      <trkpt lat="49.12397" lon="-1.42065">
        <ele>56.53504</ele>
        <time>2015-06-05T16:20:10Z</time>
      </trkpt>
      <trkpt lat="49.12401" lon="-1.4207">
        <ele>56.53504</ele>
        <time>2015-06-05T16:20:15Z</time>
      </trkpt>
      <trkpt lat="49.12405" lon="-1.42074">
        <ele>56.66511</ele>
        <time>2015-06-05T16:20:20Z</time>
      </trkpt>
      <trkpt lat="49.12408" lon="-1.42077">
        <ele>56.66511</ele>
        <time>2015-06-05T16:20:25Z</time>
      </trkpt>
      <trkpt lat="49.12413" lon="-1.42081">
        <ele>56.79146</ele>
        <time>2015-06-05T16:20:30Z</time>
      </trkpt>
      <trkpt lat="49.12418" lon="-1.4209">
        <ele>56.79146</ele>
        <time>2015-06-05T16:20:35Z</time>
      </trkpt>
      <trkpt lat="49.12422" lon="-1.421">
        <ele>56.812973</ele>
        <time>2015-06-05T16:20:40Z</time>
      </trkpt>
      <trkpt lat="49.12424" lon="-1.42111">
        <ele>56.812973</ele>
        <time>2015-06-05T16:20:45Z</time>
      </trkpt>
      <trkpt lat="49.12427" lon="-1.42118">
        <ele>56.63625</ele>
        <time>2015-06-05T16:20:50Z</time>
      </trkpt>
      <trkpt lat="49.12429" lon="-1.42123">
        <ele>56.63625</ele>
        <time>2015-06-05T16:20:55Z</time>
      </trkpt>
      <trkpt lat="49.12435" lon="-1.4213">
        <ele>56.247368</ele>
        <time>2015-06-05T16:21:00Z</time>
      </trkpt>
      <trkpt lat="49.12437" lon="-1.42136">
        <ele>56.247368</ele>
        <time>2015-06-05T16:21:05Z</time>
      </trkpt>
      <trkpt lat="49.1244" lon="-1.42143">
        <ele>55.706055</ele>
        <time>2015-06-05T16:21:10Z</time>
      </trkpt>
      <trkpt lat="49.12441" lon="-1.42149">
        <ele>55.706055</ele>
        <time>2015-06-05T16:21:15Z</time>
      </trkpt>
      <trkpt lat="49.12444" lon="-1.42156">
        <ele>55.082497</ele>
        <time>2015-06-05T16:21:20Z</time>
      </trkpt>
      <trkpt lat="49.12447" lon="-1.42168">
        <ele>55.082497</ele>
        <time>2015-06-05T16:21:25Z</time>
      </trkpt>
      <trkpt lat="49.12453" lon="-1.42174">
        <ele>54.341057</ele>
        <time>2015-06-05T16:21:30Z</time>
      </trkpt>
      <trkpt lat="49.12457" lon="-1.4218">
        <ele>54.341057</ele>
        <time>2015-06-05T16:21:35Z</time>
      </trkpt>
      <trkpt lat="49.12463" lon="-1.42187">
        <ele>53.564335</ele>
        <time>2015-06-05T16:21:40Z</time>
      </trkpt>
      <trkpt lat="49.12465" lon="-1.42193">
        <ele>53.564335</ele>
        <time>2015-06-05T16:21:45Z</time>
      </trkpt>
      <trkpt lat="49.12469" lon="-1.422">
        <ele>52.713634</ele>
        <time>2015-06-05T16:21:50Z</time>
      </trkpt>
      <trkpt lat="49.12471" lon="-1.42208">
        <ele>52.713634</ele>
        <time>2015-06-05T16:21:55Z</time>
      </trkpt>
      <trkpt lat="49.12475" lon="-1.42218">
        <ele>51.825363</ele>
        <time>2015-06-05T16:22:00Z</time>
      </trkpt>
      <trkpt lat="49.12476" lon="-1.42226">
        <ele>51.825363</ele>
        <time>2015-06-05T16:22:05Z</time>
      </trkpt>
      <trkpt lat="49.12479" lon="-1.4223">
        <ele>50.933315</ele>
        <time>2015-06-05T16:22:10Z</time>
      </trkpt>
      <trkpt lat="49.12482" lon="-1.42236">
        <ele>50.933315</ele>
        <time>2015-06-05T16:22:15Z</time>
      </trkpt>
      <trkpt lat="49.12485" lon="-1.42239">
        <ele>50.126434</ele>
        <time>2015-06-05T16:22:20Z</time>
      </trkpt>
      <trkpt lat="49.12491" lon="-1.42251">
        <ele>49.414795</ele>
        <time>2015-06-05T16:22:25Z</time>
      </trkpt>
      <trkpt lat="49.125" lon="-1.42261">
        <ele>48.865074</ele>
        <time>2015-06-05T16:22:30Z</time>
      </trkpt>
      <trkpt lat="49.12504" lon="-1.42266">
        <ele>48.865074</ele>
        <time>2015-06-05T16:22:35Z</time>
      </trkpt>
      <trkpt lat="49.12507" lon="-1.42271">
        <ele>48.40886</ele>
        <time>2015-06-05T16:22:40Z</time>
      </trkpt>
      <trkpt lat="49.12508" lon="-1.42271">
        <ele>48.40886</ele>
        <time>2015-06-05T16:22:45Z</time>
      </trkpt>
      <trkpt lat="49.12508" lon="-1.42271">
        <ele>48.40886</ele>
        <time>2015-06-05T16:22:50Z</time>
      </trkpt>
      <trkpt lat="49.12508" lon="-1.42271">
        <ele>48.40886</ele>
        <time>2015-06-05T16:22:55Z</time>
      </trkpt>
      <trkpt lat="49.12509" lon="-1.42273">
        <ele>48.40886</ele>
        <time>2015-06-05T16:23:00Z</time>
      </trkpt>
      <trkpt lat="49.12512" lon="-1.42278">
        <ele>48.40886</ele>
        <time>2015-06-05T16:23:05Z</time>
      </trkpt>
      <trkpt lat="49.12521" lon="-1.42286">
        <ele>48.068916</ele>
        <time>2015-06-05T16:23:10Z</time>
      </trkpt>
      <trkpt lat="49.12524" lon="-1.42292">
        <ele>48.068916</ele>
        <time>2015-06-05T16:23:15Z</time>
      </trkpt>
      <trkpt lat="49.12523" lon="-1.42298">
        <ele>48.068916</ele>
        <time>2015-06-05T16:23:20Z</time>
      </trkpt>
      <trkpt lat="49.12525" lon="-1.42303">
        <ele>47.96686</ele>
        <time>2015-06-05T16:23:25Z</time>
      </trkpt>
      <trkpt lat="49.1253" lon="-1.42311">
        <ele>47.96686</ele>
        <time>2015-06-05T16:23:30Z</time>
      </trkpt>
      <trkpt lat="49.12533" lon="-1.42316">
        <ele>47.98409</ele>
        <time>2015-06-05T16:23:35Z</time>
      </trkpt>
      <trkpt lat="49.12533" lon="-1.42316">
        <ele>47.98409</ele>
        <time>2015-06-05T16:23:40Z</time>
      </trkpt>
      <trkpt lat="49.12534" lon="-1.42316">
        <ele>47.98409</ele>
        <time>2015-06-05T16:24:25Z</time>
      </trkpt>
      <trkpt lat="49.12535" lon="-1.42325">
        <ele>47.98409</ele>
        <time>2015-06-05T16:24:30Z</time>
      </trkpt>
      <trkpt lat="49.12535" lon="-1.42325">
        <ele>47.98409</ele>
        <time>2015-06-05T16:24:35Z</time>
      </trkpt>
      <trkpt lat="49.12535" lon="-1.42327">
        <ele>47.98409</ele>
        <time>2015-06-05T16:24:40Z</time>
      </trkpt>
      <trkpt lat="49.12535" lon="-1.42327">
        <ele>47.98409</ele>
        <time>2015-06-05T16:24:45Z</time>
      </trkpt>
      <trkpt lat="49.12536" lon="-1.42328">
        <ele>48.529137</ele>
        <time>2015-06-05T16:24:50Z</time>
      </trkpt>
      <trkpt lat="49.12536" lon="-1.42328">
        <ele>48.529137</ele>
        <time>2015-06-05T16:24:55Z</time>
      </trkpt>
      <trkpt lat="49.12538" lon="-1.4233">
        <ele>48.529137</ele>
        <time>2015-06-05T16:25:15Z</time>
      </trkpt>
      <trkpt lat="49.12538" lon="-1.4233">
        <ele>48.529137</ele>
        <time>2015-06-05T16:25:20Z</time>
      </trkpt>
      <trkpt lat="49.12541" lon="-1.42335">
        <ele>48.529137</ele>
        <time>2015-06-05T16:25:25Z</time>
      </trkpt>
      <trkpt lat="49.12547" lon="-1.42347">
        <ele>49.647575</ele>
        <time>2015-06-05T16:25:30Z</time>
      </trkpt>
      <trkpt lat="49.12552" lon="-1.42353">
        <ele>49.647575</ele>
        <time>2015-06-05T16:25:35Z</time>
      </trkpt>
      <trkpt lat="49.12552" lon="-1.42354">
        <ele>49.647575</ele>
        <time>2015-06-05T16:25:40Z</time>
      </trkpt>
      <trkpt lat="49.12553" lon="-1.42358">
        <ele>51.048534</ele>
        <time>2015-06-05T16:25:50Z</time>
      </trkpt>
      <trkpt lat="49.12554" lon="-1.42361">
        <ele>51.048534</ele>
        <time>2015-06-05T16:25:55Z</time>
      </trkpt>
      <trkpt lat="49.1256" lon="-1.42372">
        <ele>52.591415</ele>
        <time>2015-06-05T16:26:00Z</time>
      </trkpt>
      <trkpt lat="49.1256" lon="-1.42372">
        <ele>52.591415</ele>
        <time>2015-06-05T16:26:05Z</time>
      </trkpt>
      <trkpt lat="49.1256" lon="-1.42372">
        <ele>52.591415</ele>
        <time>2015-06-05T16:26:10Z</time>
      </trkpt>
      <trkpt lat="49.1256" lon="-1.42373">
        <ele>52.591415</ele>
        <time>2015-06-05T16:26:30Z</time>
      </trkpt>
      <trkpt lat="49.12559" lon="-1.42373">
        <ele>52.591415</ele>
        <time>2015-06-05T16:26:35Z</time>
      </trkpt>
      <trkpt lat="49.12558" lon="-1.42373">
        <ele>52.591415</ele>
        <time>2015-06-05T16:26:40Z</time>
      </trkpt>
      <trkpt lat="49.12557" lon="-1.42372">
        <ele>52.591415</ele>
        <time>2015-06-05T16:26:45Z</time>
      </trkpt>
      <trkpt lat="49.12556" lon="-1.42371">
        <ele>52.591415</ele>
        <time>2015-06-05T16:26:50Z</time>
      </trkpt>
      <trkpt lat="49.12555" lon="-1.42371">
        <ele>52.591415</ele>
        <time>2015-06-05T16:26:55Z</time>
      </trkpt>
      <trkpt lat="49.12555" lon="-1.42371">
        <ele>52.591415</ele>
        <time>2015-06-05T16:27:00Z</time>
      </trkpt>
      <trkpt lat="49.12555" lon="-1.42371">
        <ele>52.591415</ele>
        <time>2015-06-05T16:27:05Z</time>
      </trkpt>
      <trkpt lat="49.12556" lon="-1.42371">
        <ele>52.591415</ele>
        <time>2015-06-05T16:27:10Z</time>
      </trkpt>
      <trkpt lat="49.12556" lon="-1.42371">
        <ele>52.591415</ele>
        <time>2015-06-05T16:27:15Z</time>
      </trkpt>
      <trkpt lat="49.12558" lon="-1.42372">
        <ele>53.814102</ele>
        <time>2015-06-05T16:27:35Z</time>
      </trkpt>
      <trkpt lat="49.12558" lon="-1.42372">
        <ele>53.814102</ele>
        <time>2015-06-05T16:27:40Z</time>
      </trkpt>
      <trkpt lat="49.1256" lon="-1.42373">
        <ele>53.814102</ele>
        <time>2015-06-05T16:28:10Z</time>
      </trkpt>
      <trkpt lat="49.1256" lon="-1.42373">
        <ele>53.814102</ele>
        <time>2015-06-05T16:28:15Z</time>
      </trkpt>
      <trkpt lat="49.12562" lon="-1.42376">
        <ele>53.814102</ele>
        <time>2015-06-05T16:28:25Z</time>
      </trkpt>
      <trkpt lat="49.12562" lon="-1.42376">
        <ele>53.814102</ele>
        <time>2015-06-05T16:28:30Z</time>
      </trkpt>
      <trkpt lat="49.12562" lon="-1.42376">
        <ele>53.814102</ele>
        <time>2015-06-05T16:28:35Z</time>
      </trkpt>
      <trkpt lat="49.12563" lon="-1.42377">
        <ele>53.814102</ele>
        <time>2015-06-05T16:28:40Z</time>
      </trkpt>
      <trkpt lat="49.12563" lon="-1.42377">
        <ele>53.814102</ele>
        <time>2015-06-05T16:28:45Z</time>
      </trkpt>
      <trkpt lat="49.12563" lon="-1.42376">
        <ele>53.814102</ele>
        <time>2015-06-05T16:28:50Z</time>
      </trkpt>
      <trkpt lat="49.12562" lon="-1.42379">
        <ele>53.814102</ele>
        <time>2015-06-05T16:28:55Z</time>
      </trkpt>
      <trkpt lat="49.12566" lon="-1.42385">
        <ele>54.865784</ele>
        <time>2015-06-05T16:29:00Z</time>
      </trkpt>
      <trkpt lat="49.12569" lon="-1.42392">
        <ele>54.865784</ele>
        <time>2015-06-05T16:29:05Z</time>
      </trkpt>
      <trkpt lat="49.12569" lon="-1.42392">
        <ele>54.865784</ele>
        <time>2015-06-05T16:29:10Z</time>
      </trkpt>
      <trkpt lat="49.12572" lon="-1.42391">
        <ele>54.865784</ele>
        <time>2015-06-05T16:29:20Z</time>
      </trkpt>
      <trkpt lat="49.12576" lon="-1.42393">
        <ele>55.856377</ele>
        <time>2015-06-05T16:29:25Z</time>
      </trkpt>
      <trkpt lat="49.12576" lon="-1.42392">
        <ele>55.856377</ele>
        <time>2015-06-05T16:29:30Z</time>
      </trkpt>
      <trkpt lat="49.12576" lon="-1.42392">
        <ele>55.856377</ele>
        <time>2015-06-05T16:29:35Z</time>
      </trkpt>
      <trkpt lat="49.12579" lon="-1.42391">
        <ele>55.856377</ele>
        <time>2015-06-05T16:29:45Z</time>
      </trkpt>
      <trkpt lat="49.12582" lon="-1.42392">
        <ele>55.856377</ele>
        <time>2015-06-05T16:29:50Z</time>
      </trkpt>
      <trkpt lat="49.12585" lon="-1.42392">
        <ele>56.51324</ele>
        <time>2015-06-05T16:29:55Z</time>
      </trkpt>
      <trkpt lat="49.1259" lon="-1.42394">
        <ele>56.51324</ele>
        <time>2015-06-05T16:30:00Z</time>
      </trkpt>
      <trkpt lat="49.12599" lon="-1.42402">
        <ele>57.29089</ele>
        <time>2015-06-05T16:30:05Z</time>
      </trkpt>
      <trkpt lat="49.12605" lon="-1.42405">
        <ele>57.29089</ele>
        <time>2015-06-05T16:30:10Z</time>
      </trkpt>
      <trkpt lat="49.12611" lon="-1.42405">
        <ele>58.163414</ele>
        <time>2015-06-05T16:30:15Z</time>
      </trkpt>
      <trkpt lat="49.12616" lon="-1.42402">
        <ele>58.163414</ele>
        <time>2015-06-05T16:30:20Z</time>
      </trkpt>
      <trkpt lat="49.12623" lon="-1.42399">
        <ele>58.93367</ele>
        <time>2015-06-05T16:30:25Z</time>
      </trkpt>
      <trkpt lat="49.12629" lon="-1.42395">
        <ele>58.93367</ele>
        <time>2015-06-05T16:30:30Z</time>
      </trkpt>
      <trkpt lat="49.12634" lon="-1.4239">
        <ele>59.520206</ele>
        <time>2015-06-05T16:30:35Z</time>
      </trkpt>
      <trkpt lat="49.12637" lon="-1.42387">
        <ele>59.520206</ele>
        <time>2015-06-05T16:30:40Z</time>
      </trkpt>
      <trkpt lat="49.1264" lon="-1.42381">
        <ele>59.876957</ele>
        <time>2015-06-05T16:30:45Z</time>
      </trkpt>
      <trkpt lat="49.12643" lon="-1.42372">
        <ele>59.876957</ele>
        <time>2015-06-05T16:30:50Z</time>
      </trkpt>
      <trkpt lat="49.12644" lon="-1.42361">
        <ele>60.019596</ele>
        <time>2015-06-05T16:30:55Z</time>
      </trkpt>
      <trkpt lat="49.12645" lon="-1.42351">
        <ele>60.019596</ele>
        <time>2015-06-05T16:31:00Z</time>
      </trkpt>
      <trkpt lat="49.12646" lon="-1.42345">
        <ele>59.977707</ele>
        <time>2015-06-05T16:31:05Z</time>
      </trkpt>
      <trkpt lat="49.12649" lon="-1.42334">
        <ele>59.977707</ele>
        <time>2015-06-05T16:31:10Z</time>
      </trkpt>
      <trkpt lat="49.12651" lon="-1.4233">
        <ele>59.822517</ele>
        <time>2015-06-05T16:31:15Z</time>
      </trkpt>
      <trkpt lat="49.12652" lon="-1.42323">
        <ele>59.822517</ele>
        <time>2015-06-05T16:31:20Z</time>
      </trkpt>
      <trkpt lat="49.12655" lon="-1.42314">
        <ele>59.40422</ele>
        <time>2015-06-05T16:31:25Z</time>
      </trkpt>
      <trkpt lat="49.12659" lon="-1.42305">
        <ele>59.40422</ele>
        <time>2015-06-05T16:31:30Z</time>
      </trkpt>
      <trkpt lat="49.12662" lon="-1.42295">
        <ele>58.887432</ele>
        <time>2015-06-05T16:31:35Z</time>
      </trkpt>
      <trkpt lat="49.12666" lon="-1.42285">
        <ele>58.887432</ele>
        <time>2015-06-05T16:31:40Z</time>
      </trkpt>
      <trkpt lat="49.12667" lon="-1.42277">
        <ele>58.41059</ele>
        <time>2015-06-05T16:31:45Z</time>
      </trkpt>
      <trkpt lat="49.12669" lon="-1.42268">
        <ele>58.41059</ele>
        <time>2015-06-05T16:31:50Z</time>
      </trkpt>
      <trkpt lat="49.12672" lon="-1.42263">
        <ele>57.957764</ele>
        <time>2015-06-05T16:31:55Z</time>
      </trkpt>
      <trkpt lat="49.12674" lon="-1.42255">
        <ele>57.957764</ele>
        <time>2015-06-05T16:32:00Z</time>
      </trkpt>
      <trkpt lat="49.12676" lon="-1.42249">
        <ele>57.42769</ele>
        <time>2015-06-05T16:32:05Z</time>
      </trkpt>
      <trkpt lat="49.1268" lon="-1.42242">
        <ele>57.42769</ele>
        <time>2015-06-05T16:32:10Z</time>
      </trkpt>
      <trkpt lat="49.12681" lon="-1.42242">
        <ele>57.42769</ele>
        <time>2015-06-05T16:32:15Z</time>
      </trkpt>
      <trkpt lat="49.12681" lon="-1.42241">
        <ele>57.42769</ele>
        <time>2015-06-05T16:32:20Z</time>
      </trkpt>
      <trkpt lat="49.12681" lon="-1.42239">
        <ele>57.42769</ele>
        <time>2015-06-05T16:32:25Z</time>
      </trkpt>
      <trkpt lat="49.12681" lon="-1.4224">
        <ele>56.611492</ele>
        <time>2015-06-05T16:32:30Z</time>
      </trkpt>
      <trkpt lat="49.12682" lon="-1.42241">
        <ele>56.611492</ele>
        <time>2015-06-05T16:32:35Z</time>
      </trkpt>
      <trkpt lat="49.12682" lon="-1.42238">
        <ele>56.611492</ele>
        <time>2015-06-05T16:32:40Z</time>
      </trkpt>
      <trkpt lat="49.12681" lon="-1.42236">
        <ele>56.611492</ele>
        <time>2015-06-05T16:32:45Z</time>
      </trkpt>
      <trkpt lat="49.12685" lon="-1.42231">
        <ele>55.54703</ele>
        <time>2015-06-05T16:32:50Z</time>
      </trkpt>
      <trkpt lat="49.12689" lon="-1.42225">
        <ele>55.54703</ele>
        <time>2015-06-05T16:32:55Z</time>
      </trkpt>
      <trkpt lat="49.12693" lon="-1.42219">
        <ele>54.5439</ele>
        <time>2015-06-05T16:33:00Z</time>
      </trkpt>
      <trkpt lat="49.12694" lon="-1.42217">
        <ele>54.5439</ele>
        <time>2015-06-05T16:33:05Z</time>
      </trkpt>
      <trkpt lat="49.12694" lon="-1.42216">
        <ele>54.5439</ele>
        <time>2015-06-05T16:33:10Z</time>
      </trkpt>
      <trkpt lat="49.12694" lon="-1.42215">
        <ele>54.5439</ele>
        <time>2015-06-05T16:33:15Z</time>
      </trkpt>
      <trkpt lat="49.12695" lon="-1.42213">
        <ele>54.5439</ele>
        <time>2015-06-05T16:33:20Z</time>
      </trkpt>
      <trkpt lat="49.12697" lon="-1.42205">
        <ele>53.456432</ele>
        <time>2015-06-05T16:33:25Z</time>
      </trkpt>
      <trkpt lat="49.12699" lon="-1.42199">
        <ele>53.456432</ele>
        <time>2015-06-05T16:33:30Z</time>
      </trkpt>
      <trkpt lat="49.12701" lon="-1.42192">
        <ele>52.42371</ele>
        <time>2015-06-05T16:33:35Z</time>
      </trkpt>
      <trkpt lat="49.12703" lon="-1.42183">
        <ele>52.42371</ele>
        <time>2015-06-05T16:33:40Z</time>
      </trkpt>
      <trkpt lat="49.12705" lon="-1.42173">
        <ele>51.473534</ele>
        <time>2015-06-05T16:33:45Z</time>
      </trkpt>
      <trkpt lat="49.12707" lon="-1.42165">
        <ele>51.473534</ele>
        <time>2015-06-05T16:33:50Z</time>
      </trkpt>
      <trkpt lat="49.1271" lon="-1.42157">
        <ele>50.64582</ele>
        <time>2015-06-05T16:33:55Z</time>
      </trkpt>
      <trkpt lat="49.12713" lon="-1.42147">
        <ele>50.64582</ele>
        <time>2015-06-05T16:34:00Z</time>
      </trkpt>
      <trkpt lat="49.12716" lon="-1.42138">
        <ele>49.962765</ele>
        <time>2015-06-05T16:34:05Z</time>
      </trkpt>
      <trkpt lat="49.12718" lon="-1.4213">
        <ele>49.962765</ele>
        <time>2015-06-05T16:34:10Z</time>
      </trkpt>
      <trkpt lat="49.12721" lon="-1.42122">
        <ele>49.44449</ele>
        <time>2015-06-05T16:34:15Z</time>
      </trkpt>
      <trkpt lat="49.12722" lon="-1.42117">
        <ele>49.44449</ele>
        <time>2015-06-05T16:34:20Z</time>
      </trkpt>
      <trkpt lat="49.12725" lon="-1.42109">
        <ele>49.051483</ele>
        <time>2015-06-05T16:34:25Z</time>
      </trkpt>
      <trkpt lat="49.12727" lon="-1.42101">
        <ele>49.051483</ele>
        <time>2015-06-05T16:34:30Z</time>
      </trkpt>
      <trkpt lat="49.1273" lon="-1.42092">
        <ele>48.804394</ele>
        <time>2015-06-05T16:34:35Z</time>
      </trkpt>
      <trkpt lat="49.12732" lon="-1.42082">
        <ele>48.804394</ele>
        <time>2015-06-05T16:34:40Z</time>
      </trkpt>
      <trkpt lat="49.12734" lon="-1.42074">
        <ele>48.72191</ele>
        <time>2015-06-05T16:34:45Z</time>
      </trkpt>
      <trkpt lat="49.12736" lon="-1.42069">
        <ele>48.72191</ele>
        <time>2015-06-05T16:34:50Z</time>
      </trkpt>
      <trkpt lat="49.12738" lon="-1.42062">
        <ele>48.72191</ele>
        <time>2015-06-05T16:34:55Z</time>
      </trkpt>
      <trkpt lat="49.1274" lon="-1.42055">
        <ele>48.80641</ele>
        <time>2015-06-05T16:35:00Z</time>
      </trkpt>
      <trkpt lat="49.12742" lon="-1.42045">
        <ele>48.80641</ele>
        <time>2015-06-05T16:35:05Z</time>
      </trkpt>
      <trkpt lat="49.12744" lon="-1.42038">
        <ele>49.016384</ele>
        <time>2015-06-05T16:35:10Z</time>
      </trkpt>
      <trkpt lat="49.12746" lon="-1.4203">
        <ele>49.016384</ele>
        <time>2015-06-05T16:35:15Z</time>
      </trkpt>
      <trkpt lat="49.12747" lon="-1.42021">
        <ele>49.31297</ele>
        <time>2015-06-05T16:35:20Z</time>
      </trkpt>
      <trkpt lat="49.12748" lon="-1.42014">
        <ele>49.31297</ele>
        <time>2015-06-05T16:35:25Z</time>
      </trkpt>
      <trkpt lat="49.1275" lon="-1.42006">
        <ele>49.659893</ele>
        <time>2015-06-05T16:35:30Z</time>
      </trkpt>
      <trkpt lat="49.12753" lon="-1.41998">
        <ele>49.659893</ele>
        <time>2015-06-05T16:35:35Z</time>
      </trkpt>
      <trkpt lat="49.12755" lon="-1.4199">
        <ele>50.12426</ele>
        <time>2015-06-05T16:35:40Z</time>
      </trkpt>
      <trkpt lat="49.12756" lon="-1.41979">
        <ele>50.12426</ele>
        <time>2015-06-05T16:35:45Z</time>
      </trkpt>
      <trkpt lat="49.12759" lon="-1.41974">
        <ele>50.62378</ele>
        <time>2015-06-05T16:35:50Z</time>
      </trkpt>
      <trkpt lat="49.1276" lon="-1.41966">
        <ele>50.62378</ele>
        <time>2015-06-05T16:35:55Z</time>
      </trkpt>
      <trkpt lat="49.12762" lon="-1.41956">
        <ele>51.13975</ele>
        <time>2015-06-05T16:36:00Z</time>
      </trkpt>
      <trkpt lat="49.12763" lon="-1.41948">
        <ele>51.13975</ele>
        <time>2015-06-05T16:36:05Z</time>
      </trkpt>
      <trkpt lat="49.12765" lon="-1.41942">
        <ele>51.69802</ele>
        <time>2015-06-05T16:36:10Z</time>
      </trkpt>
      <trkpt lat="49.12767" lon="-1.41934">
        <ele>51.69802</ele>
        <time>2015-06-05T16:36:15Z</time>
      </trkpt>
      <trkpt lat="49.1277" lon="-1.41925">
        <ele>52.2936</ele>
        <time>2015-06-05T16:36:20Z</time>
      </trkpt>
      <trkpt lat="49.12773" lon="-1.41918">
        <ele>52.2936</ele>
        <time>2015-06-05T16:36:25Z</time>
      </trkpt>
      <trkpt lat="49.12775" lon="-1.41911">
        <ele>52.892937</ele>
        <time>2015-06-05T16:36:30Z</time>
      </trkpt>
      <trkpt lat="49.12776" lon="-1.41903">
        <ele>52.892937</ele>
        <time>2015-06-05T16:36:35Z</time>
      </trkpt>
      <trkpt lat="49.12778" lon="-1.41895">
        <ele>53.522606</ele>
        <time>2015-06-05T16:36:40Z</time>
      </trkpt>
      <trkpt lat="49.12779" lon="-1.41889">
        <ele>53.522606</ele>
        <time>2015-06-05T16:36:45Z</time>
      </trkpt>
      <trkpt lat="49.12781" lon="-1.41881">
        <ele>54.16391</ele>
        <time>2015-06-05T16:36:50Z</time>
      </trkpt>
      <trkpt lat="49.12784" lon="-1.41873">
        <ele>54.16391</ele>
        <time>2015-06-05T16:36:55Z</time>
      </trkpt>
      <trkpt lat="49.12787" lon="-1.41867">
        <ele>54.79952</ele>
        <time>2015-06-05T16:37:00Z</time>
      </trkpt>
      <trkpt lat="49.12791" lon="-1.4186">
        <ele>54.79952</ele>
        <time>2015-06-05T16:37:05Z</time>
      </trkpt>
      <trkpt lat="49.12795" lon="-1.41853">
        <ele>55.427834</ele>
        <time>2015-06-05T16:37:10Z</time>
      </trkpt>
      <trkpt lat="49.12799" lon="-1.41848">
        <ele>55.427834</ele>
        <time>2015-06-05T16:37:15Z</time>
      </trkpt>
      <trkpt lat="49.12803" lon="-1.41842">
        <ele>56.04742</ele>
        <time>2015-06-05T16:37:20Z</time>
      </trkpt>
      <trkpt lat="49.12808" lon="-1.41837">
        <ele>56.04742</ele>
        <time>2015-06-05T16:37:25Z</time>
      </trkpt>
      <trkpt lat="49.12812" lon="-1.41833">
        <ele>56.628185</ele>
        <time>2015-06-05T16:37:30Z</time>
      </trkpt>
      <trkpt lat="49.12817" lon="-1.41826">
        <ele>56.628185</ele>
        <time>2015-06-05T16:37:35Z</time>
      </trkpt>
      <trkpt lat="49.12822" lon="-1.41822">
        <ele>57.22885</ele>
        <time>2015-06-05T16:37:40Z</time>
      </trkpt>
      <trkpt lat="49.12827" lon="-1.41818">
        <ele>57.22885</ele>
        <time>2015-06-05T16:37:45Z</time>
      </trkpt>
      <trkpt lat="49.12831" lon="-1.41814">
        <ele>57.831768</ele>
        <time>2015-06-05T16:37:50Z</time>
      </trkpt>
      <trkpt lat="49.12833" lon="-1.41814">
        <ele>57.831768</ele>
        <time>2015-06-05T16:37:55Z</time>
      </trkpt>
      <trkpt lat="49.12836" lon="-1.41813">
        <ele>57.831768</ele>
        <time>2015-06-05T16:38:00Z</time>
      </trkpt>
      <trkpt lat="49.12841" lon="-1.4181">
        <ele>58.42061</ele>
        <time>2015-06-05T16:38:05Z</time>
      </trkpt>
      <trkpt lat="49.12847" lon="-1.41806">
        <ele>58.42061</ele>
        <time>2015-06-05T16:38:10Z</time>
      </trkpt>
      <trkpt lat="49.12853" lon="-1.41804">
        <ele>58.98033</ele>
        <time>2015-06-05T16:38:15Z</time>
      </trkpt>
      <trkpt lat="49.12858" lon="-1.41801">
        <ele>58.98033</ele>
        <time>2015-06-05T16:38:20Z</time>
      </trkpt>
      <trkpt lat="49.12864" lon="-1.41796">
        <ele>59.540356</ele>
        <time>2015-06-05T16:38:25Z</time>
      </trkpt>
      <trkpt lat="49.12871" lon="-1.41793">
        <ele>59.540356</ele>
        <time>2015-06-05T16:38:30Z</time>
      </trkpt>
      <trkpt lat="49.12877" lon="-1.4179">
        <ele>60.15682</ele>
        <time>2015-06-05T16:38:35Z</time>
      </trkpt>
      <trkpt lat="49.12881" lon="-1.41787">
        <ele>60.15682</ele>
        <time>2015-06-05T16:38:40Z</time>
      </trkpt>
      <trkpt lat="49.12887" lon="-1.41786">
        <ele>60.751907</ele>
        <time>2015-06-05T16:38:45Z</time>
      </trkpt>
      <trkpt lat="49.12891" lon="-1.41784">
        <ele>60.751907</ele>
        <time>2015-06-05T16:38:50Z</time>
      </trkpt>
      <trkpt lat="49.12898" lon="-1.41778">
        <ele>61.311295</ele>
        <time>2015-06-05T16:38:55Z</time>
      </trkpt>
      <trkpt lat="49.12902" lon="-1.41775">
        <ele>61.311295</ele>
        <time>2015-06-05T16:39:00Z</time>
      </trkpt>
      <trkpt lat="49.12908" lon="-1.41771">
        <ele>61.79302</ele>
        <time>2015-06-05T16:39:05Z</time>
      </trkpt>
      <trkpt lat="49.12914" lon="-1.41768">
        <ele>61.79302</ele>
        <time>2015-06-05T16:39:10Z</time>
      </trkpt>
      <trkpt lat="49.1292" lon="-1.41765">
        <ele>62.259357</ele>
        <time>2015-06-05T16:39:15Z</time>
      </trkpt>
      <trkpt lat="49.12926" lon="-1.41763">
        <ele>62.259357</ele>
        <time>2015-06-05T16:39:20Z</time>
      </trkpt>
      <trkpt lat="49.12932" lon="-1.41761">
        <ele>62.66722</ele>
        <time>2015-06-05T16:39:25Z</time>
      </trkpt>
      <trkpt lat="49.12939" lon="-1.41759">
        <ele>62.66722</ele>
        <time>2015-06-05T16:39:30Z</time>
      </trkpt>
      <trkpt lat="49.12943" lon="-1.41756">
        <ele>63.048954</ele>
        <time>2015-06-05T16:39:35Z</time>
      </trkpt>
      <trkpt lat="49.12945" lon="-1.41748">
        <ele>63.048954</ele>
        <time>2015-06-05T16:39:40Z</time>
      </trkpt>
      <trkpt lat="49.12948" lon="-1.41741">
        <ele>63.377003</ele>
        <time>2015-06-05T16:39:45Z</time>
      </trkpt>
      <trkpt lat="49.12951" lon="-1.41733">
        <ele>63.377003</ele>
        <time>2015-06-05T16:39:50Z</time>
      </trkpt>
      <trkpt lat="49.12953" lon="-1.41726">
        <ele>63.669262</ele>
        <time>2015-06-05T16:39:55Z</time>
      </trkpt>
      <trkpt lat="49.12954" lon="-1.41718">
        <ele>63.669262</ele>
        <time>2015-06-05T16:40:00Z</time>
      </trkpt>
      <trkpt lat="49.12955" lon="-1.41711">
        <ele>63.942467</ele>
        <time>2015-06-05T16:40:05Z</time>
      </trkpt>
      <trkpt lat="49.12957" lon="-1.41706">
        <ele>63.942467</ele>
        <time>2015-06-05T16:40:10Z</time>
      </trkpt>
      <trkpt lat="49.1296" lon="-1.41696">
        <ele>64.168976</ele>
        <time>2015-06-05T16:40:15Z</time>
      </trkpt>
      <trkpt lat="49.12963" lon="-1.41689">
        <ele>64.168976</ele>
        <time>2015-06-05T16:40:20Z</time>
      </trkpt>
      <trkpt lat="49.12966" lon="-1.41683">
        <ele>64.35216</ele>
        <time>2015-06-05T16:40:25Z</time>
      </trkpt>
      <trkpt lat="49.12969" lon="-1.41673">
        <ele>64.35216</ele>
        <time>2015-06-05T16:40:30Z</time>
      </trkpt>
      <trkpt lat="49.12971" lon="-1.41666">
        <ele>64.53856</ele>
        <time>2015-06-05T16:40:35Z</time>
      </trkpt>
      <trkpt lat="49.12973" lon="-1.4166">
        <ele>64.53856</ele>
        <time>2015-06-05T16:40:40Z</time>
      </trkpt>
      <trkpt lat="49.12977" lon="-1.41648">
        <ele>64.75688</ele>
        <time>2015-06-05T16:40:45Z</time>
      </trkpt>
      <trkpt lat="49.1298" lon="-1.41642">
        <ele>64.75688</ele>
        <time>2015-06-05T16:40:50Z</time>
      </trkpt>
      <trkpt lat="49.12983" lon="-1.41634">
        <ele>65.03368</ele>
        <time>2015-06-05T16:40:55Z</time>
      </trkpt>
      <trkpt lat="49.12986" lon="-1.41626">
        <ele>65.03368</ele>
        <time>2015-06-05T16:41:00Z</time>
      </trkpt>
      <trkpt lat="49.12988" lon="-1.41616">
        <ele>65.451065</ele>
        <time>2015-06-05T16:41:05Z</time>
      </trkpt>
      <trkpt lat="49.1299" lon="-1.41608">
        <ele>65.451065</ele>
        <time>2015-06-05T16:41:10Z</time>
      </trkpt>
      <trkpt lat="49.12991" lon="-1.416">
        <ele>65.86858</ele>
        <time>2015-06-05T16:41:15Z</time>
      </trkpt>
      <trkpt lat="49.12992" lon="-1.41593">
        <ele>65.86858</ele>
        <time>2015-06-05T16:41:20Z</time>
      </trkpt>
      <trkpt lat="49.12994" lon="-1.41584">
        <ele>66.21375</ele>
        <time>2015-06-05T16:41:25Z</time>
      </trkpt>
      <trkpt lat="49.12997" lon="-1.41576">
        <ele>66.21375</ele>
        <time>2015-06-05T16:41:30Z</time>
      </trkpt>
      <trkpt lat="49.13" lon="-1.41569">
        <ele>66.53495</ele>
        <time>2015-06-05T16:41:35Z</time>
      </trkpt>
      <trkpt lat="49.13003" lon="-1.41559">
        <ele>66.53495</ele>
        <time>2015-06-05T16:41:40Z</time>
      </trkpt>
      <trkpt lat="49.13004" lon="-1.41552">
        <ele>66.84826</ele>
        <time>2015-06-05T16:41:45Z</time>
      </trkpt>
      <trkpt lat="49.13006" lon="-1.41544">
        <ele>66.84826</ele>
        <time>2015-06-05T16:41:50Z</time>
      </trkpt>
      <trkpt lat="49.13008" lon="-1.41536">
        <ele>67.13979</ele>
        <time>2015-06-05T16:41:55Z</time>
      </trkpt>
      <trkpt lat="49.13012" lon="-1.41527">
        <ele>67.13979</ele>
        <time>2015-06-05T16:42:00Z</time>
      </trkpt>
      <trkpt lat="49.13015" lon="-1.41517">
        <ele>67.497665</ele>
        <time>2015-06-05T16:42:05Z</time>
      </trkpt>
      <trkpt lat="49.13017" lon="-1.41508">
        <ele>67.497665</ele>
        <time>2015-06-05T16:42:10Z</time>
      </trkpt>
      <trkpt lat="49.13018" lon="-1.41499">
        <ele>67.90245</ele>
        <time>2015-06-05T16:42:15Z</time>
      </trkpt>
      <trkpt lat="49.1302" lon="-1.41492">
        <ele>67.90245</ele>
        <time>2015-06-05T16:42:20Z</time>
      </trkpt>
      <trkpt lat="49.1302" lon="-1.41485">
        <ele>68.29281</ele>
        <time>2015-06-05T16:42:25Z</time>
      </trkpt>
      <trkpt lat="49.13021" lon="-1.41475">
        <ele>68.29281</ele>
        <time>2015-06-05T16:42:30Z</time>
      </trkpt>
      <trkpt lat="49.13022" lon="-1.41468">
        <ele>68.6408</ele>
        <time>2015-06-05T16:42:35Z</time>
      </trkpt>
      <trkpt lat="49.13023" lon="-1.41459">
        <ele>68.6408</ele>
        <time>2015-06-05T16:42:40Z</time>
      </trkpt>
      <trkpt lat="49.13023" lon="-1.41452">
        <ele>68.93507</ele>
        <time>2015-06-05T16:42:45Z</time>
      </trkpt>
      <trkpt lat="49.13025" lon="-1.41443">
        <ele>68.93507</ele>
        <time>2015-06-05T16:42:50Z</time>
      </trkpt>
      <trkpt lat="49.13026" lon="-1.41433">
        <ele>69.16525</ele>
        <time>2015-06-05T16:42:55Z</time>
      </trkpt>
      <trkpt lat="49.13025" lon="-1.4143">
        <ele>69.16525</ele>
        <time>2015-06-05T16:43:00Z</time>
      </trkpt>
      <trkpt lat="49.13026" lon="-1.41423">
        <ele>69.16525</ele>
        <time>2015-06-05T16:43:05Z</time>
      </trkpt>
      <trkpt lat="49.13026" lon="-1.41409">
        <ele>69.26431</ele>
        <time>2015-06-05T16:43:10Z</time>
      </trkpt>
      <trkpt lat="49.13027" lon="-1.41402">
        <ele>69.26431</ele>
        <time>2015-06-05T16:43:15Z</time>
      </trkpt>
      <trkpt lat="49.13029" lon="-1.41393">
        <ele>69.34344</ele>
        <time>2015-06-05T16:43:20Z</time>
      </trkpt>
      <trkpt lat="49.13027" lon="-1.4139">
        <ele>69.34344</ele>
        <time>2015-06-05T16:43:25Z</time>
      </trkpt>
      <trkpt lat="49.13021" lon="-1.41389">
        <ele>69.476906</ele>
        <time>2015-06-05T16:43:30Z</time>
      </trkpt>
      <trkpt lat="49.13017" lon="-1.41389">
        <ele>69.476906</ele>
        <time>2015-06-05T16:43:35Z</time>
      </trkpt>
      <trkpt lat="49.13012" lon="-1.4139">
        <ele>69.476906</ele>
        <time>2015-06-05T16:43:40Z</time>
      </trkpt>
      <trkpt lat="49.1301" lon="-1.41394">
        <ele>69.73337</ele>
        <time>2015-06-05T16:43:45Z</time>
      </trkpt>
      <trkpt lat="49.13008" lon="-1.41401">
        <ele>69.73337</ele>
        <time>2015-06-05T16:43:50Z</time>
      </trkpt>
      <trkpt lat="49.13006" lon="-1.41405">
        <ele>69.73337</ele>
        <time>2015-06-05T16:43:55Z</time>
      </trkpt>
      <trkpt lat="49.13006" lon="-1.41405">
        <ele>69.73337</ele>
        <time>2015-06-05T16:44:00Z</time>
      </trkpt>
      <trkpt lat="49.13006" lon="-1.41405">
        <ele>69.73337</ele>
        <time>2015-06-05T16:44:05Z</time>
      </trkpt>
      <trkpt lat="49.13006" lon="-1.41403">
        <ele>70.03199</ele>
        <time>2015-06-05T16:44:10Z</time>
      </trkpt>
      <trkpt lat="49.13006" lon="-1.41405">
        <ele>70.03199</ele>
        <time>2015-06-05T16:44:15Z</time>
      </trkpt>
      <trkpt lat="49.13006" lon="-1.41406">
        <ele>70.03199</ele>
        <time>2015-06-05T16:44:20Z</time>
      </trkpt>
      <trkpt lat="49.13005" lon="-1.41408">
        <ele>70.03199</ele>
        <time>2015-06-05T16:44:25Z</time>
      </trkpt>
      <trkpt lat="49.13006" lon="-1.41406">
        <ele>70.03199</ele>
        <time>2015-06-05T16:44:30Z</time>
      </trkpt>
      <trkpt lat="49.13006" lon="-1.41406">
        <ele>70.03199</ele>
        <time>2015-06-05T16:44:35Z</time>
      </trkpt>
      <trkpt lat="49.13004" lon="-1.41407">
        <ele>70.03199</ele>
        <time>2015-06-05T16:44:40Z</time>
      </trkpt>
      <trkpt lat="49.13003" lon="-1.41406">
        <ele>70.03199</ele>
        <time>2015-06-05T16:44:45Z</time>
      </trkpt>
      <trkpt lat="49.13003" lon="-1.41408">
        <ele>70.03199</ele>
        <time>2015-06-05T16:44:50Z</time>
      </trkpt>
      <trkpt lat="49.13003" lon="-1.41408">
        <ele>69.980736</ele>
        <time>2015-06-05T16:44:55Z</time>
      </trkpt>
      <trkpt lat="49.13003" lon="-1.41408">
        <ele>69.980736</ele>
        <time>2015-06-05T16:45:00Z</time>
      </trkpt>
      <trkpt lat="49.13004" lon="-1.41407">
        <ele>69.980736</ele>
        <time>2015-06-05T16:45:05Z</time>
      </trkpt>
      <trkpt lat="49.13005" lon="-1.41403">
        <ele>69.980736</ele>
        <time>2015-06-05T16:45:10Z</time>
      </trkpt>
      <trkpt lat="49.13005" lon="-1.41402">
        <ele>69.980736</ele>
        <time>2015-06-05T16:45:20Z</time>
      </trkpt>
    </trkseg>
  </trk>
</gpx>